<?xml version="1.0" encoding="UTF-8" standalone="no" ?>
<gpx xmlns="http://www.topografix.com/GPX/1/1" xmlns:xsi="http://www.w3.org/2001/XMLSchema-instance" xsi:schemaLocation="http://www.topografix.com/GPX/1/1 http://www.topografix.com/GPX/1/1/gpx.xsd" version="1.1" creator="VisuGPX - https://www.visugpx.com">
  <metadata>
    <name>trail foret evreux</name>
    <desc><![CDATA[trail foret evreux]]></desc>
  </metadata>
  <trk>
    <name><![CDATA[trail foret evreux_1]]></name>
    <trkseg>
      <trkpt lat="49.0211" lon="1.12804">
        <ele>118</ele>
        <time>2013-04-21T08:38:04.000Z</time>
      </trkpt>
      <trkpt lat="49.02115" lon="1.12795">
        <ele>118</ele>
        <time>2013-04-21T08:38:17.000Z</time>
      </trkpt>
      <trkpt lat="49.02113" lon="1.12785">
        <ele>117</ele>
        <time>2013-04-21T08:38:21.000Z</time>
      </trkpt>
      <trkpt lat="49.02105" lon="1.1279">
        <ele>117</ele>
        <time>2013-04-21T08:38:25.000Z</time>
      </trkpt>
      <trkpt lat="49.02097" lon="1.12801">
        <ele>117</ele>
        <time>2013-04-21T08:38:29.000Z</time>
      </trkpt>
      <trkpt lat="49.02093" lon="1.12807">
        <ele>117</ele>
        <time>2013-04-21T08:38:31.000Z</time>
      </trkpt>
      <trkpt lat="49.02086" lon="1.12816">
        <ele>117</ele>
        <time>2013-04-21T08:38:35.000Z</time>
      </trkpt>
      <trkpt lat="49.02086" lon="1.12816">
        <ele>117</ele>
        <time>2013-04-21T08:38:37.000Z</time>
      </trkpt>
      <trkpt lat="49.0208" lon="1.12826">
        <ele>117</ele>
        <time>2013-04-21T08:38:39.000Z</time>
      </trkpt>
      <trkpt lat="49.0208" lon="1.12826">
        <ele>117</ele>
        <time>2013-04-21T08:38:41.000Z</time>
      </trkpt>
      <trkpt lat="49.02073" lon="1.12835">
        <ele>117</ele>
        <time>2013-04-21T08:38:43.000Z</time>
      </trkpt>
      <trkpt lat="49.02073" lon="1.12835">
        <ele>117</ele>
        <time>2013-04-21T08:38:45.000Z</time>
      </trkpt>
      <trkpt lat="49.02066" lon="1.12844">
        <ele>117</ele>
        <time>2013-04-21T08:38:47.000Z</time>
      </trkpt>
      <trkpt lat="49.02066" lon="1.12844">
        <ele>117</ele>
        <time>2013-04-21T08:38:49.000Z</time>
      </trkpt>
      <trkpt lat="49.02058" lon="1.12852">
        <ele>117</ele>
        <time>2013-04-21T08:38:51.000Z</time>
      </trkpt>
      <trkpt lat="49.02058" lon="1.12852">
        <ele>117</ele>
        <time>2013-04-21T08:38:53.000Z</time>
      </trkpt>
      <trkpt lat="49.02049" lon="1.12859">
        <ele>117</ele>
        <time>2013-04-21T08:38:55.000Z</time>
      </trkpt>
      <trkpt lat="49.0204" lon="1.12865">
        <ele>117</ele>
        <time>2013-04-21T08:38:59.000Z</time>
      </trkpt>
      <trkpt lat="49.0204" lon="1.12865">
        <ele>117</ele>
        <time>2013-04-21T08:39:01.000Z</time>
      </trkpt>
      <trkpt lat="49.02032" lon="1.12872">
        <ele>116</ele>
        <time>2013-04-21T08:39:03.000Z</time>
      </trkpt>
      <trkpt lat="49.02032" lon="1.12872">
        <ele>116</ele>
        <time>2013-04-21T08:39:05.000Z</time>
      </trkpt>
      <trkpt lat="49.02023" lon="1.12878">
        <ele>116</ele>
        <time>2013-04-21T08:39:07.000Z</time>
      </trkpt>
      <trkpt lat="49.02015" lon="1.12885">
        <ele>116</ele>
        <time>2013-04-21T08:39:11.000Z</time>
      </trkpt>
      <trkpt lat="49.02008" lon="1.12893">
        <ele>116</ele>
        <time>2013-04-21T08:39:15.000Z</time>
      </trkpt>
      <trkpt lat="49.02" lon="1.129">
        <ele>117</ele>
        <time>2013-04-21T08:39:19.000Z</time>
      </trkpt>
      <trkpt lat="49.02" lon="1.129">
        <ele>117</ele>
        <time>2013-04-21T08:39:21.000Z</time>
      </trkpt>
      <trkpt lat="49.01993" lon="1.12904">
        <ele>116</ele>
        <time>2013-04-21T08:39:23.000Z</time>
      </trkpt>
      <trkpt lat="49.01993" lon="1.12904">
        <ele>116</ele>
        <time>2013-04-21T08:39:25.000Z</time>
      </trkpt>
      <trkpt lat="49.01993" lon="1.12904">
        <ele>116</ele>
        <time>2013-04-21T08:39:27.000Z</time>
      </trkpt>
      <trkpt lat="49.01992" lon="1.12895">
        <ele>117</ele>
        <time>2013-04-21T08:39:29.000Z</time>
      </trkpt>
      <trkpt lat="49.01992" lon="1.12895">
        <ele>117</ele>
        <time>2013-04-21T08:39:31.000Z</time>
      </trkpt>
      <trkpt lat="49.01992" lon="1.12895">
        <ele>117</ele>
        <time>2013-04-21T08:39:33.000Z</time>
      </trkpt>
      <trkpt lat="49.01997" lon="1.12889">
        <ele>117</ele>
        <time>2013-04-21T08:39:37.000Z</time>
      </trkpt>
      <trkpt lat="49.01997" lon="1.12889">
        <ele>117</ele>
        <time>2013-04-21T08:39:39.000Z</time>
      </trkpt>
      <trkpt lat="49.01997" lon="1.12889">
        <ele>117</ele>
        <time>2013-04-21T08:39:41.000Z</time>
      </trkpt>
      <trkpt lat="49.01997" lon="1.12889">
        <ele>117</ele>
        <time>2013-04-21T08:39:43.000Z</time>
      </trkpt>
      <trkpt lat="49.01997" lon="1.12889">
        <ele>117</ele>
        <time>2013-04-21T08:39:45.000Z</time>
      </trkpt>
      <trkpt lat="49.01997" lon="1.12889">
        <ele>117</ele>
        <time>2013-04-21T08:39:47.000Z</time>
      </trkpt>
      <trkpt lat="49.01997" lon="1.12889">
        <ele>117</ele>
        <time>2013-04-21T08:39:49.000Z</time>
      </trkpt>
      <trkpt lat="49.01997" lon="1.12889">
        <ele>117</ele>
        <time>2013-04-21T08:39:51.000Z</time>
      </trkpt>
      <trkpt lat="49.01997" lon="1.12884">
        <ele>119</ele>
        <time>2013-04-21T08:39:53.000Z</time>
      </trkpt>
      <trkpt lat="49.01997" lon="1.12879">
        <ele>119</ele>
        <time>2013-04-21T08:39:57.000Z</time>
      </trkpt>
      <trkpt lat="49.01997" lon="1.12879">
        <ele>119</ele>
        <time>2013-04-21T08:40:01.000Z</time>
      </trkpt>
      <trkpt lat="49.01997" lon="1.12879">
        <ele>119</ele>
        <time>2013-04-21T08:40:03.000Z</time>
      </trkpt>
      <trkpt lat="49.01996" lon="1.12875">
        <ele>120</ele>
        <time>2013-04-21T08:40:05.000Z</time>
      </trkpt>
      <trkpt lat="49.01994" lon="1.12871">
        <ele>120</ele>
        <time>2013-04-21T08:40:09.000Z</time>
      </trkpt>
      <trkpt lat="49.01989" lon="1.12873">
        <ele>121</ele>
        <time>2013-04-21T08:40:13.000Z</time>
      </trkpt>
      <trkpt lat="49.01984" lon="1.12876">
        <ele>121</ele>
        <time>2013-04-21T08:40:15.000Z</time>
      </trkpt>
      <trkpt lat="49.01978" lon="1.12881">
        <ele>122</ele>
        <time>2013-04-21T08:40:17.000Z</time>
      </trkpt>
      <trkpt lat="49.01974" lon="1.12885">
        <ele>122</ele>
        <time>2013-04-21T08:40:19.000Z</time>
      </trkpt>
      <trkpt lat="49.01969" lon="1.12889">
        <ele>122</ele>
        <time>2013-04-21T08:40:21.000Z</time>
      </trkpt>
      <trkpt lat="49.0196" lon="1.12896">
        <ele>122</ele>
        <time>2013-04-21T08:40:23.000Z</time>
      </trkpt>
      <trkpt lat="49.01951" lon="1.129">
        <ele>123</ele>
        <time>2013-04-21T08:40:27.000Z</time>
      </trkpt>
      <trkpt lat="49.01941" lon="1.12906">
        <ele>123</ele>
        <time>2013-04-21T08:40:31.000Z</time>
      </trkpt>
      <trkpt lat="49.01933" lon="1.12913">
        <ele>124</ele>
        <time>2013-04-21T08:40:35.000Z</time>
      </trkpt>
      <trkpt lat="49.01933" lon="1.12913">
        <ele>124</ele>
        <time>2013-04-21T08:40:37.000Z</time>
      </trkpt>
      <trkpt lat="49.01925" lon="1.12919">
        <ele>124</ele>
        <time>2013-04-21T08:40:39.000Z</time>
      </trkpt>
      <trkpt lat="49.01916" lon="1.12926">
        <ele>124</ele>
        <time>2013-04-21T08:40:43.000Z</time>
      </trkpt>
      <trkpt lat="49.01908" lon="1.12932">
        <ele>125</ele>
        <time>2013-04-21T08:40:47.000Z</time>
      </trkpt>
      <trkpt lat="49.01908" lon="1.12932">
        <ele>125</ele>
        <time>2013-04-21T08:40:49.000Z</time>
      </trkpt>
      <trkpt lat="49.01901" lon="1.12938">
        <ele>125</ele>
        <time>2013-04-21T08:40:51.000Z</time>
      </trkpt>
      <trkpt lat="49.01894" lon="1.12945">
        <ele>125</ele>
        <time>2013-04-21T08:40:55.000Z</time>
      </trkpt>
      <trkpt lat="49.01886" lon="1.12954">
        <ele>126</ele>
        <time>2013-04-21T08:40:59.000Z</time>
      </trkpt>
      <trkpt lat="49.01878" lon="1.12961">
        <ele>126</ele>
        <time>2013-04-21T08:41:03.000Z</time>
      </trkpt>
      <trkpt lat="49.01878" lon="1.12961">
        <ele>126</ele>
        <time>2013-04-21T08:41:05.000Z</time>
      </trkpt>
      <trkpt lat="49.0187" lon="1.12966">
        <ele>126</ele>
        <time>2013-04-21T08:41:07.000Z</time>
      </trkpt>
      <trkpt lat="49.0187" lon="1.12966">
        <ele>126</ele>
        <time>2013-04-21T08:41:09.000Z</time>
      </trkpt>
      <trkpt lat="49.01862" lon="1.12972">
        <ele>126</ele>
        <time>2013-04-21T08:41:11.000Z</time>
      </trkpt>
      <trkpt lat="49.01854" lon="1.1298">
        <ele>126</ele>
        <time>2013-04-21T08:41:15.000Z</time>
      </trkpt>
      <trkpt lat="49.01847" lon="1.12987">
        <ele>127</ele>
        <time>2013-04-21T08:41:19.000Z</time>
      </trkpt>
      <trkpt lat="49.0184" lon="1.12994">
        <ele>127</ele>
        <time>2013-04-21T08:41:23.000Z</time>
      </trkpt>
      <trkpt lat="49.0184" lon="1.12994">
        <ele>127</ele>
        <time>2013-04-21T08:41:25.000Z</time>
      </trkpt>
      <trkpt lat="49.01834" lon="1.13002">
        <ele>127</ele>
        <time>2013-04-21T08:41:27.000Z</time>
      </trkpt>
      <trkpt lat="49.01834" lon="1.13002">
        <ele>127</ele>
        <time>2013-04-21T08:41:29.000Z</time>
      </trkpt>
      <trkpt lat="49.01828" lon="1.13011">
        <ele>127</ele>
        <time>2013-04-21T08:41:31.000Z</time>
      </trkpt>
      <trkpt lat="49.01821" lon="1.13019">
        <ele>127</ele>
        <time>2013-04-21T08:41:35.000Z</time>
      </trkpt>
      <trkpt lat="49.01812" lon="1.13027">
        <ele>128</ele>
        <time>2013-04-21T08:41:39.000Z</time>
      </trkpt>
      <trkpt lat="49.01805" lon="1.13035">
        <ele>128</ele>
        <time>2013-04-21T08:41:43.000Z</time>
      </trkpt>
      <trkpt lat="49.01766" lon="1.13089">
        <ele>129</ele>
        <time>2013-04-21T08:42:07.000Z</time>
      </trkpt>
      <trkpt lat="49.01766" lon="1.13089">
        <ele>129</ele>
        <time>2013-04-21T08:42:09.000Z</time>
      </trkpt>
      <trkpt lat="49.01759" lon="1.13099">
        <ele>129</ele>
        <time>2013-04-21T08:42:11.000Z</time>
      </trkpt>
      <trkpt lat="49.01759" lon="1.13099">
        <ele>129</ele>
        <time>2013-04-21T08:42:13.000Z</time>
      </trkpt>
      <trkpt lat="49.01753" lon="1.13109">
        <ele>129</ele>
        <time>2013-04-21T08:42:15.000Z</time>
      </trkpt>
      <trkpt lat="49.01753" lon="1.13109">
        <ele>129</ele>
        <time>2013-04-21T08:42:17.000Z</time>
      </trkpt>
      <trkpt lat="49.01747" lon="1.1312">
        <ele>129</ele>
        <time>2013-04-21T08:42:19.000Z</time>
      </trkpt>
      <trkpt lat="49.01747" lon="1.1312">
        <ele>129</ele>
        <time>2013-04-21T08:42:21.000Z</time>
      </trkpt>
      <trkpt lat="49.01743" lon="1.1313">
        <ele>129</ele>
        <time>2013-04-21T08:42:23.000Z</time>
      </trkpt>
      <trkpt lat="49.01738" lon="1.13141">
        <ele>129</ele>
        <time>2013-04-21T08:42:27.000Z</time>
      </trkpt>
      <trkpt lat="49.01733" lon="1.13152">
        <ele>129</ele>
        <time>2013-04-21T08:42:31.000Z</time>
      </trkpt>
      <trkpt lat="49.01733" lon="1.13152">
        <ele>129</ele>
        <time>2013-04-21T08:42:33.000Z</time>
      </trkpt>
      <trkpt lat="49.01728" lon="1.13162">
        <ele>130</ele>
        <time>2013-04-21T08:42:35.000Z</time>
      </trkpt>
      <trkpt lat="49.01728" lon="1.13162">
        <ele>130</ele>
        <time>2013-04-21T08:42:37.000Z</time>
      </trkpt>
      <trkpt lat="49.01722" lon="1.13174">
        <ele>130</ele>
        <time>2013-04-21T08:42:39.000Z</time>
      </trkpt>
      <trkpt lat="49.01716" lon="1.13185">
        <ele>130</ele>
        <time>2013-04-21T08:42:43.000Z</time>
      </trkpt>
      <trkpt lat="49.01716" lon="1.13185">
        <ele>130</ele>
        <time>2013-04-21T08:42:45.000Z</time>
      </trkpt>
      <trkpt lat="49.01714" lon="1.13191">
        <ele>130</ele>
        <time>2013-04-21T08:42:47.000Z</time>
      </trkpt>
      <trkpt lat="49.01712" lon="1.13196">
        <ele>131</ele>
        <time>2013-04-21T08:42:49.000Z</time>
      </trkpt>
      <trkpt lat="49.01709" lon="1.13202">
        <ele>131</ele>
        <time>2013-04-21T08:42:51.000Z</time>
      </trkpt>
      <trkpt lat="49.01707" lon="1.13208">
        <ele>131</ele>
        <time>2013-04-21T08:42:53.000Z</time>
      </trkpt>
      <trkpt lat="49.01705" lon="1.13213">
        <ele>131</ele>
        <time>2013-04-21T08:42:55.000Z</time>
      </trkpt>
      <trkpt lat="49.017" lon="1.13225">
        <ele>131</ele>
        <time>2013-04-21T08:42:57.000Z</time>
      </trkpt>
      <trkpt lat="49.017" lon="1.13225">
        <ele>131</ele>
        <time>2013-04-21T08:42:59.000Z</time>
      </trkpt>
      <trkpt lat="49.01697" lon="1.13235">
        <ele>131</ele>
        <time>2013-04-21T08:43:01.000Z</time>
      </trkpt>
      <trkpt lat="49.01697" lon="1.13235">
        <ele>131</ele>
        <time>2013-04-21T08:43:03.000Z</time>
      </trkpt>
      <trkpt lat="49.01693" lon="1.13245">
        <ele>131</ele>
        <time>2013-04-21T08:43:05.000Z</time>
      </trkpt>
      <trkpt lat="49.01693" lon="1.13245">
        <ele>131</ele>
        <time>2013-04-21T08:43:07.000Z</time>
      </trkpt>
      <trkpt lat="49.0169" lon="1.13256">
        <ele>132</ele>
        <time>2013-04-21T08:43:09.000Z</time>
      </trkpt>
      <trkpt lat="49.01685" lon="1.13269">
        <ele>132</ele>
        <time>2013-04-21T08:43:13.000Z</time>
      </trkpt>
      <trkpt lat="49.01681" lon="1.1328">
        <ele>132</ele>
        <time>2013-04-21T08:43:17.000Z</time>
      </trkpt>
      <trkpt lat="49.01681" lon="1.1328">
        <ele>132</ele>
        <time>2013-04-21T08:43:19.000Z</time>
      </trkpt>
      <trkpt lat="49.01677" lon="1.13292">
        <ele>133</ele>
        <time>2013-04-21T08:43:21.000Z</time>
      </trkpt>
      <trkpt lat="49.01677" lon="1.13292">
        <ele>133</ele>
        <time>2013-04-21T08:43:23.000Z</time>
      </trkpt>
      <trkpt lat="49.01675" lon="1.13304">
        <ele>133</ele>
        <time>2013-04-21T08:43:25.000Z</time>
      </trkpt>
      <trkpt lat="49.01675" lon="1.13304">
        <ele>133</ele>
        <time>2013-04-21T08:43:27.000Z</time>
      </trkpt>
      <trkpt lat="49.01672" lon="1.13315">
        <ele>133</ele>
        <time>2013-04-21T08:43:29.000Z</time>
      </trkpt>
      <trkpt lat="49.01668" lon="1.13328">
        <ele>133</ele>
        <time>2013-04-21T08:43:33.000Z</time>
      </trkpt>
      <trkpt lat="49.01668" lon="1.13328">
        <ele>133</ele>
        <time>2013-04-21T08:43:35.000Z</time>
      </trkpt>
      <trkpt lat="49.01665" lon="1.1334">
        <ele>133</ele>
        <time>2013-04-21T08:43:37.000Z</time>
      </trkpt>
      <trkpt lat="49.01665" lon="1.1334">
        <ele>133</ele>
        <time>2013-04-21T08:43:39.000Z</time>
      </trkpt>
      <trkpt lat="49.01664" lon="1.13352">
        <ele>133</ele>
        <time>2013-04-21T08:43:41.000Z</time>
      </trkpt>
      <trkpt lat="49.01664" lon="1.13352">
        <ele>133</ele>
        <time>2013-04-21T08:43:43.000Z</time>
      </trkpt>
      <trkpt lat="49.01662" lon="1.13367">
        <ele>134</ele>
        <time>2013-04-21T08:43:45.000Z</time>
      </trkpt>
      <trkpt lat="49.01662" lon="1.13367">
        <ele>134</ele>
        <time>2013-04-21T08:43:47.000Z</time>
      </trkpt>
      <trkpt lat="49.01659" lon="1.1338">
        <ele>134</ele>
        <time>2013-04-21T08:43:49.000Z</time>
      </trkpt>
      <trkpt lat="49.01659" lon="1.1338">
        <ele>134</ele>
        <time>2013-04-21T08:43:51.000Z</time>
      </trkpt>
      <trkpt lat="49.01657" lon="1.13392">
        <ele>134</ele>
        <time>2013-04-21T08:43:53.000Z</time>
      </trkpt>
      <trkpt lat="49.01657" lon="1.13392">
        <ele>134</ele>
        <time>2013-04-21T08:43:55.000Z</time>
      </trkpt>
      <trkpt lat="49.01655" lon="1.13405">
        <ele>134</ele>
        <time>2013-04-21T08:43:57.000Z</time>
      </trkpt>
      <trkpt lat="49.01653" lon="1.13419">
        <ele>134</ele>
        <time>2013-04-21T08:44:01.000Z</time>
      </trkpt>
      <trkpt lat="49.01653" lon="1.13419">
        <ele>134</ele>
        <time>2013-04-21T08:44:03.000Z</time>
      </trkpt>
      <trkpt lat="49.01651" lon="1.13431">
        <ele>134</ele>
        <time>2013-04-21T08:44:05.000Z</time>
      </trkpt>
      <trkpt lat="49.01651" lon="1.13431">
        <ele>134</ele>
        <time>2013-04-21T08:44:07.000Z</time>
      </trkpt>
      <trkpt lat="49.01647" lon="1.13443">
        <ele>134</ele>
        <time>2013-04-21T08:44:09.000Z</time>
      </trkpt>
      <trkpt lat="49.01647" lon="1.13443">
        <ele>134</ele>
        <time>2013-04-21T08:44:11.000Z</time>
      </trkpt>
      <trkpt lat="49.01648" lon="1.13455">
        <ele>134</ele>
        <time>2013-04-21T08:44:13.000Z</time>
      </trkpt>
      <trkpt lat="49.01649" lon="1.13469">
        <ele>134</ele>
        <time>2013-04-21T08:44:17.000Z</time>
      </trkpt>
      <trkpt lat="49.01646" lon="1.13481">
        <ele>134</ele>
        <time>2013-04-21T08:44:21.000Z</time>
      </trkpt>
      <trkpt lat="49.01646" lon="1.13481">
        <ele>134</ele>
        <time>2013-04-21T08:44:23.000Z</time>
      </trkpt>
      <trkpt lat="49.01643" lon="1.13493">
        <ele>134</ele>
        <time>2013-04-21T08:44:25.000Z</time>
      </trkpt>
      <trkpt lat="49.01643" lon="1.13493">
        <ele>134</ele>
        <time>2013-04-21T08:44:27.000Z</time>
      </trkpt>
      <trkpt lat="49.01632" lon="1.13494">
        <ele>134</ele>
        <time>2013-04-21T08:44:29.000Z</time>
      </trkpt>
      <trkpt lat="49.01623" lon="1.13488">
        <ele>134</ele>
        <time>2013-04-21T08:44:33.000Z</time>
      </trkpt>
      <trkpt lat="49.01616" lon="1.13477">
        <ele>134</ele>
        <time>2013-04-21T08:44:37.000Z</time>
      </trkpt>
      <trkpt lat="49.01611" lon="1.13463">
        <ele>134</ele>
        <time>2013-04-21T08:44:41.000Z</time>
      </trkpt>
      <trkpt lat="49.0161" lon="1.13447">
        <ele>134</ele>
        <time>2013-04-21T08:44:45.000Z</time>
      </trkpt>
      <trkpt lat="49.0161" lon="1.13447">
        <ele>134</ele>
        <time>2013-04-21T08:44:47.000Z</time>
      </trkpt>
      <trkpt lat="49.01608" lon="1.13432">
        <ele>134</ele>
        <time>2013-04-21T08:44:49.000Z</time>
      </trkpt>
      <trkpt lat="49.01608" lon="1.13432">
        <ele>134</ele>
        <time>2013-04-21T08:44:51.000Z</time>
      </trkpt>
      <trkpt lat="49.01606" lon="1.13419">
        <ele>134</ele>
        <time>2013-04-21T08:44:53.000Z</time>
      </trkpt>
      <trkpt lat="49.01606" lon="1.13419">
        <ele>134</ele>
        <time>2013-04-21T08:44:55.000Z</time>
      </trkpt>
      <trkpt lat="49.01605" lon="1.13412">
        <ele>134</ele>
        <time>2013-04-21T08:44:57.000Z</time>
      </trkpt>
      <trkpt lat="49.01604" lon="1.13405">
        <ele>134</ele>
        <time>2013-04-21T08:44:59.000Z</time>
      </trkpt>
      <trkpt lat="49.01602" lon="1.13398">
        <ele>134</ele>
        <time>2013-04-21T08:45:01.000Z</time>
      </trkpt>
      <trkpt lat="49.01601" lon="1.13391">
        <ele>134</ele>
        <time>2013-04-21T08:45:03.000Z</time>
      </trkpt>
      <trkpt lat="49.016" lon="1.13384">
        <ele>134</ele>
        <time>2013-04-21T08:45:05.000Z</time>
      </trkpt>
      <trkpt lat="49.01599" lon="1.13369">
        <ele>134</ele>
        <time>2013-04-21T08:45:07.000Z</time>
      </trkpt>
      <trkpt lat="49.01598" lon="1.13353">
        <ele>134</ele>
        <time>2013-04-21T08:45:11.000Z</time>
      </trkpt>
      <trkpt lat="49.01596" lon="1.13338">
        <ele>133</ele>
        <time>2013-04-21T08:45:15.000Z</time>
      </trkpt>
      <trkpt lat="49.01596" lon="1.13338">
        <ele>133</ele>
        <time>2013-04-21T08:45:17.000Z</time>
      </trkpt>
      <trkpt lat="49.01593" lon="1.13324">
        <ele>133</ele>
        <time>2013-04-21T08:45:19.000Z</time>
      </trkpt>
      <trkpt lat="49.01593" lon="1.13324">
        <ele>133</ele>
        <time>2013-04-21T08:45:21.000Z</time>
      </trkpt>
      <trkpt lat="49.01591" lon="1.13311">
        <ele>133</ele>
        <time>2013-04-21T08:45:23.000Z</time>
      </trkpt>
      <trkpt lat="49.0159" lon="1.13296">
        <ele>132</ele>
        <time>2013-04-21T08:45:27.000Z</time>
      </trkpt>
      <trkpt lat="49.0159" lon="1.13296">
        <ele>132</ele>
        <time>2013-04-21T08:45:29.000Z</time>
      </trkpt>
      <trkpt lat="49.01588" lon="1.13281">
        <ele>132</ele>
        <time>2013-04-21T08:45:31.000Z</time>
      </trkpt>
      <trkpt lat="49.01588" lon="1.13281">
        <ele>132</ele>
        <time>2013-04-21T08:45:33.000Z</time>
      </trkpt>
      <trkpt lat="49.01587" lon="1.13268">
        <ele>131</ele>
        <time>2013-04-21T08:45:35.000Z</time>
      </trkpt>
      <trkpt lat="49.01585" lon="1.13254">
        <ele>131</ele>
        <time>2013-04-21T08:45:39.000Z</time>
      </trkpt>
      <trkpt lat="49.01582" lon="1.1324">
        <ele>131</ele>
        <time>2013-04-21T08:45:43.000Z</time>
      </trkpt>
      <trkpt lat="49.01579" lon="1.13227">
        <ele>130</ele>
        <time>2013-04-21T08:45:47.000Z</time>
      </trkpt>
      <trkpt lat="49.01579" lon="1.13227">
        <ele>130</ele>
        <time>2013-04-21T08:45:49.000Z</time>
      </trkpt>
      <trkpt lat="49.01577" lon="1.13213">
        <ele>130</ele>
        <time>2013-04-21T08:45:51.000Z</time>
      </trkpt>
      <trkpt lat="49.01575" lon="1.13199">
        <ele>130</ele>
        <time>2013-04-21T08:45:55.000Z</time>
      </trkpt>
      <trkpt lat="49.01574" lon="1.13184">
        <ele>129</ele>
        <time>2013-04-21T08:45:59.000Z</time>
      </trkpt>
      <trkpt lat="49.01574" lon="1.13184">
        <ele>129</ele>
        <time>2013-04-21T08:46:01.000Z</time>
      </trkpt>
      <trkpt lat="49.01572" lon="1.13175">
        <ele>129</ele>
        <time>2013-04-21T08:46:03.000Z</time>
      </trkpt>
      <trkpt lat="49.01572" lon="1.13175">
        <ele>129</ele>
        <time>2013-04-21T08:46:05.000Z</time>
      </trkpt>
      <trkpt lat="49.0157" lon="1.13162">
        <ele>129</ele>
        <time>2013-04-21T08:46:07.000Z</time>
      </trkpt>
      <trkpt lat="49.0157" lon="1.13162">
        <ele>129</ele>
        <time>2013-04-21T08:46:09.000Z</time>
      </trkpt>
      <trkpt lat="49.01569" lon="1.13148">
        <ele>128</ele>
        <time>2013-04-21T08:46:11.000Z</time>
      </trkpt>
      <trkpt lat="49.01569" lon="1.13148">
        <ele>128</ele>
        <time>2013-04-21T08:46:13.000Z</time>
      </trkpt>
      <trkpt lat="49.01567" lon="1.13133">
        <ele>128</ele>
        <time>2013-04-21T08:46:15.000Z</time>
      </trkpt>
      <trkpt lat="49.01567" lon="1.13133">
        <ele>128</ele>
        <time>2013-04-21T08:46:17.000Z</time>
      </trkpt>
      <trkpt lat="49.01564" lon="1.13119">
        <ele>128</ele>
        <time>2013-04-21T08:46:19.000Z</time>
      </trkpt>
      <trkpt lat="49.01563" lon="1.13105">
        <ele>128</ele>
        <time>2013-04-21T08:46:23.000Z</time>
      </trkpt>
      <trkpt lat="49.01561" lon="1.1309">
        <ele>128</ele>
        <time>2013-04-21T08:46:27.000Z</time>
      </trkpt>
      <trkpt lat="49.01561" lon="1.1309">
        <ele>128</ele>
        <time>2013-04-21T08:46:29.000Z</time>
      </trkpt>
      <trkpt lat="49.01559" lon="1.13076">
        <ele>129</ele>
        <time>2013-04-21T08:46:31.000Z</time>
      </trkpt>
      <trkpt lat="49.01559" lon="1.13076">
        <ele>129</ele>
        <time>2013-04-21T08:46:33.000Z</time>
      </trkpt>
      <trkpt lat="49.01558" lon="1.13061">
        <ele>130</ele>
        <time>2013-04-21T08:46:35.000Z</time>
      </trkpt>
      <trkpt lat="49.01556" lon="1.13046">
        <ele>131</ele>
        <time>2013-04-21T08:46:39.000Z</time>
      </trkpt>
      <trkpt lat="49.01555" lon="1.13031">
        <ele>132</ele>
        <time>2013-04-21T08:46:43.000Z</time>
      </trkpt>
      <trkpt lat="49.01555" lon="1.13031">
        <ele>132</ele>
        <time>2013-04-21T08:46:45.000Z</time>
      </trkpt>
      <trkpt lat="49.01552" lon="1.13018">
        <ele>132</ele>
        <time>2013-04-21T08:46:47.000Z</time>
      </trkpt>
      <trkpt lat="49.01552" lon="1.13018">
        <ele>132</ele>
        <time>2013-04-21T08:46:49.000Z</time>
      </trkpt>
      <trkpt lat="49.01552" lon="1.13018">
        <ele>132</ele>
        <time>2013-04-21T08:46:51.000Z</time>
      </trkpt>
      <trkpt lat="49.0155" lon="1.12997">
        <ele>131</ele>
        <time>2013-04-21T08:46:53.000Z</time>
      </trkpt>
      <trkpt lat="49.0155" lon="1.12997">
        <ele>131</ele>
        <time>2013-04-21T08:46:55.000Z</time>
      </trkpt>
      <trkpt lat="49.01548" lon="1.12984">
        <ele>131</ele>
        <time>2013-04-21T08:46:57.000Z</time>
      </trkpt>
      <trkpt lat="49.01548" lon="1.1297">
        <ele>131</ele>
        <time>2013-04-21T08:47:01.000Z</time>
      </trkpt>
      <trkpt lat="49.01548" lon="1.1297">
        <ele>131</ele>
        <time>2013-04-21T08:47:03.000Z</time>
      </trkpt>
      <trkpt lat="49.01547" lon="1.12962">
        <ele>131</ele>
        <time>2013-04-21T08:47:05.000Z</time>
      </trkpt>
      <trkpt lat="49.01547" lon="1.12954">
        <ele>131</ele>
        <time>2013-04-21T08:47:07.000Z</time>
      </trkpt>
      <trkpt lat="49.01547" lon="1.12946">
        <ele>131</ele>
        <time>2013-04-21T08:47:09.000Z</time>
      </trkpt>
      <trkpt lat="49.01546" lon="1.12939">
        <ele>131</ele>
        <time>2013-04-21T08:47:11.000Z</time>
      </trkpt>
      <trkpt lat="49.01546" lon="1.12932">
        <ele>130</ele>
        <time>2013-04-21T08:47:13.000Z</time>
      </trkpt>
      <trkpt lat="49.01545" lon="1.12918">
        <ele>130</ele>
        <time>2013-04-21T08:47:15.000Z</time>
      </trkpt>
      <trkpt lat="49.01545" lon="1.12918">
        <ele>130</ele>
        <time>2013-04-21T08:47:17.000Z</time>
      </trkpt>
      <trkpt lat="49.01542" lon="1.12903">
        <ele>130</ele>
        <time>2013-04-21T08:47:19.000Z</time>
      </trkpt>
      <trkpt lat="49.01543" lon="1.12887">
        <ele>129</ele>
        <time>2013-04-21T08:47:23.000Z</time>
      </trkpt>
      <trkpt lat="49.01543" lon="1.12887">
        <ele>129</ele>
        <time>2013-04-21T08:47:25.000Z</time>
      </trkpt>
      <trkpt lat="49.01544" lon="1.12873">
        <ele>129</ele>
        <time>2013-04-21T08:47:27.000Z</time>
      </trkpt>
      <trkpt lat="49.01545" lon="1.12859">
        <ele>128</ele>
        <time>2013-04-21T08:47:31.000Z</time>
      </trkpt>
      <trkpt lat="49.01544" lon="1.12846">
        <ele>127</ele>
        <time>2013-04-21T08:47:35.000Z</time>
      </trkpt>
      <trkpt lat="49.01544" lon="1.12846">
        <ele>127</ele>
        <time>2013-04-21T08:47:37.000Z</time>
      </trkpt>
      <trkpt lat="49.01543" lon="1.12831">
        <ele>127</ele>
        <time>2013-04-21T08:47:39.000Z</time>
      </trkpt>
      <trkpt lat="49.01543" lon="1.12831">
        <ele>127</ele>
        <time>2013-04-21T08:47:41.000Z</time>
      </trkpt>
      <trkpt lat="49.01545" lon="1.12815">
        <ele>126</ele>
        <time>2013-04-21T08:47:43.000Z</time>
      </trkpt>
      <trkpt lat="49.01545" lon="1.12815">
        <ele>126</ele>
        <time>2013-04-21T08:47:45.000Z</time>
      </trkpt>
      <trkpt lat="49.01547" lon="1.128">
        <ele>125</ele>
        <time>2013-04-21T08:47:47.000Z</time>
      </trkpt>
      <trkpt lat="49.01548" lon="1.12785">
        <ele>125</ele>
        <time>2013-04-21T08:47:51.000Z</time>
      </trkpt>
      <trkpt lat="49.01548" lon="1.12785">
        <ele>125</ele>
        <time>2013-04-21T08:47:53.000Z</time>
      </trkpt>
      <trkpt lat="49.0155" lon="1.1277">
        <ele>124</ele>
        <time>2013-04-21T08:47:55.000Z</time>
      </trkpt>
      <trkpt lat="49.0155" lon="1.1277">
        <ele>124</ele>
        <time>2013-04-21T08:47:57.000Z</time>
      </trkpt>
      <trkpt lat="49.01553" lon="1.12754">
        <ele>124</ele>
        <time>2013-04-21T08:47:59.000Z</time>
      </trkpt>
      <trkpt lat="49.01555" lon="1.1274">
        <ele>123</ele>
        <time>2013-04-21T08:48:03.000Z</time>
      </trkpt>
      <trkpt lat="49.01557" lon="1.12726">
        <ele>123</ele>
        <time>2013-04-21T08:48:07.000Z</time>
      </trkpt>
      <trkpt lat="49.01557" lon="1.12726">
        <ele>123</ele>
        <time>2013-04-21T08:48:09.000Z</time>
      </trkpt>
      <trkpt lat="49.0156" lon="1.12712">
        <ele>122</ele>
        <time>2013-04-21T08:48:11.000Z</time>
      </trkpt>
      <trkpt lat="49.0156" lon="1.12712">
        <ele>122</ele>
        <time>2013-04-21T08:48:13.000Z</time>
      </trkpt>
      <trkpt lat="49.01563" lon="1.12698">
        <ele>122</ele>
        <time>2013-04-21T08:48:15.000Z</time>
      </trkpt>
      <trkpt lat="49.01563" lon="1.12698">
        <ele>122</ele>
        <time>2013-04-21T08:48:17.000Z</time>
      </trkpt>
      <trkpt lat="49.01566" lon="1.12685">
        <ele>121</ele>
        <time>2013-04-21T08:48:19.000Z</time>
      </trkpt>
      <trkpt lat="49.01566" lon="1.12685">
        <ele>121</ele>
        <time>2013-04-21T08:48:21.000Z</time>
      </trkpt>
      <trkpt lat="49.01569" lon="1.1267">
        <ele>121</ele>
        <time>2013-04-21T08:48:23.000Z</time>
      </trkpt>
      <trkpt lat="49.01569" lon="1.1267">
        <ele>121</ele>
        <time>2013-04-21T08:48:25.000Z</time>
      </trkpt>
      <trkpt lat="49.0156" lon="1.12663">
        <ele>120</ele>
        <time>2013-04-21T08:48:27.000Z</time>
      </trkpt>
      <trkpt lat="49.01549" lon="1.12667">
        <ele>120</ele>
        <time>2013-04-21T08:48:31.000Z</time>
      </trkpt>
      <trkpt lat="49.01541" lon="1.12665">
        <ele>120</ele>
        <time>2013-04-21T08:48:35.000Z</time>
      </trkpt>
      <trkpt lat="49.01537" lon="1.12655">
        <ele>120</ele>
        <time>2013-04-21T08:48:39.000Z</time>
      </trkpt>
      <trkpt lat="49.01536" lon="1.12641">
        <ele>120</ele>
        <time>2013-04-21T08:48:43.000Z</time>
      </trkpt>
      <trkpt lat="49.01534" lon="1.12626">
        <ele>120</ele>
        <time>2013-04-21T08:48:47.000Z</time>
      </trkpt>
      <trkpt lat="49.01534" lon="1.12626">
        <ele>120</ele>
        <time>2013-04-21T08:48:49.000Z</time>
      </trkpt>
      <trkpt lat="49.01531" lon="1.12612">
        <ele>119</ele>
        <time>2013-04-21T08:48:51.000Z</time>
      </trkpt>
      <trkpt lat="49.01531" lon="1.12612">
        <ele>119</ele>
        <time>2013-04-21T08:48:53.000Z</time>
      </trkpt>
      <trkpt lat="49.01529" lon="1.12597">
        <ele>119</ele>
        <time>2013-04-21T08:48:55.000Z</time>
      </trkpt>
      <trkpt lat="49.01529" lon="1.12597">
        <ele>119</ele>
        <time>2013-04-21T08:48:57.000Z</time>
      </trkpt>
      <trkpt lat="49.01526" lon="1.12583">
        <ele>119</ele>
        <time>2013-04-21T08:48:59.000Z</time>
      </trkpt>
      <trkpt lat="49.01525" lon="1.12569">
        <ele>119</ele>
        <time>2013-04-21T08:49:03.000Z</time>
      </trkpt>
      <trkpt lat="49.01524" lon="1.12554">
        <ele>119</ele>
        <time>2013-04-21T08:49:07.000Z</time>
      </trkpt>
      <trkpt lat="49.01522" lon="1.12538">
        <ele>119</ele>
        <time>2013-04-21T08:49:11.000Z</time>
      </trkpt>
      <trkpt lat="49.01521" lon="1.12532">
        <ele>119</ele>
        <time>2013-04-21T08:49:15.000Z</time>
      </trkpt>
      <trkpt lat="49.01519" lon="1.12526">
        <ele>119</ele>
        <time>2013-04-21T08:49:17.000Z</time>
      </trkpt>
      <trkpt lat="49.01517" lon="1.12519">
        <ele>119</ele>
        <time>2013-04-21T08:49:19.000Z</time>
      </trkpt>
      <trkpt lat="49.01516" lon="1.12513">
        <ele>119</ele>
        <time>2013-04-21T08:49:21.000Z</time>
      </trkpt>
      <trkpt lat="49.01514" lon="1.12506">
        <ele>119</ele>
        <time>2013-04-21T08:49:23.000Z</time>
      </trkpt>
      <trkpt lat="49.01511" lon="1.12494">
        <ele>119</ele>
        <time>2013-04-21T08:49:25.000Z</time>
      </trkpt>
      <trkpt lat="49.01507" lon="1.12483">
        <ele>120</ele>
        <time>2013-04-21T08:49:29.000Z</time>
      </trkpt>
      <trkpt lat="49.01503" lon="1.1247">
        <ele>121</ele>
        <time>2013-04-21T08:49:33.000Z</time>
      </trkpt>
      <trkpt lat="49.01499" lon="1.12457">
        <ele>121</ele>
        <time>2013-04-21T08:49:37.000Z</time>
      </trkpt>
      <trkpt lat="49.01497" lon="1.12446">
        <ele>121</ele>
        <time>2013-04-21T08:49:41.000Z</time>
      </trkpt>
      <trkpt lat="49.01496" lon="1.12434">
        <ele>122</ele>
        <time>2013-04-21T08:49:45.000Z</time>
      </trkpt>
      <trkpt lat="49.01492" lon="1.12424">
        <ele>122</ele>
        <time>2013-04-21T08:49:49.000Z</time>
      </trkpt>
      <trkpt lat="49.01486" lon="1.12413">
        <ele>123</ele>
        <time>2013-04-21T08:49:53.000Z</time>
      </trkpt>
      <trkpt lat="49.01482" lon="1.124">
        <ele>123</ele>
        <time>2013-04-21T08:49:57.000Z</time>
      </trkpt>
      <trkpt lat="49.01482" lon="1.124">
        <ele>123</ele>
        <time>2013-04-21T08:49:59.000Z</time>
      </trkpt>
      <trkpt lat="49.0148" lon="1.12388">
        <ele>124</ele>
        <time>2013-04-21T08:50:01.000Z</time>
      </trkpt>
      <trkpt lat="49.0148" lon="1.12388">
        <ele>124</ele>
        <time>2013-04-21T08:50:03.000Z</time>
      </trkpt>
      <trkpt lat="49.01477" lon="1.12378">
        <ele>124</ele>
        <time>2013-04-21T08:50:05.000Z</time>
      </trkpt>
      <trkpt lat="49.01472" lon="1.12371">
        <ele>124</ele>
        <time>2013-04-21T08:50:09.000Z</time>
      </trkpt>
      <trkpt lat="49.01472" lon="1.12371">
        <ele>124</ele>
        <time>2013-04-21T08:50:11.000Z</time>
      </trkpt>
      <trkpt lat="49.01464" lon="1.12367">
        <ele>124</ele>
        <time>2013-04-21T08:50:13.000Z</time>
      </trkpt>
      <trkpt lat="49.01464" lon="1.12367">
        <ele>124</ele>
        <time>2013-04-21T08:50:15.000Z</time>
      </trkpt>
      <trkpt lat="49.01457" lon="1.12359">
        <ele>124</ele>
        <time>2013-04-21T08:50:17.000Z</time>
      </trkpt>
      <trkpt lat="49.01457" lon="1.12359">
        <ele>124</ele>
        <time>2013-04-21T08:50:19.000Z</time>
      </trkpt>
      <trkpt lat="49.01453" lon="1.12348">
        <ele>125</ele>
        <time>2013-04-21T08:50:21.000Z</time>
      </trkpt>
      <trkpt lat="49.01453" lon="1.12348">
        <ele>125</ele>
        <time>2013-04-21T08:50:23.000Z</time>
      </trkpt>
      <trkpt lat="49.0145" lon="1.12335">
        <ele>126</ele>
        <time>2013-04-21T08:50:25.000Z</time>
      </trkpt>
      <trkpt lat="49.0145" lon="1.12335">
        <ele>126</ele>
        <time>2013-04-21T08:50:27.000Z</time>
      </trkpt>
      <trkpt lat="49.01447" lon="1.12321">
        <ele>126</ele>
        <time>2013-04-21T08:50:29.000Z</time>
      </trkpt>
      <trkpt lat="49.01442" lon="1.12309">
        <ele>127</ele>
        <time>2013-04-21T08:50:33.000Z</time>
      </trkpt>
      <trkpt lat="49.01442" lon="1.12309">
        <ele>127</ele>
        <time>2013-04-21T08:50:35.000Z</time>
      </trkpt>
      <trkpt lat="49.01435" lon="1.123">
        <ele>128</ele>
        <time>2013-04-21T08:50:37.000Z</time>
      </trkpt>
      <trkpt lat="49.01435" lon="1.123">
        <ele>128</ele>
        <time>2013-04-21T08:50:39.000Z</time>
      </trkpt>
      <trkpt lat="49.01428" lon="1.12298">
        <ele>129</ele>
        <time>2013-04-21T08:50:41.000Z</time>
      </trkpt>
      <trkpt lat="49.01428" lon="1.12298">
        <ele>129</ele>
        <time>2013-04-21T08:50:43.000Z</time>
      </trkpt>
      <trkpt lat="49.01428" lon="1.12298">
        <ele>129</ele>
        <time>2013-04-21T08:50:45.000Z</time>
      </trkpt>
      <trkpt lat="49.01428" lon="1.12298">
        <ele>129</ele>
        <time>2013-04-21T08:50:47.000Z</time>
      </trkpt>
      <trkpt lat="49.01428" lon="1.12298">
        <ele>129</ele>
        <time>2013-04-21T08:50:49.000Z</time>
      </trkpt>
      <trkpt lat="49.01428" lon="1.12298">
        <ele>129</ele>
        <time>2013-04-21T08:50:51.000Z</time>
      </trkpt>
      <trkpt lat="49.01434" lon="1.12296">
        <ele>130</ele>
        <time>2013-04-21T08:50:53.000Z</time>
      </trkpt>
      <trkpt lat="49.01443" lon="1.12302">
        <ele>130</ele>
        <time>2013-04-21T08:50:57.000Z</time>
      </trkpt>
      <trkpt lat="49.01446" lon="1.12309">
        <ele>130</ele>
        <time>2013-04-21T08:50:59.000Z</time>
      </trkpt>
      <trkpt lat="49.01449" lon="1.12317">
        <ele>131</ele>
        <time>2013-04-21T08:51:01.000Z</time>
      </trkpt>
      <trkpt lat="49.01451" lon="1.12332">
        <ele>131</ele>
        <time>2013-04-21T08:51:05.000Z</time>
      </trkpt>
      <trkpt lat="49.01451" lon="1.12332">
        <ele>131</ele>
        <time>2013-04-21T08:51:07.000Z</time>
      </trkpt>
      <trkpt lat="49.01451" lon="1.12332">
        <ele>131</ele>
        <time>2013-04-21T08:51:09.000Z</time>
      </trkpt>
      <trkpt lat="49.01451" lon="1.12332">
        <ele>131</ele>
        <time>2013-04-21T08:51:11.000Z</time>
      </trkpt>
      <trkpt lat="49.01447" lon="1.12319">
        <ele>131</ele>
        <time>2013-04-21T08:51:13.000Z</time>
      </trkpt>
      <trkpt lat="49.01444" lon="1.12313">
        <ele>131</ele>
        <time>2013-04-21T08:51:17.000Z</time>
      </trkpt>
      <trkpt lat="49.01441" lon="1.12307">
        <ele>131</ele>
        <time>2013-04-21T08:51:19.000Z</time>
      </trkpt>
      <trkpt lat="49.01438" lon="1.12302">
        <ele>131</ele>
        <time>2013-04-21T08:51:21.000Z</time>
      </trkpt>
      <trkpt lat="49.01438" lon="1.12302">
        <ele>131</ele>
        <time>2013-04-21T08:51:23.000Z</time>
      </trkpt>
      <trkpt lat="49.01438" lon="1.12302">
        <ele>131</ele>
        <time>2013-04-21T08:51:25.000Z</time>
      </trkpt>
      <trkpt lat="49.01439" lon="1.12307">
        <ele>132</ele>
        <time>2013-04-21T08:51:27.000Z</time>
      </trkpt>
      <trkpt lat="49.01441" lon="1.12312">
        <ele>132</ele>
        <time>2013-04-21T08:51:29.000Z</time>
      </trkpt>
      <trkpt lat="49.01443" lon="1.12317">
        <ele>133</ele>
        <time>2013-04-21T08:51:31.000Z</time>
      </trkpt>
      <trkpt lat="49.01445" lon="1.12323">
        <ele>133</ele>
        <time>2013-04-21T08:51:33.000Z</time>
      </trkpt>
      <trkpt lat="49.01448" lon="1.12328">
        <ele>133</ele>
        <time>2013-04-21T08:51:35.000Z</time>
      </trkpt>
      <trkpt lat="49.01453" lon="1.12336">
        <ele>133</ele>
        <time>2013-04-21T08:51:37.000Z</time>
      </trkpt>
      <trkpt lat="49.01458" lon="1.12345">
        <ele>133</ele>
        <time>2013-04-21T08:51:41.000Z</time>
      </trkpt>
      <trkpt lat="49.01458" lon="1.12345">
        <ele>133</ele>
        <time>2013-04-21T08:51:43.000Z</time>
      </trkpt>
      <trkpt lat="49.0146" lon="1.12356">
        <ele>133</ele>
        <time>2013-04-21T08:51:45.000Z</time>
      </trkpt>
      <trkpt lat="49.0146" lon="1.12356">
        <ele>133</ele>
        <time>2013-04-21T08:51:47.000Z</time>
      </trkpt>
      <trkpt lat="49.01465" lon="1.12366">
        <ele>133</ele>
        <time>2013-04-21T08:51:49.000Z</time>
      </trkpt>
      <trkpt lat="49.01465" lon="1.12366">
        <ele>133</ele>
        <time>2013-04-21T08:51:51.000Z</time>
      </trkpt>
      <trkpt lat="49.01474" lon="1.12374">
        <ele>132</ele>
        <time>2013-04-21T08:51:53.000Z</time>
      </trkpt>
      <trkpt lat="49.01479" lon="1.12378">
        <ele>132</ele>
        <time>2013-04-21T08:51:55.000Z</time>
      </trkpt>
      <trkpt lat="49.01484" lon="1.12384">
        <ele>133</ele>
        <time>2013-04-21T08:51:57.000Z</time>
      </trkpt>
      <trkpt lat="49.01491" lon="1.12382">
        <ele>133</ele>
        <time>2013-04-21T08:52:01.000Z</time>
      </trkpt>
      <trkpt lat="49.01493" lon="1.12368">
        <ele>132</ele>
        <time>2013-04-21T08:52:05.000Z</time>
      </trkpt>
      <trkpt lat="49.01493" lon="1.12354">
        <ele>132</ele>
        <time>2013-04-21T08:52:09.000Z</time>
      </trkpt>
      <trkpt lat="49.01494" lon="1.12339">
        <ele>131</ele>
        <time>2013-04-21T08:52:13.000Z</time>
      </trkpt>
      <trkpt lat="49.01494" lon="1.12339">
        <ele>131</ele>
        <time>2013-04-21T08:52:15.000Z</time>
      </trkpt>
      <trkpt lat="49.01492" lon="1.12326">
        <ele>131</ele>
        <time>2013-04-21T08:52:17.000Z</time>
      </trkpt>
      <trkpt lat="49.01492" lon="1.12326">
        <ele>131</ele>
        <time>2013-04-21T08:52:19.000Z</time>
      </trkpt>
      <trkpt lat="49.01487" lon="1.12316">
        <ele>130</ele>
        <time>2013-04-21T08:52:21.000Z</time>
      </trkpt>
      <trkpt lat="49.01485" lon="1.12303">
        <ele>130</ele>
        <time>2013-04-21T08:52:25.000Z</time>
      </trkpt>
      <trkpt lat="49.01485" lon="1.12291">
        <ele>129</ele>
        <time>2013-04-21T08:52:29.000Z</time>
      </trkpt>
      <trkpt lat="49.01484" lon="1.12276">
        <ele>129</ele>
        <time>2013-04-21T08:52:33.000Z</time>
      </trkpt>
      <trkpt lat="49.01479" lon="1.12263">
        <ele>129</ele>
        <time>2013-04-21T08:52:37.000Z</time>
      </trkpt>
      <trkpt lat="49.01478" lon="1.12247">
        <ele>129</ele>
        <time>2013-04-21T08:52:41.000Z</time>
      </trkpt>
      <trkpt lat="49.01475" lon="1.12231">
        <ele>128</ele>
        <time>2013-04-21T08:52:45.000Z</time>
      </trkpt>
      <trkpt lat="49.01475" lon="1.12231">
        <ele>128</ele>
        <time>2013-04-21T08:52:47.000Z</time>
      </trkpt>
      <trkpt lat="49.01472" lon="1.12217">
        <ele>128</ele>
        <time>2013-04-21T08:52:49.000Z</time>
      </trkpt>
      <trkpt lat="49.01472" lon="1.12217">
        <ele>128</ele>
        <time>2013-04-21T08:52:51.000Z</time>
      </trkpt>
      <trkpt lat="49.01471" lon="1.12204">
        <ele>128</ele>
        <time>2013-04-21T08:52:53.000Z</time>
      </trkpt>
      <trkpt lat="49.01471" lon="1.12204">
        <ele>128</ele>
        <time>2013-04-21T08:52:55.000Z</time>
      </trkpt>
      <trkpt lat="49.01468" lon="1.12192">
        <ele>128</ele>
        <time>2013-04-21T08:52:57.000Z</time>
      </trkpt>
      <trkpt lat="49.01468" lon="1.12192">
        <ele>128</ele>
        <time>2013-04-21T08:52:59.000Z</time>
      </trkpt>
      <trkpt lat="49.01463" lon="1.12182">
        <ele>128</ele>
        <time>2013-04-21T08:53:01.000Z</time>
      </trkpt>
      <trkpt lat="49.01457" lon="1.12172">
        <ele>128</ele>
        <time>2013-04-21T08:53:05.000Z</time>
      </trkpt>
      <trkpt lat="49.01455" lon="1.12159">
        <ele>128</ele>
        <time>2013-04-21T08:53:09.000Z</time>
      </trkpt>
      <trkpt lat="49.01454" lon="1.12144">
        <ele>128</ele>
        <time>2013-04-21T08:53:13.000Z</time>
      </trkpt>
      <trkpt lat="49.01452" lon="1.1213">
        <ele>128</ele>
        <time>2013-04-21T08:53:17.000Z</time>
      </trkpt>
      <trkpt lat="49.01449" lon="1.12117">
        <ele>128</ele>
        <time>2013-04-21T08:53:21.000Z</time>
      </trkpt>
      <trkpt lat="49.01447" lon="1.12106">
        <ele>128</ele>
        <time>2013-04-21T08:53:25.000Z</time>
      </trkpt>
      <trkpt lat="49.01447" lon="1.12106">
        <ele>128</ele>
        <time>2013-04-21T08:53:27.000Z</time>
      </trkpt>
      <trkpt lat="49.01443" lon="1.12094">
        <ele>128</ele>
        <time>2013-04-21T08:53:29.000Z</time>
      </trkpt>
      <trkpt lat="49.01443" lon="1.12094">
        <ele>128</ele>
        <time>2013-04-21T08:53:31.000Z</time>
      </trkpt>
      <trkpt lat="49.01441" lon="1.12079">
        <ele>129</ele>
        <time>2013-04-21T08:53:33.000Z</time>
      </trkpt>
      <trkpt lat="49.01441" lon="1.12079">
        <ele>129</ele>
        <time>2013-04-21T08:53:35.000Z</time>
      </trkpt>
      <trkpt lat="49.01438" lon="1.1207">
        <ele>129</ele>
        <time>2013-04-21T08:53:37.000Z</time>
      </trkpt>
      <trkpt lat="49.01438" lon="1.1207">
        <ele>129</ele>
        <time>2013-04-21T08:53:39.000Z</time>
      </trkpt>
      <trkpt lat="49.01434" lon="1.12071">
        <ele>129</ele>
        <time>2013-04-21T08:53:41.000Z</time>
      </trkpt>
      <trkpt lat="49.0143" lon="1.12072">
        <ele>129</ele>
        <time>2013-04-21T08:53:43.000Z</time>
      </trkpt>
      <trkpt lat="49.01426" lon="1.12072">
        <ele>129</ele>
        <time>2013-04-21T08:53:45.000Z</time>
      </trkpt>
      <trkpt lat="49.01423" lon="1.12071">
        <ele>130</ele>
        <time>2013-04-21T08:53:47.000Z</time>
      </trkpt>
      <trkpt lat="49.01419" lon="1.1207">
        <ele>130</ele>
        <time>2013-04-21T08:53:49.000Z</time>
      </trkpt>
      <trkpt lat="49.01412" lon="1.12069">
        <ele>130</ele>
        <time>2013-04-21T08:53:51.000Z</time>
      </trkpt>
      <trkpt lat="49.01404" lon="1.1207">
        <ele>131</ele>
        <time>2013-04-21T08:53:55.000Z</time>
      </trkpt>
      <trkpt lat="49.01404" lon="1.1207">
        <ele>131</ele>
        <time>2013-04-21T08:53:57.000Z</time>
      </trkpt>
      <trkpt lat="49.01397" lon="1.12068">
        <ele>132</ele>
        <time>2013-04-21T08:53:59.000Z</time>
      </trkpt>
      <trkpt lat="49.0139" lon="1.12064">
        <ele>133</ele>
        <time>2013-04-21T08:54:03.000Z</time>
      </trkpt>
      <trkpt lat="49.01382" lon="1.1206">
        <ele>134</ele>
        <time>2013-04-21T08:54:07.000Z</time>
      </trkpt>
      <trkpt lat="49.01382" lon="1.1206">
        <ele>134</ele>
        <time>2013-04-21T08:54:09.000Z</time>
      </trkpt>
      <trkpt lat="49.01375" lon="1.12054">
        <ele>135</ele>
        <time>2013-04-21T08:54:11.000Z</time>
      </trkpt>
      <trkpt lat="49.01369" lon="1.12046">
        <ele>136</ele>
        <time>2013-04-21T08:54:15.000Z</time>
      </trkpt>
      <trkpt lat="49.01369" lon="1.12046">
        <ele>136</ele>
        <time>2013-04-21T08:54:17.000Z</time>
      </trkpt>
      <trkpt lat="49.01362" lon="1.12041">
        <ele>137</ele>
        <time>2013-04-21T08:54:19.000Z</time>
      </trkpt>
      <trkpt lat="49.01362" lon="1.12041">
        <ele>137</ele>
        <time>2013-04-21T08:54:21.000Z</time>
      </trkpt>
      <trkpt lat="49.01356" lon="1.12039">
        <ele>138</ele>
        <time>2013-04-21T08:54:23.000Z</time>
      </trkpt>
      <trkpt lat="49.01356" lon="1.12039">
        <ele>138</ele>
        <time>2013-04-21T08:54:25.000Z</time>
      </trkpt>
      <trkpt lat="49.0135" lon="1.12033">
        <ele>139</ele>
        <time>2013-04-21T08:54:27.000Z</time>
      </trkpt>
      <trkpt lat="49.01344" lon="1.12031">
        <ele>140</ele>
        <time>2013-04-21T08:54:31.000Z</time>
      </trkpt>
      <trkpt lat="49.01337" lon="1.12029">
        <ele>142</ele>
        <time>2013-04-21T08:54:35.000Z</time>
      </trkpt>
      <trkpt lat="49.01337" lon="1.12029">
        <ele>142</ele>
        <time>2013-04-21T08:54:37.000Z</time>
      </trkpt>
      <trkpt lat="49.01329" lon="1.12027">
        <ele>143</ele>
        <time>2013-04-21T08:54:39.000Z</time>
      </trkpt>
      <trkpt lat="49.01321" lon="1.12027">
        <ele>145</ele>
        <time>2013-04-21T08:54:43.000Z</time>
      </trkpt>
      <trkpt lat="49.01321" lon="1.12027">
        <ele>145</ele>
        <time>2013-04-21T08:54:45.000Z</time>
      </trkpt>
      <trkpt lat="49.01312" lon="1.12028">
        <ele>146</ele>
        <time>2013-04-21T08:54:47.000Z</time>
      </trkpt>
      <trkpt lat="49.01303" lon="1.12022">
        <ele>147</ele>
        <time>2013-04-21T08:54:51.000Z</time>
      </trkpt>
      <trkpt lat="49.01297" lon="1.12022">
        <ele>149</ele>
        <time>2013-04-21T08:54:55.000Z</time>
      </trkpt>
      <trkpt lat="49.01297" lon="1.12022">
        <ele>149</ele>
        <time>2013-04-21T08:54:57.000Z</time>
      </trkpt>
      <trkpt lat="49.01288" lon="1.12019">
        <ele>150</ele>
        <time>2013-04-21T08:54:59.000Z</time>
      </trkpt>
      <trkpt lat="49.01281" lon="1.12018">
        <ele>151</ele>
        <time>2013-04-21T08:55:03.000Z</time>
      </trkpt>
      <trkpt lat="49.01274" lon="1.12017">
        <ele>153</ele>
        <time>2013-04-21T08:55:07.000Z</time>
      </trkpt>
      <trkpt lat="49.01274" lon="1.12017">
        <ele>153</ele>
        <time>2013-04-21T08:55:09.000Z</time>
      </trkpt>
      <trkpt lat="49.01267" lon="1.12016">
        <ele>154</ele>
        <time>2013-04-21T08:55:11.000Z</time>
      </trkpt>
      <trkpt lat="49.01259" lon="1.12011">
        <ele>155</ele>
        <time>2013-04-21T08:55:15.000Z</time>
      </trkpt>
      <trkpt lat="49.01254" lon="1.12018">
        <ele>155</ele>
        <time>2013-04-21T08:55:19.000Z</time>
      </trkpt>
      <trkpt lat="49.01254" lon="1.12018">
        <ele>155</ele>
        <time>2013-04-21T08:55:21.000Z</time>
      </trkpt>
      <trkpt lat="49.01258" lon="1.12028">
        <ele>156</ele>
        <time>2013-04-21T08:55:23.000Z</time>
      </trkpt>
      <trkpt lat="49.01258" lon="1.12028">
        <ele>156</ele>
        <time>2013-04-21T08:55:25.000Z</time>
      </trkpt>
      <trkpt lat="49.01266" lon="1.12036">
        <ele>157</ele>
        <time>2013-04-21T08:55:27.000Z</time>
      </trkpt>
      <trkpt lat="49.01266" lon="1.12036">
        <ele>157</ele>
        <time>2013-04-21T08:55:29.000Z</time>
      </trkpt>
      <trkpt lat="49.01274" lon="1.12045">
        <ele>158</ele>
        <time>2013-04-21T08:55:31.000Z</time>
      </trkpt>
      <trkpt lat="49.01274" lon="1.12045">
        <ele>158</ele>
        <time>2013-04-21T08:55:33.000Z</time>
      </trkpt>
      <trkpt lat="49.01284" lon="1.12048">
        <ele>159</ele>
        <time>2013-04-21T08:55:35.000Z</time>
      </trkpt>
      <trkpt lat="49.01284" lon="1.12048">
        <ele>159</ele>
        <time>2013-04-21T08:55:37.000Z</time>
      </trkpt>
      <trkpt lat="49.01292" lon="1.12039">
        <ele>159</ele>
        <time>2013-04-21T08:55:39.000Z</time>
      </trkpt>
      <trkpt lat="49.01292" lon="1.12039">
        <ele>159</ele>
        <time>2013-04-21T08:55:41.000Z</time>
      </trkpt>
      <trkpt lat="49.01301" lon="1.12029">
        <ele>159</ele>
        <time>2013-04-21T08:55:43.000Z</time>
      </trkpt>
      <trkpt lat="49.01301" lon="1.12029">
        <ele>159</ele>
        <time>2013-04-21T08:55:45.000Z</time>
      </trkpt>
      <trkpt lat="49.01301" lon="1.12017">
        <ele>160</ele>
        <time>2013-04-21T08:55:47.000Z</time>
      </trkpt>
      <trkpt lat="49.01301" lon="1.12017">
        <ele>160</ele>
        <time>2013-04-21T08:55:49.000Z</time>
      </trkpt>
      <trkpt lat="49.01297" lon="1.12016">
        <ele>160</ele>
        <time>2013-04-21T08:55:51.000Z</time>
      </trkpt>
      <trkpt lat="49.01293" lon="1.12015">
        <ele>160</ele>
        <time>2013-04-21T08:55:53.000Z</time>
      </trkpt>
      <trkpt lat="49.01289" lon="1.12015">
        <ele>161</ele>
        <time>2013-04-21T08:55:55.000Z</time>
      </trkpt>
      <trkpt lat="49.01284" lon="1.12015">
        <ele>161</ele>
        <time>2013-04-21T08:55:57.000Z</time>
      </trkpt>
      <trkpt lat="49.0128" lon="1.12015">
        <ele>161</ele>
        <time>2013-04-21T08:55:59.000Z</time>
      </trkpt>
      <trkpt lat="49.01271" lon="1.12015">
        <ele>161</ele>
        <time>2013-04-21T08:56:01.000Z</time>
      </trkpt>
      <trkpt lat="49.01263" lon="1.12012">
        <ele>162</ele>
        <time>2013-04-21T08:56:05.000Z</time>
      </trkpt>
      <trkpt lat="49.01255" lon="1.12011">
        <ele>162</ele>
        <time>2013-04-21T08:56:09.000Z</time>
      </trkpt>
      <trkpt lat="49.01255" lon="1.12011">
        <ele>162</ele>
        <time>2013-04-21T08:56:11.000Z</time>
      </trkpt>
      <trkpt lat="49.01247" lon="1.1201">
        <ele>163</ele>
        <time>2013-04-21T08:56:13.000Z</time>
      </trkpt>
      <trkpt lat="49.01247" lon="1.1201">
        <ele>163</ele>
        <time>2013-04-21T08:56:15.000Z</time>
      </trkpt>
      <trkpt lat="49.01239" lon="1.12006">
        <ele>163</ele>
        <time>2013-04-21T08:56:17.000Z</time>
      </trkpt>
      <trkpt lat="49.01231" lon="1.12007">
        <ele>164</ele>
        <time>2013-04-21T08:56:21.000Z</time>
      </trkpt>
      <trkpt lat="49.01225" lon="1.11997">
        <ele>164</ele>
        <time>2013-04-21T08:56:25.000Z</time>
      </trkpt>
      <trkpt lat="49.0122" lon="1.11992">
        <ele>164</ele>
        <time>2013-04-21T08:56:27.000Z</time>
      </trkpt>
      <trkpt lat="49.01213" lon="1.1199">
        <ele>164</ele>
        <time>2013-04-21T08:56:29.000Z</time>
      </trkpt>
      <trkpt lat="49.01207" lon="1.11987">
        <ele>164</ele>
        <time>2013-04-21T08:56:31.000Z</time>
      </trkpt>
      <trkpt lat="49.01201" lon="1.11984">
        <ele>164</ele>
        <time>2013-04-21T08:56:33.000Z</time>
      </trkpt>
      <trkpt lat="49.01196" lon="1.11983">
        <ele>164</ele>
        <time>2013-04-21T08:56:35.000Z</time>
      </trkpt>
      <trkpt lat="49.0119" lon="1.11984">
        <ele>164</ele>
        <time>2013-04-21T08:56:37.000Z</time>
      </trkpt>
      <trkpt lat="49.0119" lon="1.11984">
        <ele>164</ele>
        <time>2013-04-21T08:56:39.000Z</time>
      </trkpt>
      <trkpt lat="49.0118" lon="1.11986">
        <ele>165</ele>
        <time>2013-04-21T08:56:41.000Z</time>
      </trkpt>
      <trkpt lat="49.01169" lon="1.11989">
        <ele>165</ele>
        <time>2013-04-21T08:56:45.000Z</time>
      </trkpt>
      <trkpt lat="49.01169" lon="1.11989">
        <ele>165</ele>
        <time>2013-04-21T08:56:47.000Z</time>
      </trkpt>
      <trkpt lat="49.01159" lon="1.11992">
        <ele>165</ele>
        <time>2013-04-21T08:56:49.000Z</time>
      </trkpt>
      <trkpt lat="49.01159" lon="1.11992">
        <ele>165</ele>
        <time>2013-04-21T08:56:51.000Z</time>
      </trkpt>
      <trkpt lat="49.01149" lon="1.11991">
        <ele>165</ele>
        <time>2013-04-21T08:56:53.000Z</time>
      </trkpt>
      <trkpt lat="49.01149" lon="1.11991">
        <ele>165</ele>
        <time>2013-04-21T08:56:55.000Z</time>
      </trkpt>
      <trkpt lat="49.0114" lon="1.11995">
        <ele>165</ele>
        <time>2013-04-21T08:56:57.000Z</time>
      </trkpt>
      <trkpt lat="49.0114" lon="1.11995">
        <ele>165</ele>
        <time>2013-04-21T08:56:59.000Z</time>
      </trkpt>
      <trkpt lat="49.01131" lon="1.11994">
        <ele>164</ele>
        <time>2013-04-21T08:57:01.000Z</time>
      </trkpt>
      <trkpt lat="49.0112" lon="1.11989">
        <ele>164</ele>
        <time>2013-04-21T08:57:05.000Z</time>
      </trkpt>
      <trkpt lat="49.01117" lon="1.11972">
        <ele>164</ele>
        <time>2013-04-21T08:57:09.000Z</time>
      </trkpt>
      <trkpt lat="49.01115" lon="1.11962">
        <ele>164</ele>
        <time>2013-04-21T08:57:11.000Z</time>
      </trkpt>
      <trkpt lat="49.01111" lon="1.11947">
        <ele>165</ele>
        <time>2013-04-21T08:57:15.000Z</time>
      </trkpt>
      <trkpt lat="49.01111" lon="1.11947">
        <ele>165</ele>
        <time>2013-04-21T08:57:17.000Z</time>
      </trkpt>
      <trkpt lat="49.01107" lon="1.11933">
        <ele>165</ele>
        <time>2013-04-21T08:57:19.000Z</time>
      </trkpt>
      <trkpt lat="49.01107" lon="1.11933">
        <ele>165</ele>
        <time>2013-04-21T08:57:21.000Z</time>
      </trkpt>
      <trkpt lat="49.011" lon="1.11922">
        <ele>166</ele>
        <time>2013-04-21T08:57:23.000Z</time>
      </trkpt>
      <trkpt lat="49.011" lon="1.11922">
        <ele>166</ele>
        <time>2013-04-21T08:57:25.000Z</time>
      </trkpt>
      <trkpt lat="49.01088" lon="1.11921">
        <ele>166</ele>
        <time>2013-04-21T08:57:27.000Z</time>
      </trkpt>
      <trkpt lat="49.01079" lon="1.1192">
        <ele>166</ele>
        <time>2013-04-21T08:57:31.000Z</time>
      </trkpt>
      <trkpt lat="49.01079" lon="1.1192">
        <ele>166</ele>
        <time>2013-04-21T08:57:33.000Z</time>
      </trkpt>
      <trkpt lat="49.01071" lon="1.11916">
        <ele>166</ele>
        <time>2013-04-21T08:57:35.000Z</time>
      </trkpt>
      <trkpt lat="49.01071" lon="1.11916">
        <ele>166</ele>
        <time>2013-04-21T08:57:37.000Z</time>
      </trkpt>
      <trkpt lat="49.01063" lon="1.11915">
        <ele>167</ele>
        <time>2013-04-21T08:57:39.000Z</time>
      </trkpt>
      <trkpt lat="49.01063" lon="1.11915">
        <ele>167</ele>
        <time>2013-04-21T08:57:41.000Z</time>
      </trkpt>
      <trkpt lat="49.01054" lon="1.11914">
        <ele>167</ele>
        <time>2013-04-21T08:57:43.000Z</time>
      </trkpt>
      <trkpt lat="49.01054" lon="1.11914">
        <ele>167</ele>
        <time>2013-04-21T08:57:45.000Z</time>
      </trkpt>
      <trkpt lat="49.01044" lon="1.1191">
        <ele>167</ele>
        <time>2013-04-21T08:57:47.000Z</time>
      </trkpt>
      <trkpt lat="49.01036" lon="1.11906">
        <ele>167</ele>
        <time>2013-04-21T08:57:51.000Z</time>
      </trkpt>
      <trkpt lat="49.01027" lon="1.11904">
        <ele>168</ele>
        <time>2013-04-21T08:57:55.000Z</time>
      </trkpt>
      <trkpt lat="49.01027" lon="1.11904">
        <ele>168</ele>
        <time>2013-04-21T08:57:57.000Z</time>
      </trkpt>
      <trkpt lat="49.0102" lon="1.119">
        <ele>168</ele>
        <time>2013-04-21T08:57:59.000Z</time>
      </trkpt>
      <trkpt lat="49.01014" lon="1.11892">
        <ele>168</ele>
        <time>2013-04-21T08:58:03.000Z</time>
      </trkpt>
      <trkpt lat="49.01007" lon="1.1189">
        <ele>168</ele>
        <time>2013-04-21T08:58:07.000Z</time>
      </trkpt>
      <trkpt lat="49.00999" lon="1.11891">
        <ele>169</ele>
        <time>2013-04-21T08:58:11.000Z</time>
      </trkpt>
      <trkpt lat="49.00995" lon="1.11891">
        <ele>169</ele>
        <time>2013-04-21T08:58:15.000Z</time>
      </trkpt>
      <trkpt lat="49.00991" lon="1.11891">
        <ele>169</ele>
        <time>2013-04-21T08:58:17.000Z</time>
      </trkpt>
      <trkpt lat="49.00987" lon="1.11891">
        <ele>170</ele>
        <time>2013-04-21T08:58:19.000Z</time>
      </trkpt>
      <trkpt lat="49.00984" lon="1.11891">
        <ele>170</ele>
        <time>2013-04-21T08:58:21.000Z</time>
      </trkpt>
      <trkpt lat="49.0098" lon="1.11891">
        <ele>170</ele>
        <time>2013-04-21T08:58:23.000Z</time>
      </trkpt>
      <trkpt lat="49.00972" lon="1.11892">
        <ele>170</ele>
        <time>2013-04-21T08:58:25.000Z</time>
      </trkpt>
      <trkpt lat="49.00972" lon="1.11892">
        <ele>170</ele>
        <time>2013-04-21T08:58:27.000Z</time>
      </trkpt>
      <trkpt lat="49.00964" lon="1.11889">
        <ele>170</ele>
        <time>2013-04-21T08:58:29.000Z</time>
      </trkpt>
      <trkpt lat="49.00964" lon="1.11889">
        <ele>170</ele>
        <time>2013-04-21T08:58:31.000Z</time>
      </trkpt>
      <trkpt lat="49.00959" lon="1.11879">
        <ele>170</ele>
        <time>2013-04-21T08:58:33.000Z</time>
      </trkpt>
      <trkpt lat="49.00951" lon="1.11873">
        <ele>170</ele>
        <time>2013-04-21T08:58:37.000Z</time>
      </trkpt>
      <trkpt lat="49.00943" lon="1.11869">
        <ele>171</ele>
        <time>2013-04-21T08:58:41.000Z</time>
      </trkpt>
      <trkpt lat="49.00943" lon="1.11869">
        <ele>171</ele>
        <time>2013-04-21T08:58:43.000Z</time>
      </trkpt>
      <trkpt lat="49.00935" lon="1.11866">
        <ele>171</ele>
        <time>2013-04-21T08:58:45.000Z</time>
      </trkpt>
      <trkpt lat="49.00926" lon="1.11861">
        <ele>171</ele>
        <time>2013-04-21T08:58:49.000Z</time>
      </trkpt>
      <trkpt lat="49.00926" lon="1.11861">
        <ele>171</ele>
        <time>2013-04-21T08:58:51.000Z</time>
      </trkpt>
      <trkpt lat="49.00918" lon="1.11857">
        <ele>171</ele>
        <time>2013-04-21T08:58:53.000Z</time>
      </trkpt>
      <trkpt lat="49.00909" lon="1.11855">
        <ele>171</ele>
        <time>2013-04-21T08:58:57.000Z</time>
      </trkpt>
      <trkpt lat="49.009" lon="1.11854">
        <ele>171</ele>
        <time>2013-04-21T08:59:01.000Z</time>
      </trkpt>
      <trkpt lat="49.009" lon="1.11854">
        <ele>171</ele>
        <time>2013-04-21T08:59:03.000Z</time>
      </trkpt>
      <trkpt lat="49.0089" lon="1.11852">
        <ele>171</ele>
        <time>2013-04-21T08:59:05.000Z</time>
      </trkpt>
      <trkpt lat="49.0089" lon="1.11852">
        <ele>171</ele>
        <time>2013-04-21T08:59:07.000Z</time>
      </trkpt>
      <trkpt lat="49.00882" lon="1.11844">
        <ele>171</ele>
        <time>2013-04-21T08:59:09.000Z</time>
      </trkpt>
      <trkpt lat="49.00882" lon="1.11844">
        <ele>171</ele>
        <time>2013-04-21T08:59:11.000Z</time>
      </trkpt>
      <trkpt lat="49.00871" lon="1.11841">
        <ele>171</ele>
        <time>2013-04-21T08:59:13.000Z</time>
      </trkpt>
      <trkpt lat="49.00862" lon="1.11838">
        <ele>172</ele>
        <time>2013-04-21T08:59:17.000Z</time>
      </trkpt>
      <trkpt lat="49.00862" lon="1.11838">
        <ele>172</ele>
        <time>2013-04-21T08:59:19.000Z</time>
      </trkpt>
      <trkpt lat="49.00852" lon="1.11833">
        <ele>172</ele>
        <time>2013-04-21T08:59:21.000Z</time>
      </trkpt>
      <trkpt lat="49.00852" lon="1.11833">
        <ele>172</ele>
        <time>2013-04-21T08:59:23.000Z</time>
      </trkpt>
      <trkpt lat="49.00845" lon="1.11824">
        <ele>172</ele>
        <time>2013-04-21T08:59:25.000Z</time>
      </trkpt>
      <trkpt lat="49.00845" lon="1.11824">
        <ele>172</ele>
        <time>2013-04-21T08:59:27.000Z</time>
      </trkpt>
      <trkpt lat="49.00837" lon="1.11815">
        <ele>172</ele>
        <time>2013-04-21T08:59:29.000Z</time>
      </trkpt>
      <trkpt lat="49.00829" lon="1.11809">
        <ele>172</ele>
        <time>2013-04-21T08:59:33.000Z</time>
      </trkpt>
      <trkpt lat="49.00819" lon="1.11804">
        <ele>172</ele>
        <time>2013-04-21T08:59:37.000Z</time>
      </trkpt>
      <trkpt lat="49.00819" lon="1.11804">
        <ele>172</ele>
        <time>2013-04-21T08:59:39.000Z</time>
      </trkpt>
      <trkpt lat="49.00808" lon="1.118">
        <ele>172</ele>
        <time>2013-04-21T08:59:41.000Z</time>
      </trkpt>
      <trkpt lat="49.00808" lon="1.118">
        <ele>172</ele>
        <time>2013-04-21T08:59:43.000Z</time>
      </trkpt>
      <trkpt lat="49.00799" lon="1.11793">
        <ele>172</ele>
        <time>2013-04-21T08:59:45.000Z</time>
      </trkpt>
      <trkpt lat="49.00799" lon="1.11793">
        <ele>172</ele>
        <time>2013-04-21T08:59:47.000Z</time>
      </trkpt>
      <trkpt lat="49.0079" lon="1.1179">
        <ele>172</ele>
        <time>2013-04-21T08:59:49.000Z</time>
      </trkpt>
      <trkpt lat="49.0079" lon="1.1179">
        <ele>172</ele>
        <time>2013-04-21T08:59:51.000Z</time>
      </trkpt>
      <trkpt lat="49.00781" lon="1.11796">
        <ele>173</ele>
        <time>2013-04-21T08:59:53.000Z</time>
      </trkpt>
      <trkpt lat="49.00781" lon="1.11796">
        <ele>173</ele>
        <time>2013-04-21T08:59:55.000Z</time>
      </trkpt>
      <trkpt lat="49.00771" lon="1.118">
        <ele>173</ele>
        <time>2013-04-21T08:59:57.000Z</time>
      </trkpt>
      <trkpt lat="49.00771" lon="1.118">
        <ele>173</ele>
        <time>2013-04-21T08:59:59.000Z</time>
      </trkpt>
      <trkpt lat="49.00763" lon="1.11797">
        <ele>173</ele>
        <time>2013-04-21T09:00:01.000Z</time>
      </trkpt>
      <trkpt lat="49.00763" lon="1.11797">
        <ele>173</ele>
        <time>2013-04-21T09:00:03.000Z</time>
      </trkpt>
      <trkpt lat="49.00756" lon="1.11785">
        <ele>173</ele>
        <time>2013-04-21T09:00:05.000Z</time>
      </trkpt>
      <trkpt lat="49.00752" lon="1.11778">
        <ele>173</ele>
        <time>2013-04-21T09:00:07.000Z</time>
      </trkpt>
      <trkpt lat="49.00747" lon="1.11773">
        <ele>173</ele>
        <time>2013-04-21T09:00:09.000Z</time>
      </trkpt>
      <trkpt lat="49.00741" lon="1.11772">
        <ele>173</ele>
        <time>2013-04-21T09:00:11.000Z</time>
      </trkpt>
      <trkpt lat="49.00731" lon="1.1177">
        <ele>173</ele>
        <time>2013-04-21T09:00:15.000Z</time>
      </trkpt>
      <trkpt lat="49.00721" lon="1.11768">
        <ele>173</ele>
        <time>2013-04-21T09:00:19.000Z</time>
      </trkpt>
      <trkpt lat="49.00713" lon="1.11757">
        <ele>173</ele>
        <time>2013-04-21T09:00:23.000Z</time>
      </trkpt>
      <trkpt lat="49.00713" lon="1.11757">
        <ele>173</ele>
        <time>2013-04-21T09:00:25.000Z</time>
      </trkpt>
      <trkpt lat="49.00705" lon="1.11746">
        <ele>173</ele>
        <time>2013-04-21T09:00:27.000Z</time>
      </trkpt>
      <trkpt lat="49.00701" lon="1.11745">
        <ele>173</ele>
        <time>2013-04-21T09:00:31.000Z</time>
      </trkpt>
      <trkpt lat="49.00697" lon="1.11744">
        <ele>173</ele>
        <time>2013-04-21T09:00:33.000Z</time>
      </trkpt>
      <trkpt lat="49.00693" lon="1.11743">
        <ele>173</ele>
        <time>2013-04-21T09:00:35.000Z</time>
      </trkpt>
      <trkpt lat="49.00689" lon="1.11743">
        <ele>173</ele>
        <time>2013-04-21T09:00:37.000Z</time>
      </trkpt>
      <trkpt lat="49.00684" lon="1.11744">
        <ele>173</ele>
        <time>2013-04-21T09:00:39.000Z</time>
      </trkpt>
      <trkpt lat="49.00676" lon="1.11744">
        <ele>172</ele>
        <time>2013-04-21T09:00:41.000Z</time>
      </trkpt>
      <trkpt lat="49.00668" lon="1.11738">
        <ele>172</ele>
        <time>2013-04-21T09:00:45.000Z</time>
      </trkpt>
      <trkpt lat="49.0066" lon="1.11732">
        <ele>172</ele>
        <time>2013-04-21T09:00:49.000Z</time>
      </trkpt>
      <trkpt lat="49.0066" lon="1.11732">
        <ele>172</ele>
        <time>2013-04-21T09:00:51.000Z</time>
      </trkpt>
      <trkpt lat="49.00649" lon="1.11737">
        <ele>171</ele>
        <time>2013-04-21T09:00:53.000Z</time>
      </trkpt>
      <trkpt lat="49.00649" lon="1.11737">
        <ele>171</ele>
        <time>2013-04-21T09:00:55.000Z</time>
      </trkpt>
      <trkpt lat="49.00639" lon="1.11741">
        <ele>171</ele>
        <time>2013-04-21T09:00:57.000Z</time>
      </trkpt>
      <trkpt lat="49.00639" lon="1.11741">
        <ele>171</ele>
        <time>2013-04-21T09:00:59.000Z</time>
      </trkpt>
      <trkpt lat="49.00632" lon="1.11737">
        <ele>172</ele>
        <time>2013-04-21T09:01:01.000Z</time>
      </trkpt>
      <trkpt lat="49.00632" lon="1.11737">
        <ele>172</ele>
        <time>2013-04-21T09:01:03.000Z</time>
      </trkpt>
      <trkpt lat="49.0063" lon="1.11723">
        <ele>172</ele>
        <time>2013-04-21T09:01:05.000Z</time>
      </trkpt>
      <trkpt lat="49.00628" lon="1.11707">
        <ele>172</ele>
        <time>2013-04-21T09:01:09.000Z</time>
      </trkpt>
      <trkpt lat="49.00626" lon="1.11696">
        <ele>172</ele>
        <time>2013-04-21T09:01:11.000Z</time>
      </trkpt>
      <trkpt lat="49.00626" lon="1.11696">
        <ele>172</ele>
        <time>2013-04-21T09:01:13.000Z</time>
      </trkpt>
      <trkpt lat="49.00626" lon="1.11683">
        <ele>172</ele>
        <time>2013-04-21T09:01:15.000Z</time>
      </trkpt>
      <trkpt lat="49.00626" lon="1.11683">
        <ele>172</ele>
        <time>2013-04-21T09:01:17.000Z</time>
      </trkpt>
      <trkpt lat="49.00624" lon="1.11673">
        <ele>173</ele>
        <time>2013-04-21T09:01:19.000Z</time>
      </trkpt>
      <trkpt lat="49.00624" lon="1.11673">
        <ele>173</ele>
        <time>2013-04-21T09:01:21.000Z</time>
      </trkpt>
      <trkpt lat="49.00632" lon="1.11686">
        <ele>173</ele>
        <time>2013-04-21T09:01:24.000Z</time>
      </trkpt>
      <trkpt lat="49.00633" lon="1.11699">
        <ele>173</ele>
        <time>2013-04-21T09:01:26.000Z</time>
      </trkpt>
      <trkpt lat="49.00635" lon="1.11709">
        <ele>173</ele>
        <time>2013-04-21T09:01:28.000Z</time>
      </trkpt>
      <trkpt lat="49.00634" lon="1.11718">
        <ele>173</ele>
        <time>2013-04-21T09:01:30.000Z</time>
      </trkpt>
      <trkpt lat="49.00636" lon="1.11733">
        <ele>173</ele>
        <time>2013-04-21T09:01:34.000Z</time>
      </trkpt>
      <trkpt lat="49.0063" lon="1.11741">
        <ele>173</ele>
        <time>2013-04-21T09:01:38.000Z</time>
      </trkpt>
      <trkpt lat="49.0063" lon="1.11741">
        <ele>173</ele>
        <time>2013-04-21T09:01:40.000Z</time>
      </trkpt>
      <trkpt lat="49.00621" lon="1.11734">
        <ele>172</ele>
        <time>2013-04-21T09:01:42.000Z</time>
      </trkpt>
      <trkpt lat="49.00613" lon="1.11724">
        <ele>173</ele>
        <time>2013-04-21T09:01:46.000Z</time>
      </trkpt>
      <trkpt lat="49.00613" lon="1.11724">
        <ele>173</ele>
        <time>2013-04-21T09:01:48.000Z</time>
      </trkpt>
      <trkpt lat="49.00607" lon="1.11711">
        <ele>173</ele>
        <time>2013-04-21T09:01:50.000Z</time>
      </trkpt>
      <trkpt lat="49.00607" lon="1.11711">
        <ele>173</ele>
        <time>2013-04-21T09:01:52.000Z</time>
      </trkpt>
      <trkpt lat="49.00603" lon="1.11695">
        <ele>173</ele>
        <time>2013-04-21T09:01:54.000Z</time>
      </trkpt>
      <trkpt lat="49.00599" lon="1.11688">
        <ele>174</ele>
        <time>2013-04-21T09:01:56.000Z</time>
      </trkpt>
      <trkpt lat="49.00594" lon="1.11683">
        <ele>174</ele>
        <time>2013-04-21T09:01:58.000Z</time>
      </trkpt>
      <trkpt lat="49.00585" lon="1.11677">
        <ele>174</ele>
        <time>2013-04-21T09:02:02.000Z</time>
      </trkpt>
      <trkpt lat="49.00576" lon="1.11682">
        <ele>174</ele>
        <time>2013-04-21T09:02:06.000Z</time>
      </trkpt>
      <trkpt lat="49.00567" lon="1.1169">
        <ele>174</ele>
        <time>2013-04-21T09:02:10.000Z</time>
      </trkpt>
      <trkpt lat="49.00567" lon="1.1169">
        <ele>174</ele>
        <time>2013-04-21T09:02:12.000Z</time>
      </trkpt>
      <trkpt lat="49.00558" lon="1.11691">
        <ele>175</ele>
        <time>2013-04-21T09:02:14.000Z</time>
      </trkpt>
      <trkpt lat="49.00558" lon="1.11691">
        <ele>175</ele>
        <time>2013-04-21T09:02:16.000Z</time>
      </trkpt>
      <trkpt lat="49.00548" lon="1.11685">
        <ele>175</ele>
        <time>2013-04-21T09:02:18.000Z</time>
      </trkpt>
      <trkpt lat="49.00542" lon="1.11684">
        <ele>175</ele>
        <time>2013-04-21T09:02:20.000Z</time>
      </trkpt>
      <trkpt lat="49.00536" lon="1.11684">
        <ele>175</ele>
        <time>2013-04-21T09:02:22.000Z</time>
      </trkpt>
      <trkpt lat="49.00536" lon="1.11684">
        <ele>175</ele>
        <time>2013-04-21T09:02:24.000Z</time>
      </trkpt>
      <trkpt lat="49.00526" lon="1.11687">
        <ele>174</ele>
        <time>2013-04-21T09:02:26.000Z</time>
      </trkpt>
      <trkpt lat="49.00526" lon="1.11687">
        <ele>174</ele>
        <time>2013-04-21T09:02:28.000Z</time>
      </trkpt>
      <trkpt lat="49.00517" lon="1.11691">
        <ele>174</ele>
        <time>2013-04-21T09:02:30.000Z</time>
      </trkpt>
      <trkpt lat="49.00517" lon="1.11691">
        <ele>174</ele>
        <time>2013-04-21T09:02:32.000Z</time>
      </trkpt>
      <trkpt lat="49.00517" lon="1.11691">
        <ele>174</ele>
        <time>2013-04-21T09:02:34.000Z</time>
      </trkpt>
      <trkpt lat="49.00522" lon="1.11698">
        <ele>174</ele>
        <time>2013-04-21T09:02:36.000Z</time>
      </trkpt>
      <trkpt lat="49.00522" lon="1.11698">
        <ele>174</ele>
        <time>2013-04-21T09:02:38.000Z</time>
      </trkpt>
      <trkpt lat="49.00529" lon="1.11696">
        <ele>174</ele>
        <time>2013-04-21T09:02:40.000Z</time>
      </trkpt>
      <trkpt lat="49.00537" lon="1.11689">
        <ele>174</ele>
        <time>2013-04-21T09:02:44.000Z</time>
      </trkpt>
      <trkpt lat="49.00547" lon="1.11685">
        <ele>173</ele>
        <time>2013-04-21T09:02:48.000Z</time>
      </trkpt>
      <trkpt lat="49.00556" lon="1.11686">
        <ele>174</ele>
        <time>2013-04-21T09:02:52.000Z</time>
      </trkpt>
      <trkpt lat="49.00556" lon="1.11686">
        <ele>174</ele>
        <time>2013-04-21T09:02:54.000Z</time>
      </trkpt>
      <trkpt lat="49.0056" lon="1.11689">
        <ele>174</ele>
        <time>2013-04-21T09:02:56.000Z</time>
      </trkpt>
      <trkpt lat="49.00564" lon="1.11691">
        <ele>174</ele>
        <time>2013-04-21T09:02:58.000Z</time>
      </trkpt>
      <trkpt lat="49.00567" lon="1.11693">
        <ele>174</ele>
        <time>2013-04-21T09:03:00.000Z</time>
      </trkpt>
      <trkpt lat="49.0057" lon="1.11693">
        <ele>174</ele>
        <time>2013-04-21T09:03:02.000Z</time>
      </trkpt>
      <trkpt lat="49.0057" lon="1.11693">
        <ele>174</ele>
        <time>2013-04-21T09:03:04.000Z</time>
      </trkpt>
      <trkpt lat="49.0057" lon="1.11693">
        <ele>174</ele>
        <time>2013-04-21T09:03:06.000Z</time>
      </trkpt>
      <trkpt lat="49.00565" lon="1.11693">
        <ele>174</ele>
        <time>2013-04-21T09:03:08.000Z</time>
      </trkpt>
      <trkpt lat="49.0056" lon="1.11691">
        <ele>174</ele>
        <time>2013-04-21T09:03:10.000Z</time>
      </trkpt>
      <trkpt lat="49.00555" lon="1.11689">
        <ele>174</ele>
        <time>2013-04-21T09:03:12.000Z</time>
      </trkpt>
      <trkpt lat="49.0055" lon="1.11687">
        <ele>174</ele>
        <time>2013-04-21T09:03:14.000Z</time>
      </trkpt>
      <trkpt lat="49.00546" lon="1.11685">
        <ele>174</ele>
        <time>2013-04-21T09:03:16.000Z</time>
      </trkpt>
      <trkpt lat="49.00536" lon="1.11683">
        <ele>174</ele>
        <time>2013-04-21T09:03:18.000Z</time>
      </trkpt>
      <trkpt lat="49.00527" lon="1.11683">
        <ele>174</ele>
        <time>2013-04-21T09:03:22.000Z</time>
      </trkpt>
      <trkpt lat="49.00527" lon="1.11683">
        <ele>174</ele>
        <time>2013-04-21T09:03:24.000Z</time>
      </trkpt>
      <trkpt lat="49.0052" lon="1.11687">
        <ele>175</ele>
        <time>2013-04-21T09:03:26.000Z</time>
      </trkpt>
      <trkpt lat="49.0052" lon="1.11687">
        <ele>175</ele>
        <time>2013-04-21T09:03:28.000Z</time>
      </trkpt>
      <trkpt lat="49.00514" lon="1.11694">
        <ele>175</ele>
        <time>2013-04-21T09:03:30.000Z</time>
      </trkpt>
      <trkpt lat="49.00514" lon="1.11694">
        <ele>175</ele>
        <time>2013-04-21T09:03:32.000Z</time>
      </trkpt>
      <trkpt lat="49.00514" lon="1.11694">
        <ele>175</ele>
        <time>2013-04-21T09:03:34.000Z</time>
      </trkpt>
      <trkpt lat="49.00517" lon="1.11707">
        <ele>174</ele>
        <time>2013-04-21T09:03:36.000Z</time>
      </trkpt>
      <trkpt lat="49.00515" lon="1.11723">
        <ele>174</ele>
        <time>2013-04-21T09:03:40.000Z</time>
      </trkpt>
      <trkpt lat="49.00513" lon="1.11737">
        <ele>174</ele>
        <time>2013-04-21T09:03:44.000Z</time>
      </trkpt>
      <trkpt lat="49.00513" lon="1.11751">
        <ele>174</ele>
        <time>2013-04-21T09:03:48.000Z</time>
      </trkpt>
      <trkpt lat="49.00511" lon="1.11766">
        <ele>174</ele>
        <time>2013-04-21T09:03:52.000Z</time>
      </trkpt>
      <trkpt lat="49.00508" lon="1.11779">
        <ele>174</ele>
        <time>2013-04-21T09:03:56.000Z</time>
      </trkpt>
      <trkpt lat="49.00508" lon="1.11779">
        <ele>174</ele>
        <time>2013-04-21T09:03:58.000Z</time>
      </trkpt>
      <trkpt lat="49.00509" lon="1.11792">
        <ele>174</ele>
        <time>2013-04-21T09:04:00.000Z</time>
      </trkpt>
      <trkpt lat="49.00507" lon="1.11807">
        <ele>174</ele>
        <time>2013-04-21T09:04:04.000Z</time>
      </trkpt>
      <trkpt lat="49.00505" lon="1.11822">
        <ele>174</ele>
        <time>2013-04-21T09:04:08.000Z</time>
      </trkpt>
      <trkpt lat="49.00505" lon="1.11822">
        <ele>174</ele>
        <time>2013-04-21T09:04:10.000Z</time>
      </trkpt>
      <trkpt lat="49.00504" lon="1.11835">
        <ele>173</ele>
        <time>2013-04-21T09:04:12.000Z</time>
      </trkpt>
      <trkpt lat="49.00504" lon="1.11835">
        <ele>173</ele>
        <time>2013-04-21T09:04:14.000Z</time>
      </trkpt>
      <trkpt lat="49.00503" lon="1.11848">
        <ele>173</ele>
        <time>2013-04-21T09:04:16.000Z</time>
      </trkpt>
      <trkpt lat="49.00503" lon="1.11848">
        <ele>173</ele>
        <time>2013-04-21T09:04:18.000Z</time>
      </trkpt>
      <trkpt lat="49.005" lon="1.11862">
        <ele>173</ele>
        <time>2013-04-21T09:04:20.000Z</time>
      </trkpt>
      <trkpt lat="49.00496" lon="1.11877">
        <ele>173</ele>
        <time>2013-04-21T09:04:24.000Z</time>
      </trkpt>
      <trkpt lat="49.00496" lon="1.11886">
        <ele>173</ele>
        <time>2013-04-21T09:04:26.000Z</time>
      </trkpt>
      <trkpt lat="49.00496" lon="1.11886">
        <ele>173</ele>
        <time>2013-04-21T09:04:28.000Z</time>
      </trkpt>
      <trkpt lat="49.00495" lon="1.11901">
        <ele>172</ele>
        <time>2013-04-21T09:04:30.000Z</time>
      </trkpt>
      <trkpt lat="49.00494" lon="1.1191">
        <ele>172</ele>
        <time>2013-04-21T09:04:32.000Z</time>
      </trkpt>
      <trkpt lat="49.00493" lon="1.11919">
        <ele>172</ele>
        <time>2013-04-21T09:04:34.000Z</time>
      </trkpt>
      <trkpt lat="49.00492" lon="1.11928">
        <ele>172</ele>
        <time>2013-04-21T09:04:36.000Z</time>
      </trkpt>
      <trkpt lat="49.00491" lon="1.11944">
        <ele>172</ele>
        <time>2013-04-21T09:04:40.000Z</time>
      </trkpt>
      <trkpt lat="49.0049" lon="1.11959">
        <ele>172</ele>
        <time>2013-04-21T09:04:44.000Z</time>
      </trkpt>
      <trkpt lat="49.0049" lon="1.11959">
        <ele>172</ele>
        <time>2013-04-21T09:04:46.000Z</time>
      </trkpt>
      <trkpt lat="49.00489" lon="1.11973">
        <ele>172</ele>
        <time>2013-04-21T09:04:48.000Z</time>
      </trkpt>
      <trkpt lat="49.00489" lon="1.11973">
        <ele>172</ele>
        <time>2013-04-21T09:04:50.000Z</time>
      </trkpt>
      <trkpt lat="49.00487" lon="1.11987">
        <ele>173</ele>
        <time>2013-04-21T09:04:52.000Z</time>
      </trkpt>
      <trkpt lat="49.00484" lon="1.12004">
        <ele>173</ele>
        <time>2013-04-21T09:04:56.000Z</time>
      </trkpt>
      <trkpt lat="49.00482" lon="1.12019">
        <ele>173</ele>
        <time>2013-04-21T09:05:00.000Z</time>
      </trkpt>
      <trkpt lat="49.0048" lon="1.12028">
        <ele>173</ele>
        <time>2013-04-21T09:05:02.000Z</time>
      </trkpt>
      <trkpt lat="49.0048" lon="1.12028">
        <ele>173</ele>
        <time>2013-04-21T09:05:04.000Z</time>
      </trkpt>
      <trkpt lat="49.00478" lon="1.12044">
        <ele>173</ele>
        <time>2013-04-21T09:05:06.000Z</time>
      </trkpt>
      <trkpt lat="49.00476" lon="1.1206">
        <ele>174</ele>
        <time>2013-04-21T09:05:10.000Z</time>
      </trkpt>
      <trkpt lat="49.00473" lon="1.12075">
        <ele>174</ele>
        <time>2013-04-21T09:05:14.000Z</time>
      </trkpt>
      <trkpt lat="49.00473" lon="1.12075">
        <ele>174</ele>
        <time>2013-04-21T09:05:16.000Z</time>
      </trkpt>
      <trkpt lat="49.00471" lon="1.1209">
        <ele>174</ele>
        <time>2013-04-21T09:05:18.000Z</time>
      </trkpt>
      <trkpt lat="49.00471" lon="1.1209">
        <ele>174</ele>
        <time>2013-04-21T09:05:20.000Z</time>
      </trkpt>
      <trkpt lat="49.0047" lon="1.12104">
        <ele>175</ele>
        <time>2013-04-21T09:05:22.000Z</time>
      </trkpt>
      <trkpt lat="49.0047" lon="1.12104">
        <ele>175</ele>
        <time>2013-04-21T09:05:24.000Z</time>
      </trkpt>
      <trkpt lat="49.0047" lon="1.12111">
        <ele>175</ele>
        <time>2013-04-21T09:05:26.000Z</time>
      </trkpt>
      <trkpt lat="49.00469" lon="1.12118">
        <ele>175</ele>
        <time>2013-04-21T09:05:28.000Z</time>
      </trkpt>
      <trkpt lat="49.00468" lon="1.12125">
        <ele>175</ele>
        <time>2013-04-21T09:05:30.000Z</time>
      </trkpt>
      <trkpt lat="49.00468" lon="1.12132">
        <ele>175</ele>
        <time>2013-04-21T09:05:32.000Z</time>
      </trkpt>
      <trkpt lat="49.00468" lon="1.12139">
        <ele>175</ele>
        <time>2013-04-21T09:05:34.000Z</time>
      </trkpt>
      <trkpt lat="49.00468" lon="1.12152">
        <ele>175</ele>
        <time>2013-04-21T09:05:36.000Z</time>
      </trkpt>
      <trkpt lat="49.00468" lon="1.12152">
        <ele>175</ele>
        <time>2013-04-21T09:05:38.000Z</time>
      </trkpt>
      <trkpt lat="49.00467" lon="1.12167">
        <ele>175</ele>
        <time>2013-04-21T09:05:40.000Z</time>
      </trkpt>
      <trkpt lat="49.00466" lon="1.12181">
        <ele>175</ele>
        <time>2013-04-21T09:05:44.000Z</time>
      </trkpt>
      <trkpt lat="49.00464" lon="1.1219">
        <ele>175</ele>
        <time>2013-04-21T09:05:46.000Z</time>
      </trkpt>
      <trkpt lat="49.00463" lon="1.122">
        <ele>175</ele>
        <time>2013-04-21T09:05:48.000Z</time>
      </trkpt>
      <trkpt lat="49.00463" lon="1.122">
        <ele>175</ele>
        <time>2013-04-21T09:05:50.000Z</time>
      </trkpt>
      <trkpt lat="49.00461" lon="1.12215">
        <ele>175</ele>
        <time>2013-04-21T09:05:52.000Z</time>
      </trkpt>
      <trkpt lat="49.00461" lon="1.12215">
        <ele>175</ele>
        <time>2013-04-21T09:05:54.000Z</time>
      </trkpt>
      <trkpt lat="49.00458" lon="1.1223">
        <ele>175</ele>
        <time>2013-04-21T09:05:56.000Z</time>
      </trkpt>
      <trkpt lat="49.00458" lon="1.1223">
        <ele>175</ele>
        <time>2013-04-21T09:05:58.000Z</time>
      </trkpt>
      <trkpt lat="49.00455" lon="1.12244">
        <ele>174</ele>
        <time>2013-04-21T09:06:00.000Z</time>
      </trkpt>
      <trkpt lat="49.00453" lon="1.12258">
        <ele>174</ele>
        <time>2013-04-21T09:06:04.000Z</time>
      </trkpt>
      <trkpt lat="49.00447" lon="1.1227">
        <ele>174</ele>
        <time>2013-04-21T09:06:08.000Z</time>
      </trkpt>
      <trkpt lat="49.00447" lon="1.1227">
        <ele>174</ele>
        <time>2013-04-21T09:06:10.000Z</time>
      </trkpt>
      <trkpt lat="49.00438" lon="1.12275">
        <ele>174</ele>
        <time>2013-04-21T09:06:12.000Z</time>
      </trkpt>
      <trkpt lat="49.00438" lon="1.12275">
        <ele>174</ele>
        <time>2013-04-21T09:06:14.000Z</time>
      </trkpt>
      <trkpt lat="49.00427" lon="1.12271">
        <ele>173</ele>
        <time>2013-04-21T09:06:16.000Z</time>
      </trkpt>
      <trkpt lat="49.00427" lon="1.12271">
        <ele>173</ele>
        <time>2013-04-21T09:06:18.000Z</time>
      </trkpt>
      <trkpt lat="49.00418" lon="1.12269">
        <ele>173</ele>
        <time>2013-04-21T09:06:20.000Z</time>
      </trkpt>
      <trkpt lat="49.00418" lon="1.12269">
        <ele>173</ele>
        <time>2013-04-21T09:06:22.000Z</time>
      </trkpt>
      <trkpt lat="49.00411" lon="1.12266">
        <ele>173</ele>
        <time>2013-04-21T09:06:24.000Z</time>
      </trkpt>
      <trkpt lat="49.00401" lon="1.12262">
        <ele>173</ele>
        <time>2013-04-21T09:06:28.000Z</time>
      </trkpt>
      <trkpt lat="49.00392" lon="1.12256">
        <ele>173</ele>
        <time>2013-04-21T09:06:32.000Z</time>
      </trkpt>
      <trkpt lat="49.00384" lon="1.1225">
        <ele>172</ele>
        <time>2013-04-21T09:06:36.000Z</time>
      </trkpt>
      <trkpt lat="49.00384" lon="1.1225">
        <ele>172</ele>
        <time>2013-04-21T09:06:38.000Z</time>
      </trkpt>
      <trkpt lat="49.00376" lon="1.12245">
        <ele>172</ele>
        <time>2013-04-21T09:06:40.000Z</time>
      </trkpt>
      <trkpt lat="49.00376" lon="1.12245">
        <ele>172</ele>
        <time>2013-04-21T09:06:42.000Z</time>
      </trkpt>
      <trkpt lat="49.00369" lon="1.1224">
        <ele>171</ele>
        <time>2013-04-21T09:06:44.000Z</time>
      </trkpt>
      <trkpt lat="49.00362" lon="1.12234">
        <ele>171</ele>
        <time>2013-04-21T09:06:48.000Z</time>
      </trkpt>
      <trkpt lat="49.00354" lon="1.12227">
        <ele>171</ele>
        <time>2013-04-21T09:06:52.000Z</time>
      </trkpt>
      <trkpt lat="49.00345" lon="1.12219">
        <ele>170</ele>
        <time>2013-04-21T09:06:56.000Z</time>
      </trkpt>
      <trkpt lat="49.00336" lon="1.12212">
        <ele>169</ele>
        <time>2013-04-21T09:07:00.000Z</time>
      </trkpt>
      <trkpt lat="49.00336" lon="1.12212">
        <ele>169</ele>
        <time>2013-04-21T09:07:02.000Z</time>
      </trkpt>
      <trkpt lat="49.00327" lon="1.12205">
        <ele>169</ele>
        <time>2013-04-21T09:07:04.000Z</time>
      </trkpt>
      <trkpt lat="49.00317" lon="1.122">
        <ele>169</ele>
        <time>2013-04-21T09:07:08.000Z</time>
      </trkpt>
      <trkpt lat="49.00309" lon="1.12195">
        <ele>168</ele>
        <time>2013-04-21T09:07:12.000Z</time>
      </trkpt>
      <trkpt lat="49.00309" lon="1.12195">
        <ele>168</ele>
        <time>2013-04-21T09:07:14.000Z</time>
      </trkpt>
      <trkpt lat="49.00299" lon="1.12192">
        <ele>167</ele>
        <time>2013-04-21T09:07:16.000Z</time>
      </trkpt>
      <trkpt lat="49.0029" lon="1.12186">
        <ele>167</ele>
        <time>2013-04-21T09:07:20.000Z</time>
      </trkpt>
      <trkpt lat="49.0029" lon="1.12186">
        <ele>167</ele>
        <time>2013-04-21T09:07:22.000Z</time>
      </trkpt>
      <trkpt lat="49.00281" lon="1.1218">
        <ele>166</ele>
        <time>2013-04-21T09:07:24.000Z</time>
      </trkpt>
      <trkpt lat="49.00281" lon="1.1218">
        <ele>166</ele>
        <time>2013-04-21T09:07:26.000Z</time>
      </trkpt>
      <trkpt lat="49.00274" lon="1.12173">
        <ele>165</ele>
        <time>2013-04-21T09:07:28.000Z</time>
      </trkpt>
      <trkpt lat="49.00274" lon="1.12173">
        <ele>165</ele>
        <time>2013-04-21T09:07:30.000Z</time>
      </trkpt>
      <trkpt lat="49.00264" lon="1.12167">
        <ele>164</ele>
        <time>2013-04-21T09:07:32.000Z</time>
      </trkpt>
      <trkpt lat="49.00254" lon="1.1216">
        <ele>163</ele>
        <time>2013-04-21T09:07:36.000Z</time>
      </trkpt>
      <trkpt lat="49.00254" lon="1.1216">
        <ele>163</ele>
        <time>2013-04-21T09:07:38.000Z</time>
      </trkpt>
      <trkpt lat="49.0025" lon="1.12156">
        <ele>162</ele>
        <time>2013-04-21T09:07:40.000Z</time>
      </trkpt>
      <trkpt lat="49.00246" lon="1.12151">
        <ele>162</ele>
        <time>2013-04-21T09:07:42.000Z</time>
      </trkpt>
      <trkpt lat="49.00243" lon="1.12145">
        <ele>162</ele>
        <time>2013-04-21T09:07:44.000Z</time>
      </trkpt>
      <trkpt lat="49.0024" lon="1.1214">
        <ele>161</ele>
        <time>2013-04-21T09:07:46.000Z</time>
      </trkpt>
      <trkpt lat="49.00238" lon="1.12134">
        <ele>161</ele>
        <time>2013-04-21T09:07:48.000Z</time>
      </trkpt>
      <trkpt lat="49.00234" lon="1.12121">
        <ele>160</ele>
        <time>2013-04-21T09:07:50.000Z</time>
      </trkpt>
      <trkpt lat="49.00228" lon="1.12109">
        <ele>159</ele>
        <time>2013-04-21T09:07:54.000Z</time>
      </trkpt>
      <trkpt lat="49.00228" lon="1.12109">
        <ele>159</ele>
        <time>2013-04-21T09:07:56.000Z</time>
      </trkpt>
      <trkpt lat="49.00222" lon="1.12098">
        <ele>158</ele>
        <time>2013-04-21T09:07:58.000Z</time>
      </trkpt>
      <trkpt lat="49.00216" lon="1.12089">
        <ele>156</ele>
        <time>2013-04-21T09:08:02.000Z</time>
      </trkpt>
      <trkpt lat="49.00216" lon="1.12089">
        <ele>156</ele>
        <time>2013-04-21T09:08:04.000Z</time>
      </trkpt>
      <trkpt lat="49.00209" lon="1.1208">
        <ele>155</ele>
        <time>2013-04-21T09:08:06.000Z</time>
      </trkpt>
      <trkpt lat="49.00202" lon="1.1207">
        <ele>154</ele>
        <time>2013-04-21T09:08:10.000Z</time>
      </trkpt>
      <trkpt lat="49.00193" lon="1.12063">
        <ele>154</ele>
        <time>2013-04-21T09:08:14.000Z</time>
      </trkpt>
      <trkpt lat="49.00193" lon="1.12063">
        <ele>154</ele>
        <time>2013-04-21T09:08:16.000Z</time>
      </trkpt>
      <trkpt lat="49.00193" lon="1.12063">
        <ele>154</ele>
        <time>2013-04-21T09:08:18.000Z</time>
      </trkpt>
      <trkpt lat="49.00193" lon="1.12063">
        <ele>154</ele>
        <time>2013-04-21T09:08:20.000Z</time>
      </trkpt>
      <trkpt lat="49.00182" lon="1.12054">
        <ele>154</ele>
        <time>2013-04-21T09:08:22.000Z</time>
      </trkpt>
      <trkpt lat="49.00177" lon="1.12045">
        <ele>154</ele>
        <time>2013-04-21T09:08:26.000Z</time>
      </trkpt>
      <trkpt lat="49.00169" lon="1.12038">
        <ele>154</ele>
        <time>2013-04-21T09:08:30.000Z</time>
      </trkpt>
      <trkpt lat="49.00161" lon="1.12035">
        <ele>154</ele>
        <time>2013-04-21T09:08:34.000Z</time>
      </trkpt>
      <trkpt lat="49.00161" lon="1.12035">
        <ele>154</ele>
        <time>2013-04-21T09:08:36.000Z</time>
      </trkpt>
      <trkpt lat="49.00161" lon="1.12035">
        <ele>154</ele>
        <time>2013-04-21T09:08:38.000Z</time>
      </trkpt>
      <trkpt lat="49.00154" lon="1.12028">
        <ele>154</ele>
        <time>2013-04-21T09:08:40.000Z</time>
      </trkpt>
      <trkpt lat="49.00145" lon="1.12022">
        <ele>154</ele>
        <time>2013-04-21T09:08:44.000Z</time>
      </trkpt>
      <trkpt lat="49.00137" lon="1.12015">
        <ele>155</ele>
        <time>2013-04-21T09:08:48.000Z</time>
      </trkpt>
      <trkpt lat="49.00137" lon="1.12015">
        <ele>155</ele>
        <time>2013-04-21T09:08:50.000Z</time>
      </trkpt>
      <trkpt lat="49.00137" lon="1.12015">
        <ele>155</ele>
        <time>2013-04-21T09:08:52.000Z</time>
      </trkpt>
      <trkpt lat="49.00137" lon="1.12015">
        <ele>155</ele>
        <time>2013-04-21T09:08:54.000Z</time>
      </trkpt>
      <trkpt lat="49.00146" lon="1.12018">
        <ele>156</ele>
        <time>2013-04-21T09:08:58.000Z</time>
      </trkpt>
      <trkpt lat="49.00153" lon="1.12022">
        <ele>157</ele>
        <time>2013-04-21T09:09:00.000Z</time>
      </trkpt>
      <trkpt lat="49.00164" lon="1.12034">
        <ele>157</ele>
        <time>2013-04-21T09:09:04.000Z</time>
      </trkpt>
      <trkpt lat="49.00168" lon="1.12041">
        <ele>157</ele>
        <time>2013-04-21T09:09:06.000Z</time>
      </trkpt>
      <trkpt lat="49.00173" lon="1.12048">
        <ele>158</ele>
        <time>2013-04-21T09:09:08.000Z</time>
      </trkpt>
      <trkpt lat="49.00179" lon="1.12052">
        <ele>158</ele>
        <time>2013-04-21T09:09:10.000Z</time>
      </trkpt>
      <trkpt lat="49.00189" lon="1.12057">
        <ele>158</ele>
        <time>2013-04-21T09:09:14.000Z</time>
      </trkpt>
      <trkpt lat="49.00189" lon="1.12057">
        <ele>158</ele>
        <time>2013-04-21T09:09:16.000Z</time>
      </trkpt>
      <trkpt lat="49.00187" lon="1.12046">
        <ele>158</ele>
        <time>2013-04-21T09:09:18.000Z</time>
      </trkpt>
      <trkpt lat="49.00187" lon="1.12046">
        <ele>158</ele>
        <time>2013-04-21T09:09:20.000Z</time>
      </trkpt>
      <trkpt lat="49.00186" lon="1.12032">
        <ele>158</ele>
        <time>2013-04-21T09:09:22.000Z</time>
      </trkpt>
      <trkpt lat="49.00186" lon="1.12032">
        <ele>158</ele>
        <time>2013-04-21T09:09:24.000Z</time>
      </trkpt>
      <trkpt lat="49.0019" lon="1.12021">
        <ele>157</ele>
        <time>2013-04-21T09:09:26.000Z</time>
      </trkpt>
      <trkpt lat="49.00197" lon="1.12008">
        <ele>157</ele>
        <time>2013-04-21T09:09:30.000Z</time>
      </trkpt>
      <trkpt lat="49.00203" lon="1.11997">
        <ele>157</ele>
        <time>2013-04-21T09:09:34.000Z</time>
      </trkpt>
      <trkpt lat="49.00203" lon="1.11997">
        <ele>157</ele>
        <time>2013-04-21T09:09:36.000Z</time>
      </trkpt>
      <trkpt lat="49.00205" lon="1.11984">
        <ele>157</ele>
        <time>2013-04-21T09:09:38.000Z</time>
      </trkpt>
      <trkpt lat="49.00203" lon="1.11969">
        <ele>157</ele>
        <time>2013-04-21T09:09:42.000Z</time>
      </trkpt>
      <trkpt lat="49.00202" lon="1.11962">
        <ele>157</ele>
        <time>2013-04-21T09:09:46.000Z</time>
      </trkpt>
      <trkpt lat="49.002" lon="1.11955">
        <ele>157</ele>
        <time>2013-04-21T09:09:48.000Z</time>
      </trkpt>
      <trkpt lat="49.00199" lon="1.11948">
        <ele>157</ele>
        <time>2013-04-21T09:09:50.000Z</time>
      </trkpt>
      <trkpt lat="49.00197" lon="1.11942">
        <ele>158</ele>
        <time>2013-04-21T09:09:52.000Z</time>
      </trkpt>
      <trkpt lat="49.00195" lon="1.11936">
        <ele>158</ele>
        <time>2013-04-21T09:09:54.000Z</time>
      </trkpt>
      <trkpt lat="49.0019" lon="1.11927">
        <ele>158</ele>
        <time>2013-04-21T09:09:56.000Z</time>
      </trkpt>
      <trkpt lat="49.00188" lon="1.11913">
        <ele>158</ele>
        <time>2013-04-21T09:10:00.000Z</time>
      </trkpt>
      <trkpt lat="49.00185" lon="1.11898">
        <ele>158</ele>
        <time>2013-04-21T09:10:04.000Z</time>
      </trkpt>
      <trkpt lat="49.00183" lon="1.11885">
        <ele>158</ele>
        <time>2013-04-21T09:10:08.000Z</time>
      </trkpt>
      <trkpt lat="49.00183" lon="1.11885">
        <ele>158</ele>
        <time>2013-04-21T09:10:10.000Z</time>
      </trkpt>
      <trkpt lat="49.00182" lon="1.1187">
        <ele>157</ele>
        <time>2013-04-21T09:10:12.000Z</time>
      </trkpt>
      <trkpt lat="49.00182" lon="1.1187">
        <ele>157</ele>
        <time>2013-04-21T09:10:14.000Z</time>
      </trkpt>
      <trkpt lat="49.00184" lon="1.11854">
        <ele>157</ele>
        <time>2013-04-21T09:10:16.000Z</time>
      </trkpt>
      <trkpt lat="49.00184" lon="1.11854">
        <ele>157</ele>
        <time>2013-04-21T09:10:18.000Z</time>
      </trkpt>
      <trkpt lat="49.00186" lon="1.11838">
        <ele>157</ele>
        <time>2013-04-21T09:10:20.000Z</time>
      </trkpt>
      <trkpt lat="49.00184" lon="1.11823">
        <ele>158</ele>
        <time>2013-04-21T09:10:24.000Z</time>
      </trkpt>
      <trkpt lat="49.00184" lon="1.11823">
        <ele>158</ele>
        <time>2013-04-21T09:10:26.000Z</time>
      </trkpt>
      <trkpt lat="49.00185" lon="1.11809">
        <ele>158</ele>
        <time>2013-04-21T09:10:28.000Z</time>
      </trkpt>
      <trkpt lat="49.00185" lon="1.11793">
        <ele>160</ele>
        <time>2013-04-21T09:10:32.000Z</time>
      </trkpt>
      <trkpt lat="49.00183" lon="1.11782">
        <ele>160</ele>
        <time>2013-04-21T09:10:34.000Z</time>
      </trkpt>
      <trkpt lat="49.00181" lon="1.11771">
        <ele>160</ele>
        <time>2013-04-21T09:10:36.000Z</time>
      </trkpt>
      <trkpt lat="49.00181" lon="1.11762">
        <ele>161</ele>
        <time>2013-04-21T09:10:38.000Z</time>
      </trkpt>
      <trkpt lat="49.00182" lon="1.11753">
        <ele>161</ele>
        <time>2013-04-21T09:10:40.000Z</time>
      </trkpt>
      <trkpt lat="49.00182" lon="1.11753">
        <ele>161</ele>
        <time>2013-04-21T09:10:42.000Z</time>
      </trkpt>
      <trkpt lat="49.00179" lon="1.11737">
        <ele>161</ele>
        <time>2013-04-21T09:10:44.000Z</time>
      </trkpt>
      <trkpt lat="49.00179" lon="1.11737">
        <ele>161</ele>
        <time>2013-04-21T09:10:46.000Z</time>
      </trkpt>
      <trkpt lat="49.00176" lon="1.11723">
        <ele>161</ele>
        <time>2013-04-21T09:10:48.000Z</time>
      </trkpt>
      <trkpt lat="49.00176" lon="1.11723">
        <ele>161</ele>
        <time>2013-04-21T09:10:50.000Z</time>
      </trkpt>
      <trkpt lat="49.00171" lon="1.11708">
        <ele>162</ele>
        <time>2013-04-21T09:10:52.000Z</time>
      </trkpt>
      <trkpt lat="49.00171" lon="1.11708">
        <ele>162</ele>
        <time>2013-04-21T09:10:54.000Z</time>
      </trkpt>
      <trkpt lat="49.00166" lon="1.11694">
        <ele>162</ele>
        <time>2013-04-21T09:10:56.000Z</time>
      </trkpt>
      <trkpt lat="49.00163" lon="1.11681">
        <ele>163</ele>
        <time>2013-04-21T09:11:00.000Z</time>
      </trkpt>
      <trkpt lat="49.00159" lon="1.11667">
        <ele>163</ele>
        <time>2013-04-21T09:11:04.000Z</time>
      </trkpt>
      <trkpt lat="49.00157" lon="1.11651">
        <ele>164</ele>
        <time>2013-04-21T09:11:08.000Z</time>
      </trkpt>
      <trkpt lat="49.00157" lon="1.11651">
        <ele>164</ele>
        <time>2013-04-21T09:11:10.000Z</time>
      </trkpt>
      <trkpt lat="49.00155" lon="1.11635">
        <ele>164</ele>
        <time>2013-04-21T09:11:12.000Z</time>
      </trkpt>
      <trkpt lat="49.00155" lon="1.11635">
        <ele>164</ele>
        <time>2013-04-21T09:11:14.000Z</time>
      </trkpt>
      <trkpt lat="49.0015" lon="1.1162">
        <ele>164</ele>
        <time>2013-04-21T09:11:16.000Z</time>
      </trkpt>
      <trkpt lat="49.0015" lon="1.1162">
        <ele>164</ele>
        <time>2013-04-21T09:11:18.000Z</time>
      </trkpt>
      <trkpt lat="49.00146" lon="1.11604">
        <ele>164</ele>
        <time>2013-04-21T09:11:20.000Z</time>
      </trkpt>
      <trkpt lat="49.00143" lon="1.11596">
        <ele>164</ele>
        <time>2013-04-21T09:11:22.000Z</time>
      </trkpt>
      <trkpt lat="49.00143" lon="1.11596">
        <ele>164</ele>
        <time>2013-04-21T09:11:24.000Z</time>
      </trkpt>
      <trkpt lat="49.0014" lon="1.11579">
        <ele>165</ele>
        <time>2013-04-21T09:11:26.000Z</time>
      </trkpt>
      <trkpt lat="49.0014" lon="1.11579">
        <ele>165</ele>
        <time>2013-04-21T09:11:28.000Z</time>
      </trkpt>
      <trkpt lat="49.00137" lon="1.11563">
        <ele>166</ele>
        <time>2013-04-21T09:11:30.000Z</time>
      </trkpt>
      <trkpt lat="49.00136" lon="1.11553">
        <ele>166</ele>
        <time>2013-04-21T09:11:32.000Z</time>
      </trkpt>
      <trkpt lat="49.00134" lon="1.11543">
        <ele>167</ele>
        <time>2013-04-21T09:11:34.000Z</time>
      </trkpt>
      <trkpt lat="49.00133" lon="1.11534">
        <ele>168</ele>
        <time>2013-04-21T09:11:36.000Z</time>
      </trkpt>
      <trkpt lat="49.00133" lon="1.11534">
        <ele>168</ele>
        <time>2013-04-21T09:11:38.000Z</time>
      </trkpt>
      <trkpt lat="49.0013" lon="1.11518">
        <ele>169</ele>
        <time>2013-04-21T09:11:40.000Z</time>
      </trkpt>
      <trkpt lat="49.00129" lon="1.1151">
        <ele>169</ele>
        <time>2013-04-21T09:11:42.000Z</time>
      </trkpt>
      <trkpt lat="49.00127" lon="1.11501">
        <ele>170</ele>
        <time>2013-04-21T09:11:44.000Z</time>
      </trkpt>
      <trkpt lat="49.00125" lon="1.11492">
        <ele>171</ele>
        <time>2013-04-21T09:11:46.000Z</time>
      </trkpt>
      <trkpt lat="49.00122" lon="1.11484">
        <ele>171</ele>
        <time>2013-04-21T09:11:48.000Z</time>
      </trkpt>
      <trkpt lat="49.00122" lon="1.11484">
        <ele>171</ele>
        <time>2013-04-21T09:11:50.000Z</time>
      </trkpt>
      <trkpt lat="49.00118" lon="1.11469">
        <ele>172</ele>
        <time>2013-04-21T09:11:52.000Z</time>
      </trkpt>
      <trkpt lat="49.00118" lon="1.11469">
        <ele>172</ele>
        <time>2013-04-21T09:11:54.000Z</time>
      </trkpt>
      <trkpt lat="49.00114" lon="1.11457">
        <ele>172</ele>
        <time>2013-04-21T09:11:56.000Z</time>
      </trkpt>
      <trkpt lat="49.00114" lon="1.11457">
        <ele>172</ele>
        <time>2013-04-21T09:11:58.000Z</time>
      </trkpt>
      <trkpt lat="49.00106" lon="1.11457">
        <ele>172</ele>
        <time>2013-04-21T09:12:00.000Z</time>
      </trkpt>
      <trkpt lat="49.00106" lon="1.11457">
        <ele>172</ele>
        <time>2013-04-21T09:12:02.000Z</time>
      </trkpt>
      <trkpt lat="49.00106" lon="1.11457">
        <ele>172</ele>
        <time>2013-04-21T09:12:04.000Z</time>
      </trkpt>
      <trkpt lat="49.00106" lon="1.11457">
        <ele>172</ele>
        <time>2013-04-21T09:12:06.000Z</time>
      </trkpt>
      <trkpt lat="49.00104" lon="1.11462">
        <ele>172</ele>
        <time>2013-04-21T09:12:14.000Z</time>
      </trkpt>
      <trkpt lat="49.00103" lon="1.11467">
        <ele>172</ele>
        <time>2013-04-21T09:12:16.000Z</time>
      </trkpt>
      <trkpt lat="49.00103" lon="1.11467">
        <ele>172</ele>
        <time>2013-04-21T09:12:18.000Z</time>
      </trkpt>
      <trkpt lat="49.00103" lon="1.11467">
        <ele>172</ele>
        <time>2013-04-21T09:12:20.000Z</time>
      </trkpt>
      <trkpt lat="49.00107" lon="1.11468">
        <ele>171</ele>
        <time>2013-04-21T09:12:22.000Z</time>
      </trkpt>
      <trkpt lat="49.00108" lon="1.11463">
        <ele>170</ele>
        <time>2013-04-21T09:12:26.000Z</time>
      </trkpt>
      <trkpt lat="49.00111" lon="1.11458">
        <ele>171</ele>
        <time>2013-04-21T09:12:28.000Z</time>
      </trkpt>
      <trkpt lat="49.00114" lon="1.11456">
        <ele>171</ele>
        <time>2013-04-21T09:12:30.000Z</time>
      </trkpt>
      <trkpt lat="49.00119" lon="1.11454">
        <ele>171</ele>
        <time>2013-04-21T09:12:32.000Z</time>
      </trkpt>
      <trkpt lat="49.00124" lon="1.11454">
        <ele>170</ele>
        <time>2013-04-21T09:12:34.000Z</time>
      </trkpt>
      <trkpt lat="49.00134" lon="1.11452">
        <ele>170</ele>
        <time>2013-04-21T09:12:36.000Z</time>
      </trkpt>
      <trkpt lat="49.00145" lon="1.11448">
        <ele>170</ele>
        <time>2013-04-21T09:12:40.000Z</time>
      </trkpt>
      <trkpt lat="49.00154" lon="1.11445">
        <ele>170</ele>
        <time>2013-04-21T09:12:44.000Z</time>
      </trkpt>
      <trkpt lat="49.00154" lon="1.11445">
        <ele>170</ele>
        <time>2013-04-21T09:12:46.000Z</time>
      </trkpt>
      <trkpt lat="49.00163" lon="1.11442">
        <ele>170</ele>
        <time>2013-04-21T09:12:48.000Z</time>
      </trkpt>
      <trkpt lat="49.00163" lon="1.11442">
        <ele>170</ele>
        <time>2013-04-21T09:12:50.000Z</time>
      </trkpt>
      <trkpt lat="49.00172" lon="1.11439">
        <ele>169</ele>
        <time>2013-04-21T09:12:52.000Z</time>
      </trkpt>
      <trkpt lat="49.00181" lon="1.11434">
        <ele>169</ele>
        <time>2013-04-21T09:12:56.000Z</time>
      </trkpt>
      <trkpt lat="49.00181" lon="1.11434">
        <ele>169</ele>
        <time>2013-04-21T09:12:58.000Z</time>
      </trkpt>
      <trkpt lat="49.00189" lon="1.1143">
        <ele>168</ele>
        <time>2013-04-21T09:13:00.000Z</time>
      </trkpt>
      <trkpt lat="49.00198" lon="1.11424">
        <ele>168</ele>
        <time>2013-04-21T09:13:04.000Z</time>
      </trkpt>
      <trkpt lat="49.00207" lon="1.11421">
        <ele>167</ele>
        <time>2013-04-21T09:13:08.000Z</time>
      </trkpt>
      <trkpt lat="49.00207" lon="1.11421">
        <ele>167</ele>
        <time>2013-04-21T09:13:10.000Z</time>
      </trkpt>
      <trkpt lat="49.00216" lon="1.11418">
        <ele>167</ele>
        <time>2013-04-21T09:13:12.000Z</time>
      </trkpt>
      <trkpt lat="49.00223" lon="1.11413">
        <ele>166</ele>
        <time>2013-04-21T09:13:16.000Z</time>
      </trkpt>
      <trkpt lat="49.00223" lon="1.11413">
        <ele>166</ele>
        <time>2013-04-21T09:13:18.000Z</time>
      </trkpt>
      <trkpt lat="49.00231" lon="1.11409">
        <ele>166</ele>
        <time>2013-04-21T09:13:20.000Z</time>
      </trkpt>
      <trkpt lat="49.00231" lon="1.11409">
        <ele>166</ele>
        <time>2013-04-21T09:13:22.000Z</time>
      </trkpt>
      <trkpt lat="49.00239" lon="1.11404">
        <ele>165</ele>
        <time>2013-04-21T09:13:24.000Z</time>
      </trkpt>
      <trkpt lat="49.00249" lon="1.114">
        <ele>165</ele>
        <time>2013-04-21T09:13:28.000Z</time>
      </trkpt>
      <trkpt lat="49.00257" lon="1.11396">
        <ele>164</ele>
        <time>2013-04-21T09:13:32.000Z</time>
      </trkpt>
      <trkpt lat="49.00257" lon="1.11396">
        <ele>164</ele>
        <time>2013-04-21T09:13:34.000Z</time>
      </trkpt>
      <trkpt lat="49.00266" lon="1.11394">
        <ele>163</ele>
        <time>2013-04-21T09:13:36.000Z</time>
      </trkpt>
      <trkpt lat="49.00266" lon="1.11394">
        <ele>163</ele>
        <time>2013-04-21T09:13:38.000Z</time>
      </trkpt>
      <trkpt lat="49.00274" lon="1.11391">
        <ele>162</ele>
        <time>2013-04-21T09:13:40.000Z</time>
      </trkpt>
      <trkpt lat="49.00282" lon="1.11386">
        <ele>161</ele>
        <time>2013-04-21T09:13:44.000Z</time>
      </trkpt>
      <trkpt lat="49.00282" lon="1.11386">
        <ele>161</ele>
        <time>2013-04-21T09:13:46.000Z</time>
      </trkpt>
      <trkpt lat="49.00287" lon="1.11378">
        <ele>160</ele>
        <time>2013-04-21T09:13:48.000Z</time>
      </trkpt>
      <trkpt lat="49.00287" lon="1.11378">
        <ele>160</ele>
        <time>2013-04-21T09:13:50.000Z</time>
      </trkpt>
      <trkpt lat="49.00296" lon="1.11372">
        <ele>160</ele>
        <time>2013-04-21T09:13:52.000Z</time>
      </trkpt>
      <trkpt lat="49.00302" lon="1.1137">
        <ele>159</ele>
        <time>2013-04-21T09:13:54.000Z</time>
      </trkpt>
      <trkpt lat="49.00309" lon="1.11369">
        <ele>159</ele>
        <time>2013-04-21T09:13:56.000Z</time>
      </trkpt>
      <trkpt lat="49.00316" lon="1.11366">
        <ele>158</ele>
        <time>2013-04-21T09:13:58.000Z</time>
      </trkpt>
      <trkpt lat="49.00322" lon="1.11364">
        <ele>157</ele>
        <time>2013-04-21T09:14:00.000Z</time>
      </trkpt>
      <trkpt lat="49.00328" lon="1.11362">
        <ele>157</ele>
        <time>2013-04-21T09:14:02.000Z</time>
      </trkpt>
      <trkpt lat="49.00334" lon="1.11358">
        <ele>156</ele>
        <time>2013-04-21T09:14:04.000Z</time>
      </trkpt>
      <trkpt lat="49.0034" lon="1.11356">
        <ele>156</ele>
        <time>2013-04-21T09:14:06.000Z</time>
      </trkpt>
      <trkpt lat="49.00346" lon="1.11354">
        <ele>155</ele>
        <time>2013-04-21T09:14:08.000Z</time>
      </trkpt>
      <trkpt lat="49.00346" lon="1.11354">
        <ele>155</ele>
        <time>2013-04-21T09:14:10.000Z</time>
      </trkpt>
      <trkpt lat="49.00356" lon="1.11349">
        <ele>154</ele>
        <time>2013-04-21T09:14:12.000Z</time>
      </trkpt>
      <trkpt lat="49.00356" lon="1.11349">
        <ele>154</ele>
        <time>2013-04-21T09:14:14.000Z</time>
      </trkpt>
      <trkpt lat="49.00366" lon="1.11345">
        <ele>153</ele>
        <time>2013-04-21T09:14:16.000Z</time>
      </trkpt>
      <trkpt lat="49.00366" lon="1.11345">
        <ele>153</ele>
        <time>2013-04-21T09:14:18.000Z</time>
      </trkpt>
      <trkpt lat="49.00374" lon="1.11338">
        <ele>151</ele>
        <time>2013-04-21T09:14:20.000Z</time>
      </trkpt>
      <trkpt lat="49.00374" lon="1.11338">
        <ele>151</ele>
        <time>2013-04-21T09:14:22.000Z</time>
      </trkpt>
      <trkpt lat="49.00371" lon="1.11326">
        <ele>150</ele>
        <time>2013-04-21T09:14:24.000Z</time>
      </trkpt>
      <trkpt lat="49.00362" lon="1.11321">
        <ele>148</ele>
        <time>2013-04-21T09:14:28.000Z</time>
      </trkpt>
      <trkpt lat="49.00362" lon="1.11321">
        <ele>148</ele>
        <time>2013-04-21T09:14:30.000Z</time>
      </trkpt>
      <trkpt lat="49.00352" lon="1.1132">
        <ele>146</ele>
        <time>2013-04-21T09:14:32.000Z</time>
      </trkpt>
      <trkpt lat="49.00352" lon="1.1132">
        <ele>146</ele>
        <time>2013-04-21T09:14:34.000Z</time>
      </trkpt>
      <trkpt lat="49.00341" lon="1.11321">
        <ele>145</ele>
        <time>2013-04-21T09:14:36.000Z</time>
      </trkpt>
      <trkpt lat="49.00341" lon="1.11321">
        <ele>145</ele>
        <time>2013-04-21T09:14:38.000Z</time>
      </trkpt>
      <trkpt lat="49.00333" lon="1.11321">
        <ele>145</ele>
        <time>2013-04-21T09:14:40.000Z</time>
      </trkpt>
      <trkpt lat="49.00326" lon="1.1132">
        <ele>144</ele>
        <time>2013-04-21T09:14:44.000Z</time>
      </trkpt>
      <trkpt lat="49.00319" lon="1.11318">
        <ele>143</ele>
        <time>2013-04-21T09:14:48.000Z</time>
      </trkpt>
      <trkpt lat="49.00319" lon="1.11318">
        <ele>143</ele>
        <time>2013-04-21T09:14:50.000Z</time>
      </trkpt>
      <trkpt lat="49.00316" lon="1.11317">
        <ele>143</ele>
        <time>2013-04-21T09:14:52.000Z</time>
      </trkpt>
      <trkpt lat="49.00312" lon="1.11316">
        <ele>143</ele>
        <time>2013-04-21T09:14:54.000Z</time>
      </trkpt>
      <trkpt lat="49.00309" lon="1.11315">
        <ele>143</ele>
        <time>2013-04-21T09:14:56.000Z</time>
      </trkpt>
      <trkpt lat="49.00306" lon="1.11314">
        <ele>143</ele>
        <time>2013-04-21T09:14:58.000Z</time>
      </trkpt>
      <trkpt lat="49.00303" lon="1.11312">
        <ele>142</ele>
        <time>2013-04-21T09:15:00.000Z</time>
      </trkpt>
      <trkpt lat="49.00295" lon="1.11305">
        <ele>142</ele>
        <time>2013-04-21T09:15:02.000Z</time>
      </trkpt>
      <trkpt lat="49.00295" lon="1.11305">
        <ele>142</ele>
        <time>2013-04-21T09:15:04.000Z</time>
      </trkpt>
      <trkpt lat="49.00288" lon="1.11295">
        <ele>142</ele>
        <time>2013-04-21T09:15:06.000Z</time>
      </trkpt>
      <trkpt lat="49.0028" lon="1.11286">
        <ele>142</ele>
        <time>2013-04-21T09:15:10.000Z</time>
      </trkpt>
      <trkpt lat="49.0028" lon="1.11286">
        <ele>142</ele>
        <time>2013-04-21T09:15:12.000Z</time>
      </trkpt>
      <trkpt lat="49.00272" lon="1.11278">
        <ele>141</ele>
        <time>2013-04-21T09:15:14.000Z</time>
      </trkpt>
      <trkpt lat="49.00263" lon="1.11274">
        <ele>141</ele>
        <time>2013-04-21T09:15:18.000Z</time>
      </trkpt>
      <trkpt lat="49.00254" lon="1.11275">
        <ele>140</ele>
        <time>2013-04-21T09:15:22.000Z</time>
      </trkpt>
      <trkpt lat="49.00254" lon="1.11275">
        <ele>140</ele>
        <time>2013-04-21T09:15:24.000Z</time>
      </trkpt>
      <trkpt lat="49.00245" lon="1.11274">
        <ele>140</ele>
        <time>2013-04-21T09:15:26.000Z</time>
      </trkpt>
      <trkpt lat="49.00237" lon="1.11271">
        <ele>140</ele>
        <time>2013-04-21T09:15:30.000Z</time>
      </trkpt>
      <trkpt lat="49.00237" lon="1.11271">
        <ele>140</ele>
        <time>2013-04-21T09:15:32.000Z</time>
      </trkpt>
      <trkpt lat="49.00229" lon="1.11269">
        <ele>140</ele>
        <time>2013-04-21T09:15:34.000Z</time>
      </trkpt>
      <trkpt lat="49.00221" lon="1.11267">
        <ele>139</ele>
        <time>2013-04-21T09:15:38.000Z</time>
      </trkpt>
      <trkpt lat="49.00213" lon="1.11266">
        <ele>139</ele>
        <time>2013-04-21T09:15:42.000Z</time>
      </trkpt>
      <trkpt lat="49.00204" lon="1.11266">
        <ele>138</ele>
        <time>2013-04-21T09:15:46.000Z</time>
      </trkpt>
      <trkpt lat="49.00195" lon="1.11262">
        <ele>137</ele>
        <time>2013-04-21T09:15:50.000Z</time>
      </trkpt>
      <trkpt lat="49.00195" lon="1.11262">
        <ele>137</ele>
        <time>2013-04-21T09:15:52.000Z</time>
      </trkpt>
      <trkpt lat="49.00187" lon="1.11256">
        <ele>137</ele>
        <time>2013-04-21T09:15:54.000Z</time>
      </trkpt>
      <trkpt lat="49.00179" lon="1.11251">
        <ele>137</ele>
        <time>2013-04-21T09:15:58.000Z</time>
      </trkpt>
      <trkpt lat="49.00171" lon="1.11248">
        <ele>136</ele>
        <time>2013-04-21T09:16:02.000Z</time>
      </trkpt>
      <trkpt lat="49.00171" lon="1.11248">
        <ele>136</ele>
        <time>2013-04-21T09:16:04.000Z</time>
      </trkpt>
      <trkpt lat="49.00163" lon="1.11242">
        <ele>136</ele>
        <time>2013-04-21T09:16:06.000Z</time>
      </trkpt>
      <trkpt lat="49.00156" lon="1.11236">
        <ele>136</ele>
        <time>2013-04-21T09:16:10.000Z</time>
      </trkpt>
      <trkpt lat="49.00156" lon="1.11236">
        <ele>136</ele>
        <time>2013-04-21T09:16:12.000Z</time>
      </trkpt>
      <trkpt lat="49.0015" lon="1.1123">
        <ele>136</ele>
        <time>2013-04-21T09:16:14.000Z</time>
      </trkpt>
      <trkpt lat="49.0015" lon="1.1123">
        <ele>136</ele>
        <time>2013-04-21T09:16:16.000Z</time>
      </trkpt>
      <trkpt lat="49.00143" lon="1.11225">
        <ele>136</ele>
        <time>2013-04-21T09:16:18.000Z</time>
      </trkpt>
      <trkpt lat="49.00136" lon="1.1122">
        <ele>136</ele>
        <time>2013-04-21T09:16:22.000Z</time>
      </trkpt>
      <trkpt lat="49.00129" lon="1.11212">
        <ele>136</ele>
        <time>2013-04-21T09:16:26.000Z</time>
      </trkpt>
      <trkpt lat="49.00129" lon="1.11212">
        <ele>136</ele>
        <time>2013-04-21T09:16:28.000Z</time>
      </trkpt>
      <trkpt lat="49.0012" lon="1.11209">
        <ele>137</ele>
        <time>2013-04-21T09:16:30.000Z</time>
      </trkpt>
      <trkpt lat="49.0012" lon="1.11209">
        <ele>137</ele>
        <time>2013-04-21T09:16:32.000Z</time>
      </trkpt>
      <trkpt lat="49.00112" lon="1.11208">
        <ele>137</ele>
        <time>2013-04-21T09:16:34.000Z</time>
      </trkpt>
      <trkpt lat="49.00112" lon="1.11208">
        <ele>137</ele>
        <time>2013-04-21T09:16:36.000Z</time>
      </trkpt>
      <trkpt lat="49.00106" lon="1.11208">
        <ele>138</ele>
        <time>2013-04-21T09:16:38.000Z</time>
      </trkpt>
      <trkpt lat="49.00106" lon="1.11208">
        <ele>138</ele>
        <time>2013-04-21T09:16:40.000Z</time>
      </trkpt>
      <trkpt lat="49.00099" lon="1.11208">
        <ele>138</ele>
        <time>2013-04-21T09:16:42.000Z</time>
      </trkpt>
      <trkpt lat="49.00092" lon="1.11204">
        <ele>139</ele>
        <time>2013-04-21T09:16:46.000Z</time>
      </trkpt>
      <trkpt lat="49.00092" lon="1.11204">
        <ele>139</ele>
        <time>2013-04-21T09:16:48.000Z</time>
      </trkpt>
      <trkpt lat="49.00093" lon="1.1119">
        <ele>140</ele>
        <time>2013-04-21T09:16:50.000Z</time>
      </trkpt>
      <trkpt lat="49.00093" lon="1.1119">
        <ele>140</ele>
        <time>2013-04-21T09:16:52.000Z</time>
      </trkpt>
      <trkpt lat="49.00098" lon="1.11179">
        <ele>140</ele>
        <time>2013-04-21T09:16:54.000Z</time>
      </trkpt>
      <trkpt lat="49.00098" lon="1.11179">
        <ele>140</ele>
        <time>2013-04-21T09:16:56.000Z</time>
      </trkpt>
      <trkpt lat="49.00098" lon="1.11165">
        <ele>140</ele>
        <time>2013-04-21T09:16:58.000Z</time>
      </trkpt>
      <trkpt lat="49.00099" lon="1.11159">
        <ele>140</ele>
        <time>2013-04-21T09:17:02.000Z</time>
      </trkpt>
      <trkpt lat="49.00099" lon="1.11153">
        <ele>140</ele>
        <time>2013-04-21T09:17:04.000Z</time>
      </trkpt>
      <trkpt lat="49.001" lon="1.11148">
        <ele>140</ele>
        <time>2013-04-21T09:17:06.000Z</time>
      </trkpt>
      <trkpt lat="49.00101" lon="1.11142">
        <ele>140</ele>
        <time>2013-04-21T09:17:08.000Z</time>
      </trkpt>
      <trkpt lat="49.00101" lon="1.11137">
        <ele>140</ele>
        <time>2013-04-21T09:17:10.000Z</time>
      </trkpt>
      <trkpt lat="49.00103" lon="1.11123">
        <ele>139</ele>
        <time>2013-04-21T09:17:12.000Z</time>
      </trkpt>
      <trkpt lat="49.00101" lon="1.11108">
        <ele>139</ele>
        <time>2013-04-21T09:17:16.000Z</time>
      </trkpt>
      <trkpt lat="49.00094" lon="1.11095">
        <ele>139</ele>
        <time>2013-04-21T09:17:20.000Z</time>
      </trkpt>
      <trkpt lat="49.0009" lon="1.1109">
        <ele>139</ele>
        <time>2013-04-21T09:17:22.000Z</time>
      </trkpt>
      <trkpt lat="49.00082" lon="1.11079">
        <ele>138</ele>
        <time>2013-04-21T09:17:26.000Z</time>
      </trkpt>
      <trkpt lat="49.00077" lon="1.11073">
        <ele>138</ele>
        <time>2013-04-21T09:17:28.000Z</time>
      </trkpt>
      <trkpt lat="49.00069" lon="1.11063">
        <ele>138</ele>
        <time>2013-04-21T09:17:32.000Z</time>
      </trkpt>
      <trkpt lat="49.00069" lon="1.11063">
        <ele>138</ele>
        <time>2013-04-21T09:17:34.000Z</time>
      </trkpt>
      <trkpt lat="49.00062" lon="1.11067">
        <ele>137</ele>
        <time>2013-04-21T09:17:36.000Z</time>
      </trkpt>
      <trkpt lat="49.0006" lon="1.11076">
        <ele>137</ele>
        <time>2013-04-21T09:17:38.000Z</time>
      </trkpt>
      <trkpt lat="49.00059" lon="1.1109">
        <ele>137</ele>
        <time>2013-04-21T09:17:42.000Z</time>
      </trkpt>
      <trkpt lat="49.00059" lon="1.1109">
        <ele>137</ele>
        <time>2013-04-21T09:17:44.000Z</time>
      </trkpt>
      <trkpt lat="49.00059" lon="1.1109">
        <ele>137</ele>
        <time>2013-04-21T09:17:46.000Z</time>
      </trkpt>
      <trkpt lat="49.00059" lon="1.1109">
        <ele>137</ele>
        <time>2013-04-21T09:17:48.000Z</time>
      </trkpt>
      <trkpt lat="49.00059" lon="1.1109">
        <ele>137</ele>
        <time>2013-04-21T09:17:50.000Z</time>
      </trkpt>
      <trkpt lat="49.00057" lon="1.11098">
        <ele>137</ele>
        <time>2013-04-21T09:17:52.000Z</time>
      </trkpt>
      <trkpt lat="49.00059" lon="1.11108">
        <ele>137</ele>
        <time>2013-04-21T09:17:56.000Z</time>
      </trkpt>
      <trkpt lat="49.00061" lon="1.11094">
        <ele>137</ele>
        <time>2013-04-21T09:18:00.000Z</time>
      </trkpt>
      <trkpt lat="49.00061" lon="1.11084">
        <ele>136</ele>
        <time>2013-04-21T09:18:02.000Z</time>
      </trkpt>
      <trkpt lat="49.00061" lon="1.11074">
        <ele>136</ele>
        <time>2013-04-21T09:18:04.000Z</time>
      </trkpt>
      <trkpt lat="49.00061" lon="1.11065">
        <ele>136</ele>
        <time>2013-04-21T09:18:06.000Z</time>
      </trkpt>
      <trkpt lat="49.00062" lon="1.11056">
        <ele>136</ele>
        <time>2013-04-21T09:18:08.000Z</time>
      </trkpt>
      <trkpt lat="49.0006" lon="1.1104">
        <ele>136</ele>
        <time>2013-04-21T09:18:12.000Z</time>
      </trkpt>
      <trkpt lat="49.0006" lon="1.1104">
        <ele>136</ele>
        <time>2013-04-21T09:18:14.000Z</time>
      </trkpt>
      <trkpt lat="49.00055" lon="1.11028">
        <ele>135</ele>
        <time>2013-04-21T09:18:16.000Z</time>
      </trkpt>
      <trkpt lat="49.00047" lon="1.11019">
        <ele>135</ele>
        <time>2013-04-21T09:18:20.000Z</time>
      </trkpt>
      <trkpt lat="49.00039" lon="1.11008">
        <ele>135</ele>
        <time>2013-04-21T09:18:24.000Z</time>
      </trkpt>
      <trkpt lat="49.0003" lon="1.10998">
        <ele>134</ele>
        <time>2013-04-21T09:18:28.000Z</time>
      </trkpt>
      <trkpt lat="49.0003" lon="1.10998">
        <ele>134</ele>
        <time>2013-04-21T09:18:30.000Z</time>
      </trkpt>
      <trkpt lat="49.00023" lon="1.10988">
        <ele>133</ele>
        <time>2013-04-21T09:18:32.000Z</time>
      </trkpt>
      <trkpt lat="49.00016" lon="1.1098">
        <ele>133</ele>
        <time>2013-04-21T09:18:36.000Z</time>
      </trkpt>
      <trkpt lat="49.00008" lon="1.10971">
        <ele>132</ele>
        <time>2013-04-21T09:18:40.000Z</time>
      </trkpt>
      <trkpt lat="49.00001" lon="1.10961">
        <ele>132</ele>
        <time>2013-04-21T09:18:44.000Z</time>
      </trkpt>
      <trkpt lat="49.00001" lon="1.10961">
        <ele>132</ele>
        <time>2013-04-21T09:18:46.000Z</time>
      </trkpt>
      <trkpt lat="48.99995" lon="1.10952">
        <ele>132</ele>
        <time>2013-04-21T09:18:48.000Z</time>
      </trkpt>
      <trkpt lat="48.99987" lon="1.10943">
        <ele>131</ele>
        <time>2013-04-21T09:18:52.000Z</time>
      </trkpt>
      <trkpt lat="48.9998" lon="1.10933">
        <ele>131</ele>
        <time>2013-04-21T09:18:56.000Z</time>
      </trkpt>
      <trkpt lat="48.9998" lon="1.10933">
        <ele>131</ele>
        <time>2013-04-21T09:18:58.000Z</time>
      </trkpt>
      <trkpt lat="48.99972" lon="1.10923">
        <ele>131</ele>
        <time>2013-04-21T09:19:00.000Z</time>
      </trkpt>
      <trkpt lat="48.99972" lon="1.10923">
        <ele>131</ele>
        <time>2013-04-21T09:19:02.000Z</time>
      </trkpt>
      <trkpt lat="48.99965" lon="1.10914">
        <ele>131</ele>
        <time>2013-04-21T09:19:04.000Z</time>
      </trkpt>
      <trkpt lat="48.99958" lon="1.10904">
        <ele>131</ele>
        <time>2013-04-21T09:19:08.000Z</time>
      </trkpt>
      <trkpt lat="48.99952" lon="1.10896">
        <ele>130</ele>
        <time>2013-04-21T09:19:12.000Z</time>
      </trkpt>
      <trkpt lat="48.99952" lon="1.10896">
        <ele>130</ele>
        <time>2013-04-21T09:19:14.000Z</time>
      </trkpt>
      <trkpt lat="48.99944" lon="1.10887">
        <ele>130</ele>
        <time>2013-04-21T09:19:16.000Z</time>
      </trkpt>
      <trkpt lat="48.9994" lon="1.10882">
        <ele>129</ele>
        <time>2013-04-21T09:19:20.000Z</time>
      </trkpt>
      <trkpt lat="48.99936" lon="1.10877">
        <ele>129</ele>
        <time>2013-04-21T09:19:22.000Z</time>
      </trkpt>
      <trkpt lat="48.99932" lon="1.10871">
        <ele>129</ele>
        <time>2013-04-21T09:19:24.000Z</time>
      </trkpt>
      <trkpt lat="48.99928" lon="1.10866">
        <ele>129</ele>
        <time>2013-04-21T09:19:26.000Z</time>
      </trkpt>
      <trkpt lat="48.99924" lon="1.10861">
        <ele>128</ele>
        <time>2013-04-21T09:19:28.000Z</time>
      </trkpt>
      <trkpt lat="48.99915" lon="1.10852">
        <ele>128</ele>
        <time>2013-04-21T09:19:30.000Z</time>
      </trkpt>
      <trkpt lat="48.99915" lon="1.10852">
        <ele>128</ele>
        <time>2013-04-21T09:19:32.000Z</time>
      </trkpt>
      <trkpt lat="48.99908" lon="1.10858">
        <ele>128</ele>
        <time>2013-04-21T09:19:34.000Z</time>
      </trkpt>
      <trkpt lat="48.99908" lon="1.10873">
        <ele>128</ele>
        <time>2013-04-21T09:19:38.000Z</time>
      </trkpt>
      <trkpt lat="48.99908" lon="1.10873">
        <ele>128</ele>
        <time>2013-04-21T09:19:40.000Z</time>
      </trkpt>
      <trkpt lat="48.99906" lon="1.10887">
        <ele>128</ele>
        <time>2013-04-21T09:19:42.000Z</time>
      </trkpt>
      <trkpt lat="48.99906" lon="1.10887">
        <ele>128</ele>
        <time>2013-04-21T09:19:44.000Z</time>
      </trkpt>
      <trkpt lat="48.99901" lon="1.10899">
        <ele>127</ele>
        <time>2013-04-21T09:19:46.000Z</time>
      </trkpt>
      <trkpt lat="48.99901" lon="1.10899">
        <ele>127</ele>
        <time>2013-04-21T09:19:48.000Z</time>
      </trkpt>
      <trkpt lat="48.99897" lon="1.10909">
        <ele>127</ele>
        <time>2013-04-21T09:19:50.000Z</time>
      </trkpt>
      <trkpt lat="48.99892" lon="1.1092">
        <ele>127</ele>
        <time>2013-04-21T09:19:54.000Z</time>
      </trkpt>
      <trkpt lat="48.99892" lon="1.1092">
        <ele>127</ele>
        <time>2013-04-21T09:19:56.000Z</time>
      </trkpt>
      <trkpt lat="48.99884" lon="1.10927">
        <ele>126</ele>
        <time>2013-04-21T09:19:58.000Z</time>
      </trkpt>
      <trkpt lat="48.99884" lon="1.10927">
        <ele>126</ele>
        <time>2013-04-21T09:20:00.000Z</time>
      </trkpt>
      <trkpt lat="48.99879" lon="1.10934">
        <ele>125</ele>
        <time>2013-04-21T09:20:02.000Z</time>
      </trkpt>
      <trkpt lat="48.99874" lon="1.10945">
        <ele>125</ele>
        <time>2013-04-21T09:20:06.000Z</time>
      </trkpt>
      <trkpt lat="48.99867" lon="1.10953">
        <ele>124</ele>
        <time>2013-04-21T09:20:10.000Z</time>
      </trkpt>
      <trkpt lat="48.99862" lon="1.1096">
        <ele>124</ele>
        <time>2013-04-21T09:20:14.000Z</time>
      </trkpt>
      <trkpt lat="48.99855" lon="1.10968">
        <ele>123</ele>
        <time>2013-04-21T09:20:18.000Z</time>
      </trkpt>
      <trkpt lat="48.99849" lon="1.10975">
        <ele>123</ele>
        <time>2013-04-21T09:20:22.000Z</time>
      </trkpt>
      <trkpt lat="48.99842" lon="1.10982">
        <ele>123</ele>
        <time>2013-04-21T09:20:26.000Z</time>
      </trkpt>
      <trkpt lat="48.99842" lon="1.10982">
        <ele>123</ele>
        <time>2013-04-21T09:20:28.000Z</time>
      </trkpt>
      <trkpt lat="48.99834" lon="1.10988">
        <ele>123</ele>
        <time>2013-04-21T09:20:30.000Z</time>
      </trkpt>
      <trkpt lat="48.99834" lon="1.10988">
        <ele>123</ele>
        <time>2013-04-21T09:20:32.000Z</time>
      </trkpt>
      <trkpt lat="48.99828" lon="1.10992">
        <ele>123</ele>
        <time>2013-04-21T09:20:34.000Z</time>
      </trkpt>
      <trkpt lat="48.99828" lon="1.10992">
        <ele>123</ele>
        <time>2013-04-21T09:20:36.000Z</time>
      </trkpt>
      <trkpt lat="48.99819" lon="1.10998">
        <ele>123</ele>
        <time>2013-04-21T09:20:38.000Z</time>
      </trkpt>
      <trkpt lat="48.99811" lon="1.11005">
        <ele>123</ele>
        <time>2013-04-21T09:20:42.000Z</time>
      </trkpt>
      <trkpt lat="48.99804" lon="1.11013">
        <ele>124</ele>
        <time>2013-04-21T09:20:46.000Z</time>
      </trkpt>
      <trkpt lat="48.99797" lon="1.11022">
        <ele>124</ele>
        <time>2013-04-21T09:20:50.000Z</time>
      </trkpt>
      <trkpt lat="48.99797" lon="1.11022">
        <ele>124</ele>
        <time>2013-04-21T09:20:52.000Z</time>
      </trkpt>
      <trkpt lat="48.99789" lon="1.1103">
        <ele>124</ele>
        <time>2013-04-21T09:20:54.000Z</time>
      </trkpt>
      <trkpt lat="48.99783" lon="1.11039">
        <ele>124</ele>
        <time>2013-04-21T09:20:58.000Z</time>
      </trkpt>
      <trkpt lat="48.99783" lon="1.11039">
        <ele>124</ele>
        <time>2013-04-21T09:21:00.000Z</time>
      </trkpt>
      <trkpt lat="48.99776" lon="1.11047">
        <ele>124</ele>
        <time>2013-04-21T09:21:02.000Z</time>
      </trkpt>
      <trkpt lat="48.9977" lon="1.11054">
        <ele>124</ele>
        <time>2013-04-21T09:21:06.000Z</time>
      </trkpt>
      <trkpt lat="48.9977" lon="1.11054">
        <ele>124</ele>
        <time>2013-04-21T09:21:08.000Z</time>
      </trkpt>
      <trkpt lat="48.99763" lon="1.11064">
        <ele>123</ele>
        <time>2013-04-21T09:21:10.000Z</time>
      </trkpt>
      <trkpt lat="48.99763" lon="1.11064">
        <ele>123</ele>
        <time>2013-04-21T09:21:12.000Z</time>
      </trkpt>
      <trkpt lat="48.99757" lon="1.11074">
        <ele>123</ele>
        <time>2013-04-21T09:21:14.000Z</time>
      </trkpt>
      <trkpt lat="48.99757" lon="1.11074">
        <ele>123</ele>
        <time>2013-04-21T09:21:16.000Z</time>
      </trkpt>
      <trkpt lat="48.9975" lon="1.11083">
        <ele>123</ele>
        <time>2013-04-21T09:21:18.000Z</time>
      </trkpt>
      <trkpt lat="48.9975" lon="1.11083">
        <ele>123</ele>
        <time>2013-04-21T09:21:20.000Z</time>
      </trkpt>
      <trkpt lat="48.99743" lon="1.11091">
        <ele>123</ele>
        <time>2013-04-21T09:21:22.000Z</time>
      </trkpt>
      <trkpt lat="48.99743" lon="1.11091">
        <ele>123</ele>
        <time>2013-04-21T09:21:24.000Z</time>
      </trkpt>
      <trkpt lat="48.99736" lon="1.111">
        <ele>123</ele>
        <time>2013-04-21T09:21:26.000Z</time>
      </trkpt>
      <trkpt lat="48.99736" lon="1.111">
        <ele>123</ele>
        <time>2013-04-21T09:21:28.000Z</time>
      </trkpt>
      <trkpt lat="48.99733" lon="1.11105">
        <ele>123</ele>
        <time>2013-04-21T09:21:30.000Z</time>
      </trkpt>
      <trkpt lat="48.99729" lon="1.1111">
        <ele>123</ele>
        <time>2013-04-21T09:21:32.000Z</time>
      </trkpt>
      <trkpt lat="48.99726" lon="1.11115">
        <ele>123</ele>
        <time>2013-04-21T09:21:34.000Z</time>
      </trkpt>
      <trkpt lat="48.99722" lon="1.1112">
        <ele>123</ele>
        <time>2013-04-21T09:21:36.000Z</time>
      </trkpt>
      <trkpt lat="48.99718" lon="1.11125">
        <ele>123</ele>
        <time>2013-04-21T09:21:38.000Z</time>
      </trkpt>
      <trkpt lat="48.99711" lon="1.11135">
        <ele>123</ele>
        <time>2013-04-21T09:21:40.000Z</time>
      </trkpt>
      <trkpt lat="48.99711" lon="1.11135">
        <ele>123</ele>
        <time>2013-04-21T09:21:42.000Z</time>
      </trkpt>
      <trkpt lat="48.99702" lon="1.11142">
        <ele>123</ele>
        <time>2013-04-21T09:21:44.000Z</time>
      </trkpt>
      <trkpt lat="48.99702" lon="1.11142">
        <ele>123</ele>
        <time>2013-04-21T09:21:46.000Z</time>
      </trkpt>
      <trkpt lat="48.99694" lon="1.11151">
        <ele>123</ele>
        <time>2013-04-21T09:21:48.000Z</time>
      </trkpt>
      <trkpt lat="48.99694" lon="1.11151">
        <ele>123</ele>
        <time>2013-04-21T09:21:50.000Z</time>
      </trkpt>
      <trkpt lat="48.99687" lon="1.11159">
        <ele>123</ele>
        <time>2013-04-21T09:21:52.000Z</time>
      </trkpt>
      <trkpt lat="48.99679" lon="1.11164">
        <ele>124</ele>
        <time>2013-04-21T09:21:56.000Z</time>
      </trkpt>
      <trkpt lat="48.99679" lon="1.11164">
        <ele>124</ele>
        <time>2013-04-21T09:21:58.000Z</time>
      </trkpt>
      <trkpt lat="48.99671" lon="1.11171">
        <ele>124</ele>
        <time>2013-04-21T09:22:00.000Z</time>
      </trkpt>
      <trkpt lat="48.99662" lon="1.11176">
        <ele>124</ele>
        <time>2013-04-21T09:22:04.000Z</time>
      </trkpt>
      <trkpt lat="48.99654" lon="1.1118">
        <ele>124</ele>
        <time>2013-04-21T09:22:08.000Z</time>
      </trkpt>
      <trkpt lat="48.99654" lon="1.1118">
        <ele>124</ele>
        <time>2013-04-21T09:22:10.000Z</time>
      </trkpt>
      <trkpt lat="48.99646" lon="1.11185">
        <ele>124</ele>
        <time>2013-04-21T09:22:12.000Z</time>
      </trkpt>
      <trkpt lat="48.99646" lon="1.11185">
        <ele>124</ele>
        <time>2013-04-21T09:22:14.000Z</time>
      </trkpt>
      <trkpt lat="48.99638" lon="1.1119">
        <ele>124</ele>
        <time>2013-04-21T09:22:16.000Z</time>
      </trkpt>
      <trkpt lat="48.99638" lon="1.1119">
        <ele>124</ele>
        <time>2013-04-21T09:22:18.000Z</time>
      </trkpt>
      <trkpt lat="48.99629" lon="1.11197">
        <ele>124</ele>
        <time>2013-04-21T09:22:20.000Z</time>
      </trkpt>
      <trkpt lat="48.99629" lon="1.11197">
        <ele>124</ele>
        <time>2013-04-21T09:22:22.000Z</time>
      </trkpt>
      <trkpt lat="48.9962" lon="1.11202">
        <ele>124</ele>
        <time>2013-04-21T09:22:24.000Z</time>
      </trkpt>
      <trkpt lat="48.99611" lon="1.11206">
        <ele>124</ele>
        <time>2013-04-21T09:22:28.000Z</time>
      </trkpt>
      <trkpt lat="48.99602" lon="1.11209">
        <ele>125</ele>
        <time>2013-04-21T09:22:32.000Z</time>
      </trkpt>
      <trkpt lat="48.99593" lon="1.11213">
        <ele>125</ele>
        <time>2013-04-21T09:22:36.000Z</time>
      </trkpt>
      <trkpt lat="48.99584" lon="1.11217">
        <ele>125</ele>
        <time>2013-04-21T09:22:40.000Z</time>
      </trkpt>
      <trkpt lat="48.99576" lon="1.11224">
        <ele>126</ele>
        <time>2013-04-21T09:22:44.000Z</time>
      </trkpt>
      <trkpt lat="48.99569" lon="1.11231">
        <ele>126</ele>
        <time>2013-04-21T09:22:48.000Z</time>
      </trkpt>
      <trkpt lat="48.99569" lon="1.11231">
        <ele>126</ele>
        <time>2013-04-21T09:22:50.000Z</time>
      </trkpt>
      <trkpt lat="48.99561" lon="1.11237">
        <ele>126</ele>
        <time>2013-04-21T09:22:52.000Z</time>
      </trkpt>
      <trkpt lat="48.99553" lon="1.11244">
        <ele>126</ele>
        <time>2013-04-21T09:22:56.000Z</time>
      </trkpt>
      <trkpt lat="48.99545" lon="1.11252">
        <ele>126</ele>
        <time>2013-04-21T09:23:00.000Z</time>
      </trkpt>
      <trkpt lat="48.99536" lon="1.1126">
        <ele>126</ele>
        <time>2013-04-21T09:23:04.000Z</time>
      </trkpt>
      <trkpt lat="48.99536" lon="1.1126">
        <ele>126</ele>
        <time>2013-04-21T09:23:06.000Z</time>
      </trkpt>
      <trkpt lat="48.99529" lon="1.11269">
        <ele>126</ele>
        <time>2013-04-21T09:23:08.000Z</time>
      </trkpt>
      <trkpt lat="48.99529" lon="1.11269">
        <ele>126</ele>
        <time>2013-04-21T09:23:10.000Z</time>
      </trkpt>
      <trkpt lat="48.99521" lon="1.11278">
        <ele>126</ele>
        <time>2013-04-21T09:23:12.000Z</time>
      </trkpt>
      <trkpt lat="48.99521" lon="1.11278">
        <ele>126</ele>
        <time>2013-04-21T09:23:14.000Z</time>
      </trkpt>
      <trkpt lat="48.99514" lon="1.11286">
        <ele>125</ele>
        <time>2013-04-21T09:23:16.000Z</time>
      </trkpt>
      <trkpt lat="48.99506" lon="1.11293">
        <ele>125</ele>
        <time>2013-04-21T09:23:20.000Z</time>
      </trkpt>
      <trkpt lat="48.99506" lon="1.11293">
        <ele>125</ele>
        <time>2013-04-21T09:23:22.000Z</time>
      </trkpt>
      <trkpt lat="48.99499" lon="1.11301">
        <ele>125</ele>
        <time>2013-04-21T09:23:24.000Z</time>
      </trkpt>
      <trkpt lat="48.99492" lon="1.11309">
        <ele>125</ele>
        <time>2013-04-21T09:23:28.000Z</time>
      </trkpt>
      <trkpt lat="48.99492" lon="1.11309">
        <ele>125</ele>
        <time>2013-04-21T09:23:30.000Z</time>
      </trkpt>
      <trkpt lat="48.99484" lon="1.11316">
        <ele>125</ele>
        <time>2013-04-21T09:23:32.000Z</time>
      </trkpt>
      <trkpt lat="48.99474" lon="1.11318">
        <ele>125</ele>
        <time>2013-04-21T09:23:36.000Z</time>
      </trkpt>
      <trkpt lat="48.9947" lon="1.1132">
        <ele>126</ele>
        <time>2013-04-21T09:23:40.000Z</time>
      </trkpt>
      <trkpt lat="48.99466" lon="1.11321">
        <ele>126</ele>
        <time>2013-04-21T09:23:42.000Z</time>
      </trkpt>
      <trkpt lat="48.99461" lon="1.11323">
        <ele>126</ele>
        <time>2013-04-21T09:23:44.000Z</time>
      </trkpt>
      <trkpt lat="48.99457" lon="1.11326">
        <ele>126</ele>
        <time>2013-04-21T09:23:46.000Z</time>
      </trkpt>
      <trkpt lat="48.99453" lon="1.11328">
        <ele>126</ele>
        <time>2013-04-21T09:23:48.000Z</time>
      </trkpt>
      <trkpt lat="48.99445" lon="1.11333">
        <ele>126</ele>
        <time>2013-04-21T09:23:50.000Z</time>
      </trkpt>
      <trkpt lat="48.99445" lon="1.11333">
        <ele>126</ele>
        <time>2013-04-21T09:23:52.000Z</time>
      </trkpt>
      <trkpt lat="48.99437" lon="1.11337">
        <ele>126</ele>
        <time>2013-04-21T09:23:54.000Z</time>
      </trkpt>
      <trkpt lat="48.99427" lon="1.11342">
        <ele>126</ele>
        <time>2013-04-21T09:23:58.000Z</time>
      </trkpt>
      <trkpt lat="48.99419" lon="1.11346">
        <ele>126</ele>
        <time>2013-04-21T09:24:02.000Z</time>
      </trkpt>
      <trkpt lat="48.9941" lon="1.11349">
        <ele>127</ele>
        <time>2013-04-21T09:24:06.000Z</time>
      </trkpt>
      <trkpt lat="48.9941" lon="1.11349">
        <ele>127</ele>
        <time>2013-04-21T09:24:08.000Z</time>
      </trkpt>
      <trkpt lat="48.99402" lon="1.11354">
        <ele>127</ele>
        <time>2013-04-21T09:24:10.000Z</time>
      </trkpt>
      <trkpt lat="48.99402" lon="1.11354">
        <ele>127</ele>
        <time>2013-04-21T09:24:12.000Z</time>
      </trkpt>
      <trkpt lat="48.99393" lon="1.11357">
        <ele>127</ele>
        <time>2013-04-21T09:24:14.000Z</time>
      </trkpt>
      <trkpt lat="48.99384" lon="1.11361">
        <ele>127</ele>
        <time>2013-04-21T09:24:18.000Z</time>
      </trkpt>
      <trkpt lat="48.99376" lon="1.11365">
        <ele>128</ele>
        <time>2013-04-21T09:24:22.000Z</time>
      </trkpt>
      <trkpt lat="48.99369" lon="1.11373">
        <ele>128</ele>
        <time>2013-04-21T09:24:26.000Z</time>
      </trkpt>
      <trkpt lat="48.99363" lon="1.11381">
        <ele>128</ele>
        <time>2013-04-21T09:24:30.000Z</time>
      </trkpt>
      <trkpt lat="48.99358" lon="1.11392">
        <ele>128</ele>
        <time>2013-04-21T09:24:34.000Z</time>
      </trkpt>
      <trkpt lat="48.99358" lon="1.11392">
        <ele>128</ele>
        <time>2013-04-21T09:24:36.000Z</time>
      </trkpt>
      <trkpt lat="48.99355" lon="1.11404">
        <ele>128</ele>
        <time>2013-04-21T09:24:38.000Z</time>
      </trkpt>
      <trkpt lat="48.99356" lon="1.11418">
        <ele>128</ele>
        <time>2013-04-21T09:24:42.000Z</time>
      </trkpt>
      <trkpt lat="48.99361" lon="1.11431">
        <ele>129</ele>
        <time>2013-04-21T09:24:46.000Z</time>
      </trkpt>
      <trkpt lat="48.99368" lon="1.11442">
        <ele>129</ele>
        <time>2013-04-21T09:24:50.000Z</time>
      </trkpt>
      <trkpt lat="48.99368" lon="1.11442">
        <ele>129</ele>
        <time>2013-04-21T09:24:52.000Z</time>
      </trkpt>
      <trkpt lat="48.99374" lon="1.11453">
        <ele>129</ele>
        <time>2013-04-21T09:24:54.000Z</time>
      </trkpt>
      <trkpt lat="48.99381" lon="1.11463">
        <ele>129</ele>
        <time>2013-04-21T09:24:58.000Z</time>
      </trkpt>
      <trkpt lat="48.99388" lon="1.11474">
        <ele>129</ele>
        <time>2013-04-21T09:25:02.000Z</time>
      </trkpt>
      <trkpt lat="48.99392" lon="1.11486">
        <ele>129</ele>
        <time>2013-04-21T09:25:06.000Z</time>
      </trkpt>
      <trkpt lat="48.99392" lon="1.11486">
        <ele>129</ele>
        <time>2013-04-21T09:25:08.000Z</time>
      </trkpt>
      <trkpt lat="48.99396" lon="1.11498">
        <ele>130</ele>
        <time>2013-04-21T09:25:10.000Z</time>
      </trkpt>
      <trkpt lat="48.99401" lon="1.11512">
        <ele>130</ele>
        <time>2013-04-21T09:25:14.000Z</time>
      </trkpt>
      <trkpt lat="48.99401" lon="1.11512">
        <ele>130</ele>
        <time>2013-04-21T09:25:16.000Z</time>
      </trkpt>
      <trkpt lat="48.99404" lon="1.11527">
        <ele>130</ele>
        <time>2013-04-21T09:25:18.000Z</time>
      </trkpt>
      <trkpt lat="48.99407" lon="1.11544">
        <ele>130</ele>
        <time>2013-04-21T09:25:22.000Z</time>
      </trkpt>
      <trkpt lat="48.99408" lon="1.11556">
        <ele>130</ele>
        <time>2013-04-21T09:25:26.000Z</time>
      </trkpt>
      <trkpt lat="48.99408" lon="1.11556">
        <ele>130</ele>
        <time>2013-04-21T09:25:28.000Z</time>
      </trkpt>
      <trkpt lat="48.99408" lon="1.11572">
        <ele>130</ele>
        <time>2013-04-21T09:25:30.000Z</time>
      </trkpt>
      <trkpt lat="48.99405" lon="1.11586">
        <ele>130</ele>
        <time>2013-04-21T09:25:34.000Z</time>
      </trkpt>
      <trkpt lat="48.994" lon="1.11602">
        <ele>131</ele>
        <time>2013-04-21T09:25:38.000Z</time>
      </trkpt>
      <trkpt lat="48.994" lon="1.11602">
        <ele>131</ele>
        <time>2013-04-21T09:25:40.000Z</time>
      </trkpt>
      <trkpt lat="48.99394" lon="1.11616">
        <ele>131</ele>
        <time>2013-04-21T09:25:42.000Z</time>
      </trkpt>
      <trkpt lat="48.9939" lon="1.11629">
        <ele>131</ele>
        <time>2013-04-21T09:25:46.000Z</time>
      </trkpt>
      <trkpt lat="48.9939" lon="1.11629">
        <ele>131</ele>
        <time>2013-04-21T09:25:48.000Z</time>
      </trkpt>
      <trkpt lat="48.99388" lon="1.11635">
        <ele>131</ele>
        <time>2013-04-21T09:25:50.000Z</time>
      </trkpt>
      <trkpt lat="48.99386" lon="1.11641">
        <ele>131</ele>
        <time>2013-04-21T09:25:52.000Z</time>
      </trkpt>
      <trkpt lat="48.99384" lon="1.11647">
        <ele>131</ele>
        <time>2013-04-21T09:25:54.000Z</time>
      </trkpt>
      <trkpt lat="48.99382" lon="1.11653">
        <ele>131</ele>
        <time>2013-04-21T09:25:56.000Z</time>
      </trkpt>
      <trkpt lat="48.99379" lon="1.1166">
        <ele>131</ele>
        <time>2013-04-21T09:25:58.000Z</time>
      </trkpt>
      <trkpt lat="48.99375" lon="1.11673">
        <ele>131</ele>
        <time>2013-04-21T09:26:00.000Z</time>
      </trkpt>
      <trkpt lat="48.99375" lon="1.11673">
        <ele>131</ele>
        <time>2013-04-21T09:26:02.000Z</time>
      </trkpt>
      <trkpt lat="48.99369" lon="1.11685">
        <ele>131</ele>
        <time>2013-04-21T09:26:04.000Z</time>
      </trkpt>
      <trkpt lat="48.99369" lon="1.11685">
        <ele>131</ele>
        <time>2013-04-21T09:26:06.000Z</time>
      </trkpt>
      <trkpt lat="48.99362" lon="1.11697">
        <ele>132</ele>
        <time>2013-04-21T09:26:08.000Z</time>
      </trkpt>
      <trkpt lat="48.99356" lon="1.1171">
        <ele>132</ele>
        <time>2013-04-21T09:26:12.000Z</time>
      </trkpt>
      <trkpt lat="48.99356" lon="1.1171">
        <ele>132</ele>
        <time>2013-04-21T09:26:14.000Z</time>
      </trkpt>
      <trkpt lat="48.99315" lon="1.11773">
        <ele>131</ele>
        <time>2013-04-21T09:26:37.000Z</time>
      </trkpt>
      <trkpt lat="48.99315" lon="1.11773">
        <ele>131</ele>
        <time>2013-04-21T09:26:38.000Z</time>
      </trkpt>
      <trkpt lat="48.99308" lon="1.11782">
        <ele>132</ele>
        <time>2013-04-21T09:26:40.000Z</time>
      </trkpt>
      <trkpt lat="48.99308" lon="1.11782">
        <ele>132</ele>
        <time>2013-04-21T09:26:42.000Z</time>
      </trkpt>
      <trkpt lat="48.99301" lon="1.11787">
        <ele>132</ele>
        <time>2013-04-21T09:26:44.000Z</time>
      </trkpt>
      <trkpt lat="48.99301" lon="1.11787">
        <ele>132</ele>
        <time>2013-04-21T09:26:46.000Z</time>
      </trkpt>
      <trkpt lat="48.99294" lon="1.11794">
        <ele>132</ele>
        <time>2013-04-21T09:26:48.000Z</time>
      </trkpt>
      <trkpt lat="48.99287" lon="1.11804">
        <ele>132</ele>
        <time>2013-04-21T09:26:52.000Z</time>
      </trkpt>
      <trkpt lat="48.99281" lon="1.11814">
        <ele>132</ele>
        <time>2013-04-21T09:26:56.000Z</time>
      </trkpt>
      <trkpt lat="48.99281" lon="1.11814">
        <ele>132</ele>
        <time>2013-04-21T09:26:58.000Z</time>
      </trkpt>
      <trkpt lat="48.99277" lon="1.11827">
        <ele>132</ele>
        <time>2013-04-21T09:27:00.000Z</time>
      </trkpt>
      <trkpt lat="48.99277" lon="1.11827">
        <ele>132</ele>
        <time>2013-04-21T09:27:02.000Z</time>
      </trkpt>
      <trkpt lat="48.99274" lon="1.11842">
        <ele>132</ele>
        <time>2013-04-21T09:27:04.000Z</time>
      </trkpt>
      <trkpt lat="48.99267" lon="1.11853">
        <ele>132</ele>
        <time>2013-04-21T09:27:08.000Z</time>
      </trkpt>
      <trkpt lat="48.99259" lon="1.11862">
        <ele>132</ele>
        <time>2013-04-21T09:27:12.000Z</time>
      </trkpt>
      <trkpt lat="48.99251" lon="1.11869">
        <ele>132</ele>
        <time>2013-04-21T09:27:16.000Z</time>
      </trkpt>
      <trkpt lat="48.99251" lon="1.11869">
        <ele>132</ele>
        <time>2013-04-21T09:27:18.000Z</time>
      </trkpt>
      <trkpt lat="48.99241" lon="1.11876">
        <ele>132</ele>
        <time>2013-04-21T09:27:20.000Z</time>
      </trkpt>
      <trkpt lat="48.99241" lon="1.11876">
        <ele>132</ele>
        <time>2013-04-21T09:27:22.000Z</time>
      </trkpt>
      <trkpt lat="48.99231" lon="1.11882">
        <ele>133</ele>
        <time>2013-04-21T09:27:24.000Z</time>
      </trkpt>
      <trkpt lat="48.99221" lon="1.11886">
        <ele>133</ele>
        <time>2013-04-21T09:27:28.000Z</time>
      </trkpt>
      <trkpt lat="48.99212" lon="1.1189">
        <ele>133</ele>
        <time>2013-04-21T09:27:32.000Z</time>
      </trkpt>
      <trkpt lat="48.99203" lon="1.11894">
        <ele>133</ele>
        <time>2013-04-21T09:27:36.000Z</time>
      </trkpt>
      <trkpt lat="48.99193" lon="1.11895">
        <ele>133</ele>
        <time>2013-04-21T09:27:40.000Z</time>
      </trkpt>
      <trkpt lat="48.99183" lon="1.11895">
        <ele>133</ele>
        <time>2013-04-21T09:27:44.000Z</time>
      </trkpt>
      <trkpt lat="48.99173" lon="1.11894">
        <ele>133</ele>
        <time>2013-04-21T09:27:48.000Z</time>
      </trkpt>
      <trkpt lat="48.99173" lon="1.11894">
        <ele>133</ele>
        <time>2013-04-21T09:27:50.000Z</time>
      </trkpt>
      <trkpt lat="48.99163" lon="1.11892">
        <ele>133</ele>
        <time>2013-04-21T09:27:52.000Z</time>
      </trkpt>
      <trkpt lat="48.99163" lon="1.11892">
        <ele>133</ele>
        <time>2013-04-21T09:27:54.000Z</time>
      </trkpt>
      <trkpt lat="48.99155" lon="1.1189">
        <ele>134</ele>
        <time>2013-04-21T09:27:56.000Z</time>
      </trkpt>
      <trkpt lat="48.99146" lon="1.11887">
        <ele>134</ele>
        <time>2013-04-21T09:28:00.000Z</time>
      </trkpt>
      <trkpt lat="48.99138" lon="1.1188">
        <ele>134</ele>
        <time>2013-04-21T09:28:04.000Z</time>
      </trkpt>
      <trkpt lat="48.99132" lon="1.11872">
        <ele>134</ele>
        <time>2013-04-21T09:28:08.000Z</time>
      </trkpt>
      <trkpt lat="48.99132" lon="1.11872">
        <ele>134</ele>
        <time>2013-04-21T09:28:10.000Z</time>
      </trkpt>
      <trkpt lat="48.99126" lon="1.11864">
        <ele>135</ele>
        <time>2013-04-21T09:28:12.000Z</time>
      </trkpt>
      <trkpt lat="48.99126" lon="1.11864">
        <ele>135</ele>
        <time>2013-04-21T09:28:14.000Z</time>
      </trkpt>
      <trkpt lat="48.9912" lon="1.11854">
        <ele>135</ele>
        <time>2013-04-21T09:28:16.000Z</time>
      </trkpt>
      <trkpt lat="48.99117" lon="1.11849">
        <ele>136</ele>
        <time>2013-04-21T09:28:20.000Z</time>
      </trkpt>
      <trkpt lat="48.99114" lon="1.11844">
        <ele>136</ele>
        <time>2013-04-21T09:28:22.000Z</time>
      </trkpt>
      <trkpt lat="48.99111" lon="1.11839">
        <ele>136</ele>
        <time>2013-04-21T09:28:24.000Z</time>
      </trkpt>
      <trkpt lat="48.99108" lon="1.11835">
        <ele>136</ele>
        <time>2013-04-21T09:28:26.000Z</time>
      </trkpt>
      <trkpt lat="48.99105" lon="1.11831">
        <ele>136</ele>
        <time>2013-04-21T09:28:28.000Z</time>
      </trkpt>
      <trkpt lat="48.99097" lon="1.11823">
        <ele>136</ele>
        <time>2013-04-21T09:28:30.000Z</time>
      </trkpt>
      <trkpt lat="48.99097" lon="1.11823">
        <ele>136</ele>
        <time>2013-04-21T09:28:32.000Z</time>
      </trkpt>
      <trkpt lat="48.9909" lon="1.11816">
        <ele>136</ele>
        <time>2013-04-21T09:28:34.000Z</time>
      </trkpt>
      <trkpt lat="48.9909" lon="1.11816">
        <ele>136</ele>
        <time>2013-04-21T09:28:36.000Z</time>
      </trkpt>
      <trkpt lat="48.99081" lon="1.11806">
        <ele>137</ele>
        <time>2013-04-21T09:28:38.000Z</time>
      </trkpt>
      <trkpt lat="48.99077" lon="1.118">
        <ele>137</ele>
        <time>2013-04-21T09:28:40.000Z</time>
      </trkpt>
      <trkpt lat="48.99077" lon="1.118">
        <ele>137</ele>
        <time>2013-04-21T09:28:42.000Z</time>
      </trkpt>
      <trkpt lat="48.9907" lon="1.1179">
        <ele>136</ele>
        <time>2013-04-21T09:28:44.000Z</time>
      </trkpt>
      <trkpt lat="48.99061" lon="1.11782">
        <ele>136</ele>
        <time>2013-04-21T09:28:48.000Z</time>
      </trkpt>
      <trkpt lat="48.99052" lon="1.11775">
        <ele>136</ele>
        <time>2013-04-21T09:28:52.000Z</time>
      </trkpt>
      <trkpt lat="48.99052" lon="1.11775">
        <ele>136</ele>
        <time>2013-04-21T09:28:54.000Z</time>
      </trkpt>
      <trkpt lat="48.99044" lon="1.1177">
        <ele>136</ele>
        <time>2013-04-21T09:28:56.000Z</time>
      </trkpt>
      <trkpt lat="48.99035" lon="1.11765">
        <ele>135</ele>
        <time>2013-04-21T09:29:00.000Z</time>
      </trkpt>
      <trkpt lat="48.99025" lon="1.11759">
        <ele>135</ele>
        <time>2013-04-21T09:29:04.000Z</time>
      </trkpt>
      <trkpt lat="48.99019" lon="1.11758">
        <ele>135</ele>
        <time>2013-04-21T09:29:06.000Z</time>
      </trkpt>
      <trkpt lat="48.99009" lon="1.11755">
        <ele>134</ele>
        <time>2013-04-21T09:29:10.000Z</time>
      </trkpt>
      <trkpt lat="48.99009" lon="1.11755">
        <ele>134</ele>
        <time>2013-04-21T09:29:12.000Z</time>
      </trkpt>
      <trkpt lat="48.99001" lon="1.11757">
        <ele>134</ele>
        <time>2013-04-21T09:29:14.000Z</time>
      </trkpt>
      <trkpt lat="48.99001" lon="1.11757">
        <ele>134</ele>
        <time>2013-04-21T09:29:16.000Z</time>
      </trkpt>
      <trkpt lat="48.98992" lon="1.11755">
        <ele>134</ele>
        <time>2013-04-21T09:29:18.000Z</time>
      </trkpt>
      <trkpt lat="48.98982" lon="1.11752">
        <ele>134</ele>
        <time>2013-04-21T09:29:22.000Z</time>
      </trkpt>
      <trkpt lat="48.98972" lon="1.1175">
        <ele>135</ele>
        <time>2013-04-21T09:29:26.000Z</time>
      </trkpt>
      <trkpt lat="48.98972" lon="1.1175">
        <ele>135</ele>
        <time>2013-04-21T09:29:28.000Z</time>
      </trkpt>
      <trkpt lat="48.98964" lon="1.11751">
        <ele>135</ele>
        <time>2013-04-21T09:29:30.000Z</time>
      </trkpt>
      <trkpt lat="48.98964" lon="1.11751">
        <ele>135</ele>
        <time>2013-04-21T09:29:32.000Z</time>
      </trkpt>
      <trkpt lat="48.98956" lon="1.11751">
        <ele>136</ele>
        <time>2013-04-21T09:29:34.000Z</time>
      </trkpt>
      <trkpt lat="48.98956" lon="1.11751">
        <ele>136</ele>
        <time>2013-04-21T09:29:36.000Z</time>
      </trkpt>
      <trkpt lat="48.98947" lon="1.1175">
        <ele>136</ele>
        <time>2013-04-21T09:29:38.000Z</time>
      </trkpt>
      <trkpt lat="48.98936" lon="1.1175">
        <ele>137</ele>
        <time>2013-04-21T09:29:42.000Z</time>
      </trkpt>
      <trkpt lat="48.98926" lon="1.11749">
        <ele>137</ele>
        <time>2013-04-21T09:29:46.000Z</time>
      </trkpt>
      <trkpt lat="48.98926" lon="1.11749">
        <ele>137</ele>
        <time>2013-04-21T09:29:48.000Z</time>
      </trkpt>
      <trkpt lat="48.9892" lon="1.11759">
        <ele>137</ele>
        <time>2013-04-21T09:29:50.000Z</time>
      </trkpt>
      <trkpt lat="48.9892" lon="1.11759">
        <ele>137</ele>
        <time>2013-04-21T09:29:52.000Z</time>
      </trkpt>
      <trkpt lat="48.9892" lon="1.11771">
        <ele>137</ele>
        <time>2013-04-21T09:29:54.000Z</time>
      </trkpt>
      <trkpt lat="48.9892" lon="1.11771">
        <ele>137</ele>
        <time>2013-04-21T09:29:58.000Z</time>
      </trkpt>
      <trkpt lat="48.98925" lon="1.11783">
        <ele>138</ele>
        <time>2013-04-21T09:30:00.000Z</time>
      </trkpt>
      <trkpt lat="48.98925" lon="1.11783">
        <ele>138</ele>
        <time>2013-04-21T09:30:02.000Z</time>
      </trkpt>
      <trkpt lat="48.98925" lon="1.11783">
        <ele>138</ele>
        <time>2013-04-21T09:30:04.000Z</time>
      </trkpt>
      <trkpt lat="48.98924" lon="1.11792">
        <ele>139</ele>
        <time>2013-04-21T09:30:06.000Z</time>
      </trkpt>
      <trkpt lat="48.98924" lon="1.11792">
        <ele>139</ele>
        <time>2013-04-21T09:30:08.000Z</time>
      </trkpt>
      <trkpt lat="48.98924" lon="1.11792">
        <ele>139</ele>
        <time>2013-04-21T09:30:10.000Z</time>
      </trkpt>
      <trkpt lat="48.98925" lon="1.11803">
        <ele>140</ele>
        <time>2013-04-21T09:30:12.000Z</time>
      </trkpt>
      <trkpt lat="48.98925" lon="1.11813">
        <ele>141</ele>
        <time>2013-04-21T09:30:16.000Z</time>
      </trkpt>
      <trkpt lat="48.98927" lon="1.11822">
        <ele>142</ele>
        <time>2013-04-21T09:30:20.000Z</time>
      </trkpt>
      <trkpt lat="48.9893" lon="1.11832">
        <ele>143</ele>
        <time>2013-04-21T09:30:24.000Z</time>
      </trkpt>
      <trkpt lat="48.98932" lon="1.11836">
        <ele>143</ele>
        <time>2013-04-21T09:30:28.000Z</time>
      </trkpt>
      <trkpt lat="48.98933" lon="1.1184">
        <ele>144</ele>
        <time>2013-04-21T09:30:30.000Z</time>
      </trkpt>
      <trkpt lat="48.98935" lon="1.11844">
        <ele>144</ele>
        <time>2013-04-21T09:30:32.000Z</time>
      </trkpt>
      <trkpt lat="48.98938" lon="1.11847">
        <ele>145</ele>
        <time>2013-04-21T09:30:34.000Z</time>
      </trkpt>
      <trkpt lat="48.98939" lon="1.11852">
        <ele>146</ele>
        <time>2013-04-21T09:30:36.000Z</time>
      </trkpt>
      <trkpt lat="48.98944" lon="1.11862">
        <ele>147</ele>
        <time>2013-04-21T09:30:40.000Z</time>
      </trkpt>
      <trkpt lat="48.98947" lon="1.11873">
        <ele>148</ele>
        <time>2013-04-21T09:30:44.000Z</time>
      </trkpt>
      <trkpt lat="48.98947" lon="1.11873">
        <ele>148</ele>
        <time>2013-04-21T09:30:46.000Z</time>
      </trkpt>
      <trkpt lat="48.98949" lon="1.11882">
        <ele>149</ele>
        <time>2013-04-21T09:30:48.000Z</time>
      </trkpt>
      <trkpt lat="48.98949" lon="1.11882">
        <ele>149</ele>
        <time>2013-04-21T09:30:50.000Z</time>
      </trkpt>
      <trkpt lat="48.98953" lon="1.1189">
        <ele>150</ele>
        <time>2013-04-21T09:30:52.000Z</time>
      </trkpt>
      <trkpt lat="48.98953" lon="1.1189">
        <ele>150</ele>
        <time>2013-04-21T09:30:54.000Z</time>
      </trkpt>
      <trkpt lat="48.98953" lon="1.1189">
        <ele>150</ele>
        <time>2013-04-21T09:30:56.000Z</time>
      </trkpt>
      <trkpt lat="48.98954" lon="1.119">
        <ele>152</ele>
        <time>2013-04-21T09:30:58.000Z</time>
      </trkpt>
      <trkpt lat="48.98954" lon="1.119">
        <ele>152</ele>
        <time>2013-04-21T09:31:00.000Z</time>
      </trkpt>
      <trkpt lat="48.98954" lon="1.119">
        <ele>152</ele>
        <time>2013-04-21T09:31:02.000Z</time>
      </trkpt>
      <trkpt lat="48.98954" lon="1.119">
        <ele>152</ele>
        <time>2013-04-21T09:31:04.000Z</time>
      </trkpt>
      <trkpt lat="48.98955" lon="1.11914">
        <ele>155</ele>
        <time>2013-04-21T09:31:06.000Z</time>
      </trkpt>
      <trkpt lat="48.98957" lon="1.11922">
        <ele>156</ele>
        <time>2013-04-21T09:31:10.000Z</time>
      </trkpt>
      <trkpt lat="48.9896" lon="1.11932">
        <ele>159</ele>
        <time>2013-04-21T09:31:16.000Z</time>
      </trkpt>
      <trkpt lat="48.9896" lon="1.11932">
        <ele>159</ele>
        <time>2013-04-21T09:31:18.000Z</time>
      </trkpt>
      <trkpt lat="48.9896" lon="1.11941">
        <ele>160</ele>
        <time>2013-04-21T09:31:20.000Z</time>
      </trkpt>
      <trkpt lat="48.98961" lon="1.11954">
        <ele>161</ele>
        <time>2013-04-21T09:31:24.000Z</time>
      </trkpt>
      <trkpt lat="48.98965" lon="1.11966">
        <ele>162</ele>
        <time>2013-04-21T09:31:28.000Z</time>
      </trkpt>
      <trkpt lat="48.98967" lon="1.11978">
        <ele>163</ele>
        <time>2013-04-21T09:31:32.000Z</time>
      </trkpt>
      <trkpt lat="48.98973" lon="1.11995">
        <ele>165</ele>
        <time>2013-04-21T09:31:38.000Z</time>
      </trkpt>
      <trkpt lat="48.98973" lon="1.11995">
        <ele>165</ele>
        <time>2013-04-21T09:31:40.000Z</time>
      </trkpt>
      <trkpt lat="48.98976" lon="1.12003">
        <ele>167</ele>
        <time>2013-04-21T09:31:42.000Z</time>
      </trkpt>
      <trkpt lat="48.98976" lon="1.12003">
        <ele>167</ele>
        <time>2013-04-21T09:31:44.000Z</time>
      </trkpt>
      <trkpt lat="48.98976" lon="1.12003">
        <ele>167</ele>
        <time>2013-04-21T09:31:46.000Z</time>
      </trkpt>
      <trkpt lat="48.98976" lon="1.12003">
        <ele>167</ele>
        <time>2013-04-21T09:31:48.000Z</time>
      </trkpt>
      <trkpt lat="48.98976" lon="1.12003">
        <ele>167</ele>
        <time>2013-04-21T09:31:50.000Z</time>
      </trkpt>
      <trkpt lat="48.98976" lon="1.12003">
        <ele>167</ele>
        <time>2013-04-21T09:31:52.000Z</time>
      </trkpt>
      <trkpt lat="48.98971" lon="1.11997">
        <ele>169</ele>
        <time>2013-04-21T09:31:54.000Z</time>
      </trkpt>
      <trkpt lat="48.9897" lon="1.11988">
        <ele>170</ele>
        <time>2013-04-21T09:31:58.000Z</time>
      </trkpt>
      <trkpt lat="48.98968" lon="1.11979">
        <ele>170</ele>
        <time>2013-04-21T09:32:04.000Z</time>
      </trkpt>
      <trkpt lat="48.98968" lon="1.11979">
        <ele>170</ele>
        <time>2013-04-21T09:32:06.000Z</time>
      </trkpt>
      <trkpt lat="48.98973" lon="1.1199">
        <ele>172</ele>
        <time>2013-04-21T09:32:10.000Z</time>
      </trkpt>
      <trkpt lat="48.98973" lon="1.11994">
        <ele>173</ele>
        <time>2013-04-21T09:32:14.000Z</time>
      </trkpt>
      <trkpt lat="48.98973" lon="1.11999">
        <ele>173</ele>
        <time>2013-04-21T09:32:16.000Z</time>
      </trkpt>
      <trkpt lat="48.98974" lon="1.12004">
        <ele>174</ele>
        <time>2013-04-21T09:32:18.000Z</time>
      </trkpt>
      <trkpt lat="48.98975" lon="1.12009">
        <ele>174</ele>
        <time>2013-04-21T09:32:20.000Z</time>
      </trkpt>
      <trkpt lat="48.98975" lon="1.12009">
        <ele>174</ele>
        <time>2013-04-21T09:32:22.000Z</time>
      </trkpt>
      <trkpt lat="48.98975" lon="1.12009">
        <ele>174</ele>
        <time>2013-04-21T09:32:24.000Z</time>
      </trkpt>
      <trkpt lat="48.98977" lon="1.12017">
        <ele>175</ele>
        <time>2013-04-21T09:32:26.000Z</time>
      </trkpt>
      <trkpt lat="48.98979" lon="1.12023">
        <ele>176</ele>
        <time>2013-04-21T09:32:28.000Z</time>
      </trkpt>
      <trkpt lat="48.98981" lon="1.1203">
        <ele>176</ele>
        <time>2013-04-21T09:32:30.000Z</time>
      </trkpt>
      <trkpt lat="48.98984" lon="1.12038">
        <ele>176</ele>
        <time>2013-04-21T09:32:32.000Z</time>
      </trkpt>
      <trkpt lat="48.98986" lon="1.12045">
        <ele>176</ele>
        <time>2013-04-21T09:32:34.000Z</time>
      </trkpt>
      <trkpt lat="48.9899" lon="1.12054">
        <ele>177</ele>
        <time>2013-04-21T09:32:36.000Z</time>
      </trkpt>
      <trkpt lat="48.98985" lon="1.1204">
        <ele>178</ele>
        <time>2013-04-21T09:32:40.000Z</time>
      </trkpt>
      <trkpt lat="48.98985" lon="1.1204">
        <ele>178</ele>
        <time>2013-04-21T09:32:42.000Z</time>
      </trkpt>
      <trkpt lat="48.98983" lon="1.12029">
        <ele>178</ele>
        <time>2013-04-21T09:32:44.000Z</time>
      </trkpt>
      <trkpt lat="48.98983" lon="1.12029">
        <ele>178</ele>
        <time>2013-04-21T09:32:46.000Z</time>
      </trkpt>
      <trkpt lat="48.98983" lon="1.12029">
        <ele>178</ele>
        <time>2013-04-21T09:32:48.000Z</time>
      </trkpt>
      <trkpt lat="48.98983" lon="1.1202">
        <ele>178</ele>
        <time>2013-04-21T09:32:50.000Z</time>
      </trkpt>
      <trkpt lat="48.98983" lon="1.1202">
        <ele>178</ele>
        <time>2013-04-21T09:32:52.000Z</time>
      </trkpt>
      <trkpt lat="48.98987" lon="1.12032">
        <ele>179</ele>
        <time>2013-04-21T09:32:56.000Z</time>
      </trkpt>
      <trkpt lat="48.9899" lon="1.12043">
        <ele>181</ele>
        <time>2013-04-21T09:33:02.000Z</time>
      </trkpt>
      <trkpt lat="48.9899" lon="1.12043">
        <ele>181</ele>
        <time>2013-04-21T09:33:04.000Z</time>
      </trkpt>
      <trkpt lat="48.9899" lon="1.12043">
        <ele>181</ele>
        <time>2013-04-21T09:33:06.000Z</time>
      </trkpt>
      <trkpt lat="48.98995" lon="1.12039">
        <ele>183</ele>
        <time>2013-04-21T09:33:10.000Z</time>
      </trkpt>
      <trkpt lat="48.98998" lon="1.12031">
        <ele>183</ele>
        <time>2013-04-21T09:33:12.000Z</time>
      </trkpt>
      <trkpt lat="48.99002" lon="1.12023">
        <ele>184</ele>
        <time>2013-04-21T09:33:14.000Z</time>
      </trkpt>
      <trkpt lat="48.99006" lon="1.12016">
        <ele>184</ele>
        <time>2013-04-21T09:33:16.000Z</time>
      </trkpt>
      <trkpt lat="48.99013" lon="1.12004">
        <ele>184</ele>
        <time>2013-04-21T09:33:20.000Z</time>
      </trkpt>
      <trkpt lat="48.99019" lon="1.11991">
        <ele>184</ele>
        <time>2013-04-21T09:33:24.000Z</time>
      </trkpt>
      <trkpt lat="48.99019" lon="1.11978">
        <ele>184</ele>
        <time>2013-04-21T09:33:28.000Z</time>
      </trkpt>
      <trkpt lat="48.99013" lon="1.11966">
        <ele>184</ele>
        <time>2013-04-21T09:33:32.000Z</time>
      </trkpt>
      <trkpt lat="48.99013" lon="1.11966">
        <ele>184</ele>
        <time>2013-04-21T09:33:34.000Z</time>
      </trkpt>
      <trkpt lat="48.99009" lon="1.11956">
        <ele>184</ele>
        <time>2013-04-21T09:33:36.000Z</time>
      </trkpt>
      <trkpt lat="48.99009" lon="1.11956">
        <ele>184</ele>
        <time>2013-04-21T09:33:38.000Z</time>
      </trkpt>
      <trkpt lat="48.99006" lon="1.11945">
        <ele>183</ele>
        <time>2013-04-21T09:33:40.000Z</time>
      </trkpt>
      <trkpt lat="48.99006" lon="1.11945">
        <ele>183</ele>
        <time>2013-04-21T09:33:42.000Z</time>
      </trkpt>
      <trkpt lat="48.99002" lon="1.11934">
        <ele>183</ele>
        <time>2013-04-21T09:33:44.000Z</time>
      </trkpt>
      <trkpt lat="48.99002" lon="1.11934">
        <ele>183</ele>
        <time>2013-04-21T09:33:46.000Z</time>
      </trkpt>
      <trkpt lat="48.98997" lon="1.11924">
        <ele>183</ele>
        <time>2013-04-21T09:33:48.000Z</time>
      </trkpt>
      <trkpt lat="48.98991" lon="1.11917">
        <ele>182</ele>
        <time>2013-04-21T09:33:52.000Z</time>
      </trkpt>
      <trkpt lat="48.98991" lon="1.11917">
        <ele>182</ele>
        <time>2013-04-21T09:33:54.000Z</time>
      </trkpt>
      <trkpt lat="48.98985" lon="1.11911">
        <ele>181</ele>
        <time>2013-04-21T09:33:56.000Z</time>
      </trkpt>
      <trkpt lat="48.98985" lon="1.11911">
        <ele>181</ele>
        <time>2013-04-21T09:33:58.000Z</time>
      </trkpt>
      <trkpt lat="48.98978" lon="1.11905">
        <ele>180</ele>
        <time>2013-04-21T09:34:00.000Z</time>
      </trkpt>
      <trkpt lat="48.98978" lon="1.11905">
        <ele>180</ele>
        <time>2013-04-21T09:34:02.000Z</time>
      </trkpt>
      <trkpt lat="48.98973" lon="1.11901">
        <ele>179</ele>
        <time>2013-04-21T09:34:04.000Z</time>
      </trkpt>
      <trkpt lat="48.98969" lon="1.11893">
        <ele>178</ele>
        <time>2013-04-21T09:34:08.000Z</time>
      </trkpt>
      <trkpt lat="48.98969" lon="1.11893">
        <ele>178</ele>
        <time>2013-04-21T09:34:12.000Z</time>
      </trkpt>
      <trkpt lat="48.98968" lon="1.11882">
        <ele>177</ele>
        <time>2013-04-21T09:34:14.000Z</time>
      </trkpt>
      <trkpt lat="48.98969" lon="1.11873">
        <ele>176</ele>
        <time>2013-04-21T09:34:18.000Z</time>
      </trkpt>
      <trkpt lat="48.98976" lon="1.11867">
        <ele>175</ele>
        <time>2013-04-21T09:34:22.000Z</time>
      </trkpt>
      <trkpt lat="48.98983" lon="1.11861">
        <ele>174</ele>
        <time>2013-04-21T09:34:26.000Z</time>
      </trkpt>
      <trkpt lat="48.98983" lon="1.11861">
        <ele>174</ele>
        <time>2013-04-21T09:34:28.000Z</time>
      </trkpt>
      <trkpt lat="48.98987" lon="1.11858">
        <ele>173</ele>
        <time>2013-04-21T09:34:30.000Z</time>
      </trkpt>
      <trkpt lat="48.9899" lon="1.11856">
        <ele>172</ele>
        <time>2013-04-21T09:34:32.000Z</time>
      </trkpt>
      <trkpt lat="48.98994" lon="1.11854">
        <ele>171</ele>
        <time>2013-04-21T09:34:34.000Z</time>
      </trkpt>
      <trkpt lat="48.98999" lon="1.11854">
        <ele>170</ele>
        <time>2013-04-21T09:34:36.000Z</time>
      </trkpt>
      <trkpt lat="48.99003" lon="1.11854">
        <ele>170</ele>
        <time>2013-04-21T09:34:38.000Z</time>
      </trkpt>
      <trkpt lat="48.99013" lon="1.11854">
        <ele>169</ele>
        <time>2013-04-21T09:34:40.000Z</time>
      </trkpt>
      <trkpt lat="48.9902" lon="1.11852">
        <ele>168</ele>
        <time>2013-04-21T09:34:44.000Z</time>
      </trkpt>
      <trkpt lat="48.9902" lon="1.11852">
        <ele>168</ele>
        <time>2013-04-21T09:34:46.000Z</time>
      </trkpt>
      <trkpt lat="48.9902" lon="1.11852">
        <ele>168</ele>
        <time>2013-04-21T09:34:48.000Z</time>
      </trkpt>
      <trkpt lat="48.99026" lon="1.11843">
        <ele>166</ele>
        <time>2013-04-21T09:34:50.000Z</time>
      </trkpt>
      <trkpt lat="48.9903" lon="1.11832">
        <ele>165</ele>
        <time>2013-04-21T09:34:54.000Z</time>
      </trkpt>
      <trkpt lat="48.99028" lon="1.11822">
        <ele>164</ele>
        <time>2013-04-21T09:34:58.000Z</time>
      </trkpt>
      <trkpt lat="48.99023" lon="1.11811">
        <ele>162</ele>
        <time>2013-04-21T09:35:02.000Z</time>
      </trkpt>
      <trkpt lat="48.99017" lon="1.11801">
        <ele>161</ele>
        <time>2013-04-21T09:35:06.000Z</time>
      </trkpt>
      <trkpt lat="48.99007" lon="1.11794">
        <ele>160</ele>
        <time>2013-04-21T09:35:10.000Z</time>
      </trkpt>
      <trkpt lat="48.98998" lon="1.11789">
        <ele>159</ele>
        <time>2013-04-21T09:35:14.000Z</time>
      </trkpt>
      <trkpt lat="48.98998" lon="1.11789">
        <ele>159</ele>
        <time>2013-04-21T09:35:16.000Z</time>
      </trkpt>
      <trkpt lat="48.98988" lon="1.11783">
        <ele>157</ele>
        <time>2013-04-21T09:35:18.000Z</time>
      </trkpt>
      <trkpt lat="48.98979" lon="1.11776">
        <ele>155</ele>
        <time>2013-04-21T09:35:22.000Z</time>
      </trkpt>
      <trkpt lat="48.98972" lon="1.1177">
        <ele>154</ele>
        <time>2013-04-21T09:35:26.000Z</time>
      </trkpt>
      <trkpt lat="48.98972" lon="1.1177">
        <ele>154</ele>
        <time>2013-04-21T09:35:28.000Z</time>
      </trkpt>
      <trkpt lat="48.98965" lon="1.11765">
        <ele>153</ele>
        <time>2013-04-21T09:35:30.000Z</time>
      </trkpt>
      <trkpt lat="48.98965" lon="1.11765">
        <ele>153</ele>
        <time>2013-04-21T09:35:32.000Z</time>
      </trkpt>
      <trkpt lat="48.9896" lon="1.11754">
        <ele>152</ele>
        <time>2013-04-21T09:35:34.000Z</time>
      </trkpt>
      <trkpt lat="48.98954" lon="1.11749">
        <ele>151</ele>
        <time>2013-04-21T09:35:36.000Z</time>
      </trkpt>
      <trkpt lat="48.98942" lon="1.11747">
        <ele>150</ele>
        <time>2013-04-21T09:35:40.000Z</time>
      </trkpt>
      <trkpt lat="48.98936" lon="1.11747">
        <ele>149</ele>
        <time>2013-04-21T09:35:42.000Z</time>
      </trkpt>
      <trkpt lat="48.9893" lon="1.11747">
        <ele>149</ele>
        <time>2013-04-21T09:35:44.000Z</time>
      </trkpt>
      <trkpt lat="48.9893" lon="1.11747">
        <ele>149</ele>
        <time>2013-04-21T09:35:46.000Z</time>
      </trkpt>
      <trkpt lat="48.9892" lon="1.11749">
        <ele>148</ele>
        <time>2013-04-21T09:35:48.000Z</time>
      </trkpt>
      <trkpt lat="48.9892" lon="1.11749">
        <ele>148</ele>
        <time>2013-04-21T09:35:50.000Z</time>
      </trkpt>
      <trkpt lat="48.98911" lon="1.11749">
        <ele>147</ele>
        <time>2013-04-21T09:35:52.000Z</time>
      </trkpt>
      <trkpt lat="48.98899" lon="1.11751">
        <ele>145</ele>
        <time>2013-04-21T09:35:56.000Z</time>
      </trkpt>
      <trkpt lat="48.98889" lon="1.11753">
        <ele>144</ele>
        <time>2013-04-21T09:36:00.000Z</time>
      </trkpt>
      <trkpt lat="48.98881" lon="1.11761">
        <ele>143</ele>
        <time>2013-04-21T09:36:04.000Z</time>
      </trkpt>
      <trkpt lat="48.98874" lon="1.11769">
        <ele>143</ele>
        <time>2013-04-21T09:36:08.000Z</time>
      </trkpt>
      <trkpt lat="48.98874" lon="1.11769">
        <ele>143</ele>
        <time>2013-04-21T09:36:10.000Z</time>
      </trkpt>
      <trkpt lat="48.9887" lon="1.11778">
        <ele>142</ele>
        <time>2013-04-21T09:36:12.000Z</time>
      </trkpt>
      <trkpt lat="48.98863" lon="1.11785">
        <ele>141</ele>
        <time>2013-04-21T09:36:16.000Z</time>
      </trkpt>
      <trkpt lat="48.98863" lon="1.11785">
        <ele>141</ele>
        <time>2013-04-21T09:36:18.000Z</time>
      </trkpt>
      <trkpt lat="48.98856" lon="1.11793">
        <ele>140</ele>
        <time>2013-04-21T09:36:20.000Z</time>
      </trkpt>
      <trkpt lat="48.98856" lon="1.11793">
        <ele>140</ele>
        <time>2013-04-21T09:36:22.000Z</time>
      </trkpt>
      <trkpt lat="48.98849" lon="1.11804">
        <ele>140</ele>
        <time>2013-04-21T09:36:24.000Z</time>
      </trkpt>
      <trkpt lat="48.98842" lon="1.11813">
        <ele>139</ele>
        <time>2013-04-21T09:36:28.000Z</time>
      </trkpt>
      <trkpt lat="48.98842" lon="1.11813">
        <ele>139</ele>
        <time>2013-04-21T09:36:30.000Z</time>
      </trkpt>
      <trkpt lat="48.98836" lon="1.11821">
        <ele>139</ele>
        <time>2013-04-21T09:36:32.000Z</time>
      </trkpt>
      <trkpt lat="48.9883" lon="1.1183">
        <ele>139</ele>
        <time>2013-04-21T09:36:36.000Z</time>
      </trkpt>
      <trkpt lat="48.98823" lon="1.1184">
        <ele>138</ele>
        <time>2013-04-21T09:36:40.000Z</time>
      </trkpt>
      <trkpt lat="48.98823" lon="1.1184">
        <ele>138</ele>
        <time>2013-04-21T09:36:42.000Z</time>
      </trkpt>
      <trkpt lat="48.9882" lon="1.11845">
        <ele>138</ele>
        <time>2013-04-21T09:36:44.000Z</time>
      </trkpt>
      <trkpt lat="48.98817" lon="1.1185">
        <ele>138</ele>
        <time>2013-04-21T09:36:46.000Z</time>
      </trkpt>
      <trkpt lat="48.98814" lon="1.11856">
        <ele>138</ele>
        <time>2013-04-21T09:36:48.000Z</time>
      </trkpt>
      <trkpt lat="48.98812" lon="1.11859">
        <ele>138</ele>
        <time>2013-04-21T09:36:50.000Z</time>
      </trkpt>
      <trkpt lat="48.98812" lon="1.11859">
        <ele>138</ele>
        <time>2013-04-21T09:36:52.000Z</time>
      </trkpt>
      <trkpt lat="48.98812" lon="1.11859">
        <ele>138</ele>
        <time>2013-04-21T09:36:54.000Z</time>
      </trkpt>
      <trkpt lat="48.98812" lon="1.11859">
        <ele>138</ele>
        <time>2013-04-21T09:36:56.000Z</time>
      </trkpt>
      <trkpt lat="48.98811" lon="1.11855">
        <ele>137</ele>
        <time>2013-04-21T09:36:58.000Z</time>
      </trkpt>
      <trkpt lat="48.98811" lon="1.11855">
        <ele>137</ele>
        <time>2013-04-21T09:37:00.000Z</time>
      </trkpt>
      <trkpt lat="48.98812" lon="1.1185">
        <ele>137</ele>
        <time>2013-04-21T09:37:02.000Z</time>
      </trkpt>
      <trkpt lat="48.98816" lon="1.11845">
        <ele>136</ele>
        <time>2013-04-21T09:37:04.000Z</time>
      </trkpt>
      <trkpt lat="48.9882" lon="1.1184">
        <ele>136</ele>
        <time>2013-04-21T09:37:06.000Z</time>
      </trkpt>
      <trkpt lat="48.98824" lon="1.11835">
        <ele>136</ele>
        <time>2013-04-21T09:37:08.000Z</time>
      </trkpt>
      <trkpt lat="48.98829" lon="1.11829">
        <ele>136</ele>
        <time>2013-04-21T09:37:10.000Z</time>
      </trkpt>
      <trkpt lat="48.98841" lon="1.11819">
        <ele>136</ele>
        <time>2013-04-21T09:37:12.000Z</time>
      </trkpt>
      <trkpt lat="48.98846" lon="1.11814">
        <ele>135</ele>
        <time>2013-04-21T09:37:14.000Z</time>
      </trkpt>
      <trkpt lat="48.98853" lon="1.11808">
        <ele>135</ele>
        <time>2013-04-21T09:37:16.000Z</time>
      </trkpt>
      <trkpt lat="48.98858" lon="1.11802">
        <ele>135</ele>
        <time>2013-04-21T09:37:18.000Z</time>
      </trkpt>
      <trkpt lat="48.98863" lon="1.11796">
        <ele>135</ele>
        <time>2013-04-21T09:37:20.000Z</time>
      </trkpt>
      <trkpt lat="48.98867" lon="1.11791">
        <ele>134</ele>
        <time>2013-04-21T09:37:22.000Z</time>
      </trkpt>
      <trkpt lat="48.98871" lon="1.11784">
        <ele>134</ele>
        <time>2013-04-21T09:37:24.000Z</time>
      </trkpt>
      <trkpt lat="48.98875" lon="1.11778">
        <ele>134</ele>
        <time>2013-04-21T09:37:26.000Z</time>
      </trkpt>
      <trkpt lat="48.98875" lon="1.11778">
        <ele>134</ele>
        <time>2013-04-21T09:37:28.000Z</time>
      </trkpt>
      <trkpt lat="48.98883" lon="1.11768">
        <ele>133</ele>
        <time>2013-04-21T09:37:30.000Z</time>
      </trkpt>
      <trkpt lat="48.9889" lon="1.11756">
        <ele>132</ele>
        <time>2013-04-21T09:37:34.000Z</time>
      </trkpt>
      <trkpt lat="48.98897" lon="1.11747">
        <ele>131</ele>
        <time>2013-04-21T09:37:38.000Z</time>
      </trkpt>
      <trkpt lat="48.98907" lon="1.11746">
        <ele>130</ele>
        <time>2013-04-21T09:37:42.000Z</time>
      </trkpt>
      <trkpt lat="48.98918" lon="1.11748">
        <ele>128</ele>
        <time>2013-04-21T09:37:46.000Z</time>
      </trkpt>
      <trkpt lat="48.9893" lon="1.11748">
        <ele>128</ele>
        <time>2013-04-21T09:37:50.000Z</time>
      </trkpt>
      <trkpt lat="48.98936" lon="1.11749">
        <ele>127</ele>
        <time>2013-04-21T09:37:52.000Z</time>
      </trkpt>
      <trkpt lat="48.98943" lon="1.11749">
        <ele>127</ele>
        <time>2013-04-21T09:37:54.000Z</time>
      </trkpt>
      <trkpt lat="48.98949" lon="1.11751">
        <ele>128</ele>
        <time>2013-04-21T09:37:56.000Z</time>
      </trkpt>
      <trkpt lat="48.98955" lon="1.11753">
        <ele>128</ele>
        <time>2013-04-21T09:37:58.000Z</time>
      </trkpt>
      <trkpt lat="48.98961" lon="1.11766">
        <ele>128</ele>
        <time>2013-04-21T09:38:02.000Z</time>
      </trkpt>
      <trkpt lat="48.98967" lon="1.11772">
        <ele>128</ele>
        <time>2013-04-21T09:38:06.000Z</time>
      </trkpt>
      <trkpt lat="48.98967" lon="1.11772">
        <ele>128</ele>
        <time>2013-04-21T09:38:08.000Z</time>
      </trkpt>
      <trkpt lat="48.98974" lon="1.11775">
        <ele>128</ele>
        <time>2013-04-21T09:38:10.000Z</time>
      </trkpt>
      <trkpt lat="48.98974" lon="1.11775">
        <ele>128</ele>
        <time>2013-04-21T09:38:12.000Z</time>
      </trkpt>
      <trkpt lat="48.9898" lon="1.11776">
        <ele>128</ele>
        <time>2013-04-21T09:38:14.000Z</time>
      </trkpt>
      <trkpt lat="48.9898" lon="1.11776">
        <ele>128</ele>
        <time>2013-04-21T09:38:16.000Z</time>
      </trkpt>
      <trkpt lat="48.9898" lon="1.11776">
        <ele>128</ele>
        <time>2013-04-21T09:38:18.000Z</time>
      </trkpt>
      <trkpt lat="48.98988" lon="1.11775">
        <ele>128</ele>
        <time>2013-04-21T09:38:20.000Z</time>
      </trkpt>
      <trkpt lat="48.98994" lon="1.11779">
        <ele>128</ele>
        <time>2013-04-21T09:38:24.000Z</time>
      </trkpt>
      <trkpt lat="48.98994" lon="1.11779">
        <ele>128</ele>
        <time>2013-04-21T09:38:26.000Z</time>
      </trkpt>
      <trkpt lat="48.99005" lon="1.11773">
        <ele>127</ele>
        <time>2013-04-21T09:38:30.000Z</time>
      </trkpt>
      <trkpt lat="48.99013" lon="1.11783">
        <ele>127</ele>
        <time>2013-04-21T09:38:36.000Z</time>
      </trkpt>
      <trkpt lat="48.99015" lon="1.11799">
        <ele>125</ele>
        <time>2013-04-21T09:38:40.000Z</time>
      </trkpt>
      <trkpt lat="48.99015" lon="1.11799">
        <ele>125</ele>
        <time>2013-04-21T09:38:42.000Z</time>
      </trkpt>
      <trkpt lat="48.99015" lon="1.11814">
        <ele>124</ele>
        <time>2013-04-21T09:38:44.000Z</time>
      </trkpt>
      <trkpt lat="48.99017" lon="1.11828">
        <ele>124</ele>
        <time>2013-04-21T09:38:48.000Z</time>
      </trkpt>
      <trkpt lat="48.9902" lon="1.11843">
        <ele>126</ele>
        <time>2013-04-21T09:38:52.000Z</time>
      </trkpt>
      <trkpt lat="48.9902" lon="1.11843">
        <ele>126</ele>
        <time>2013-04-21T09:38:54.000Z</time>
      </trkpt>
      <trkpt lat="48.99016" lon="1.11855">
        <ele>128</ele>
        <time>2013-04-21T09:38:56.000Z</time>
      </trkpt>
      <trkpt lat="48.99011" lon="1.11859">
        <ele>131</ele>
        <time>2013-04-21T09:39:02.000Z</time>
      </trkpt>
      <trkpt lat="48.99011" lon="1.11859">
        <ele>131</ele>
        <time>2013-04-21T09:39:06.000Z</time>
      </trkpt>
      <trkpt lat="48.99002" lon="1.11861">
        <ele>134</ele>
        <time>2013-04-21T09:39:08.000Z</time>
      </trkpt>
      <trkpt lat="48.99002" lon="1.11861">
        <ele>134</ele>
        <time>2013-04-21T09:39:10.000Z</time>
      </trkpt>
      <trkpt lat="48.98993" lon="1.11863">
        <ele>136</ele>
        <time>2013-04-21T09:39:12.000Z</time>
      </trkpt>
      <trkpt lat="48.98985" lon="1.11866">
        <ele>138</ele>
        <time>2013-04-21T09:39:16.000Z</time>
      </trkpt>
      <trkpt lat="48.98978" lon="1.11871">
        <ele>139</ele>
        <time>2013-04-21T09:39:20.000Z</time>
      </trkpt>
      <trkpt lat="48.98975" lon="1.11874">
        <ele>141</ele>
        <time>2013-04-21T09:39:24.000Z</time>
      </trkpt>
      <trkpt lat="48.98972" lon="1.11876">
        <ele>142</ele>
        <time>2013-04-21T09:39:26.000Z</time>
      </trkpt>
      <trkpt lat="48.98969" lon="1.11879">
        <ele>143</ele>
        <time>2013-04-21T09:39:28.000Z</time>
      </trkpt>
      <trkpt lat="48.98967" lon="1.11883">
        <ele>144</ele>
        <time>2013-04-21T09:39:30.000Z</time>
      </trkpt>
      <trkpt lat="48.98967" lon="1.11883">
        <ele>144</ele>
        <time>2013-04-21T09:39:32.000Z</time>
      </trkpt>
      <trkpt lat="48.98967" lon="1.11889">
        <ele>146</ele>
        <time>2013-04-21T09:39:34.000Z</time>
      </trkpt>
      <trkpt lat="48.98969" lon="1.11894">
        <ele>147</ele>
        <time>2013-04-21T09:39:36.000Z</time>
      </trkpt>
      <trkpt lat="48.9897" lon="1.11899">
        <ele>147</ele>
        <time>2013-04-21T09:39:38.000Z</time>
      </trkpt>
      <trkpt lat="48.98972" lon="1.11904">
        <ele>148</ele>
        <time>2013-04-21T09:39:40.000Z</time>
      </trkpt>
      <trkpt lat="48.98975" lon="1.11908">
        <ele>149</ele>
        <time>2013-04-21T09:39:42.000Z</time>
      </trkpt>
      <trkpt lat="48.98981" lon="1.11915">
        <ele>150</ele>
        <time>2013-04-21T09:39:44.000Z</time>
      </trkpt>
      <trkpt lat="48.98981" lon="1.11915">
        <ele>150</ele>
        <time>2013-04-21T09:39:46.000Z</time>
      </trkpt>
      <trkpt lat="48.98985" lon="1.11924">
        <ele>152</ele>
        <time>2013-04-21T09:39:48.000Z</time>
      </trkpt>
      <trkpt lat="48.98985" lon="1.11924">
        <ele>152</ele>
        <time>2013-04-21T09:39:50.000Z</time>
      </trkpt>
      <trkpt lat="48.98985" lon="1.11924">
        <ele>152</ele>
        <time>2013-04-21T09:39:52.000Z</time>
      </trkpt>
      <trkpt lat="48.98985" lon="1.11924">
        <ele>152</ele>
        <time>2013-04-21T09:39:54.000Z</time>
      </trkpt>
      <trkpt lat="48.98985" lon="1.11924">
        <ele>152</ele>
        <time>2013-04-21T09:39:56.000Z</time>
      </trkpt>
      <trkpt lat="48.98985" lon="1.11924">
        <ele>152</ele>
        <time>2013-04-21T09:39:58.000Z</time>
      </trkpt>
      <trkpt lat="48.98985" lon="1.11924">
        <ele>152</ele>
        <time>2013-04-21T09:40:00.000Z</time>
      </trkpt>
      <trkpt lat="48.98992" lon="1.11924">
        <ele>156</ele>
        <time>2013-04-21T09:40:02.000Z</time>
      </trkpt>
      <trkpt lat="48.98992" lon="1.11924">
        <ele>156</ele>
        <time>2013-04-21T09:40:04.000Z</time>
      </trkpt>
      <trkpt lat="48.98992" lon="1.11924">
        <ele>156</ele>
        <time>2013-04-21T09:40:06.000Z</time>
      </trkpt>
      <trkpt lat="48.98992" lon="1.11924">
        <ele>156</ele>
        <time>2013-04-21T09:40:08.000Z</time>
      </trkpt>
      <trkpt lat="48.98992" lon="1.11924">
        <ele>156</ele>
        <time>2013-04-21T09:40:10.000Z</time>
      </trkpt>
      <trkpt lat="48.98992" lon="1.11924">
        <ele>156</ele>
        <time>2013-04-21T09:40:20.000Z</time>
      </trkpt>
      <trkpt lat="48.98992" lon="1.11924">
        <ele>156</ele>
        <time>2013-04-21T09:40:23.000Z</time>
      </trkpt>
      <trkpt lat="48.98991" lon="1.11911">
        <ele>161</ele>
        <time>2013-04-21T09:40:41.000Z</time>
      </trkpt>
      <trkpt lat="48.98985" lon="1.11904">
        <ele>162</ele>
        <time>2013-04-21T09:40:45.000Z</time>
      </trkpt>
      <trkpt lat="48.98978" lon="1.11902">
        <ele>162</ele>
        <time>2013-04-21T09:40:49.000Z</time>
      </trkpt>
      <trkpt lat="48.98973" lon="1.11896">
        <ele>163</ele>
        <time>2013-04-21T09:40:53.000Z</time>
      </trkpt>
      <trkpt lat="48.98972" lon="1.11886">
        <ele>163</ele>
        <time>2013-04-21T09:40:57.000Z</time>
      </trkpt>
      <trkpt lat="48.98975" lon="1.11877">
        <ele>163</ele>
        <time>2013-04-21T09:41:01.000Z</time>
      </trkpt>
      <trkpt lat="48.9898" lon="1.11871">
        <ele>163</ele>
        <time>2013-04-21T09:41:05.000Z</time>
      </trkpt>
      <trkpt lat="48.98986" lon="1.11862">
        <ele>162</ele>
        <time>2013-04-21T09:41:09.000Z</time>
      </trkpt>
      <trkpt lat="48.98992" lon="1.11856">
        <ele>162</ele>
        <time>2013-04-21T09:41:13.000Z</time>
      </trkpt>
      <trkpt lat="48.98997" lon="1.1185">
        <ele>161</ele>
        <time>2013-04-21T09:41:17.000Z</time>
      </trkpt>
      <trkpt lat="48.98997" lon="1.1185">
        <ele>161</ele>
        <time>2013-04-21T09:41:19.000Z</time>
      </trkpt>
      <trkpt lat="48.99004" lon="1.1185">
        <ele>161</ele>
        <time>2013-04-21T09:41:21.000Z</time>
      </trkpt>
      <trkpt lat="48.99009" lon="1.1185">
        <ele>161</ele>
        <time>2013-04-21T09:41:25.000Z</time>
      </trkpt>
      <trkpt lat="48.99014" lon="1.11852">
        <ele>160</ele>
        <time>2013-04-21T09:41:27.000Z</time>
      </trkpt>
      <trkpt lat="48.99019" lon="1.11853">
        <ele>160</ele>
        <time>2013-04-21T09:41:29.000Z</time>
      </trkpt>
      <trkpt lat="48.99023" lon="1.11853">
        <ele>160</ele>
        <time>2013-04-21T09:41:31.000Z</time>
      </trkpt>
      <trkpt lat="48.99028" lon="1.11851">
        <ele>160</ele>
        <time>2013-04-21T09:41:33.000Z</time>
      </trkpt>
      <trkpt lat="48.99033" lon="1.11842">
        <ele>159</ele>
        <time>2013-04-21T09:41:35.000Z</time>
      </trkpt>
      <trkpt lat="48.99033" lon="1.11829">
        <ele>159</ele>
        <time>2013-04-21T09:41:39.000Z</time>
      </trkpt>
      <trkpt lat="48.9903" lon="1.11817">
        <ele>158</ele>
        <time>2013-04-21T09:41:43.000Z</time>
      </trkpt>
      <trkpt lat="48.9903" lon="1.11817">
        <ele>158</ele>
        <time>2013-04-21T09:41:45.000Z</time>
      </trkpt>
      <trkpt lat="48.99024" lon="1.11808">
        <ele>157</ele>
        <time>2013-04-21T09:41:47.000Z</time>
      </trkpt>
      <trkpt lat="48.99016" lon="1.11799">
        <ele>156</ele>
        <time>2013-04-21T09:41:51.000Z</time>
      </trkpt>
      <trkpt lat="48.99007" lon="1.11793">
        <ele>155</ele>
        <time>2013-04-21T09:41:55.000Z</time>
      </trkpt>
      <trkpt lat="48.98998" lon="1.11786">
        <ele>154</ele>
        <time>2013-04-21T09:41:59.000Z</time>
      </trkpt>
      <trkpt lat="48.98988" lon="1.1178">
        <ele>153</ele>
        <time>2013-04-21T09:42:03.000Z</time>
      </trkpt>
      <trkpt lat="48.98988" lon="1.1178">
        <ele>153</ele>
        <time>2013-04-21T09:42:05.000Z</time>
      </trkpt>
      <trkpt lat="48.98979" lon="1.11774">
        <ele>152</ele>
        <time>2013-04-21T09:42:07.000Z</time>
      </trkpt>
      <trkpt lat="48.98972" lon="1.1177">
        <ele>152</ele>
        <time>2013-04-21T09:42:11.000Z</time>
      </trkpt>
      <trkpt lat="48.98972" lon="1.1177">
        <ele>152</ele>
        <time>2013-04-21T09:42:13.000Z</time>
      </trkpt>
      <trkpt lat="48.98965" lon="1.11764">
        <ele>151</ele>
        <time>2013-04-21T09:42:15.000Z</time>
      </trkpt>
      <trkpt lat="48.98965" lon="1.11764">
        <ele>151</ele>
        <time>2013-04-21T09:42:17.000Z</time>
      </trkpt>
      <trkpt lat="48.9896" lon="1.11757">
        <ele>150</ele>
        <time>2013-04-21T09:42:19.000Z</time>
      </trkpt>
      <trkpt lat="48.9896" lon="1.11757">
        <ele>150</ele>
        <time>2013-04-21T09:42:21.000Z</time>
      </trkpt>
      <trkpt lat="48.98954" lon="1.1175">
        <ele>149</ele>
        <time>2013-04-21T09:42:23.000Z</time>
      </trkpt>
      <trkpt lat="48.98948" lon="1.11749">
        <ele>148</ele>
        <time>2013-04-21T09:42:25.000Z</time>
      </trkpt>
      <trkpt lat="48.98936" lon="1.11748">
        <ele>147</ele>
        <time>2013-04-21T09:42:29.000Z</time>
      </trkpt>
      <trkpt lat="48.98931" lon="1.11748">
        <ele>146</ele>
        <time>2013-04-21T09:42:31.000Z</time>
      </trkpt>
      <trkpt lat="48.9892" lon="1.11746">
        <ele>145</ele>
        <time>2013-04-21T09:42:35.000Z</time>
      </trkpt>
      <trkpt lat="48.98911" lon="1.11744">
        <ele>145</ele>
        <time>2013-04-21T09:42:39.000Z</time>
      </trkpt>
      <trkpt lat="48.98903" lon="1.11744">
        <ele>144</ele>
        <time>2013-04-21T09:42:43.000Z</time>
      </trkpt>
      <trkpt lat="48.98903" lon="1.11744">
        <ele>144</ele>
        <time>2013-04-21T09:42:45.000Z</time>
      </trkpt>
      <trkpt lat="48.98894" lon="1.11748">
        <ele>143</ele>
        <time>2013-04-21T09:42:47.000Z</time>
      </trkpt>
      <trkpt lat="48.98894" lon="1.11748">
        <ele>143</ele>
        <time>2013-04-21T09:42:49.000Z</time>
      </trkpt>
      <trkpt lat="48.98888" lon="1.11757">
        <ele>143</ele>
        <time>2013-04-21T09:42:51.000Z</time>
      </trkpt>
      <trkpt lat="48.98888" lon="1.11757">
        <ele>143</ele>
        <time>2013-04-21T09:42:53.000Z</time>
      </trkpt>
      <trkpt lat="48.98888" lon="1.11757">
        <ele>143</ele>
        <time>2013-04-21T09:42:55.000Z</time>
      </trkpt>
      <trkpt lat="48.98883" lon="1.11763">
        <ele>141</ele>
        <time>2013-04-21T09:42:57.000Z</time>
      </trkpt>
      <trkpt lat="48.98883" lon="1.11763">
        <ele>141</ele>
        <time>2013-04-21T09:42:59.000Z</time>
      </trkpt>
      <trkpt lat="48.98883" lon="1.11763">
        <ele>141</ele>
        <time>2013-04-21T09:43:01.000Z</time>
      </trkpt>
      <trkpt lat="48.98883" lon="1.11763">
        <ele>141</ele>
        <time>2013-04-21T09:43:03.000Z</time>
      </trkpt>
      <trkpt lat="48.98876" lon="1.11769">
        <ele>140</ele>
        <time>2013-04-21T09:43:05.000Z</time>
      </trkpt>
      <trkpt lat="48.98869" lon="1.1178">
        <ele>140</ele>
        <time>2013-04-21T09:43:09.000Z</time>
      </trkpt>
      <trkpt lat="48.98862" lon="1.11789">
        <ele>140</ele>
        <time>2013-04-21T09:43:13.000Z</time>
      </trkpt>
      <trkpt lat="48.98855" lon="1.11798">
        <ele>139</ele>
        <time>2013-04-21T09:43:17.000Z</time>
      </trkpt>
      <trkpt lat="48.98848" lon="1.11805">
        <ele>139</ele>
        <time>2013-04-21T09:43:21.000Z</time>
      </trkpt>
      <trkpt lat="48.98848" lon="1.11805">
        <ele>139</ele>
        <time>2013-04-21T09:43:23.000Z</time>
      </trkpt>
      <trkpt lat="48.98842" lon="1.11814">
        <ele>139</ele>
        <time>2013-04-21T09:43:25.000Z</time>
      </trkpt>
      <trkpt lat="48.98836" lon="1.11824">
        <ele>139</ele>
        <time>2013-04-21T09:43:29.000Z</time>
      </trkpt>
      <trkpt lat="48.98836" lon="1.11824">
        <ele>139</ele>
        <time>2013-04-21T09:43:31.000Z</time>
      </trkpt>
      <trkpt lat="48.98832" lon="1.11827">
        <ele>138</ele>
        <time>2013-04-21T09:43:33.000Z</time>
      </trkpt>
      <trkpt lat="48.98829" lon="1.1183">
        <ele>138</ele>
        <time>2013-04-21T09:43:35.000Z</time>
      </trkpt>
      <trkpt lat="48.98825" lon="1.11835">
        <ele>138</ele>
        <time>2013-04-21T09:43:37.000Z</time>
      </trkpt>
      <trkpt lat="48.98822" lon="1.11839">
        <ele>138</ele>
        <time>2013-04-21T09:43:39.000Z</time>
      </trkpt>
      <trkpt lat="48.98819" lon="1.11844">
        <ele>138</ele>
        <time>2013-04-21T09:43:41.000Z</time>
      </trkpt>
      <trkpt lat="48.98813" lon="1.11852">
        <ele>138</ele>
        <time>2013-04-21T09:43:43.000Z</time>
      </trkpt>
      <trkpt lat="48.98813" lon="1.11852">
        <ele>138</ele>
        <time>2013-04-21T09:43:45.000Z</time>
      </trkpt>
      <trkpt lat="48.98806" lon="1.11863">
        <ele>138</ele>
        <time>2013-04-21T09:43:47.000Z</time>
      </trkpt>
      <trkpt lat="48.98806" lon="1.11863">
        <ele>138</ele>
        <time>2013-04-21T09:43:49.000Z</time>
      </trkpt>
      <trkpt lat="48.98801" lon="1.11874">
        <ele>137</ele>
        <time>2013-04-21T09:43:51.000Z</time>
      </trkpt>
      <trkpt lat="48.98801" lon="1.11874">
        <ele>137</ele>
        <time>2013-04-21T09:43:53.000Z</time>
      </trkpt>
      <trkpt lat="48.98794" lon="1.11884">
        <ele>137</ele>
        <time>2013-04-21T09:43:55.000Z</time>
      </trkpt>
      <trkpt lat="48.98786" lon="1.11893">
        <ele>137</ele>
        <time>2013-04-21T09:43:59.000Z</time>
      </trkpt>
      <trkpt lat="48.9878" lon="1.11903">
        <ele>137</ele>
        <time>2013-04-21T09:44:03.000Z</time>
      </trkpt>
      <trkpt lat="48.98774" lon="1.11914">
        <ele>137</ele>
        <time>2013-04-21T09:44:07.000Z</time>
      </trkpt>
      <trkpt lat="48.98769" lon="1.1192">
        <ele>137</ele>
        <time>2013-04-21T09:44:09.000Z</time>
      </trkpt>
      <trkpt lat="48.98765" lon="1.11926">
        <ele>137</ele>
        <time>2013-04-21T09:44:11.000Z</time>
      </trkpt>
      <trkpt lat="48.98757" lon="1.11937">
        <ele>137</ele>
        <time>2013-04-21T09:44:15.000Z</time>
      </trkpt>
      <trkpt lat="48.98757" lon="1.11937">
        <ele>137</ele>
        <time>2013-04-21T09:44:17.000Z</time>
      </trkpt>
      <trkpt lat="48.98749" lon="1.11945">
        <ele>136</ele>
        <time>2013-04-21T09:44:19.000Z</time>
      </trkpt>
      <trkpt lat="48.98749" lon="1.11945">
        <ele>136</ele>
        <time>2013-04-21T09:44:21.000Z</time>
      </trkpt>
      <trkpt lat="48.9874" lon="1.1195">
        <ele>136</ele>
        <time>2013-04-21T09:44:23.000Z</time>
      </trkpt>
      <trkpt lat="48.98732" lon="1.11957">
        <ele>136</ele>
        <time>2013-04-21T09:44:27.000Z</time>
      </trkpt>
      <trkpt lat="48.98725" lon="1.11967">
        <ele>135</ele>
        <time>2013-04-21T09:44:31.000Z</time>
      </trkpt>
      <trkpt lat="48.98725" lon="1.11967">
        <ele>135</ele>
        <time>2013-04-21T09:44:33.000Z</time>
      </trkpt>
      <trkpt lat="48.98719" lon="1.11977">
        <ele>135</ele>
        <time>2013-04-21T09:44:35.000Z</time>
      </trkpt>
      <trkpt lat="48.98719" lon="1.11977">
        <ele>135</ele>
        <time>2013-04-21T09:44:37.000Z</time>
      </trkpt>
      <trkpt lat="48.98711" lon="1.11984">
        <ele>135</ele>
        <time>2013-04-21T09:44:39.000Z</time>
      </trkpt>
      <trkpt lat="48.98702" lon="1.1199">
        <ele>135</ele>
        <time>2013-04-21T09:44:43.000Z</time>
      </trkpt>
      <trkpt lat="48.98702" lon="1.1199">
        <ele>135</ele>
        <time>2013-04-21T09:44:45.000Z</time>
      </trkpt>
      <trkpt lat="48.98693" lon="1.11995">
        <ele>135</ele>
        <time>2013-04-21T09:44:47.000Z</time>
      </trkpt>
      <trkpt lat="48.98683" lon="1.12">
        <ele>135</ele>
        <time>2013-04-21T09:44:51.000Z</time>
      </trkpt>
      <trkpt lat="48.98683" lon="1.12">
        <ele>135</ele>
        <time>2013-04-21T09:44:53.000Z</time>
      </trkpt>
      <trkpt lat="48.98674" lon="1.12005">
        <ele>135</ele>
        <time>2013-04-21T09:44:55.000Z</time>
      </trkpt>
      <trkpt lat="48.98666" lon="1.12011">
        <ele>135</ele>
        <time>2013-04-21T09:44:59.000Z</time>
      </trkpt>
      <trkpt lat="48.98658" lon="1.12017">
        <ele>135</ele>
        <time>2013-04-21T09:45:03.000Z</time>
      </trkpt>
      <trkpt lat="48.98658" lon="1.12017">
        <ele>135</ele>
        <time>2013-04-21T09:45:05.000Z</time>
      </trkpt>
      <trkpt lat="48.98649" lon="1.1202">
        <ele>135</ele>
        <time>2013-04-21T09:45:07.000Z</time>
      </trkpt>
      <trkpt lat="48.98649" lon="1.1202">
        <ele>135</ele>
        <time>2013-04-21T09:45:09.000Z</time>
      </trkpt>
      <trkpt lat="48.98639" lon="1.12025">
        <ele>136</ele>
        <time>2013-04-21T09:45:11.000Z</time>
      </trkpt>
      <trkpt lat="48.98629" lon="1.12027">
        <ele>136</ele>
        <time>2013-04-21T09:45:15.000Z</time>
      </trkpt>
      <trkpt lat="48.98629" lon="1.12027">
        <ele>136</ele>
        <time>2013-04-21T09:45:17.000Z</time>
      </trkpt>
      <trkpt lat="48.9862" lon="1.12027">
        <ele>136</ele>
        <time>2013-04-21T09:45:19.000Z</time>
      </trkpt>
      <trkpt lat="48.9861" lon="1.12028">
        <ele>136</ele>
        <time>2013-04-21T09:45:23.000Z</time>
      </trkpt>
      <trkpt lat="48.98602" lon="1.12028">
        <ele>136</ele>
        <time>2013-04-21T09:45:27.000Z</time>
      </trkpt>
      <trkpt lat="48.98596" lon="1.12031">
        <ele>136</ele>
        <time>2013-04-21T09:45:29.000Z</time>
      </trkpt>
      <trkpt lat="48.9859" lon="1.12034">
        <ele>137</ele>
        <time>2013-04-21T09:45:31.000Z</time>
      </trkpt>
      <trkpt lat="48.9859" lon="1.12034">
        <ele>137</ele>
        <time>2013-04-21T09:45:33.000Z</time>
      </trkpt>
      <trkpt lat="48.98581" lon="1.12039">
        <ele>137</ele>
        <time>2013-04-21T09:45:35.000Z</time>
      </trkpt>
      <trkpt lat="48.98581" lon="1.12039">
        <ele>137</ele>
        <time>2013-04-21T09:45:37.000Z</time>
      </trkpt>
      <trkpt lat="48.98571" lon="1.12043">
        <ele>138</ele>
        <time>2013-04-21T09:45:39.000Z</time>
      </trkpt>
      <trkpt lat="48.98562" lon="1.12052">
        <ele>138</ele>
        <time>2013-04-21T09:45:43.000Z</time>
      </trkpt>
      <trkpt lat="48.98554" lon="1.12058">
        <ele>139</ele>
        <time>2013-04-21T09:45:47.000Z</time>
      </trkpt>
      <trkpt lat="48.98554" lon="1.12058">
        <ele>139</ele>
        <time>2013-04-21T09:45:49.000Z</time>
      </trkpt>
      <trkpt lat="48.98551" lon="1.12062">
        <ele>139</ele>
        <time>2013-04-21T09:45:51.000Z</time>
      </trkpt>
      <trkpt lat="48.98549" lon="1.12065">
        <ele>139</ele>
        <time>2013-04-21T09:45:53.000Z</time>
      </trkpt>
      <trkpt lat="48.98546" lon="1.12069">
        <ele>139</ele>
        <time>2013-04-21T09:45:55.000Z</time>
      </trkpt>
      <trkpt lat="48.98543" lon="1.12073">
        <ele>139</ele>
        <time>2013-04-21T09:45:57.000Z</time>
      </trkpt>
      <trkpt lat="48.9854" lon="1.12077">
        <ele>139</ele>
        <time>2013-04-21T09:45:59.000Z</time>
      </trkpt>
      <trkpt lat="48.98534" lon="1.12082">
        <ele>138</ele>
        <time>2013-04-21T09:46:01.000Z</time>
      </trkpt>
      <trkpt lat="48.98528" lon="1.12087">
        <ele>138</ele>
        <time>2013-04-21T09:46:05.000Z</time>
      </trkpt>
      <trkpt lat="48.98522" lon="1.12095">
        <ele>138</ele>
        <time>2013-04-21T09:46:09.000Z</time>
      </trkpt>
      <trkpt lat="48.98522" lon="1.12095">
        <ele>138</ele>
        <time>2013-04-21T09:46:11.000Z</time>
      </trkpt>
      <trkpt lat="48.98516" lon="1.12106">
        <ele>138</ele>
        <time>2013-04-21T09:46:13.000Z</time>
      </trkpt>
      <trkpt lat="48.98509" lon="1.12117">
        <ele>139</ele>
        <time>2013-04-21T09:46:17.000Z</time>
      </trkpt>
      <trkpt lat="48.98503" lon="1.12129">
        <ele>140</ele>
        <time>2013-04-21T09:46:21.000Z</time>
      </trkpt>
      <trkpt lat="48.98498" lon="1.12142">
        <ele>140</ele>
        <time>2013-04-21T09:46:25.000Z</time>
      </trkpt>
      <trkpt lat="48.98493" lon="1.12156">
        <ele>141</ele>
        <time>2013-04-21T09:46:29.000Z</time>
      </trkpt>
      <trkpt lat="48.9849" lon="1.12169">
        <ele>142</ele>
        <time>2013-04-21T09:46:33.000Z</time>
      </trkpt>
      <trkpt lat="48.98488" lon="1.1218">
        <ele>142</ele>
        <time>2013-04-21T09:46:37.000Z</time>
      </trkpt>
      <trkpt lat="48.98488" lon="1.1218">
        <ele>142</ele>
        <time>2013-04-21T09:46:39.000Z</time>
      </trkpt>
      <trkpt lat="48.98486" lon="1.12194">
        <ele>143</ele>
        <time>2013-04-21T09:46:41.000Z</time>
      </trkpt>
      <trkpt lat="48.98486" lon="1.12208">
        <ele>144</ele>
        <time>2013-04-21T09:46:45.000Z</time>
      </trkpt>
      <trkpt lat="48.98486" lon="1.12208">
        <ele>144</ele>
        <time>2013-04-21T09:46:49.000Z</time>
      </trkpt>
      <trkpt lat="48.98483" lon="1.12225">
        <ele>146</ele>
        <time>2013-04-21T09:46:51.000Z</time>
      </trkpt>
      <trkpt lat="48.98483" lon="1.12225">
        <ele>146</ele>
        <time>2013-04-21T09:46:53.000Z</time>
      </trkpt>
      <trkpt lat="48.98488" lon="1.12243">
        <ele>147</ele>
        <time>2013-04-21T09:46:57.000Z</time>
      </trkpt>
      <trkpt lat="48.98488" lon="1.12243">
        <ele>147</ele>
        <time>2013-04-21T09:46:59.000Z</time>
      </trkpt>
      <trkpt lat="48.98485" lon="1.12256">
        <ele>148</ele>
        <time>2013-04-21T09:47:01.000Z</time>
      </trkpt>
      <trkpt lat="48.98485" lon="1.12256">
        <ele>148</ele>
        <time>2013-04-21T09:47:03.000Z</time>
      </trkpt>
      <trkpt lat="48.98483" lon="1.12272">
        <ele>149</ele>
        <time>2013-04-21T09:47:05.000Z</time>
      </trkpt>
      <trkpt lat="48.98483" lon="1.12286">
        <ele>149</ele>
        <time>2013-04-21T09:47:09.000Z</time>
      </trkpt>
      <trkpt lat="48.98486" lon="1.12298">
        <ele>150</ele>
        <time>2013-04-21T09:47:13.000Z</time>
      </trkpt>
      <trkpt lat="48.9849" lon="1.12311">
        <ele>151</ele>
        <time>2013-04-21T09:47:17.000Z</time>
      </trkpt>
      <trkpt lat="48.9849" lon="1.12311">
        <ele>151</ele>
        <time>2013-04-21T09:47:19.000Z</time>
      </trkpt>
      <trkpt lat="48.98494" lon="1.12325">
        <ele>151</ele>
        <time>2013-04-21T09:47:21.000Z</time>
      </trkpt>
      <trkpt lat="48.98494" lon="1.12325">
        <ele>151</ele>
        <time>2013-04-21T09:47:23.000Z</time>
      </trkpt>
      <trkpt lat="48.98499" lon="1.12338">
        <ele>150</ele>
        <time>2013-04-21T09:47:25.000Z</time>
      </trkpt>
      <trkpt lat="48.98503" lon="1.1235">
        <ele>150</ele>
        <time>2013-04-21T09:47:29.000Z</time>
      </trkpt>
      <trkpt lat="48.98503" lon="1.1235">
        <ele>150</ele>
        <time>2013-04-21T09:47:31.000Z</time>
      </trkpt>
      <trkpt lat="48.98504" lon="1.12365">
        <ele>150</ele>
        <time>2013-04-21T09:47:33.000Z</time>
      </trkpt>
      <trkpt lat="48.98504" lon="1.12365">
        <ele>150</ele>
        <time>2013-04-21T09:47:35.000Z</time>
      </trkpt>
      <trkpt lat="48.98507" lon="1.12378">
        <ele>150</ele>
        <time>2013-04-21T09:47:37.000Z</time>
      </trkpt>
      <trkpt lat="48.98512" lon="1.12389">
        <ele>151</ele>
        <time>2013-04-21T09:47:41.000Z</time>
      </trkpt>
      <trkpt lat="48.98512" lon="1.12389">
        <ele>151</ele>
        <time>2013-04-21T09:47:43.000Z</time>
      </trkpt>
      <trkpt lat="48.98516" lon="1.12399">
        <ele>151</ele>
        <time>2013-04-21T09:47:45.000Z</time>
      </trkpt>
      <trkpt lat="48.98516" lon="1.12399">
        <ele>151</ele>
        <time>2013-04-21T09:47:47.000Z</time>
      </trkpt>
      <trkpt lat="48.98521" lon="1.12412">
        <ele>151</ele>
        <time>2013-04-21T09:47:49.000Z</time>
      </trkpt>
      <trkpt lat="48.98526" lon="1.12426">
        <ele>151</ele>
        <time>2013-04-21T09:47:53.000Z</time>
      </trkpt>
      <trkpt lat="48.98526" lon="1.12433">
        <ele>151</ele>
        <time>2013-04-21T09:47:57.000Z</time>
      </trkpt>
      <trkpt lat="48.98525" lon="1.1244">
        <ele>151</ele>
        <time>2013-04-21T09:47:59.000Z</time>
      </trkpt>
      <trkpt lat="48.98524" lon="1.12447">
        <ele>151</ele>
        <time>2013-04-21T09:48:01.000Z</time>
      </trkpt>
      <trkpt lat="48.98523" lon="1.12454">
        <ele>151</ele>
        <time>2013-04-21T09:48:03.000Z</time>
      </trkpt>
      <trkpt lat="48.98523" lon="1.12461">
        <ele>151</ele>
        <time>2013-04-21T09:48:05.000Z</time>
      </trkpt>
      <trkpt lat="48.9852" lon="1.12473">
        <ele>151</ele>
        <time>2013-04-21T09:48:07.000Z</time>
      </trkpt>
      <trkpt lat="48.98514" lon="1.12483">
        <ele>150</ele>
        <time>2013-04-21T09:48:11.000Z</time>
      </trkpt>
      <trkpt lat="48.98514" lon="1.12483">
        <ele>150</ele>
        <time>2013-04-21T09:48:13.000Z</time>
      </trkpt>
      <trkpt lat="48.98505" lon="1.12494">
        <ele>149</ele>
        <time>2013-04-21T09:48:15.000Z</time>
      </trkpt>
      <trkpt lat="48.985" lon="1.125">
        <ele>149</ele>
        <time>2013-04-21T09:48:17.000Z</time>
      </trkpt>
      <trkpt lat="48.98494" lon="1.12503">
        <ele>149</ele>
        <time>2013-04-21T09:48:19.000Z</time>
      </trkpt>
      <trkpt lat="48.98484" lon="1.12504">
        <ele>149</ele>
        <time>2013-04-21T09:48:23.000Z</time>
      </trkpt>
      <trkpt lat="48.98475" lon="1.12501">
        <ele>149</ele>
        <time>2013-04-21T09:48:27.000Z</time>
      </trkpt>
      <trkpt lat="48.98475" lon="1.12501">
        <ele>149</ele>
        <time>2013-04-21T09:48:29.000Z</time>
      </trkpt>
      <trkpt lat="48.98467" lon="1.12495">
        <ele>148</ele>
        <time>2013-04-21T09:48:31.000Z</time>
      </trkpt>
      <trkpt lat="48.98467" lon="1.12495">
        <ele>148</ele>
        <time>2013-04-21T09:48:33.000Z</time>
      </trkpt>
      <trkpt lat="48.98459" lon="1.12488">
        <ele>149</ele>
        <time>2013-04-21T09:48:35.000Z</time>
      </trkpt>
      <trkpt lat="48.98459" lon="1.12488">
        <ele>149</ele>
        <time>2013-04-21T09:48:37.000Z</time>
      </trkpt>
      <trkpt lat="48.98452" lon="1.1248">
        <ele>149</ele>
        <time>2013-04-21T09:48:39.000Z</time>
      </trkpt>
      <trkpt lat="48.98444" lon="1.12475">
        <ele>149</ele>
        <time>2013-04-21T09:48:43.000Z</time>
      </trkpt>
      <trkpt lat="48.98435" lon="1.12468">
        <ele>149</ele>
        <time>2013-04-21T09:48:47.000Z</time>
      </trkpt>
      <trkpt lat="48.98435" lon="1.12468">
        <ele>149</ele>
        <time>2013-04-21T09:48:49.000Z</time>
      </trkpt>
      <trkpt lat="48.98427" lon="1.12457">
        <ele>149</ele>
        <time>2013-04-21T09:48:51.000Z</time>
      </trkpt>
      <trkpt lat="48.98427" lon="1.12457">
        <ele>149</ele>
        <time>2013-04-21T09:48:53.000Z</time>
      </trkpt>
      <trkpt lat="48.9842" lon="1.12447">
        <ele>150</ele>
        <time>2013-04-21T09:48:55.000Z</time>
      </trkpt>
      <trkpt lat="48.98414" lon="1.12437">
        <ele>150</ele>
        <time>2013-04-21T09:48:59.000Z</time>
      </trkpt>
      <trkpt lat="48.98414" lon="1.12437">
        <ele>150</ele>
        <time>2013-04-21T09:49:01.000Z</time>
      </trkpt>
      <trkpt lat="48.98407" lon="1.12427">
        <ele>149</ele>
        <time>2013-04-21T09:49:03.000Z</time>
      </trkpt>
      <trkpt lat="48.98398" lon="1.12418">
        <ele>149</ele>
        <time>2013-04-21T09:49:07.000Z</time>
      </trkpt>
      <trkpt lat="48.98391" lon="1.12411">
        <ele>148</ele>
        <time>2013-04-21T09:49:11.000Z</time>
      </trkpt>
      <trkpt lat="48.98391" lon="1.12411">
        <ele>148</ele>
        <time>2013-04-21T09:49:13.000Z</time>
      </trkpt>
      <trkpt lat="48.98384" lon="1.12403">
        <ele>148</ele>
        <time>2013-04-21T09:49:15.000Z</time>
      </trkpt>
      <trkpt lat="48.98384" lon="1.12403">
        <ele>148</ele>
        <time>2013-04-21T09:49:17.000Z</time>
      </trkpt>
      <trkpt lat="48.98376" lon="1.12395">
        <ele>148</ele>
        <time>2013-04-21T09:49:19.000Z</time>
      </trkpt>
      <trkpt lat="48.98368" lon="1.12394">
        <ele>148</ele>
        <time>2013-04-21T09:49:23.000Z</time>
      </trkpt>
      <trkpt lat="48.98368" lon="1.12394">
        <ele>148</ele>
        <time>2013-04-21T09:49:25.000Z</time>
      </trkpt>
      <trkpt lat="48.98362" lon="1.12388">
        <ele>148</ele>
        <time>2013-04-21T09:49:27.000Z</time>
      </trkpt>
      <trkpt lat="48.98366" lon="1.12381">
        <ele>148</ele>
        <time>2013-04-21T09:49:29.000Z</time>
      </trkpt>
      <trkpt lat="48.98366" lon="1.12381">
        <ele>148</ele>
        <time>2013-04-21T09:49:31.000Z</time>
      </trkpt>
      <trkpt lat="48.98366" lon="1.12367">
        <ele>148</ele>
        <time>2013-04-21T09:49:33.000Z</time>
      </trkpt>
      <trkpt lat="48.9836" lon="1.1236">
        <ele>148</ele>
        <time>2013-04-21T09:49:37.000Z</time>
      </trkpt>
      <trkpt lat="48.98351" lon="1.12354">
        <ele>148</ele>
        <time>2013-04-21T09:49:41.000Z</time>
      </trkpt>
      <trkpt lat="48.98345" lon="1.12342">
        <ele>147</ele>
        <time>2013-04-21T09:49:45.000Z</time>
      </trkpt>
      <trkpt lat="48.9834" lon="1.12331">
        <ele>147</ele>
        <time>2013-04-21T09:49:49.000Z</time>
      </trkpt>
      <trkpt lat="48.98335" lon="1.12321">
        <ele>147</ele>
        <time>2013-04-21T09:49:53.000Z</time>
      </trkpt>
      <trkpt lat="48.98329" lon="1.12313">
        <ele>147</ele>
        <time>2013-04-21T09:49:57.000Z</time>
      </trkpt>
      <trkpt lat="48.98324" lon="1.12304">
        <ele>148</ele>
        <time>2013-04-21T09:50:01.000Z</time>
      </trkpt>
      <trkpt lat="48.98313" lon="1.1229">
        <ele>148</ele>
        <time>2013-04-21T09:50:07.000Z</time>
      </trkpt>
      <trkpt lat="48.9831" lon="1.12285">
        <ele>148</ele>
        <time>2013-04-21T09:50:11.000Z</time>
      </trkpt>
      <trkpt lat="48.98307" lon="1.1228">
        <ele>148</ele>
        <time>2013-04-21T09:50:13.000Z</time>
      </trkpt>
      <trkpt lat="48.98303" lon="1.12275">
        <ele>149</ele>
        <time>2013-04-21T09:50:15.000Z</time>
      </trkpt>
      <trkpt lat="48.98299" lon="1.12271">
        <ele>149</ele>
        <time>2013-04-21T09:50:17.000Z</time>
      </trkpt>
      <trkpt lat="48.98295" lon="1.12267">
        <ele>149</ele>
        <time>2013-04-21T09:50:19.000Z</time>
      </trkpt>
      <trkpt lat="48.98287" lon="1.1226">
        <ele>149</ele>
        <time>2013-04-21T09:50:21.000Z</time>
      </trkpt>
      <trkpt lat="48.9828" lon="1.12249">
        <ele>149</ele>
        <time>2013-04-21T09:50:25.000Z</time>
      </trkpt>
      <trkpt lat="48.9828" lon="1.12249">
        <ele>149</ele>
        <time>2013-04-21T09:50:27.000Z</time>
      </trkpt>
      <trkpt lat="48.98272" lon="1.1224">
        <ele>149</ele>
        <time>2013-04-21T09:50:29.000Z</time>
      </trkpt>
      <trkpt lat="48.98272" lon="1.1224">
        <ele>149</ele>
        <time>2013-04-21T09:50:31.000Z</time>
      </trkpt>
      <trkpt lat="48.98265" lon="1.12229">
        <ele>148</ele>
        <time>2013-04-21T09:50:33.000Z</time>
      </trkpt>
      <trkpt lat="48.98259" lon="1.12219">
        <ele>148</ele>
        <time>2013-04-21T09:50:37.000Z</time>
      </trkpt>
      <trkpt lat="48.98259" lon="1.12219">
        <ele>148</ele>
        <time>2013-04-21T09:50:41.000Z</time>
      </trkpt>
      <trkpt lat="48.98249" lon="1.12207">
        <ele>147</ele>
        <time>2013-04-21T09:50:43.000Z</time>
      </trkpt>
      <trkpt lat="48.98249" lon="1.12207">
        <ele>147</ele>
        <time>2013-04-21T09:50:45.000Z</time>
      </trkpt>
      <trkpt lat="48.98244" lon="1.12195">
        <ele>147</ele>
        <time>2013-04-21T09:50:47.000Z</time>
      </trkpt>
      <trkpt lat="48.98244" lon="1.12195">
        <ele>147</ele>
        <time>2013-04-21T09:50:49.000Z</time>
      </trkpt>
      <trkpt lat="48.98236" lon="1.12183">
        <ele>147</ele>
        <time>2013-04-21T09:50:51.000Z</time>
      </trkpt>
      <trkpt lat="48.98232" lon="1.12176">
        <ele>147</ele>
        <time>2013-04-21T09:50:53.000Z</time>
      </trkpt>
      <trkpt lat="48.98225" lon="1.12165">
        <ele>147</ele>
        <time>2013-04-21T09:50:57.000Z</time>
      </trkpt>
      <trkpt lat="48.98218" lon="1.12152">
        <ele>147</ele>
        <time>2013-04-21T09:51:01.000Z</time>
      </trkpt>
      <trkpt lat="48.98218" lon="1.12152">
        <ele>147</ele>
        <time>2013-04-21T09:51:03.000Z</time>
      </trkpt>
      <trkpt lat="48.98209" lon="1.12144">
        <ele>147</ele>
        <time>2013-04-21T09:51:05.000Z</time>
      </trkpt>
      <trkpt lat="48.98209" lon="1.12144">
        <ele>147</ele>
        <time>2013-04-21T09:51:07.000Z</time>
      </trkpt>
      <trkpt lat="48.98201" lon="1.12135">
        <ele>146</ele>
        <time>2013-04-21T09:51:09.000Z</time>
      </trkpt>
      <trkpt lat="48.98193" lon="1.12127">
        <ele>146</ele>
        <time>2013-04-21T09:51:13.000Z</time>
      </trkpt>
      <trkpt lat="48.98186" lon="1.12121">
        <ele>146</ele>
        <time>2013-04-21T09:51:17.000Z</time>
      </trkpt>
      <trkpt lat="48.98176" lon="1.12117">
        <ele>146</ele>
        <time>2013-04-21T09:51:21.000Z</time>
      </trkpt>
      <trkpt lat="48.98166" lon="1.12114">
        <ele>146</ele>
        <time>2013-04-21T09:51:25.000Z</time>
      </trkpt>
      <trkpt lat="48.98156" lon="1.12108">
        <ele>147</ele>
        <time>2013-04-21T09:51:29.000Z</time>
      </trkpt>
      <trkpt lat="48.98156" lon="1.12108">
        <ele>147</ele>
        <time>2013-04-21T09:51:31.000Z</time>
      </trkpt>
      <trkpt lat="48.98147" lon="1.12101">
        <ele>148</ele>
        <time>2013-04-21T09:51:33.000Z</time>
      </trkpt>
      <trkpt lat="48.98143" lon="1.12095">
        <ele>148</ele>
        <time>2013-04-21T09:51:35.000Z</time>
      </trkpt>
      <trkpt lat="48.98134" lon="1.12086">
        <ele>149</ele>
        <time>2013-04-21T09:51:39.000Z</time>
      </trkpt>
      <trkpt lat="48.98134" lon="1.12086">
        <ele>149</ele>
        <time>2013-04-21T09:51:41.000Z</time>
      </trkpt>
      <trkpt lat="48.98125" lon="1.12079">
        <ele>149</ele>
        <time>2013-04-21T09:51:43.000Z</time>
      </trkpt>
      <trkpt lat="48.98125" lon="1.12079">
        <ele>149</ele>
        <time>2013-04-21T09:51:45.000Z</time>
      </trkpt>
      <trkpt lat="48.98115" lon="1.12073">
        <ele>149</ele>
        <time>2013-04-21T09:51:47.000Z</time>
      </trkpt>
      <trkpt lat="48.98115" lon="1.12073">
        <ele>149</ele>
        <time>2013-04-21T09:51:49.000Z</time>
      </trkpt>
      <trkpt lat="48.98108" lon="1.12064">
        <ele>150</ele>
        <time>2013-04-21T09:51:51.000Z</time>
      </trkpt>
      <trkpt lat="48.981" lon="1.12056">
        <ele>151</ele>
        <time>2013-04-21T09:51:55.000Z</time>
      </trkpt>
      <trkpt lat="48.98094" lon="1.12045">
        <ele>152</ele>
        <time>2013-04-21T09:51:59.000Z</time>
      </trkpt>
      <trkpt lat="48.98094" lon="1.12045">
        <ele>152</ele>
        <time>2013-04-21T09:52:01.000Z</time>
      </trkpt>
      <trkpt lat="48.98088" lon="1.12032">
        <ele>152</ele>
        <time>2013-04-21T09:52:03.000Z</time>
      </trkpt>
      <trkpt lat="48.98081" lon="1.12022">
        <ele>152</ele>
        <time>2013-04-21T09:52:07.000Z</time>
      </trkpt>
      <trkpt lat="48.98075" lon="1.1201">
        <ele>153</ele>
        <time>2013-04-21T09:52:11.000Z</time>
      </trkpt>
      <trkpt lat="48.98069" lon="1.11997">
        <ele>153</ele>
        <time>2013-04-21T09:52:15.000Z</time>
      </trkpt>
      <trkpt lat="48.98069" lon="1.11997">
        <ele>153</ele>
        <time>2013-04-21T09:52:17.000Z</time>
      </trkpt>
      <trkpt lat="48.98063" lon="1.11986">
        <ele>153</ele>
        <time>2013-04-21T09:52:19.000Z</time>
      </trkpt>
      <trkpt lat="48.98063" lon="1.11986">
        <ele>153</ele>
        <time>2013-04-21T09:52:21.000Z</time>
      </trkpt>
      <trkpt lat="48.9806" lon="1.11979">
        <ele>153</ele>
        <time>2013-04-21T09:52:23.000Z</time>
      </trkpt>
      <trkpt lat="48.98057" lon="1.11972">
        <ele>153</ele>
        <time>2013-04-21T09:52:25.000Z</time>
      </trkpt>
      <trkpt lat="48.98053" lon="1.11966">
        <ele>154</ele>
        <time>2013-04-21T09:52:27.000Z</time>
      </trkpt>
      <trkpt lat="48.9805" lon="1.11961">
        <ele>154</ele>
        <time>2013-04-21T09:52:29.000Z</time>
      </trkpt>
      <trkpt lat="48.98046" lon="1.11956">
        <ele>154</ele>
        <time>2013-04-21T09:52:31.000Z</time>
      </trkpt>
      <trkpt lat="48.98038" lon="1.11948">
        <ele>154</ele>
        <time>2013-04-21T09:52:33.000Z</time>
      </trkpt>
      <trkpt lat="48.9803" lon="1.11939">
        <ele>155</ele>
        <time>2013-04-21T09:52:37.000Z</time>
      </trkpt>
      <trkpt lat="48.98023" lon="1.1193">
        <ele>154</ele>
        <time>2013-04-21T09:52:41.000Z</time>
      </trkpt>
      <trkpt lat="48.98016" lon="1.11924">
        <ele>154</ele>
        <time>2013-04-21T09:52:45.000Z</time>
      </trkpt>
      <trkpt lat="48.98008" lon="1.11918">
        <ele>154</ele>
        <time>2013-04-21T09:52:49.000Z</time>
      </trkpt>
      <trkpt lat="48.98003" lon="1.11904">
        <ele>155</ele>
        <time>2013-04-21T09:52:53.000Z</time>
      </trkpt>
      <trkpt lat="48.98003" lon="1.11904">
        <ele>155</ele>
        <time>2013-04-21T09:52:55.000Z</time>
      </trkpt>
      <trkpt lat="48.97997" lon="1.11894">
        <ele>155</ele>
        <time>2013-04-21T09:52:57.000Z</time>
      </trkpt>
      <trkpt lat="48.97997" lon="1.11894">
        <ele>155</ele>
        <time>2013-04-21T09:52:59.000Z</time>
      </trkpt>
      <trkpt lat="48.97991" lon="1.11882">
        <ele>155</ele>
        <time>2013-04-21T09:53:01.000Z</time>
      </trkpt>
      <trkpt lat="48.97991" lon="1.11882">
        <ele>155</ele>
        <time>2013-04-21T09:53:03.000Z</time>
      </trkpt>
      <trkpt lat="48.97985" lon="1.11872">
        <ele>155</ele>
        <time>2013-04-21T09:53:05.000Z</time>
      </trkpt>
      <trkpt lat="48.97978" lon="1.11861">
        <ele>156</ele>
        <time>2013-04-21T09:53:09.000Z</time>
      </trkpt>
      <trkpt lat="48.9797" lon="1.11851">
        <ele>157</ele>
        <time>2013-04-21T09:53:13.000Z</time>
      </trkpt>
      <trkpt lat="48.97964" lon="1.11839">
        <ele>157</ele>
        <time>2013-04-21T09:53:17.000Z</time>
      </trkpt>
      <trkpt lat="48.97958" lon="1.11826">
        <ele>158</ele>
        <time>2013-04-21T09:53:21.000Z</time>
      </trkpt>
      <trkpt lat="48.97958" lon="1.11826">
        <ele>158</ele>
        <time>2013-04-21T09:53:23.000Z</time>
      </trkpt>
      <trkpt lat="48.97953" lon="1.11812">
        <ele>158</ele>
        <time>2013-04-21T09:53:25.000Z</time>
      </trkpt>
      <trkpt lat="48.97953" lon="1.11812">
        <ele>158</ele>
        <time>2013-04-21T09:53:27.000Z</time>
      </trkpt>
      <trkpt lat="48.9795" lon="1.11799">
        <ele>158</ele>
        <time>2013-04-21T09:53:29.000Z</time>
      </trkpt>
      <trkpt lat="48.97945" lon="1.11786">
        <ele>158</ele>
        <time>2013-04-21T09:53:33.000Z</time>
      </trkpt>
      <trkpt lat="48.97945" lon="1.11786">
        <ele>158</ele>
        <time>2013-04-21T09:53:35.000Z</time>
      </trkpt>
      <trkpt lat="48.9794" lon="1.11773">
        <ele>158</ele>
        <time>2013-04-21T09:53:37.000Z</time>
      </trkpt>
      <trkpt lat="48.97934" lon="1.1176">
        <ele>159</ele>
        <time>2013-04-21T09:53:41.000Z</time>
      </trkpt>
      <trkpt lat="48.97928" lon="1.11748">
        <ele>160</ele>
        <time>2013-04-21T09:53:45.000Z</time>
      </trkpt>
      <trkpt lat="48.97927" lon="1.11734">
        <ele>160</ele>
        <time>2013-04-21T09:53:49.000Z</time>
      </trkpt>
      <trkpt lat="48.97926" lon="1.1172">
        <ele>161</ele>
        <time>2013-04-21T09:53:53.000Z</time>
      </trkpt>
      <trkpt lat="48.97926" lon="1.1172">
        <ele>161</ele>
        <time>2013-04-21T09:53:55.000Z</time>
      </trkpt>
      <trkpt lat="48.97924" lon="1.11705">
        <ele>161</ele>
        <time>2013-04-21T09:53:57.000Z</time>
      </trkpt>
      <trkpt lat="48.97924" lon="1.11705">
        <ele>161</ele>
        <time>2013-04-21T09:53:59.000Z</time>
      </trkpt>
      <trkpt lat="48.9792" lon="1.11691">
        <ele>162</ele>
        <time>2013-04-21T09:54:01.000Z</time>
      </trkpt>
      <trkpt lat="48.97916" lon="1.11678">
        <ele>163</ele>
        <time>2013-04-21T09:54:05.000Z</time>
      </trkpt>
      <trkpt lat="48.97916" lon="1.11678">
        <ele>163</ele>
        <time>2013-04-21T09:54:07.000Z</time>
      </trkpt>
      <trkpt lat="48.97917" lon="1.11663">
        <ele>164</ele>
        <time>2013-04-21T09:54:09.000Z</time>
      </trkpt>
      <trkpt lat="48.97916" lon="1.11648">
        <ele>165</ele>
        <time>2013-04-21T09:54:13.000Z</time>
      </trkpt>
      <trkpt lat="48.97913" lon="1.11635">
        <ele>165</ele>
        <time>2013-04-21T09:54:17.000Z</time>
      </trkpt>
      <trkpt lat="48.97913" lon="1.11635">
        <ele>165</ele>
        <time>2013-04-21T09:54:19.000Z</time>
      </trkpt>
      <trkpt lat="48.97913" lon="1.11621">
        <ele>166</ele>
        <time>2013-04-21T09:54:21.000Z</time>
      </trkpt>
      <trkpt lat="48.97913" lon="1.11621">
        <ele>166</ele>
        <time>2013-04-21T09:54:23.000Z</time>
      </trkpt>
      <trkpt lat="48.97911" lon="1.11609">
        <ele>167</ele>
        <time>2013-04-21T09:54:25.000Z</time>
      </trkpt>
      <trkpt lat="48.97911" lon="1.11609">
        <ele>167</ele>
        <time>2013-04-21T09:54:27.000Z</time>
      </trkpt>
      <trkpt lat="48.97911" lon="1.11598">
        <ele>167</ele>
        <time>2013-04-21T09:54:29.000Z</time>
      </trkpt>
      <trkpt lat="48.9791" lon="1.11593">
        <ele>167</ele>
        <time>2013-04-21T09:54:33.000Z</time>
      </trkpt>
      <trkpt lat="48.97908" lon="1.11587">
        <ele>167</ele>
        <time>2013-04-21T09:54:35.000Z</time>
      </trkpt>
      <trkpt lat="48.97906" lon="1.11581">
        <ele>168</ele>
        <time>2013-04-21T09:54:37.000Z</time>
      </trkpt>
      <trkpt lat="48.97904" lon="1.11574">
        <ele>168</ele>
        <time>2013-04-21T09:54:39.000Z</time>
      </trkpt>
      <trkpt lat="48.97902" lon="1.11567">
        <ele>168</ele>
        <time>2013-04-21T09:54:41.000Z</time>
      </trkpt>
      <trkpt lat="48.97897" lon="1.11555">
        <ele>168</ele>
        <time>2013-04-21T09:54:43.000Z</time>
      </trkpt>
      <trkpt lat="48.97897" lon="1.11555">
        <ele>168</ele>
        <time>2013-04-21T09:54:45.000Z</time>
      </trkpt>
      <trkpt lat="48.97892" lon="1.11544">
        <ele>169</ele>
        <time>2013-04-21T09:54:47.000Z</time>
      </trkpt>
      <trkpt lat="48.97886" lon="1.11531">
        <ele>170</ele>
        <time>2013-04-21T09:54:51.000Z</time>
      </trkpt>
      <trkpt lat="48.97882" lon="1.11519">
        <ele>170</ele>
        <time>2013-04-21T09:54:55.000Z</time>
      </trkpt>
      <trkpt lat="48.97882" lon="1.11519">
        <ele>170</ele>
        <time>2013-04-21T09:54:57.000Z</time>
      </trkpt>
      <trkpt lat="48.97879" lon="1.11504">
        <ele>171</ele>
        <time>2013-04-21T09:54:59.000Z</time>
      </trkpt>
      <trkpt lat="48.97879" lon="1.11504">
        <ele>171</ele>
        <time>2013-04-21T09:55:01.000Z</time>
      </trkpt>
      <trkpt lat="48.97873" lon="1.11491">
        <ele>172</ele>
        <time>2013-04-21T09:55:03.000Z</time>
      </trkpt>
      <trkpt lat="48.97873" lon="1.11491">
        <ele>172</ele>
        <time>2013-04-21T09:55:05.000Z</time>
      </trkpt>
      <trkpt lat="48.97867" lon="1.11479">
        <ele>173</ele>
        <time>2013-04-21T09:55:07.000Z</time>
      </trkpt>
      <trkpt lat="48.97859" lon="1.11481">
        <ele>173</ele>
        <time>2013-04-21T09:55:11.000Z</time>
      </trkpt>
      <trkpt lat="48.97859" lon="1.11481">
        <ele>173</ele>
        <time>2013-04-21T09:55:13.000Z</time>
      </trkpt>
      <trkpt lat="48.97859" lon="1.11465">
        <ele>174</ele>
        <time>2013-04-21T09:55:15.000Z</time>
      </trkpt>
      <trkpt lat="48.97859" lon="1.11465">
        <ele>174</ele>
        <time>2013-04-21T09:55:17.000Z</time>
      </trkpt>
      <trkpt lat="48.97857" lon="1.11449">
        <ele>174</ele>
        <time>2013-04-21T09:55:19.000Z</time>
      </trkpt>
      <trkpt lat="48.97855" lon="1.11435">
        <ele>173</ele>
        <time>2013-04-21T09:55:23.000Z</time>
      </trkpt>
      <trkpt lat="48.97853" lon="1.1142">
        <ele>173</ele>
        <time>2013-04-21T09:55:27.000Z</time>
      </trkpt>
      <trkpt lat="48.97849" lon="1.11406">
        <ele>172</ele>
        <time>2013-04-21T09:55:31.000Z</time>
      </trkpt>
      <trkpt lat="48.97849" lon="1.11406">
        <ele>172</ele>
        <time>2013-04-21T09:55:33.000Z</time>
      </trkpt>
      <trkpt lat="48.97846" lon="1.11393">
        <ele>172</ele>
        <time>2013-04-21T09:55:35.000Z</time>
      </trkpt>
      <trkpt lat="48.97843" lon="1.11375">
        <ele>171</ele>
        <time>2013-04-21T09:55:41.000Z</time>
      </trkpt>
      <trkpt lat="48.9784" lon="1.1136">
        <ele>172</ele>
        <time>2013-04-21T09:55:45.000Z</time>
      </trkpt>
      <trkpt lat="48.97839" lon="1.11345">
        <ele>172</ele>
        <time>2013-04-21T09:55:49.000Z</time>
      </trkpt>
      <trkpt lat="48.97836" lon="1.1133">
        <ele>173</ele>
        <time>2013-04-21T09:55:53.000Z</time>
      </trkpt>
      <trkpt lat="48.97836" lon="1.1133">
        <ele>173</ele>
        <time>2013-04-21T09:55:55.000Z</time>
      </trkpt>
      <trkpt lat="48.97831" lon="1.11317">
        <ele>172</ele>
        <time>2013-04-21T09:55:57.000Z</time>
      </trkpt>
      <trkpt lat="48.97825" lon="1.11305">
        <ele>172</ele>
        <time>2013-04-21T09:56:01.000Z</time>
      </trkpt>
      <trkpt lat="48.97825" lon="1.11305">
        <ele>172</ele>
        <time>2013-04-21T09:56:03.000Z</time>
      </trkpt>
      <trkpt lat="48.97819" lon="1.11294">
        <ele>172</ele>
        <time>2013-04-21T09:56:05.000Z</time>
      </trkpt>
      <trkpt lat="48.97813" lon="1.11282">
        <ele>173</ele>
        <time>2013-04-21T09:56:09.000Z</time>
      </trkpt>
      <trkpt lat="48.97813" lon="1.11282">
        <ele>173</ele>
        <time>2013-04-21T09:56:11.000Z</time>
      </trkpt>
      <trkpt lat="48.97805" lon="1.11273">
        <ele>172</ele>
        <time>2013-04-21T09:56:13.000Z</time>
      </trkpt>
      <trkpt lat="48.97805" lon="1.11273">
        <ele>172</ele>
        <time>2013-04-21T09:56:15.000Z</time>
      </trkpt>
      <trkpt lat="48.97797" lon="1.11265">
        <ele>172</ele>
        <time>2013-04-21T09:56:17.000Z</time>
      </trkpt>
      <trkpt lat="48.97789" lon="1.11256">
        <ele>173</ele>
        <time>2013-04-21T09:56:21.000Z</time>
      </trkpt>
      <trkpt lat="48.97782" lon="1.11249">
        <ele>174</ele>
        <time>2013-04-21T09:56:25.000Z</time>
      </trkpt>
      <trkpt lat="48.97773" lon="1.11245">
        <ele>175</ele>
        <time>2013-04-21T09:56:29.000Z</time>
      </trkpt>
      <trkpt lat="48.97764" lon="1.11241">
        <ele>176</ele>
        <time>2013-04-21T09:56:33.000Z</time>
      </trkpt>
      <trkpt lat="48.97764" lon="1.11241">
        <ele>176</ele>
        <time>2013-04-21T09:56:35.000Z</time>
      </trkpt>
      <trkpt lat="48.97756" lon="1.11237">
        <ele>176</ele>
        <time>2013-04-21T09:56:37.000Z</time>
      </trkpt>
      <trkpt lat="48.97752" lon="1.11233">
        <ele>177</ele>
        <time>2013-04-21T09:56:41.000Z</time>
      </trkpt>
      <trkpt lat="48.97748" lon="1.11229">
        <ele>177</ele>
        <time>2013-04-21T09:56:43.000Z</time>
      </trkpt>
      <trkpt lat="48.97745" lon="1.11223">
        <ele>177</ele>
        <time>2013-04-21T09:56:45.000Z</time>
      </trkpt>
      <trkpt lat="48.97742" lon="1.11218">
        <ele>178</ele>
        <time>2013-04-21T09:56:47.000Z</time>
      </trkpt>
      <trkpt lat="48.97739" lon="1.11211">
        <ele>178</ele>
        <time>2013-04-21T09:56:49.000Z</time>
      </trkpt>
      <trkpt lat="48.97733" lon="1.11202">
        <ele>178</ele>
        <time>2013-04-21T09:56:51.000Z</time>
      </trkpt>
      <trkpt lat="48.97727" lon="1.1119">
        <ele>178</ele>
        <time>2013-04-21T09:56:55.000Z</time>
      </trkpt>
      <trkpt lat="48.97725" lon="1.11174">
        <ele>178</ele>
        <time>2013-04-21T09:56:59.000Z</time>
      </trkpt>
      <trkpt lat="48.97723" lon="1.11159">
        <ele>179</ele>
        <time>2013-04-21T09:57:03.000Z</time>
      </trkpt>
      <trkpt lat="48.97723" lon="1.11159">
        <ele>179</ele>
        <time>2013-04-21T09:57:05.000Z</time>
      </trkpt>
      <trkpt lat="48.97719" lon="1.11145">
        <ele>179</ele>
        <time>2013-04-21T09:57:07.000Z</time>
      </trkpt>
      <trkpt lat="48.97719" lon="1.11145">
        <ele>179</ele>
        <time>2013-04-21T09:57:09.000Z</time>
      </trkpt>
      <trkpt lat="48.97714" lon="1.11132">
        <ele>180</ele>
        <time>2013-04-21T09:57:11.000Z</time>
      </trkpt>
      <trkpt lat="48.97709" lon="1.11118">
        <ele>180</ele>
        <time>2013-04-21T09:57:15.000Z</time>
      </trkpt>
      <trkpt lat="48.97701" lon="1.11107">
        <ele>181</ele>
        <time>2013-04-21T09:57:19.000Z</time>
      </trkpt>
      <trkpt lat="48.97694" lon="1.11095">
        <ele>182</ele>
        <time>2013-04-21T09:57:23.000Z</time>
      </trkpt>
      <trkpt lat="48.9769" lon="1.1108">
        <ele>183</ele>
        <time>2013-04-21T09:57:27.000Z</time>
      </trkpt>
      <trkpt lat="48.9769" lon="1.1108">
        <ele>183</ele>
        <time>2013-04-21T09:57:29.000Z</time>
      </trkpt>
      <trkpt lat="48.97682" lon="1.11075">
        <ele>184</ele>
        <time>2013-04-21T09:57:31.000Z</time>
      </trkpt>
      <trkpt lat="48.97678" lon="1.11064">
        <ele>184</ele>
        <time>2013-04-21T09:57:35.000Z</time>
      </trkpt>
      <trkpt lat="48.97675" lon="1.11052">
        <ele>185</ele>
        <time>2013-04-21T09:57:39.000Z</time>
      </trkpt>
      <trkpt lat="48.97675" lon="1.11052">
        <ele>185</ele>
        <time>2013-04-21T09:57:41.000Z</time>
      </trkpt>
      <trkpt lat="48.97671" lon="1.11042">
        <ele>185</ele>
        <time>2013-04-21T09:57:43.000Z</time>
      </trkpt>
      <trkpt lat="48.97671" lon="1.11042">
        <ele>185</ele>
        <time>2013-04-21T09:57:45.000Z</time>
      </trkpt>
      <trkpt lat="48.97671" lon="1.11042">
        <ele>185</ele>
        <time>2013-04-21T09:57:47.000Z</time>
      </trkpt>
      <trkpt lat="48.97671" lon="1.11042">
        <ele>185</ele>
        <time>2013-04-21T09:57:49.000Z</time>
      </trkpt>
      <trkpt lat="48.97671" lon="1.11042">
        <ele>185</ele>
        <time>2013-04-21T09:57:51.000Z</time>
      </trkpt>
      <trkpt lat="48.97671" lon="1.11042">
        <ele>185</ele>
        <time>2013-04-21T09:57:53.000Z</time>
      </trkpt>
      <trkpt lat="48.97676" lon="1.11049">
        <ele>186</ele>
        <time>2013-04-21T09:57:55.000Z</time>
      </trkpt>
      <trkpt lat="48.97679" lon="1.11057">
        <ele>186</ele>
        <time>2013-04-21T09:57:57.000Z</time>
      </trkpt>
      <trkpt lat="48.97687" lon="1.11068">
        <ele>186</ele>
        <time>2013-04-21T09:58:01.000Z</time>
      </trkpt>
      <trkpt lat="48.97691" lon="1.11077">
        <ele>187</ele>
        <time>2013-04-21T09:58:03.000Z</time>
      </trkpt>
      <trkpt lat="48.97697" lon="1.11089">
        <ele>187</ele>
        <time>2013-04-21T09:58:07.000Z</time>
      </trkpt>
      <trkpt lat="48.97701" lon="1.11103">
        <ele>187</ele>
        <time>2013-04-21T09:58:11.000Z</time>
      </trkpt>
      <trkpt lat="48.97701" lon="1.11103">
        <ele>187</ele>
        <time>2013-04-21T09:58:13.000Z</time>
      </trkpt>
      <trkpt lat="48.97706" lon="1.11117">
        <ele>187</ele>
        <time>2013-04-21T09:58:15.000Z</time>
      </trkpt>
      <trkpt lat="48.97706" lon="1.11117">
        <ele>187</ele>
        <time>2013-04-21T09:58:17.000Z</time>
      </trkpt>
      <trkpt lat="48.97712" lon="1.11128">
        <ele>187</ele>
        <time>2013-04-21T09:58:19.000Z</time>
      </trkpt>
      <trkpt lat="48.97712" lon="1.11128">
        <ele>187</ele>
        <time>2013-04-21T09:58:21.000Z</time>
      </trkpt>
      <trkpt lat="48.97715" lon="1.11141">
        <ele>188</ele>
        <time>2013-04-21T09:58:23.000Z</time>
      </trkpt>
      <trkpt lat="48.97721" lon="1.11152">
        <ele>188</ele>
        <time>2013-04-21T09:58:27.000Z</time>
      </trkpt>
      <trkpt lat="48.97721" lon="1.11152">
        <ele>188</ele>
        <time>2013-04-21T09:58:29.000Z</time>
      </trkpt>
      <trkpt lat="48.97726" lon="1.11164">
        <ele>188</ele>
        <time>2013-04-21T09:58:31.000Z</time>
      </trkpt>
      <trkpt lat="48.97726" lon="1.11164">
        <ele>188</ele>
        <time>2013-04-21T09:58:33.000Z</time>
      </trkpt>
      <trkpt lat="48.97731" lon="1.11177">
        <ele>188</ele>
        <time>2013-04-21T09:58:35.000Z</time>
      </trkpt>
      <trkpt lat="48.97735" lon="1.11191">
        <ele>189</ele>
        <time>2013-04-21T09:58:39.000Z</time>
      </trkpt>
      <trkpt lat="48.97735" lon="1.11191">
        <ele>189</ele>
        <time>2013-04-21T09:58:41.000Z</time>
      </trkpt>
      <trkpt lat="48.97739" lon="1.11207">
        <ele>189</ele>
        <time>2013-04-21T09:58:43.000Z</time>
      </trkpt>
      <trkpt lat="48.97739" lon="1.11207">
        <ele>189</ele>
        <time>2013-04-21T09:58:45.000Z</time>
      </trkpt>
      <trkpt lat="48.97741" lon="1.11214">
        <ele>189</ele>
        <time>2013-04-21T09:58:47.000Z</time>
      </trkpt>
      <trkpt lat="48.97745" lon="1.11221">
        <ele>189</ele>
        <time>2013-04-21T09:58:49.000Z</time>
      </trkpt>
      <trkpt lat="48.97749" lon="1.11226">
        <ele>189</ele>
        <time>2013-04-21T09:58:51.000Z</time>
      </trkpt>
      <trkpt lat="48.97753" lon="1.11232">
        <ele>189</ele>
        <time>2013-04-21T09:58:53.000Z</time>
      </trkpt>
      <trkpt lat="48.97757" lon="1.11235">
        <ele>188</ele>
        <time>2013-04-21T09:58:55.000Z</time>
      </trkpt>
      <trkpt lat="48.97765" lon="1.11241">
        <ele>188</ele>
        <time>2013-04-21T09:58:57.000Z</time>
      </trkpt>
      <trkpt lat="48.97765" lon="1.11241">
        <ele>188</ele>
        <time>2013-04-21T09:58:59.000Z</time>
      </trkpt>
      <trkpt lat="48.97768" lon="1.11248">
        <ele>188</ele>
        <time>2013-04-21T09:59:01.000Z</time>
      </trkpt>
      <trkpt lat="48.97776" lon="1.11251">
        <ele>187</ele>
        <time>2013-04-21T09:59:05.000Z</time>
      </trkpt>
      <trkpt lat="48.97786" lon="1.11257">
        <ele>186</ele>
        <time>2013-04-21T09:59:09.000Z</time>
      </trkpt>
      <trkpt lat="48.97796" lon="1.11267">
        <ele>185</ele>
        <time>2013-04-21T09:59:13.000Z</time>
      </trkpt>
      <trkpt lat="48.97802" lon="1.11271">
        <ele>184</ele>
        <time>2013-04-21T09:59:15.000Z</time>
      </trkpt>
      <trkpt lat="48.97805" lon="1.11279">
        <ele>184</ele>
        <time>2013-04-21T09:59:17.000Z</time>
      </trkpt>
      <trkpt lat="48.97805" lon="1.11279">
        <ele>184</ele>
        <time>2013-04-21T09:59:19.000Z</time>
      </trkpt>
      <trkpt lat="48.97811" lon="1.11291">
        <ele>183</ele>
        <time>2013-04-21T09:59:21.000Z</time>
      </trkpt>
      <trkpt lat="48.9782" lon="1.11299">
        <ele>183</ele>
        <time>2013-04-21T09:59:25.000Z</time>
      </trkpt>
      <trkpt lat="48.97825" lon="1.11305">
        <ele>182</ele>
        <time>2013-04-21T09:59:27.000Z</time>
      </trkpt>
      <trkpt lat="48.97829" lon="1.11312">
        <ele>182</ele>
        <time>2013-04-21T09:59:29.000Z</time>
      </trkpt>
      <trkpt lat="48.97832" lon="1.11321">
        <ele>182</ele>
        <time>2013-04-21T09:59:31.000Z</time>
      </trkpt>
      <trkpt lat="48.97835" lon="1.11329">
        <ele>181</ele>
        <time>2013-04-21T09:59:33.000Z</time>
      </trkpt>
      <trkpt lat="48.97838" lon="1.11338">
        <ele>181</ele>
        <time>2013-04-21T09:59:35.000Z</time>
      </trkpt>
      <trkpt lat="48.97838" lon="1.11347">
        <ele>181</ele>
        <time>2013-04-21T09:59:37.000Z</time>
      </trkpt>
      <trkpt lat="48.97839" lon="1.11357">
        <ele>181</ele>
        <time>2013-04-21T09:59:39.000Z</time>
      </trkpt>
      <trkpt lat="48.9784" lon="1.11366">
        <ele>181</ele>
        <time>2013-04-21T09:59:41.000Z</time>
      </trkpt>
      <trkpt lat="48.97842" lon="1.11375">
        <ele>181</ele>
        <time>2013-04-21T09:59:43.000Z</time>
      </trkpt>
      <trkpt lat="48.97842" lon="1.11375">
        <ele>181</ele>
        <time>2013-04-21T09:59:45.000Z</time>
      </trkpt>
      <trkpt lat="48.97842" lon="1.11375">
        <ele>181</ele>
        <time>2013-04-21T09:59:47.000Z</time>
      </trkpt>
      <trkpt lat="48.97853" lon="1.11386">
        <ele>181</ele>
        <time>2013-04-21T09:59:49.000Z</time>
      </trkpt>
      <trkpt lat="48.97853" lon="1.11397">
        <ele>181</ele>
        <time>2013-04-21T09:59:51.000Z</time>
      </trkpt>
      <trkpt lat="48.97856" lon="1.11416">
        <ele>181</ele>
        <time>2013-04-21T09:59:55.000Z</time>
      </trkpt>
      <trkpt lat="48.97856" lon="1.11416">
        <ele>181</ele>
        <time>2013-04-21T09:59:57.000Z</time>
      </trkpt>
      <trkpt lat="48.97863" lon="1.11426">
        <ele>180</ele>
        <time>2013-04-21T09:59:59.000Z</time>
      </trkpt>
      <trkpt lat="48.97863" lon="1.11426">
        <ele>180</ele>
        <time>2013-04-21T10:00:01.000Z</time>
      </trkpt>
      <trkpt lat="48.97863" lon="1.11442">
        <ele>180</ele>
        <time>2013-04-21T10:00:03.000Z</time>
      </trkpt>
      <trkpt lat="48.97863" lon="1.11442">
        <ele>180</ele>
        <time>2013-04-21T10:00:05.000Z</time>
      </trkpt>
      <trkpt lat="48.97865" lon="1.11456">
        <ele>180</ele>
        <time>2013-04-21T10:00:07.000Z</time>
      </trkpt>
      <trkpt lat="48.97869" lon="1.11469">
        <ele>180</ele>
        <time>2013-04-21T10:00:11.000Z</time>
      </trkpt>
      <trkpt lat="48.97873" lon="1.11481">
        <ele>180</ele>
        <time>2013-04-21T10:00:15.000Z</time>
      </trkpt>
      <trkpt lat="48.97878" lon="1.11492">
        <ele>181</ele>
        <time>2013-04-21T10:00:19.000Z</time>
      </trkpt>
      <trkpt lat="48.97881" lon="1.11502">
        <ele>181</ele>
        <time>2013-04-21T10:00:23.000Z</time>
      </trkpt>
      <trkpt lat="48.97881" lon="1.11502">
        <ele>181</ele>
        <time>2013-04-21T10:00:25.000Z</time>
      </trkpt>
      <trkpt lat="48.97884" lon="1.11515">
        <ele>181</ele>
        <time>2013-04-21T10:00:27.000Z</time>
      </trkpt>
      <trkpt lat="48.97885" lon="1.11525">
        <ele>181</ele>
        <time>2013-04-21T10:00:29.000Z</time>
      </trkpt>
      <trkpt lat="48.97885" lon="1.11535">
        <ele>180</ele>
        <time>2013-04-21T10:00:31.000Z</time>
      </trkpt>
      <trkpt lat="48.97887" lon="1.11544">
        <ele>180</ele>
        <time>2013-04-21T10:00:33.000Z</time>
      </trkpt>
      <trkpt lat="48.9789" lon="1.11552">
        <ele>180</ele>
        <time>2013-04-21T10:00:35.000Z</time>
      </trkpt>
      <trkpt lat="48.97896" lon="1.11565">
        <ele>180</ele>
        <time>2013-04-21T10:00:39.000Z</time>
      </trkpt>
      <trkpt lat="48.97898" lon="1.11577">
        <ele>179</ele>
        <time>2013-04-21T10:00:43.000Z</time>
      </trkpt>
      <trkpt lat="48.97898" lon="1.11577">
        <ele>179</ele>
        <time>2013-04-21T10:00:45.000Z</time>
      </trkpt>
      <trkpt lat="48.97906" lon="1.11586">
        <ele>179</ele>
        <time>2013-04-21T10:00:47.000Z</time>
      </trkpt>
      <trkpt lat="48.97906" lon="1.11586">
        <ele>179</ele>
        <time>2013-04-21T10:00:49.000Z</time>
      </trkpt>
      <trkpt lat="48.97911" lon="1.11597">
        <ele>179</ele>
        <time>2013-04-21T10:00:51.000Z</time>
      </trkpt>
      <trkpt lat="48.97915" lon="1.11611">
        <ele>179</ele>
        <time>2013-04-21T10:00:55.000Z</time>
      </trkpt>
      <trkpt lat="48.97917" lon="1.11626">
        <ele>179</ele>
        <time>2013-04-21T10:00:59.000Z</time>
      </trkpt>
      <trkpt lat="48.97923" lon="1.1164">
        <ele>178</ele>
        <time>2013-04-21T10:01:03.000Z</time>
      </trkpt>
      <trkpt lat="48.97925" lon="1.11655">
        <ele>178</ele>
        <time>2013-04-21T10:01:07.000Z</time>
      </trkpt>
      <trkpt lat="48.97925" lon="1.11655">
        <ele>178</ele>
        <time>2013-04-21T10:01:09.000Z</time>
      </trkpt>
      <trkpt lat="48.97927" lon="1.1167">
        <ele>177</ele>
        <time>2013-04-21T10:01:11.000Z</time>
      </trkpt>
      <trkpt lat="48.97927" lon="1.11686">
        <ele>177</ele>
        <time>2013-04-21T10:01:15.000Z</time>
      </trkpt>
      <trkpt lat="48.97928" lon="1.11702">
        <ele>177</ele>
        <time>2013-04-21T10:01:19.000Z</time>
      </trkpt>
      <trkpt lat="48.97928" lon="1.11702">
        <ele>177</ele>
        <time>2013-04-21T10:01:21.000Z</time>
      </trkpt>
      <trkpt lat="48.97931" lon="1.11715">
        <ele>177</ele>
        <time>2013-04-21T10:01:23.000Z</time>
      </trkpt>
      <trkpt lat="48.97931" lon="1.11715">
        <ele>177</ele>
        <time>2013-04-21T10:01:25.000Z</time>
      </trkpt>
      <trkpt lat="48.97934" lon="1.11718">
        <ele>177</ele>
        <time>2013-04-21T10:01:27.000Z</time>
      </trkpt>
      <trkpt lat="48.97937" lon="1.11724">
        <ele>178</ele>
        <time>2013-04-21T10:01:29.000Z</time>
      </trkpt>
      <trkpt lat="48.97938" lon="1.11732">
        <ele>177</ele>
        <time>2013-04-21T10:01:31.000Z</time>
      </trkpt>
      <trkpt lat="48.97939" lon="1.1174">
        <ele>177</ele>
        <time>2013-04-21T10:01:33.000Z</time>
      </trkpt>
      <trkpt lat="48.97939" lon="1.11748">
        <ele>177</ele>
        <time>2013-04-21T10:01:35.000Z</time>
      </trkpt>
      <trkpt lat="48.97936" lon="1.11763">
        <ele>176</ele>
        <time>2013-04-21T10:01:37.000Z</time>
      </trkpt>
      <trkpt lat="48.97926" lon="1.1177">
        <ele>175</ele>
        <time>2013-04-21T10:01:41.000Z</time>
      </trkpt>
      <trkpt lat="48.97921" lon="1.11773">
        <ele>175</ele>
        <time>2013-04-21T10:01:43.000Z</time>
      </trkpt>
      <trkpt lat="48.97921" lon="1.11773">
        <ele>175</ele>
        <time>2013-04-21T10:01:45.000Z</time>
      </trkpt>
      <trkpt lat="48.97908" lon="1.1178">
        <ele>174</ele>
        <time>2013-04-21T10:01:47.000Z</time>
      </trkpt>
      <trkpt lat="48.97903" lon="1.11784">
        <ele>174</ele>
        <time>2013-04-21T10:01:49.000Z</time>
      </trkpt>
      <trkpt lat="48.97893" lon="1.11791">
        <ele>173</ele>
        <time>2013-04-21T10:01:53.000Z</time>
      </trkpt>
      <trkpt lat="48.97884" lon="1.11798">
        <ele>173</ele>
        <time>2013-04-21T10:01:57.000Z</time>
      </trkpt>
      <trkpt lat="48.97884" lon="1.11798">
        <ele>173</ele>
        <time>2013-04-21T10:01:59.000Z</time>
      </trkpt>
      <trkpt lat="48.97875" lon="1.11807">
        <ele>173</ele>
        <time>2013-04-21T10:02:01.000Z</time>
      </trkpt>
      <trkpt lat="48.97875" lon="1.11807">
        <ele>173</ele>
        <time>2013-04-21T10:02:03.000Z</time>
      </trkpt>
      <trkpt lat="48.97868" lon="1.11813">
        <ele>173</ele>
        <time>2013-04-21T10:02:05.000Z</time>
      </trkpt>
      <trkpt lat="48.97868" lon="1.11813">
        <ele>173</ele>
        <time>2013-04-21T10:02:07.000Z</time>
      </trkpt>
      <trkpt lat="48.97861" lon="1.1182">
        <ele>174</ele>
        <time>2013-04-21T10:02:09.000Z</time>
      </trkpt>
      <trkpt lat="48.97861" lon="1.1182">
        <ele>174</ele>
        <time>2013-04-21T10:02:11.000Z</time>
      </trkpt>
      <trkpt lat="48.97854" lon="1.11827">
        <ele>175</ele>
        <time>2013-04-21T10:02:13.000Z</time>
      </trkpt>
      <trkpt lat="48.97854" lon="1.11827">
        <ele>175</ele>
        <time>2013-04-21T10:02:15.000Z</time>
      </trkpt>
      <trkpt lat="48.97849" lon="1.1183">
        <ele>175</ele>
        <time>2013-04-21T10:02:17.000Z</time>
      </trkpt>
      <trkpt lat="48.97844" lon="1.11835">
        <ele>176</ele>
        <time>2013-04-21T10:02:21.000Z</time>
      </trkpt>
      <trkpt lat="48.97844" lon="1.11835">
        <ele>176</ele>
        <time>2013-04-21T10:02:23.000Z</time>
      </trkpt>
      <trkpt lat="48.97838" lon="1.11842">
        <ele>176</ele>
        <time>2013-04-21T10:02:25.000Z</time>
      </trkpt>
      <trkpt lat="48.97838" lon="1.11842">
        <ele>176</ele>
        <time>2013-04-21T10:02:27.000Z</time>
      </trkpt>
      <trkpt lat="48.97831" lon="1.11849">
        <ele>176</ele>
        <time>2013-04-21T10:02:29.000Z</time>
      </trkpt>
      <trkpt lat="48.97831" lon="1.11849">
        <ele>176</ele>
        <time>2013-04-21T10:02:31.000Z</time>
      </trkpt>
      <trkpt lat="48.97826" lon="1.11855">
        <ele>176</ele>
        <time>2013-04-21T10:02:33.000Z</time>
      </trkpt>
      <trkpt lat="48.97826" lon="1.11855">
        <ele>176</ele>
        <time>2013-04-21T10:02:35.000Z</time>
      </trkpt>
      <trkpt lat="48.97818" lon="1.11858">
        <ele>176</ele>
        <time>2013-04-21T10:02:37.000Z</time>
      </trkpt>
      <trkpt lat="48.97818" lon="1.11858">
        <ele>176</ele>
        <time>2013-04-21T10:02:39.000Z</time>
      </trkpt>
      <trkpt lat="48.97808" lon="1.11867">
        <ele>177</ele>
        <time>2013-04-21T10:02:41.000Z</time>
      </trkpt>
      <trkpt lat="48.97801" lon="1.11877">
        <ele>177</ele>
        <time>2013-04-21T10:02:45.000Z</time>
      </trkpt>
      <trkpt lat="48.97794" lon="1.11885">
        <ele>177</ele>
        <time>2013-04-21T10:02:49.000Z</time>
      </trkpt>
      <trkpt lat="48.97794" lon="1.11885">
        <ele>177</ele>
        <time>2013-04-21T10:02:51.000Z</time>
      </trkpt>
      <trkpt lat="48.97786" lon="1.11891">
        <ele>176</ele>
        <time>2013-04-21T10:02:53.000Z</time>
      </trkpt>
      <trkpt lat="48.97786" lon="1.11891">
        <ele>176</ele>
        <time>2013-04-21T10:02:55.000Z</time>
      </trkpt>
      <trkpt lat="48.97782" lon="1.11899">
        <ele>176</ele>
        <time>2013-04-21T10:02:57.000Z</time>
      </trkpt>
      <trkpt lat="48.97782" lon="1.11899">
        <ele>176</ele>
        <time>2013-04-21T10:02:59.000Z</time>
      </trkpt>
      <trkpt lat="48.97776" lon="1.11908">
        <ele>176</ele>
        <time>2013-04-21T10:03:03.000Z</time>
      </trkpt>
      <trkpt lat="48.97767" lon="1.11914">
        <ele>177</ele>
        <time>2013-04-21T10:03:09.000Z</time>
      </trkpt>
      <trkpt lat="48.97767" lon="1.11914">
        <ele>177</ele>
        <time>2013-04-21T10:03:11.000Z</time>
      </trkpt>
      <trkpt lat="48.97758" lon="1.11918">
        <ele>176</ele>
        <time>2013-04-21T10:03:15.000Z</time>
      </trkpt>
      <trkpt lat="48.97758" lon="1.11918">
        <ele>176</ele>
        <time>2013-04-21T10:03:17.000Z</time>
      </trkpt>
      <trkpt lat="48.97758" lon="1.11918">
        <ele>176</ele>
        <time>2013-04-21T10:03:20.000Z</time>
      </trkpt>
      <trkpt lat="48.97754" lon="1.11929">
        <ele>176</ele>
        <time>2013-04-21T10:03:24.000Z</time>
      </trkpt>
      <trkpt lat="48.97754" lon="1.11929">
        <ele>176</ele>
        <time>2013-04-21T10:03:26.000Z</time>
      </trkpt>
      <trkpt lat="48.97749" lon="1.11935">
        <ele>177</ele>
        <time>2013-04-21T10:03:28.000Z</time>
      </trkpt>
      <trkpt lat="48.97745" lon="1.11941">
        <ele>177</ele>
        <time>2013-04-21T10:03:30.000Z</time>
      </trkpt>
      <trkpt lat="48.97741" lon="1.11946">
        <ele>178</ele>
        <time>2013-04-21T10:03:34.000Z</time>
      </trkpt>
      <trkpt lat="48.97736" lon="1.11951">
        <ele>178</ele>
        <time>2013-04-21T10:03:36.000Z</time>
      </trkpt>
      <trkpt lat="48.97731" lon="1.11955">
        <ele>178</ele>
        <time>2013-04-21T10:03:38.000Z</time>
      </trkpt>
      <trkpt lat="48.97727" lon="1.11959">
        <ele>179</ele>
        <time>2013-04-21T10:03:40.000Z</time>
      </trkpt>
      <trkpt lat="48.97723" lon="1.11963">
        <ele>179</ele>
        <time>2013-04-21T10:03:42.000Z</time>
      </trkpt>
      <trkpt lat="48.97714" lon="1.11968">
        <ele>179</ele>
        <time>2013-04-21T10:03:44.000Z</time>
      </trkpt>
      <trkpt lat="48.97714" lon="1.11968">
        <ele>179</ele>
        <time>2013-04-21T10:03:46.000Z</time>
      </trkpt>
      <trkpt lat="48.97707" lon="1.11979">
        <ele>179</ele>
        <time>2013-04-21T10:03:48.000Z</time>
      </trkpt>
      <trkpt lat="48.97699" lon="1.11989">
        <ele>180</ele>
        <time>2013-04-21T10:03:52.000Z</time>
      </trkpt>
      <trkpt lat="48.97699" lon="1.11989">
        <ele>180</ele>
        <time>2013-04-21T10:03:54.000Z</time>
      </trkpt>
      <trkpt lat="48.97689" lon="1.11996">
        <ele>180</ele>
        <time>2013-04-21T10:03:56.000Z</time>
      </trkpt>
      <trkpt lat="48.97689" lon="1.11996">
        <ele>180</ele>
        <time>2013-04-21T10:03:58.000Z</time>
      </trkpt>
      <trkpt lat="48.97683" lon="1.12004">
        <ele>180</ele>
        <time>2013-04-21T10:04:00.000Z</time>
      </trkpt>
      <trkpt lat="48.97691" lon="1.12015">
        <ele>181</ele>
        <time>2013-04-21T10:04:04.000Z</time>
      </trkpt>
      <trkpt lat="48.97691" lon="1.12031">
        <ele>180</ele>
        <time>2013-04-21T10:04:08.000Z</time>
      </trkpt>
      <trkpt lat="48.97692" lon="1.12041">
        <ele>180</ele>
        <time>2013-04-21T10:04:10.000Z</time>
      </trkpt>
      <trkpt lat="48.97693" lon="1.1205">
        <ele>179</ele>
        <time>2013-04-21T10:04:12.000Z</time>
      </trkpt>
      <trkpt lat="48.97695" lon="1.12058">
        <ele>179</ele>
        <time>2013-04-21T10:04:14.000Z</time>
      </trkpt>
      <trkpt lat="48.97697" lon="1.12067">
        <ele>179</ele>
        <time>2013-04-21T10:04:16.000Z</time>
      </trkpt>
      <trkpt lat="48.97699" lon="1.12075">
        <ele>179</ele>
        <time>2013-04-21T10:04:18.000Z</time>
      </trkpt>
      <trkpt lat="48.97701" lon="1.12084">
        <ele>179</ele>
        <time>2013-04-21T10:04:20.000Z</time>
      </trkpt>
      <trkpt lat="48.97703" lon="1.12092">
        <ele>179</ele>
        <time>2013-04-21T10:04:22.000Z</time>
      </trkpt>
      <trkpt lat="48.97703" lon="1.12092">
        <ele>179</ele>
        <time>2013-04-21T10:04:24.000Z</time>
      </trkpt>
      <trkpt lat="48.97706" lon="1.12105">
        <ele>179</ele>
        <time>2013-04-21T10:04:26.000Z</time>
      </trkpt>
      <trkpt lat="48.97707" lon="1.12121">
        <ele>178</ele>
        <time>2013-04-21T10:04:30.000Z</time>
      </trkpt>
      <trkpt lat="48.97707" lon="1.12121">
        <ele>178</ele>
        <time>2013-04-21T10:04:32.000Z</time>
      </trkpt>
      <trkpt lat="48.9771" lon="1.12136">
        <ele>178</ele>
        <time>2013-04-21T10:04:34.000Z</time>
      </trkpt>
      <trkpt lat="48.97714" lon="1.12143">
        <ele>177</ele>
        <time>2013-04-21T10:04:36.000Z</time>
      </trkpt>
      <trkpt lat="48.97718" lon="1.1215">
        <ele>177</ele>
        <time>2013-04-21T10:04:38.000Z</time>
      </trkpt>
      <trkpt lat="48.97723" lon="1.12156">
        <ele>177</ele>
        <time>2013-04-21T10:04:40.000Z</time>
      </trkpt>
      <trkpt lat="48.97728" lon="1.12161">
        <ele>176</ele>
        <time>2013-04-21T10:04:42.000Z</time>
      </trkpt>
      <trkpt lat="48.97734" lon="1.12165">
        <ele>176</ele>
        <time>2013-04-21T10:04:44.000Z</time>
      </trkpt>
      <trkpt lat="48.97744" lon="1.12169">
        <ele>175</ele>
        <time>2013-04-21T10:04:48.000Z</time>
      </trkpt>
      <trkpt lat="48.9775" lon="1.1217">
        <ele>175</ele>
        <time>2013-04-21T10:04:50.000Z</time>
      </trkpt>
      <trkpt lat="48.97756" lon="1.12172">
        <ele>174</ele>
        <time>2013-04-21T10:04:52.000Z</time>
      </trkpt>
      <trkpt lat="48.97762" lon="1.12174">
        <ele>174</ele>
        <time>2013-04-21T10:04:54.000Z</time>
      </trkpt>
      <trkpt lat="48.97768" lon="1.12178">
        <ele>173</ele>
        <time>2013-04-21T10:04:56.000Z</time>
      </trkpt>
      <trkpt lat="48.97768" lon="1.12178">
        <ele>173</ele>
        <time>2013-04-21T10:04:58.000Z</time>
      </trkpt>
      <trkpt lat="48.97777" lon="1.12186">
        <ele>172</ele>
        <time>2013-04-21T10:05:00.000Z</time>
      </trkpt>
      <trkpt lat="48.97777" lon="1.12186">
        <ele>172</ele>
        <time>2013-04-21T10:05:02.000Z</time>
      </trkpt>
      <trkpt lat="48.97786" lon="1.12193">
        <ele>171</ele>
        <time>2013-04-21T10:05:04.000Z</time>
      </trkpt>
      <trkpt lat="48.97786" lon="1.12193">
        <ele>171</ele>
        <time>2013-04-21T10:05:06.000Z</time>
      </trkpt>
      <trkpt lat="48.97797" lon="1.12199">
        <ele>170</ele>
        <time>2013-04-21T10:05:08.000Z</time>
      </trkpt>
      <trkpt lat="48.97802" lon="1.12201">
        <ele>169</ele>
        <time>2013-04-21T10:05:10.000Z</time>
      </trkpt>
      <trkpt lat="48.97813" lon="1.12203">
        <ele>168</ele>
        <time>2013-04-21T10:05:14.000Z</time>
      </trkpt>
      <trkpt lat="48.9782" lon="1.12204">
        <ele>168</ele>
        <time>2013-04-21T10:05:16.000Z</time>
      </trkpt>
      <trkpt lat="48.97826" lon="1.12205">
        <ele>167</ele>
        <time>2013-04-21T10:05:18.000Z</time>
      </trkpt>
      <trkpt lat="48.97837" lon="1.12209">
        <ele>166</ele>
        <time>2013-04-21T10:05:22.000Z</time>
      </trkpt>
      <trkpt lat="48.97842" lon="1.12214">
        <ele>166</ele>
        <time>2013-04-21T10:05:24.000Z</time>
      </trkpt>
      <trkpt lat="48.97847" lon="1.12221">
        <ele>166</ele>
        <time>2013-04-21T10:05:26.000Z</time>
      </trkpt>
      <trkpt lat="48.97847" lon="1.12221">
        <ele>166</ele>
        <time>2013-04-21T10:05:28.000Z</time>
      </trkpt>
      <trkpt lat="48.97856" lon="1.12229">
        <ele>165</ele>
        <time>2013-04-21T10:05:30.000Z</time>
      </trkpt>
      <trkpt lat="48.97862" lon="1.12241">
        <ele>164</ele>
        <time>2013-04-21T10:05:34.000Z</time>
      </trkpt>
      <trkpt lat="48.97862" lon="1.12241">
        <ele>164</ele>
        <time>2013-04-21T10:05:36.000Z</time>
      </trkpt>
      <trkpt lat="48.97865" lon="1.12253">
        <ele>163</ele>
        <time>2013-04-21T10:05:38.000Z</time>
      </trkpt>
      <trkpt lat="48.97865" lon="1.12262">
        <ele>163</ele>
        <time>2013-04-21T10:05:40.000Z</time>
      </trkpt>
      <trkpt lat="48.97865" lon="1.12272">
        <ele>162</ele>
        <time>2013-04-21T10:05:42.000Z</time>
      </trkpt>
      <trkpt lat="48.97865" lon="1.12281">
        <ele>162</ele>
        <time>2013-04-21T10:05:44.000Z</time>
      </trkpt>
      <trkpt lat="48.97866" lon="1.1229">
        <ele>161</ele>
        <time>2013-04-21T10:05:46.000Z</time>
      </trkpt>
      <trkpt lat="48.97866" lon="1.12299">
        <ele>161</ele>
        <time>2013-04-21T10:05:48.000Z</time>
      </trkpt>
      <trkpt lat="48.9787" lon="1.12315">
        <ele>160</ele>
        <time>2013-04-21T10:05:52.000Z</time>
      </trkpt>
      <trkpt lat="48.97872" lon="1.12332">
        <ele>159</ele>
        <time>2013-04-21T10:05:56.000Z</time>
      </trkpt>
      <trkpt lat="48.97874" lon="1.12349">
        <ele>158</ele>
        <time>2013-04-21T10:06:00.000Z</time>
      </trkpt>
      <trkpt lat="48.97874" lon="1.12349">
        <ele>158</ele>
        <time>2013-04-21T10:06:02.000Z</time>
      </trkpt>
      <trkpt lat="48.97876" lon="1.12363">
        <ele>157</ele>
        <time>2013-04-21T10:06:04.000Z</time>
      </trkpt>
      <trkpt lat="48.97876" lon="1.12363">
        <ele>157</ele>
        <time>2013-04-21T10:06:06.000Z</time>
      </trkpt>
      <trkpt lat="48.97871" lon="1.12376">
        <ele>157</ele>
        <time>2013-04-21T10:06:08.000Z</time>
      </trkpt>
      <trkpt lat="48.97871" lon="1.12376">
        <ele>157</ele>
        <time>2013-04-21T10:06:10.000Z</time>
      </trkpt>
      <trkpt lat="48.97866" lon="1.12383">
        <ele>156</ele>
        <time>2013-04-21T10:06:12.000Z</time>
      </trkpt>
      <trkpt lat="48.97866" lon="1.12383">
        <ele>156</ele>
        <time>2013-04-21T10:06:14.000Z</time>
      </trkpt>
      <trkpt lat="48.97862" lon="1.12392">
        <ele>155</ele>
        <time>2013-04-21T10:06:16.000Z</time>
      </trkpt>
      <trkpt lat="48.97858" lon="1.12403">
        <ele>155</ele>
        <time>2013-04-21T10:06:20.000Z</time>
      </trkpt>
      <trkpt lat="48.97852" lon="1.12413">
        <ele>154</ele>
        <time>2013-04-21T10:06:24.000Z</time>
      </trkpt>
      <trkpt lat="48.97848" lon="1.12424">
        <ele>154</ele>
        <time>2013-04-21T10:06:28.000Z</time>
      </trkpt>
      <trkpt lat="48.97848" lon="1.12424">
        <ele>154</ele>
        <time>2013-04-21T10:06:30.000Z</time>
      </trkpt>
      <trkpt lat="48.97844" lon="1.12437">
        <ele>153</ele>
        <time>2013-04-21T10:06:32.000Z</time>
      </trkpt>
      <trkpt lat="48.97842" lon="1.12444">
        <ele>153</ele>
        <time>2013-04-21T10:06:36.000Z</time>
      </trkpt>
      <trkpt lat="48.97841" lon="1.12452">
        <ele>153</ele>
        <time>2013-04-21T10:06:38.000Z</time>
      </trkpt>
      <trkpt lat="48.9784" lon="1.12459">
        <ele>153</ele>
        <time>2013-04-21T10:06:40.000Z</time>
      </trkpt>
      <trkpt lat="48.9784" lon="1.12466">
        <ele>153</ele>
        <time>2013-04-21T10:06:42.000Z</time>
      </trkpt>
      <trkpt lat="48.9784" lon="1.12473">
        <ele>153</ele>
        <time>2013-04-21T10:06:44.000Z</time>
      </trkpt>
      <trkpt lat="48.9784" lon="1.12489">
        <ele>153</ele>
        <time>2013-04-21T10:06:46.000Z</time>
      </trkpt>
      <trkpt lat="48.97844" lon="1.12504">
        <ele>153</ele>
        <time>2013-04-21T10:06:50.000Z</time>
      </trkpt>
      <trkpt lat="48.97844" lon="1.12504">
        <ele>153</ele>
        <time>2013-04-21T10:06:52.000Z</time>
      </trkpt>
      <trkpt lat="48.97844" lon="1.12518">
        <ele>152</ele>
        <time>2013-04-21T10:06:54.000Z</time>
      </trkpt>
      <trkpt lat="48.97844" lon="1.12518">
        <ele>152</ele>
        <time>2013-04-21T10:06:56.000Z</time>
      </trkpt>
      <trkpt lat="48.97844" lon="1.12531">
        <ele>152</ele>
        <time>2013-04-21T10:06:58.000Z</time>
      </trkpt>
      <trkpt lat="48.97844" lon="1.12531">
        <ele>152</ele>
        <time>2013-04-21T10:07:00.000Z</time>
      </trkpt>
      <trkpt lat="48.97845" lon="1.12545">
        <ele>152</ele>
        <time>2013-04-21T10:07:02.000Z</time>
      </trkpt>
      <trkpt lat="48.97843" lon="1.12558">
        <ele>151</ele>
        <time>2013-04-21T10:07:06.000Z</time>
      </trkpt>
      <trkpt lat="48.97838" lon="1.1257">
        <ele>151</ele>
        <time>2013-04-21T10:07:10.000Z</time>
      </trkpt>
      <trkpt lat="48.97838" lon="1.1257">
        <ele>151</ele>
        <time>2013-04-21T10:07:12.000Z</time>
      </trkpt>
      <trkpt lat="48.97832" lon="1.12582">
        <ele>151</ele>
        <time>2013-04-21T10:07:14.000Z</time>
      </trkpt>
      <trkpt lat="48.97833" lon="1.12592">
        <ele>151</ele>
        <time>2013-04-21T10:07:18.000Z</time>
      </trkpt>
      <trkpt lat="48.97833" lon="1.12592">
        <ele>151</ele>
        <time>2013-04-21T10:07:20.000Z</time>
      </trkpt>
      <trkpt lat="48.97841" lon="1.12594">
        <ele>151</ele>
        <time>2013-04-21T10:07:22.000Z</time>
      </trkpt>
      <trkpt lat="48.97849" lon="1.12597">
        <ele>151</ele>
        <time>2013-04-21T10:07:26.000Z</time>
      </trkpt>
      <trkpt lat="48.97855" lon="1.12596">
        <ele>150</ele>
        <time>2013-04-21T10:07:30.000Z</time>
      </trkpt>
      <trkpt lat="48.97859" lon="1.12588">
        <ele>151</ele>
        <time>2013-04-21T10:07:34.000Z</time>
      </trkpt>
      <trkpt lat="48.97859" lon="1.12588">
        <ele>151</ele>
        <time>2013-04-21T10:07:36.000Z</time>
      </trkpt>
      <trkpt lat="48.97859" lon="1.12588">
        <ele>151</ele>
        <time>2013-04-21T10:07:38.000Z</time>
      </trkpt>
      <trkpt lat="48.97859" lon="1.12588">
        <ele>151</ele>
        <time>2013-04-21T10:07:40.000Z</time>
      </trkpt>
      <trkpt lat="48.97859" lon="1.12588">
        <ele>151</ele>
        <time>2013-04-21T10:07:42.000Z</time>
      </trkpt>
      <trkpt lat="48.97859" lon="1.12588">
        <ele>151</ele>
        <time>2013-04-21T10:07:44.000Z</time>
      </trkpt>
      <trkpt lat="48.97854" lon="1.12596">
        <ele>151</ele>
        <time>2013-04-21T10:07:46.000Z</time>
      </trkpt>
      <trkpt lat="48.97854" lon="1.12596">
        <ele>151</ele>
        <time>2013-04-21T10:07:48.000Z</time>
      </trkpt>
      <trkpt lat="48.97849" lon="1.126">
        <ele>150</ele>
        <time>2013-04-21T10:07:50.000Z</time>
      </trkpt>
      <trkpt lat="48.97843" lon="1.12593">
        <ele>150</ele>
        <time>2013-04-21T10:07:54.000Z</time>
      </trkpt>
      <trkpt lat="48.97835" lon="1.12585">
        <ele>150</ele>
        <time>2013-04-21T10:07:58.000Z</time>
      </trkpt>
      <trkpt lat="48.97833" lon="1.12575">
        <ele>150</ele>
        <time>2013-04-21T10:08:02.000Z</time>
      </trkpt>
      <trkpt lat="48.97836" lon="1.12564">
        <ele>149</ele>
        <time>2013-04-21T10:08:06.000Z</time>
      </trkpt>
      <trkpt lat="48.97836" lon="1.12564">
        <ele>149</ele>
        <time>2013-04-21T10:08:08.000Z</time>
      </trkpt>
      <trkpt lat="48.97838" lon="1.12551">
        <ele>149</ele>
        <time>2013-04-21T10:08:10.000Z</time>
      </trkpt>
      <trkpt lat="48.97839" lon="1.12536">
        <ele>149</ele>
        <time>2013-04-21T10:08:14.000Z</time>
      </trkpt>
      <trkpt lat="48.97839" lon="1.12536">
        <ele>149</ele>
        <time>2013-04-21T10:08:16.000Z</time>
      </trkpt>
      <trkpt lat="48.97839" lon="1.1252">
        <ele>149</ele>
        <time>2013-04-21T10:08:18.000Z</time>
      </trkpt>
      <trkpt lat="48.97839" lon="1.1252">
        <ele>149</ele>
        <time>2013-04-21T10:08:20.000Z</time>
      </trkpt>
      <trkpt lat="48.97839" lon="1.12504">
        <ele>150</ele>
        <time>2013-04-21T10:08:22.000Z</time>
      </trkpt>
      <trkpt lat="48.97837" lon="1.12491">
        <ele>150</ele>
        <time>2013-04-21T10:08:26.000Z</time>
      </trkpt>
      <trkpt lat="48.97837" lon="1.1248">
        <ele>150</ele>
        <time>2013-04-21T10:08:30.000Z</time>
      </trkpt>
      <trkpt lat="48.97837" lon="1.1248">
        <ele>150</ele>
        <time>2013-04-21T10:08:32.000Z</time>
      </trkpt>
      <trkpt lat="48.97837" lon="1.12469">
        <ele>149</ele>
        <time>2013-04-21T10:08:34.000Z</time>
      </trkpt>
      <trkpt lat="48.97837" lon="1.12462">
        <ele>149</ele>
        <time>2013-04-21T10:08:38.000Z</time>
      </trkpt>
      <trkpt lat="48.97838" lon="1.12455">
        <ele>149</ele>
        <time>2013-04-21T10:08:40.000Z</time>
      </trkpt>
      <trkpt lat="48.97839" lon="1.12448">
        <ele>149</ele>
        <time>2013-04-21T10:08:42.000Z</time>
      </trkpt>
      <trkpt lat="48.9784" lon="1.12441">
        <ele>149</ele>
        <time>2013-04-21T10:08:44.000Z</time>
      </trkpt>
      <trkpt lat="48.97841" lon="1.12435">
        <ele>149</ele>
        <time>2013-04-21T10:08:46.000Z</time>
      </trkpt>
      <trkpt lat="48.97845" lon="1.12423">
        <ele>149</ele>
        <time>2013-04-21T10:08:48.000Z</time>
      </trkpt>
      <trkpt lat="48.9785" lon="1.1241">
        <ele>148</ele>
        <time>2013-04-21T10:08:52.000Z</time>
      </trkpt>
      <trkpt lat="48.97855" lon="1.12397">
        <ele>148</ele>
        <time>2013-04-21T10:08:56.000Z</time>
      </trkpt>
      <trkpt lat="48.97861" lon="1.12385">
        <ele>147</ele>
        <time>2013-04-21T10:09:00.000Z</time>
      </trkpt>
      <trkpt lat="48.97867" lon="1.12376">
        <ele>147</ele>
        <time>2013-04-21T10:09:04.000Z</time>
      </trkpt>
      <trkpt lat="48.97867" lon="1.12376">
        <ele>147</ele>
        <time>2013-04-21T10:09:06.000Z</time>
      </trkpt>
      <trkpt lat="48.97872" lon="1.12364">
        <ele>147</ele>
        <time>2013-04-21T10:09:08.000Z</time>
      </trkpt>
      <trkpt lat="48.97877" lon="1.12355">
        <ele>146</ele>
        <time>2013-04-21T10:09:12.000Z</time>
      </trkpt>
      <trkpt lat="48.97883" lon="1.12346">
        <ele>146</ele>
        <time>2013-04-21T10:09:16.000Z</time>
      </trkpt>
      <trkpt lat="48.97889" lon="1.12336">
        <ele>146</ele>
        <time>2013-04-21T10:09:20.000Z</time>
      </trkpt>
      <trkpt lat="48.97897" lon="1.12328">
        <ele>146</ele>
        <time>2013-04-21T10:09:24.000Z</time>
      </trkpt>
      <trkpt lat="48.97897" lon="1.12328">
        <ele>146</ele>
        <time>2013-04-21T10:09:26.000Z</time>
      </trkpt>
      <trkpt lat="48.97905" lon="1.1232">
        <ele>146</ele>
        <time>2013-04-21T10:09:28.000Z</time>
      </trkpt>
      <trkpt lat="48.97915" lon="1.12315">
        <ele>146</ele>
        <time>2013-04-21T10:09:32.000Z</time>
      </trkpt>
      <trkpt lat="48.97926" lon="1.12309">
        <ele>145</ele>
        <time>2013-04-21T10:09:36.000Z</time>
      </trkpt>
      <trkpt lat="48.97935" lon="1.12301">
        <ele>145</ele>
        <time>2013-04-21T10:09:40.000Z</time>
      </trkpt>
      <trkpt lat="48.97935" lon="1.12301">
        <ele>145</ele>
        <time>2013-04-21T10:09:42.000Z</time>
      </trkpt>
      <trkpt lat="48.97945" lon="1.12297">
        <ele>145</ele>
        <time>2013-04-21T10:09:44.000Z</time>
      </trkpt>
      <trkpt lat="48.97945" lon="1.12297">
        <ele>145</ele>
        <time>2013-04-21T10:09:46.000Z</time>
      </trkpt>
      <trkpt lat="48.97956" lon="1.12294">
        <ele>145</ele>
        <time>2013-04-21T10:09:48.000Z</time>
      </trkpt>
      <trkpt lat="48.97956" lon="1.12294">
        <ele>145</ele>
        <time>2013-04-21T10:09:50.000Z</time>
      </trkpt>
      <trkpt lat="48.97964" lon="1.1229">
        <ele>145</ele>
        <time>2013-04-21T10:09:52.000Z</time>
      </trkpt>
      <trkpt lat="48.97964" lon="1.1229">
        <ele>145</ele>
        <time>2013-04-21T10:09:54.000Z</time>
      </trkpt>
      <trkpt lat="48.97973" lon="1.12285">
        <ele>146</ele>
        <time>2013-04-21T10:09:56.000Z</time>
      </trkpt>
      <trkpt lat="48.97973" lon="1.12285">
        <ele>146</ele>
        <time>2013-04-21T10:09:58.000Z</time>
      </trkpt>
      <trkpt lat="48.97982" lon="1.12281">
        <ele>146</ele>
        <time>2013-04-21T10:10:00.000Z</time>
      </trkpt>
      <trkpt lat="48.97992" lon="1.12279">
        <ele>146</ele>
        <time>2013-04-21T10:10:04.000Z</time>
      </trkpt>
      <trkpt lat="48.98" lon="1.12275">
        <ele>146</ele>
        <time>2013-04-21T10:10:08.000Z</time>
      </trkpt>
      <trkpt lat="48.98013" lon="1.12273">
        <ele>146</ele>
        <time>2013-04-21T10:10:14.000Z</time>
      </trkpt>
      <trkpt lat="48.98013" lon="1.12273">
        <ele>146</ele>
        <time>2013-04-21T10:10:16.000Z</time>
      </trkpt>
      <trkpt lat="48.98013" lon="1.12273">
        <ele>146</ele>
        <time>2013-04-21T10:10:18.000Z</time>
      </trkpt>
      <trkpt lat="48.98026" lon="1.12266">
        <ele>145</ele>
        <time>2013-04-21T10:10:20.000Z</time>
      </trkpt>
      <trkpt lat="48.98035" lon="1.12263">
        <ele>145</ele>
        <time>2013-04-21T10:10:24.000Z</time>
      </trkpt>
      <trkpt lat="48.98035" lon="1.12263">
        <ele>145</ele>
        <time>2013-04-21T10:10:26.000Z</time>
      </trkpt>
      <trkpt lat="48.98045" lon="1.12262">
        <ele>145</ele>
        <time>2013-04-21T10:10:28.000Z</time>
      </trkpt>
      <trkpt lat="48.98045" lon="1.12262">
        <ele>145</ele>
        <time>2013-04-21T10:10:30.000Z</time>
      </trkpt>
      <trkpt lat="48.98053" lon="1.12259">
        <ele>146</ele>
        <time>2013-04-21T10:10:32.000Z</time>
      </trkpt>
      <trkpt lat="48.98053" lon="1.12259">
        <ele>146</ele>
        <time>2013-04-21T10:10:34.000Z</time>
      </trkpt>
      <trkpt lat="48.98061" lon="1.12259">
        <ele>146</ele>
        <time>2013-04-21T10:10:36.000Z</time>
      </trkpt>
      <trkpt lat="48.98061" lon="1.12259">
        <ele>146</ele>
        <time>2013-04-21T10:10:38.000Z</time>
      </trkpt>
      <trkpt lat="48.98071" lon="1.12256">
        <ele>147</ele>
        <time>2013-04-21T10:10:40.000Z</time>
      </trkpt>
      <trkpt lat="48.98075" lon="1.1226">
        <ele>148</ele>
        <time>2013-04-21T10:10:44.000Z</time>
      </trkpt>
      <trkpt lat="48.98081" lon="1.12263">
        <ele>148</ele>
        <time>2013-04-21T10:10:46.000Z</time>
      </trkpt>
      <trkpt lat="48.98086" lon="1.12267">
        <ele>148</ele>
        <time>2013-04-21T10:10:48.000Z</time>
      </trkpt>
      <trkpt lat="48.98091" lon="1.12271">
        <ele>148</ele>
        <time>2013-04-21T10:10:50.000Z</time>
      </trkpt>
      <trkpt lat="48.98096" lon="1.12274">
        <ele>148</ele>
        <time>2013-04-21T10:10:52.000Z</time>
      </trkpt>
      <trkpt lat="48.98106" lon="1.12279">
        <ele>148</ele>
        <time>2013-04-21T10:10:54.000Z</time>
      </trkpt>
      <trkpt lat="48.98115" lon="1.12283">
        <ele>149</ele>
        <time>2013-04-21T10:10:58.000Z</time>
      </trkpt>
      <trkpt lat="48.98125" lon="1.1228">
        <ele>149</ele>
        <time>2013-04-21T10:11:02.000Z</time>
      </trkpt>
      <trkpt lat="48.98135" lon="1.12277">
        <ele>150</ele>
        <time>2013-04-21T10:11:06.000Z</time>
      </trkpt>
      <trkpt lat="48.98145" lon="1.12275">
        <ele>150</ele>
        <time>2013-04-21T10:11:10.000Z</time>
      </trkpt>
      <trkpt lat="48.98145" lon="1.12275">
        <ele>150</ele>
        <time>2013-04-21T10:11:12.000Z</time>
      </trkpt>
      <trkpt lat="48.98153" lon="1.1227">
        <ele>151</ele>
        <time>2013-04-21T10:11:14.000Z</time>
      </trkpt>
      <trkpt lat="48.98153" lon="1.1227">
        <ele>151</ele>
        <time>2013-04-21T10:11:16.000Z</time>
      </trkpt>
      <trkpt lat="48.98162" lon="1.12266">
        <ele>152</ele>
        <time>2013-04-21T10:11:18.000Z</time>
      </trkpt>
      <trkpt lat="48.98172" lon="1.1226">
        <ele>153</ele>
        <time>2013-04-21T10:11:22.000Z</time>
      </trkpt>
      <trkpt lat="48.98172" lon="1.1226">
        <ele>153</ele>
        <time>2013-04-21T10:11:24.000Z</time>
      </trkpt>
      <trkpt lat="48.98182" lon="1.12255">
        <ele>154</ele>
        <time>2013-04-21T10:11:26.000Z</time>
      </trkpt>
      <trkpt lat="48.98192" lon="1.1225">
        <ele>155</ele>
        <time>2013-04-21T10:11:30.000Z</time>
      </trkpt>
      <trkpt lat="48.98192" lon="1.1225">
        <ele>155</ele>
        <time>2013-04-21T10:11:32.000Z</time>
      </trkpt>
      <trkpt lat="48.98202" lon="1.12244">
        <ele>155</ele>
        <time>2013-04-21T10:11:34.000Z</time>
      </trkpt>
      <trkpt lat="48.98211" lon="1.12241">
        <ele>155</ele>
        <time>2013-04-21T10:11:38.000Z</time>
      </trkpt>
      <trkpt lat="48.9822" lon="1.12238">
        <ele>155</ele>
        <time>2013-04-21T10:11:42.000Z</time>
      </trkpt>
      <trkpt lat="48.98231" lon="1.12238">
        <ele>155</ele>
        <time>2013-04-21T10:11:46.000Z</time>
      </trkpt>
      <trkpt lat="48.98231" lon="1.12238">
        <ele>155</ele>
        <time>2013-04-21T10:11:48.000Z</time>
      </trkpt>
      <trkpt lat="48.98241" lon="1.12234">
        <ele>156</ele>
        <time>2013-04-21T10:11:50.000Z</time>
      </trkpt>
      <trkpt lat="48.98241" lon="1.12234">
        <ele>156</ele>
        <time>2013-04-21T10:11:52.000Z</time>
      </trkpt>
      <trkpt lat="48.98251" lon="1.12236">
        <ele>156</ele>
        <time>2013-04-21T10:11:54.000Z</time>
      </trkpt>
      <trkpt lat="48.98259" lon="1.12235">
        <ele>156</ele>
        <time>2013-04-21T10:11:58.000Z</time>
      </trkpt>
      <trkpt lat="48.98259" lon="1.12235">
        <ele>156</ele>
        <time>2013-04-21T10:12:00.000Z</time>
      </trkpt>
      <trkpt lat="48.98268" lon="1.12237">
        <ele>156</ele>
        <time>2013-04-21T10:12:02.000Z</time>
      </trkpt>
      <trkpt lat="48.98272" lon="1.12243">
        <ele>156</ele>
        <time>2013-04-21T10:12:04.000Z</time>
      </trkpt>
      <trkpt lat="48.98277" lon="1.12248">
        <ele>156</ele>
        <time>2013-04-21T10:12:06.000Z</time>
      </trkpt>
      <trkpt lat="48.98277" lon="1.12248">
        <ele>156</ele>
        <time>2013-04-21T10:12:08.000Z</time>
      </trkpt>
      <trkpt lat="48.98285" lon="1.12259">
        <ele>156</ele>
        <time>2013-04-21T10:12:10.000Z</time>
      </trkpt>
      <trkpt lat="48.98285" lon="1.12259">
        <ele>156</ele>
        <time>2013-04-21T10:12:12.000Z</time>
      </trkpt>
      <trkpt lat="48.9829" lon="1.12271">
        <ele>155</ele>
        <time>2013-04-21T10:12:14.000Z</time>
      </trkpt>
      <trkpt lat="48.98291" lon="1.12284">
        <ele>156</ele>
        <time>2013-04-21T10:12:18.000Z</time>
      </trkpt>
      <trkpt lat="48.98295" lon="1.12295">
        <ele>156</ele>
        <time>2013-04-21T10:12:22.000Z</time>
      </trkpt>
      <trkpt lat="48.98296" lon="1.12305">
        <ele>157</ele>
        <time>2013-04-21T10:12:26.000Z</time>
      </trkpt>
      <trkpt lat="48.98297" lon="1.12318">
        <ele>158</ele>
        <time>2013-04-21T10:12:30.000Z</time>
      </trkpt>
      <trkpt lat="48.98297" lon="1.12318">
        <ele>158</ele>
        <time>2013-04-21T10:12:32.000Z</time>
      </trkpt>
      <trkpt lat="48.98299" lon="1.12328">
        <ele>158</ele>
        <time>2013-04-21T10:12:34.000Z</time>
      </trkpt>
      <trkpt lat="48.98299" lon="1.12328">
        <ele>158</ele>
        <time>2013-04-21T10:12:36.000Z</time>
      </trkpt>
      <trkpt lat="48.98299" lon="1.12328">
        <ele>158</ele>
        <time>2013-04-21T10:12:38.000Z</time>
      </trkpt>
      <trkpt lat="48.98298" lon="1.12345">
        <ele>158</ele>
        <time>2013-04-21T10:12:40.000Z</time>
      </trkpt>
      <trkpt lat="48.98298" lon="1.12345">
        <ele>158</ele>
        <time>2013-04-21T10:12:42.000Z</time>
      </trkpt>
      <trkpt lat="48.98295" lon="1.12357">
        <ele>158</ele>
        <time>2013-04-21T10:12:44.000Z</time>
      </trkpt>
      <trkpt lat="48.98295" lon="1.12357">
        <ele>158</ele>
        <time>2013-04-21T10:12:46.000Z</time>
      </trkpt>
      <trkpt lat="48.98295" lon="1.12357">
        <ele>158</ele>
        <time>2013-04-21T10:12:48.000Z</time>
      </trkpt>
      <trkpt lat="48.98295" lon="1.12357">
        <ele>158</ele>
        <time>2013-04-21T10:12:50.000Z</time>
      </trkpt>
      <trkpt lat="48.98298" lon="1.12366">
        <ele>158</ele>
        <time>2013-04-21T10:12:52.000Z</time>
      </trkpt>
      <trkpt lat="48.983" lon="1.12373">
        <ele>157</ele>
        <time>2013-04-21T10:12:54.000Z</time>
      </trkpt>
      <trkpt lat="48.98301" lon="1.12378">
        <ele>158</ele>
        <time>2013-04-21T10:12:56.000Z</time>
      </trkpt>
      <trkpt lat="48.98299" lon="1.12384">
        <ele>159</ele>
        <time>2013-04-21T10:13:00.000Z</time>
      </trkpt>
      <trkpt lat="48.98299" lon="1.1239">
        <ele>159</ele>
        <time>2013-04-21T10:13:02.000Z</time>
      </trkpt>
      <trkpt lat="48.98299" lon="1.12394">
        <ele>160</ele>
        <time>2013-04-21T10:13:04.000Z</time>
      </trkpt>
      <trkpt lat="48.983" lon="1.124">
        <ele>160</ele>
        <time>2013-04-21T10:13:06.000Z</time>
      </trkpt>
      <trkpt lat="48.983" lon="1.12406">
        <ele>161</ele>
        <time>2013-04-21T10:13:08.000Z</time>
      </trkpt>
      <trkpt lat="48.98301" lon="1.12418">
        <ele>162</ele>
        <time>2013-04-21T10:13:10.000Z</time>
      </trkpt>
      <trkpt lat="48.98301" lon="1.12429">
        <ele>163</ele>
        <time>2013-04-21T10:13:14.000Z</time>
      </trkpt>
      <trkpt lat="48.98301" lon="1.12429">
        <ele>163</ele>
        <time>2013-04-21T10:13:16.000Z</time>
      </trkpt>
      <trkpt lat="48.98302" lon="1.1244">
        <ele>163</ele>
        <time>2013-04-21T10:13:18.000Z</time>
      </trkpt>
      <trkpt lat="48.98302" lon="1.1244">
        <ele>163</ele>
        <time>2013-04-21T10:13:20.000Z</time>
      </trkpt>
      <trkpt lat="48.98307" lon="1.12454">
        <ele>164</ele>
        <time>2013-04-21T10:13:22.000Z</time>
      </trkpt>
      <trkpt lat="48.9831" lon="1.12465">
        <ele>165</ele>
        <time>2013-04-21T10:13:26.000Z</time>
      </trkpt>
      <trkpt lat="48.9831" lon="1.12479">
        <ele>165</ele>
        <time>2013-04-21T10:13:32.000Z</time>
      </trkpt>
      <trkpt lat="48.9831" lon="1.12491">
        <ele>165</ele>
        <time>2013-04-21T10:13:36.000Z</time>
      </trkpt>
      <trkpt lat="48.98311" lon="1.12501">
        <ele>165</ele>
        <time>2013-04-21T10:13:40.000Z</time>
      </trkpt>
      <trkpt lat="48.98313" lon="1.1251">
        <ele>164</ele>
        <time>2013-04-21T10:13:43.000Z</time>
      </trkpt>
      <trkpt lat="48.98315" lon="1.1252">
        <ele>164</ele>
        <time>2013-04-21T10:13:47.000Z</time>
      </trkpt>
      <trkpt lat="48.98315" lon="1.1252">
        <ele>164</ele>
        <time>2013-04-21T10:13:49.000Z</time>
      </trkpt>
      <trkpt lat="48.98318" lon="1.12529">
        <ele>164</ele>
        <time>2013-04-21T10:13:51.000Z</time>
      </trkpt>
      <trkpt lat="48.98321" lon="1.12542">
        <ele>164</ele>
        <time>2013-04-21T10:13:57.000Z</time>
      </trkpt>
      <trkpt lat="48.98323" lon="1.12552">
        <ele>165</ele>
        <time>2013-04-21T10:14:03.000Z</time>
      </trkpt>
      <trkpt lat="48.98328" lon="1.12558">
        <ele>166</ele>
        <time>2013-04-21T10:14:07.000Z</time>
      </trkpt>
      <trkpt lat="48.98332" lon="1.12567">
        <ele>166</ele>
        <time>2013-04-21T10:14:11.000Z</time>
      </trkpt>
      <trkpt lat="48.98336" lon="1.12574">
        <ele>167</ele>
        <time>2013-04-21T10:14:15.000Z</time>
      </trkpt>
      <trkpt lat="48.98338" lon="1.12585">
        <ele>169</ele>
        <time>2013-04-21T10:14:19.000Z</time>
      </trkpt>
      <trkpt lat="48.98338" lon="1.12585">
        <ele>169</ele>
        <time>2013-04-21T10:14:21.000Z</time>
      </trkpt>
      <trkpt lat="48.98344" lon="1.12591">
        <ele>170</ele>
        <time>2013-04-21T10:14:23.000Z</time>
      </trkpt>
      <trkpt lat="48.98352" lon="1.12596">
        <ele>171</ele>
        <time>2013-04-21T10:14:27.000Z</time>
      </trkpt>
      <trkpt lat="48.98361" lon="1.12602">
        <ele>172</ele>
        <time>2013-04-21T10:14:31.000Z</time>
      </trkpt>
      <trkpt lat="48.98361" lon="1.12602">
        <ele>172</ele>
        <time>2013-04-21T10:14:33.000Z</time>
      </trkpt>
      <trkpt lat="48.98371" lon="1.12605">
        <ele>173</ele>
        <time>2013-04-21T10:14:35.000Z</time>
      </trkpt>
      <trkpt lat="48.98378" lon="1.12615">
        <ele>174</ele>
        <time>2013-04-21T10:14:39.000Z</time>
      </trkpt>
      <trkpt lat="48.98378" lon="1.12615">
        <ele>174</ele>
        <time>2013-04-21T10:14:41.000Z</time>
      </trkpt>
      <trkpt lat="48.98385" lon="1.12625">
        <ele>175</ele>
        <time>2013-04-21T10:14:43.000Z</time>
      </trkpt>
      <trkpt lat="48.98385" lon="1.12625">
        <ele>175</ele>
        <time>2013-04-21T10:14:45.000Z</time>
      </trkpt>
      <trkpt lat="48.98391" lon="1.12634">
        <ele>176</ele>
        <time>2013-04-21T10:14:47.000Z</time>
      </trkpt>
      <trkpt lat="48.98391" lon="1.12634">
        <ele>176</ele>
        <time>2013-04-21T10:14:49.000Z</time>
      </trkpt>
      <trkpt lat="48.98398" lon="1.12638">
        <ele>177</ele>
        <time>2013-04-21T10:14:51.000Z</time>
      </trkpt>
      <trkpt lat="48.98405" lon="1.12644">
        <ele>177</ele>
        <time>2013-04-21T10:14:55.000Z</time>
      </trkpt>
      <trkpt lat="48.98411" lon="1.12652">
        <ele>178</ele>
        <time>2013-04-21T10:14:59.000Z</time>
      </trkpt>
      <trkpt lat="48.98411" lon="1.12652">
        <ele>178</ele>
        <time>2013-04-21T10:15:01.000Z</time>
      </trkpt>
      <trkpt lat="48.98414" lon="1.12655">
        <ele>179</ele>
        <time>2013-04-21T10:15:03.000Z</time>
      </trkpt>
      <trkpt lat="48.98414" lon="1.12655">
        <ele>179</ele>
        <time>2013-04-21T10:15:05.000Z</time>
      </trkpt>
      <trkpt lat="48.98414" lon="1.12655">
        <ele>179</ele>
        <time>2013-04-21T10:15:07.000Z</time>
      </trkpt>
      <trkpt lat="48.98414" lon="1.12655">
        <ele>179</ele>
        <time>2013-04-21T10:15:09.000Z</time>
      </trkpt>
      <trkpt lat="48.98414" lon="1.12655">
        <ele>179</ele>
        <time>2013-04-21T10:15:11.000Z</time>
      </trkpt>
      <trkpt lat="48.98418" lon="1.12655">
        <ele>180</ele>
        <time>2013-04-21T10:15:13.000Z</time>
      </trkpt>
      <trkpt lat="48.98422" lon="1.12655">
        <ele>180</ele>
        <time>2013-04-21T10:15:15.000Z</time>
      </trkpt>
      <trkpt lat="48.98426" lon="1.12655">
        <ele>181</ele>
        <time>2013-04-21T10:15:17.000Z</time>
      </trkpt>
      <trkpt lat="48.9843" lon="1.12655">
        <ele>181</ele>
        <time>2013-04-21T10:15:19.000Z</time>
      </trkpt>
      <trkpt lat="48.98427" lon="1.12652">
        <ele>183</ele>
        <time>2013-04-21T10:15:27.000Z</time>
      </trkpt>
      <trkpt lat="48.98423" lon="1.12651">
        <ele>183</ele>
        <time>2013-04-21T10:15:29.000Z</time>
      </trkpt>
      <trkpt lat="48.9842" lon="1.1265">
        <ele>184</ele>
        <time>2013-04-21T10:15:31.000Z</time>
      </trkpt>
      <trkpt lat="48.98416" lon="1.1265">
        <ele>184</ele>
        <time>2013-04-21T10:15:33.000Z</time>
      </trkpt>
      <trkpt lat="48.98412" lon="1.1265">
        <ele>185</ele>
        <time>2013-04-21T10:15:35.000Z</time>
      </trkpt>
      <trkpt lat="48.98405" lon="1.1265">
        <ele>185</ele>
        <time>2013-04-21T10:15:37.000Z</time>
      </trkpt>
      <trkpt lat="48.98405" lon="1.1265">
        <ele>185</ele>
        <time>2013-04-21T10:15:39.000Z</time>
      </trkpt>
      <trkpt lat="48.98405" lon="1.1265">
        <ele>185</ele>
        <time>2013-04-21T10:15:41.000Z</time>
      </trkpt>
      <trkpt lat="48.98405" lon="1.1265">
        <ele>185</ele>
        <time>2013-04-21T10:15:43.000Z</time>
      </trkpt>
      <trkpt lat="48.98413" lon="1.12651">
        <ele>186</ele>
        <time>2013-04-21T10:15:45.000Z</time>
      </trkpt>
      <trkpt lat="48.98413" lon="1.12651">
        <ele>186</ele>
        <time>2013-04-21T10:15:47.000Z</time>
      </trkpt>
      <trkpt lat="48.98422" lon="1.12656">
        <ele>186</ele>
        <time>2013-04-21T10:15:51.000Z</time>
      </trkpt>
      <trkpt lat="48.98432" lon="1.12657">
        <ele>186</ele>
        <time>2013-04-21T10:15:55.000Z</time>
      </trkpt>
      <trkpt lat="48.98441" lon="1.12659">
        <ele>187</ele>
        <time>2013-04-21T10:15:59.000Z</time>
      </trkpt>
      <trkpt lat="48.98451" lon="1.12661">
        <ele>187</ele>
        <time>2013-04-21T10:16:03.000Z</time>
      </trkpt>
      <trkpt lat="48.98461" lon="1.12663">
        <ele>187</ele>
        <time>2013-04-21T10:16:07.000Z</time>
      </trkpt>
      <trkpt lat="48.98471" lon="1.12666">
        <ele>187</ele>
        <time>2013-04-21T10:16:11.000Z</time>
      </trkpt>
      <trkpt lat="48.98477" lon="1.12667">
        <ele>188</ele>
        <time>2013-04-21T10:16:13.000Z</time>
      </trkpt>
      <trkpt lat="48.98488" lon="1.12666">
        <ele>188</ele>
        <time>2013-04-21T10:16:17.000Z</time>
      </trkpt>
      <trkpt lat="48.98496" lon="1.12664">
        <ele>188</ele>
        <time>2013-04-21T10:16:21.000Z</time>
      </trkpt>
      <trkpt lat="48.98506" lon="1.12667">
        <ele>188</ele>
        <time>2013-04-21T10:16:25.000Z</time>
      </trkpt>
      <trkpt lat="48.98506" lon="1.12667">
        <ele>188</ele>
        <time>2013-04-21T10:16:27.000Z</time>
      </trkpt>
      <trkpt lat="48.98515" lon="1.12664">
        <ele>188</ele>
        <time>2013-04-21T10:16:29.000Z</time>
      </trkpt>
      <trkpt lat="48.98525" lon="1.12665">
        <ele>188</ele>
        <time>2013-04-21T10:16:33.000Z</time>
      </trkpt>
      <trkpt lat="48.98525" lon="1.12665">
        <ele>188</ele>
        <time>2013-04-21T10:16:35.000Z</time>
      </trkpt>
      <trkpt lat="48.98534" lon="1.12667">
        <ele>189</ele>
        <time>2013-04-21T10:16:37.000Z</time>
      </trkpt>
      <trkpt lat="48.98543" lon="1.12666">
        <ele>189</ele>
        <time>2013-04-21T10:16:41.000Z</time>
      </trkpt>
      <trkpt lat="48.98552" lon="1.12666">
        <ele>190</ele>
        <time>2013-04-21T10:16:45.000Z</time>
      </trkpt>
      <trkpt lat="48.98552" lon="1.12666">
        <ele>190</ele>
        <time>2013-04-21T10:16:47.000Z</time>
      </trkpt>
      <trkpt lat="48.98562" lon="1.12669">
        <ele>190</ele>
        <time>2013-04-21T10:16:49.000Z</time>
      </trkpt>
      <trkpt lat="48.98571" lon="1.12673">
        <ele>190</ele>
        <time>2013-04-21T10:16:53.000Z</time>
      </trkpt>
      <trkpt lat="48.98581" lon="1.12673">
        <ele>190</ele>
        <time>2013-04-21T10:16:57.000Z</time>
      </trkpt>
      <trkpt lat="48.98581" lon="1.12673">
        <ele>190</ele>
        <time>2013-04-21T10:16:59.000Z</time>
      </trkpt>
      <trkpt lat="48.98592" lon="1.12674">
        <ele>190</ele>
        <time>2013-04-21T10:17:01.000Z</time>
      </trkpt>
      <trkpt lat="48.98592" lon="1.12674">
        <ele>190</ele>
        <time>2013-04-21T10:17:03.000Z</time>
      </trkpt>
      <trkpt lat="48.98602" lon="1.12675">
        <ele>191</ele>
        <time>2013-04-21T10:17:05.000Z</time>
      </trkpt>
      <trkpt lat="48.98611" lon="1.12674">
        <ele>191</ele>
        <time>2013-04-21T10:17:09.000Z</time>
      </trkpt>
      <trkpt lat="48.98611" lon="1.12674">
        <ele>191</ele>
        <time>2013-04-21T10:17:11.000Z</time>
      </trkpt>
      <trkpt lat="48.9862" lon="1.12671">
        <ele>191</ele>
        <time>2013-04-21T10:17:13.000Z</time>
      </trkpt>
      <trkpt lat="48.9862" lon="1.12671">
        <ele>191</ele>
        <time>2013-04-21T10:17:15.000Z</time>
      </trkpt>
      <trkpt lat="48.98629" lon="1.12677">
        <ele>191</ele>
        <time>2013-04-21T10:17:17.000Z</time>
      </trkpt>
      <trkpt lat="48.98629" lon="1.12677">
        <ele>191</ele>
        <time>2013-04-21T10:17:19.000Z</time>
      </trkpt>
      <trkpt lat="48.98635" lon="1.12679">
        <ele>191</ele>
        <time>2013-04-21T10:17:21.000Z</time>
      </trkpt>
      <trkpt lat="48.98635" lon="1.12679">
        <ele>191</ele>
        <time>2013-04-21T10:17:23.000Z</time>
      </trkpt>
      <trkpt lat="48.98635" lon="1.12679">
        <ele>191</ele>
        <time>2013-04-21T10:17:25.000Z</time>
      </trkpt>
      <trkpt lat="48.98643" lon="1.12676">
        <ele>192</ele>
        <time>2013-04-21T10:17:27.000Z</time>
      </trkpt>
      <trkpt lat="48.98643" lon="1.12676">
        <ele>192</ele>
        <time>2013-04-21T10:17:29.000Z</time>
      </trkpt>
      <trkpt lat="48.98647" lon="1.12674">
        <ele>192</ele>
        <time>2013-04-21T10:17:31.000Z</time>
      </trkpt>
      <trkpt lat="48.98651" lon="1.1267">
        <ele>192</ele>
        <time>2013-04-21T10:17:33.000Z</time>
      </trkpt>
      <trkpt lat="48.98655" lon="1.12666">
        <ele>192</ele>
        <time>2013-04-21T10:17:35.000Z</time>
      </trkpt>
      <trkpt lat="48.98659" lon="1.12661">
        <ele>192</ele>
        <time>2013-04-21T10:17:37.000Z</time>
      </trkpt>
      <trkpt lat="48.98662" lon="1.12657">
        <ele>192</ele>
        <time>2013-04-21T10:17:39.000Z</time>
      </trkpt>
      <trkpt lat="48.98667" lon="1.12648">
        <ele>192</ele>
        <time>2013-04-21T10:17:41.000Z</time>
      </trkpt>
      <trkpt lat="48.98673" lon="1.12639">
        <ele>193</ele>
        <time>2013-04-21T10:17:45.000Z</time>
      </trkpt>
      <trkpt lat="48.98673" lon="1.12639">
        <ele>193</ele>
        <time>2013-04-21T10:17:47.000Z</time>
      </trkpt>
      <trkpt lat="48.98679" lon="1.12632">
        <ele>193</ele>
        <time>2013-04-21T10:17:49.000Z</time>
      </trkpt>
      <trkpt lat="48.98679" lon="1.12632">
        <ele>193</ele>
        <time>2013-04-21T10:17:51.000Z</time>
      </trkpt>
      <trkpt lat="48.98687" lon="1.12623">
        <ele>193</ele>
        <time>2013-04-21T10:17:53.000Z</time>
      </trkpt>
      <trkpt lat="48.98695" lon="1.12614">
        <ele>193</ele>
        <time>2013-04-21T10:17:57.000Z</time>
      </trkpt>
      <trkpt lat="48.98695" lon="1.12614">
        <ele>193</ele>
        <time>2013-04-21T10:17:59.000Z</time>
      </trkpt>
      <trkpt lat="48.98703" lon="1.12605">
        <ele>193</ele>
        <time>2013-04-21T10:18:01.000Z</time>
      </trkpt>
      <trkpt lat="48.98711" lon="1.12596">
        <ele>194</ele>
        <time>2013-04-21T10:18:05.000Z</time>
      </trkpt>
      <trkpt lat="48.98719" lon="1.12589">
        <ele>194</ele>
        <time>2013-04-21T10:18:09.000Z</time>
      </trkpt>
      <trkpt lat="48.98719" lon="1.12589">
        <ele>194</ele>
        <time>2013-04-21T10:18:11.000Z</time>
      </trkpt>
      <trkpt lat="48.98725" lon="1.1258">
        <ele>194</ele>
        <time>2013-04-21T10:18:13.000Z</time>
      </trkpt>
      <trkpt lat="48.98734" lon="1.12571">
        <ele>194</ele>
        <time>2013-04-21T10:18:17.000Z</time>
      </trkpt>
      <trkpt lat="48.98739" lon="1.12566">
        <ele>194</ele>
        <time>2013-04-21T10:18:19.000Z</time>
      </trkpt>
      <trkpt lat="48.98745" lon="1.12563">
        <ele>194</ele>
        <time>2013-04-21T10:18:21.000Z</time>
      </trkpt>
      <trkpt lat="48.9875" lon="1.12558">
        <ele>194</ele>
        <time>2013-04-21T10:18:23.000Z</time>
      </trkpt>
      <trkpt lat="48.98754" lon="1.12553">
        <ele>195</ele>
        <time>2013-04-21T10:18:25.000Z</time>
      </trkpt>
      <trkpt lat="48.98764" lon="1.12543">
        <ele>194</ele>
        <time>2013-04-21T10:18:29.000Z</time>
      </trkpt>
      <trkpt lat="48.98769" lon="1.12539">
        <ele>194</ele>
        <time>2013-04-21T10:18:31.000Z</time>
      </trkpt>
      <trkpt lat="48.98774" lon="1.12536">
        <ele>194</ele>
        <time>2013-04-21T10:18:33.000Z</time>
      </trkpt>
      <trkpt lat="48.9878" lon="1.12532">
        <ele>194</ele>
        <time>2013-04-21T10:18:35.000Z</time>
      </trkpt>
      <trkpt lat="48.98788" lon="1.12522">
        <ele>194</ele>
        <time>2013-04-21T10:18:39.000Z</time>
      </trkpt>
      <trkpt lat="48.98788" lon="1.12522">
        <ele>194</ele>
        <time>2013-04-21T10:18:41.000Z</time>
      </trkpt>
      <trkpt lat="48.98797" lon="1.12512">
        <ele>193</ele>
        <time>2013-04-21T10:18:43.000Z</time>
      </trkpt>
      <trkpt lat="48.98797" lon="1.12512">
        <ele>193</ele>
        <time>2013-04-21T10:18:45.000Z</time>
      </trkpt>
      <trkpt lat="48.98804" lon="1.12503">
        <ele>193</ele>
        <time>2013-04-21T10:18:47.000Z</time>
      </trkpt>
      <trkpt lat="48.98804" lon="1.12503">
        <ele>193</ele>
        <time>2013-04-21T10:18:49.000Z</time>
      </trkpt>
      <trkpt lat="48.98812" lon="1.12496">
        <ele>193</ele>
        <time>2013-04-21T10:18:51.000Z</time>
      </trkpt>
      <trkpt lat="48.9882" lon="1.12486">
        <ele>193</ele>
        <time>2013-04-21T10:18:55.000Z</time>
      </trkpt>
      <trkpt lat="48.98827" lon="1.12477">
        <ele>193</ele>
        <time>2013-04-21T10:18:59.000Z</time>
      </trkpt>
      <trkpt lat="48.98827" lon="1.12477">
        <ele>193</ele>
        <time>2013-04-21T10:19:01.000Z</time>
      </trkpt>
      <trkpt lat="48.98835" lon="1.12466">
        <ele>194</ele>
        <time>2013-04-21T10:19:03.000Z</time>
      </trkpt>
      <trkpt lat="48.98844" lon="1.12457">
        <ele>193</ele>
        <time>2013-04-21T10:19:07.000Z</time>
      </trkpt>
      <trkpt lat="48.98853" lon="1.12447">
        <ele>193</ele>
        <time>2013-04-21T10:19:11.000Z</time>
      </trkpt>
      <trkpt lat="48.98859" lon="1.12443">
        <ele>193</ele>
        <time>2013-04-21T10:19:13.000Z</time>
      </trkpt>
      <trkpt lat="48.98864" lon="1.12439">
        <ele>193</ele>
        <time>2013-04-21T10:19:15.000Z</time>
      </trkpt>
      <trkpt lat="48.98869" lon="1.12434">
        <ele>193</ele>
        <time>2013-04-21T10:19:17.000Z</time>
      </trkpt>
      <trkpt lat="48.98874" lon="1.1243">
        <ele>193</ele>
        <time>2013-04-21T10:19:19.000Z</time>
      </trkpt>
      <trkpt lat="48.98879" lon="1.12424">
        <ele>193</ele>
        <time>2013-04-21T10:19:21.000Z</time>
      </trkpt>
      <trkpt lat="48.98883" lon="1.12419">
        <ele>192</ele>
        <time>2013-04-21T10:19:23.000Z</time>
      </trkpt>
      <trkpt lat="48.98888" lon="1.12414">
        <ele>192</ele>
        <time>2013-04-21T10:19:25.000Z</time>
      </trkpt>
      <trkpt lat="48.98894" lon="1.12408">
        <ele>192</ele>
        <time>2013-04-21T10:19:27.000Z</time>
      </trkpt>
      <trkpt lat="48.98899" lon="1.12403">
        <ele>193</ele>
        <time>2013-04-21T10:19:29.000Z</time>
      </trkpt>
      <trkpt lat="48.98911" lon="1.12393">
        <ele>193</ele>
        <time>2013-04-21T10:19:33.000Z</time>
      </trkpt>
      <trkpt lat="48.98917" lon="1.12387">
        <ele>193</ele>
        <time>2013-04-21T10:19:35.000Z</time>
      </trkpt>
      <trkpt lat="48.98922" lon="1.12381">
        <ele>192</ele>
        <time>2013-04-21T10:19:37.000Z</time>
      </trkpt>
      <trkpt lat="48.9893" lon="1.12377">
        <ele>192</ele>
        <time>2013-04-21T10:19:39.000Z</time>
      </trkpt>
      <trkpt lat="48.98935" lon="1.12372">
        <ele>192</ele>
        <time>2013-04-21T10:19:41.000Z</time>
      </trkpt>
      <trkpt lat="48.98941" lon="1.12367">
        <ele>192</ele>
        <time>2013-04-21T10:19:43.000Z</time>
      </trkpt>
      <trkpt lat="48.98947" lon="1.12361">
        <ele>192</ele>
        <time>2013-04-21T10:19:45.000Z</time>
      </trkpt>
      <trkpt lat="48.98952" lon="1.12357">
        <ele>192</ele>
        <time>2013-04-21T10:19:47.000Z</time>
      </trkpt>
      <trkpt lat="48.98957" lon="1.12353">
        <ele>192</ele>
        <time>2013-04-21T10:19:49.000Z</time>
      </trkpt>
      <trkpt lat="48.98965" lon="1.12342">
        <ele>192</ele>
        <time>2013-04-21T10:19:53.000Z</time>
      </trkpt>
      <trkpt lat="48.98965" lon="1.12342">
        <ele>192</ele>
        <time>2013-04-21T10:19:55.000Z</time>
      </trkpt>
      <trkpt lat="48.98977" lon="1.12335">
        <ele>191</ele>
        <time>2013-04-21T10:19:57.000Z</time>
      </trkpt>
      <trkpt lat="48.98982" lon="1.12331">
        <ele>191</ele>
        <time>2013-04-21T10:19:59.000Z</time>
      </trkpt>
      <trkpt lat="48.98988" lon="1.12325">
        <ele>190</ele>
        <time>2013-04-21T10:20:01.000Z</time>
      </trkpt>
      <trkpt lat="48.98994" lon="1.12319">
        <ele>190</ele>
        <time>2013-04-21T10:20:03.000Z</time>
      </trkpt>
      <trkpt lat="48.98999" lon="1.12315">
        <ele>190</ele>
        <time>2013-04-21T10:20:05.000Z</time>
      </trkpt>
      <trkpt lat="48.98999" lon="1.12315">
        <ele>190</ele>
        <time>2013-04-21T10:20:07.000Z</time>
      </trkpt>
      <trkpt lat="48.99008" lon="1.12307">
        <ele>189</ele>
        <time>2013-04-21T10:20:09.000Z</time>
      </trkpt>
      <trkpt lat="48.99012" lon="1.12298">
        <ele>188</ele>
        <time>2013-04-21T10:20:11.000Z</time>
      </trkpt>
      <trkpt lat="48.99016" lon="1.12291">
        <ele>187</ele>
        <time>2013-04-21T10:20:13.000Z</time>
      </trkpt>
      <trkpt lat="48.9902" lon="1.12285">
        <ele>187</ele>
        <time>2013-04-21T10:20:15.000Z</time>
      </trkpt>
      <trkpt lat="48.9902" lon="1.12285">
        <ele>187</ele>
        <time>2013-04-21T10:20:17.000Z</time>
      </trkpt>
      <trkpt lat="48.99028" lon="1.12277">
        <ele>186</ele>
        <time>2013-04-21T10:20:19.000Z</time>
      </trkpt>
      <trkpt lat="48.99033" lon="1.12271">
        <ele>185</ele>
        <time>2013-04-21T10:20:21.000Z</time>
      </trkpt>
      <trkpt lat="48.99033" lon="1.12271">
        <ele>185</ele>
        <time>2013-04-21T10:20:23.000Z</time>
      </trkpt>
      <trkpt lat="48.99041" lon="1.12263">
        <ele>184</ele>
        <time>2013-04-21T10:20:25.000Z</time>
      </trkpt>
      <trkpt lat="48.99041" lon="1.12263">
        <ele>184</ele>
        <time>2013-04-21T10:20:27.000Z</time>
      </trkpt>
      <trkpt lat="48.99041" lon="1.12263">
        <ele>184</ele>
        <time>2013-04-21T10:20:29.000Z</time>
      </trkpt>
      <trkpt lat="48.99041" lon="1.12263">
        <ele>184</ele>
        <time>2013-04-21T10:20:31.000Z</time>
      </trkpt>
      <trkpt lat="48.99041" lon="1.12263">
        <ele>184</ele>
        <time>2013-04-21T10:20:33.000Z</time>
      </trkpt>
      <trkpt lat="48.99041" lon="1.12268">
        <ele>183</ele>
        <time>2013-04-21T10:20:39.000Z</time>
      </trkpt>
      <trkpt lat="48.99042" lon="1.12275">
        <ele>183</ele>
        <time>2013-04-21T10:20:43.000Z</time>
      </trkpt>
      <trkpt lat="48.99043" lon="1.12282">
        <ele>183</ele>
        <time>2013-04-21T10:20:45.000Z</time>
      </trkpt>
      <trkpt lat="48.99042" lon="1.12287">
        <ele>182</ele>
        <time>2013-04-21T10:20:47.000Z</time>
      </trkpt>
      <trkpt lat="48.99042" lon="1.12292">
        <ele>182</ele>
        <time>2013-04-21T10:20:49.000Z</time>
      </trkpt>
      <trkpt lat="48.99042" lon="1.12297">
        <ele>182</ele>
        <time>2013-04-21T10:20:51.000Z</time>
      </trkpt>
      <trkpt lat="48.99045" lon="1.12306">
        <ele>181</ele>
        <time>2013-04-21T10:20:53.000Z</time>
      </trkpt>
      <trkpt lat="48.99044" lon="1.12317">
        <ele>181</ele>
        <time>2013-04-21T10:20:57.000Z</time>
      </trkpt>
      <trkpt lat="48.99044" lon="1.12327">
        <ele>180</ele>
        <time>2013-04-21T10:21:01.000Z</time>
      </trkpt>
      <trkpt lat="48.99044" lon="1.12327">
        <ele>180</ele>
        <time>2013-04-21T10:21:03.000Z</time>
      </trkpt>
      <trkpt lat="48.99048" lon="1.12335">
        <ele>180</ele>
        <time>2013-04-21T10:21:05.000Z</time>
      </trkpt>
      <trkpt lat="48.99048" lon="1.12335">
        <ele>180</ele>
        <time>2013-04-21T10:21:07.000Z</time>
      </trkpt>
      <trkpt lat="48.99048" lon="1.12335">
        <ele>180</ele>
        <time>2013-04-21T10:21:09.000Z</time>
      </trkpt>
      <trkpt lat="48.99054" lon="1.12346">
        <ele>179</ele>
        <time>2013-04-21T10:21:11.000Z</time>
      </trkpt>
      <trkpt lat="48.99061" lon="1.12349">
        <ele>179</ele>
        <time>2013-04-21T10:21:15.000Z</time>
      </trkpt>
      <trkpt lat="48.99067" lon="1.12354">
        <ele>179</ele>
        <time>2013-04-21T10:21:19.000Z</time>
      </trkpt>
      <trkpt lat="48.99069" lon="1.12364">
        <ele>178</ele>
        <time>2013-04-21T10:21:23.000Z</time>
      </trkpt>
      <trkpt lat="48.99068" lon="1.12377">
        <ele>179</ele>
        <time>2013-04-21T10:21:27.000Z</time>
      </trkpt>
      <trkpt lat="48.99066" lon="1.12386">
        <ele>179</ele>
        <time>2013-04-21T10:21:31.000Z</time>
      </trkpt>
      <trkpt lat="48.99076" lon="1.12391">
        <ele>179</ele>
        <time>2013-04-21T10:21:35.000Z</time>
      </trkpt>
      <trkpt lat="48.9908" lon="1.12406">
        <ele>178</ele>
        <time>2013-04-21T10:21:39.000Z</time>
      </trkpt>
      <trkpt lat="48.9908" lon="1.12406">
        <ele>178</ele>
        <time>2013-04-21T10:21:41.000Z</time>
      </trkpt>
      <trkpt lat="48.9908" lon="1.12421">
        <ele>178</ele>
        <time>2013-04-21T10:21:43.000Z</time>
      </trkpt>
      <trkpt lat="48.9908" lon="1.12421">
        <ele>178</ele>
        <time>2013-04-21T10:21:45.000Z</time>
      </trkpt>
      <trkpt lat="48.99084" lon="1.12435">
        <ele>177</ele>
        <time>2013-04-21T10:21:47.000Z</time>
      </trkpt>
      <trkpt lat="48.99085" lon="1.12444">
        <ele>177</ele>
        <time>2013-04-21T10:21:49.000Z</time>
      </trkpt>
      <trkpt lat="48.99088" lon="1.12459">
        <ele>176</ele>
        <time>2013-04-21T10:21:53.000Z</time>
      </trkpt>
      <trkpt lat="48.99088" lon="1.12459">
        <ele>176</ele>
        <time>2013-04-21T10:21:55.000Z</time>
      </trkpt>
      <trkpt lat="48.99089" lon="1.12467">
        <ele>176</ele>
        <time>2013-04-21T10:21:57.000Z</time>
      </trkpt>
      <trkpt lat="48.99089" lon="1.12467">
        <ele>176</ele>
        <time>2013-04-21T10:21:59.000Z</time>
      </trkpt>
      <trkpt lat="48.9909" lon="1.12481">
        <ele>176</ele>
        <time>2013-04-21T10:22:01.000Z</time>
      </trkpt>
      <trkpt lat="48.99089" lon="1.12498">
        <ele>175</ele>
        <time>2013-04-21T10:22:05.000Z</time>
      </trkpt>
      <trkpt lat="48.99086" lon="1.12508">
        <ele>175</ele>
        <time>2013-04-21T10:22:07.000Z</time>
      </trkpt>
      <trkpt lat="48.99085" lon="1.12517">
        <ele>174</ele>
        <time>2013-04-21T10:22:09.000Z</time>
      </trkpt>
      <trkpt lat="48.9909" lon="1.12527">
        <ele>174</ele>
        <time>2013-04-21T10:22:13.000Z</time>
      </trkpt>
      <trkpt lat="48.9909" lon="1.12527">
        <ele>174</ele>
        <time>2013-04-21T10:22:15.000Z</time>
      </trkpt>
      <trkpt lat="48.99093" lon="1.12538">
        <ele>174</ele>
        <time>2013-04-21T10:22:17.000Z</time>
      </trkpt>
      <trkpt lat="48.99097" lon="1.1255">
        <ele>173</ele>
        <time>2013-04-21T10:22:21.000Z</time>
      </trkpt>
      <trkpt lat="48.991" lon="1.12564">
        <ele>173</ele>
        <time>2013-04-21T10:22:25.000Z</time>
      </trkpt>
      <trkpt lat="48.991" lon="1.12564">
        <ele>173</ele>
        <time>2013-04-21T10:22:27.000Z</time>
      </trkpt>
      <trkpt lat="48.991" lon="1.12575">
        <ele>173</ele>
        <time>2013-04-21T10:22:29.000Z</time>
      </trkpt>
      <trkpt lat="48.991" lon="1.12575">
        <ele>173</ele>
        <time>2013-04-21T10:22:31.000Z</time>
      </trkpt>
      <trkpt lat="48.99102" lon="1.12586">
        <ele>173</ele>
        <time>2013-04-21T10:22:33.000Z</time>
      </trkpt>
      <trkpt lat="48.99102" lon="1.12586">
        <ele>173</ele>
        <time>2013-04-21T10:22:35.000Z</time>
      </trkpt>
      <trkpt lat="48.99106" lon="1.12595">
        <ele>173</ele>
        <time>2013-04-21T10:22:37.000Z</time>
      </trkpt>
      <trkpt lat="48.99106" lon="1.12595">
        <ele>173</ele>
        <time>2013-04-21T10:22:39.000Z</time>
      </trkpt>
      <trkpt lat="48.99112" lon="1.12607">
        <ele>172</ele>
        <time>2013-04-21T10:22:41.000Z</time>
      </trkpt>
      <trkpt lat="48.99117" lon="1.1262">
        <ele>172</ele>
        <time>2013-04-21T10:22:45.000Z</time>
      </trkpt>
      <trkpt lat="48.99117" lon="1.12634">
        <ele>172</ele>
        <time>2013-04-21T10:22:49.000Z</time>
      </trkpt>
      <trkpt lat="48.99117" lon="1.12634">
        <ele>172</ele>
        <time>2013-04-21T10:22:51.000Z</time>
      </trkpt>
      <trkpt lat="48.99118" lon="1.12646">
        <ele>172</ele>
        <time>2013-04-21T10:22:53.000Z</time>
      </trkpt>
      <trkpt lat="48.99119" lon="1.12653">
        <ele>172</ele>
        <time>2013-04-21T10:22:57.000Z</time>
      </trkpt>
      <trkpt lat="48.9912" lon="1.1266">
        <ele>172</ele>
        <time>2013-04-21T10:22:59.000Z</time>
      </trkpt>
      <trkpt lat="48.99121" lon="1.12667">
        <ele>172</ele>
        <time>2013-04-21T10:23:01.000Z</time>
      </trkpt>
      <trkpt lat="48.99121" lon="1.12674">
        <ele>172</ele>
        <time>2013-04-21T10:23:03.000Z</time>
      </trkpt>
      <trkpt lat="48.99122" lon="1.12681">
        <ele>172</ele>
        <time>2013-04-21T10:23:05.000Z</time>
      </trkpt>
      <trkpt lat="48.99125" lon="1.12694">
        <ele>172</ele>
        <time>2013-04-21T10:23:07.000Z</time>
      </trkpt>
      <trkpt lat="48.99125" lon="1.12694">
        <ele>172</ele>
        <time>2013-04-21T10:23:09.000Z</time>
      </trkpt>
      <trkpt lat="48.99129" lon="1.12705">
        <ele>172</ele>
        <time>2013-04-21T10:23:11.000Z</time>
      </trkpt>
      <trkpt lat="48.99133" lon="1.12718">
        <ele>172</ele>
        <time>2013-04-21T10:23:15.000Z</time>
      </trkpt>
      <trkpt lat="48.99133" lon="1.12718">
        <ele>172</ele>
        <time>2013-04-21T10:23:17.000Z</time>
      </trkpt>
      <trkpt lat="48.99137" lon="1.12729">
        <ele>172</ele>
        <time>2013-04-21T10:23:19.000Z</time>
      </trkpt>
      <trkpt lat="48.99137" lon="1.12729">
        <ele>172</ele>
        <time>2013-04-21T10:23:21.000Z</time>
      </trkpt>
      <trkpt lat="48.99141" lon="1.12741">
        <ele>172</ele>
        <time>2013-04-21T10:23:23.000Z</time>
      </trkpt>
      <trkpt lat="48.99141" lon="1.12741">
        <ele>172</ele>
        <time>2013-04-21T10:23:25.000Z</time>
      </trkpt>
      <trkpt lat="48.99143" lon="1.1275">
        <ele>172</ele>
        <time>2013-04-21T10:23:27.000Z</time>
      </trkpt>
      <trkpt lat="48.99144" lon="1.12764">
        <ele>172</ele>
        <time>2013-04-21T10:23:33.000Z</time>
      </trkpt>
      <trkpt lat="48.99147" lon="1.12775">
        <ele>172</ele>
        <time>2013-04-21T10:23:37.000Z</time>
      </trkpt>
      <trkpt lat="48.99153" lon="1.12782">
        <ele>172</ele>
        <time>2013-04-21T10:23:41.000Z</time>
      </trkpt>
      <trkpt lat="48.99153" lon="1.12782">
        <ele>172</ele>
        <time>2013-04-21T10:23:43.000Z</time>
      </trkpt>
      <trkpt lat="48.99153" lon="1.12782">
        <ele>172</ele>
        <time>2013-04-21T10:23:45.000Z</time>
      </trkpt>
      <trkpt lat="48.99153" lon="1.12782">
        <ele>172</ele>
        <time>2013-04-21T10:23:47.000Z</time>
      </trkpt>
      <trkpt lat="48.99153" lon="1.12782">
        <ele>172</ele>
        <time>2013-04-21T10:23:49.000Z</time>
      </trkpt>
      <trkpt lat="48.99154" lon="1.12768">
        <ele>172</ele>
        <time>2013-04-21T10:23:51.000Z</time>
      </trkpt>
      <trkpt lat="48.99154" lon="1.12759">
        <ele>172</ele>
        <time>2013-04-21T10:23:53.000Z</time>
      </trkpt>
      <trkpt lat="48.99157" lon="1.12743">
        <ele>172</ele>
        <time>2013-04-21T10:23:57.000Z</time>
      </trkpt>
      <trkpt lat="48.99157" lon="1.12743">
        <ele>172</ele>
        <time>2013-04-21T10:23:59.000Z</time>
      </trkpt>
      <trkpt lat="48.99163" lon="1.12736">
        <ele>172</ele>
        <time>2013-04-21T10:24:01.000Z</time>
      </trkpt>
      <trkpt lat="48.99163" lon="1.12736">
        <ele>172</ele>
        <time>2013-04-21T10:24:03.000Z</time>
      </trkpt>
      <trkpt lat="48.9917" lon="1.12735">
        <ele>173</ele>
        <time>2013-04-21T10:24:05.000Z</time>
      </trkpt>
      <trkpt lat="48.9917" lon="1.12735">
        <ele>173</ele>
        <time>2013-04-21T10:24:07.000Z</time>
      </trkpt>
      <trkpt lat="48.99176" lon="1.12736">
        <ele>174</ele>
        <time>2013-04-21T10:24:09.000Z</time>
      </trkpt>
      <trkpt lat="48.99176" lon="1.12736">
        <ele>174</ele>
        <time>2013-04-21T10:24:11.000Z</time>
      </trkpt>
      <trkpt lat="48.99182" lon="1.12737">
        <ele>175</ele>
        <time>2013-04-21T10:24:13.000Z</time>
      </trkpt>
      <trkpt lat="48.9919" lon="1.1274">
        <ele>176</ele>
        <time>2013-04-21T10:24:17.000Z</time>
      </trkpt>
      <trkpt lat="48.99197" lon="1.12742">
        <ele>177</ele>
        <time>2013-04-21T10:24:21.000Z</time>
      </trkpt>
      <trkpt lat="48.99197" lon="1.12742">
        <ele>177</ele>
        <time>2013-04-21T10:24:23.000Z</time>
      </trkpt>
      <trkpt lat="48.99207" lon="1.12742">
        <ele>178</ele>
        <time>2013-04-21T10:24:25.000Z</time>
      </trkpt>
      <trkpt lat="48.99214" lon="1.12741">
        <ele>179</ele>
        <time>2013-04-21T10:24:29.000Z</time>
      </trkpt>
      <trkpt lat="48.9922" lon="1.12743">
        <ele>179</ele>
        <time>2013-04-21T10:24:31.000Z</time>
      </trkpt>
      <trkpt lat="48.99231" lon="1.12746">
        <ele>180</ele>
        <time>2013-04-21T10:24:35.000Z</time>
      </trkpt>
      <trkpt lat="48.99237" lon="1.12748">
        <ele>180</ele>
        <time>2013-04-21T10:24:37.000Z</time>
      </trkpt>
      <trkpt lat="48.99244" lon="1.1275">
        <ele>180</ele>
        <time>2013-04-21T10:24:39.000Z</time>
      </trkpt>
      <trkpt lat="48.99249" lon="1.12752">
        <ele>180</ele>
        <time>2013-04-21T10:24:41.000Z</time>
      </trkpt>
      <trkpt lat="48.99255" lon="1.12753">
        <ele>180</ele>
        <time>2013-04-21T10:24:43.000Z</time>
      </trkpt>
      <trkpt lat="48.99261" lon="1.12753">
        <ele>180</ele>
        <time>2013-04-21T10:24:45.000Z</time>
      </trkpt>
      <trkpt lat="48.99268" lon="1.12754">
        <ele>180</ele>
        <time>2013-04-21T10:24:47.000Z</time>
      </trkpt>
      <trkpt lat="48.99268" lon="1.12754">
        <ele>180</ele>
        <time>2013-04-21T10:24:49.000Z</time>
      </trkpt>
      <trkpt lat="48.9928" lon="1.12758">
        <ele>179</ele>
        <time>2013-04-21T10:24:51.000Z</time>
      </trkpt>
      <trkpt lat="48.99286" lon="1.12758">
        <ele>179</ele>
        <time>2013-04-21T10:24:53.000Z</time>
      </trkpt>
      <trkpt lat="48.99292" lon="1.12759">
        <ele>179</ele>
        <time>2013-04-21T10:24:55.000Z</time>
      </trkpt>
      <trkpt lat="48.99298" lon="1.12759">
        <ele>179</ele>
        <time>2013-04-21T10:24:57.000Z</time>
      </trkpt>
      <trkpt lat="48.99304" lon="1.12759">
        <ele>179</ele>
        <time>2013-04-21T10:24:59.000Z</time>
      </trkpt>
      <trkpt lat="48.99311" lon="1.12758">
        <ele>179</ele>
        <time>2013-04-21T10:25:01.000Z</time>
      </trkpt>
      <trkpt lat="48.99317" lon="1.12757">
        <ele>179</ele>
        <time>2013-04-21T10:25:03.000Z</time>
      </trkpt>
      <trkpt lat="48.99323" lon="1.12757">
        <ele>179</ele>
        <time>2013-04-21T10:25:05.000Z</time>
      </trkpt>
      <trkpt lat="48.99323" lon="1.12757">
        <ele>179</ele>
        <time>2013-04-21T10:25:07.000Z</time>
      </trkpt>
      <trkpt lat="48.99332" lon="1.12759">
        <ele>179</ele>
        <time>2013-04-21T10:25:09.000Z</time>
      </trkpt>
      <trkpt lat="48.99332" lon="1.12759">
        <ele>179</ele>
        <time>2013-04-21T10:25:11.000Z</time>
      </trkpt>
      <trkpt lat="48.99343" lon="1.12762">
        <ele>179</ele>
        <time>2013-04-21T10:25:13.000Z</time>
      </trkpt>
      <trkpt lat="48.99353" lon="1.12759">
        <ele>179</ele>
        <time>2013-04-21T10:25:17.000Z</time>
      </trkpt>
      <trkpt lat="48.99361" lon="1.12761">
        <ele>179</ele>
        <time>2013-04-21T10:25:21.000Z</time>
      </trkpt>
      <trkpt lat="48.99371" lon="1.12761">
        <ele>179</ele>
        <time>2013-04-21T10:25:25.000Z</time>
      </trkpt>
      <trkpt lat="48.99371" lon="1.12761">
        <ele>179</ele>
        <time>2013-04-21T10:25:27.000Z</time>
      </trkpt>
      <trkpt lat="48.99376" lon="1.12761">
        <ele>179</ele>
        <time>2013-04-21T10:25:29.000Z</time>
      </trkpt>
      <trkpt lat="48.9938" lon="1.12762">
        <ele>180</ele>
        <time>2013-04-21T10:25:31.000Z</time>
      </trkpt>
      <trkpt lat="48.99385" lon="1.12762">
        <ele>179</ele>
        <time>2013-04-21T10:25:33.000Z</time>
      </trkpt>
      <trkpt lat="48.99389" lon="1.12762">
        <ele>179</ele>
        <time>2013-04-21T10:25:35.000Z</time>
      </trkpt>
      <trkpt lat="48.99393" lon="1.12763">
        <ele>180</ele>
        <time>2013-04-21T10:25:37.000Z</time>
      </trkpt>
      <trkpt lat="48.99401" lon="1.12763">
        <ele>180</ele>
        <time>2013-04-21T10:25:39.000Z</time>
      </trkpt>
      <trkpt lat="48.99408" lon="1.12762">
        <ele>180</ele>
        <time>2013-04-21T10:25:43.000Z</time>
      </trkpt>
      <trkpt lat="48.99408" lon="1.12762">
        <ele>180</ele>
        <time>2013-04-21T10:25:45.000Z</time>
      </trkpt>
      <trkpt lat="48.99416" lon="1.12761">
        <ele>180</ele>
        <time>2013-04-21T10:25:47.000Z</time>
      </trkpt>
      <trkpt lat="48.99416" lon="1.12761">
        <ele>180</ele>
        <time>2013-04-21T10:25:49.000Z</time>
      </trkpt>
      <trkpt lat="48.99424" lon="1.12761">
        <ele>180</ele>
        <time>2013-04-21T10:25:51.000Z</time>
      </trkpt>
      <trkpt lat="48.99434" lon="1.12761">
        <ele>180</ele>
        <time>2013-04-21T10:25:55.000Z</time>
      </trkpt>
      <trkpt lat="48.99434" lon="1.12761">
        <ele>180</ele>
        <time>2013-04-21T10:25:57.000Z</time>
      </trkpt>
      <trkpt lat="48.99441" lon="1.12764">
        <ele>181</ele>
        <time>2013-04-21T10:25:59.000Z</time>
      </trkpt>
      <trkpt lat="48.99441" lon="1.12764">
        <ele>181</ele>
        <time>2013-04-21T10:26:01.000Z</time>
      </trkpt>
      <trkpt lat="48.99449" lon="1.12762">
        <ele>181</ele>
        <time>2013-04-21T10:26:03.000Z</time>
      </trkpt>
      <trkpt lat="48.99455" lon="1.12768">
        <ele>182</ele>
        <time>2013-04-21T10:26:07.000Z</time>
      </trkpt>
      <trkpt lat="48.99455" lon="1.12768">
        <ele>182</ele>
        <time>2013-04-21T10:26:09.000Z</time>
      </trkpt>
      <trkpt lat="48.99466" lon="1.12771">
        <ele>183</ele>
        <time>2013-04-21T10:26:11.000Z</time>
      </trkpt>
      <trkpt lat="48.99466" lon="1.12771">
        <ele>183</ele>
        <time>2013-04-21T10:26:13.000Z</time>
      </trkpt>
      <trkpt lat="48.99476" lon="1.12772">
        <ele>183</ele>
        <time>2013-04-21T10:26:15.000Z</time>
      </trkpt>
      <trkpt lat="48.99485" lon="1.12774">
        <ele>184</ele>
        <time>2013-04-21T10:26:19.000Z</time>
      </trkpt>
      <trkpt lat="48.99485" lon="1.12774">
        <ele>184</ele>
        <time>2013-04-21T10:26:21.000Z</time>
      </trkpt>
      <trkpt lat="48.9949" lon="1.12774">
        <ele>184</ele>
        <time>2013-04-21T10:26:23.000Z</time>
      </trkpt>
      <trkpt lat="48.9949" lon="1.12774">
        <ele>184</ele>
        <time>2013-04-21T10:26:25.000Z</time>
      </trkpt>
      <trkpt lat="48.99496" lon="1.12772">
        <ele>185</ele>
        <time>2013-04-21T10:26:27.000Z</time>
      </trkpt>
      <trkpt lat="48.99503" lon="1.12771">
        <ele>185</ele>
        <time>2013-04-21T10:26:31.000Z</time>
      </trkpt>
      <trkpt lat="48.99508" lon="1.12762">
        <ele>186</ele>
        <time>2013-04-21T10:26:35.000Z</time>
      </trkpt>
      <trkpt lat="48.99517" lon="1.12763">
        <ele>186</ele>
        <time>2013-04-21T10:26:39.000Z</time>
      </trkpt>
      <trkpt lat="48.99527" lon="1.12768">
        <ele>187</ele>
        <time>2013-04-21T10:26:43.000Z</time>
      </trkpt>
      <trkpt lat="48.99538" lon="1.12771">
        <ele>187</ele>
        <time>2013-04-21T10:26:47.000Z</time>
      </trkpt>
      <trkpt lat="48.99538" lon="1.12771">
        <ele>187</ele>
        <time>2013-04-21T10:26:49.000Z</time>
      </trkpt>
      <trkpt lat="48.99549" lon="1.12773">
        <ele>187</ele>
        <time>2013-04-21T10:26:51.000Z</time>
      </trkpt>
      <trkpt lat="48.99549" lon="1.12773">
        <ele>187</ele>
        <time>2013-04-21T10:26:53.000Z</time>
      </trkpt>
      <trkpt lat="48.99558" lon="1.12776">
        <ele>188</ele>
        <time>2013-04-21T10:26:55.000Z</time>
      </trkpt>
      <trkpt lat="48.99567" lon="1.12779">
        <ele>189</ele>
        <time>2013-04-21T10:26:59.000Z</time>
      </trkpt>
      <trkpt lat="48.99567" lon="1.12779">
        <ele>189</ele>
        <time>2013-04-21T10:27:01.000Z</time>
      </trkpt>
      <trkpt lat="48.99576" lon="1.12782">
        <ele>189</ele>
        <time>2013-04-21T10:27:03.000Z</time>
      </trkpt>
      <trkpt lat="48.99576" lon="1.12782">
        <ele>189</ele>
        <time>2013-04-21T10:27:05.000Z</time>
      </trkpt>
      <trkpt lat="48.99586" lon="1.12782">
        <ele>190</ele>
        <time>2013-04-21T10:27:07.000Z</time>
      </trkpt>
      <trkpt lat="48.99595" lon="1.12782">
        <ele>190</ele>
        <time>2013-04-21T10:27:11.000Z</time>
      </trkpt>
      <trkpt lat="48.99595" lon="1.12782">
        <ele>190</ele>
        <time>2013-04-21T10:27:15.000Z</time>
      </trkpt>
      <trkpt lat="48.99605" lon="1.12781">
        <ele>191</ele>
        <time>2013-04-21T10:27:17.000Z</time>
      </trkpt>
      <trkpt lat="48.99605" lon="1.12781">
        <ele>191</ele>
        <time>2013-04-21T10:27:19.000Z</time>
      </trkpt>
      <trkpt lat="48.99605" lon="1.12781">
        <ele>191</ele>
        <time>2013-04-21T10:27:21.000Z</time>
      </trkpt>
      <trkpt lat="48.99614" lon="1.12783">
        <ele>192</ele>
        <time>2013-04-21T10:27:23.000Z</time>
      </trkpt>
      <trkpt lat="48.99633" lon="1.12788">
        <ele>194</ele>
        <time>2013-04-21T10:27:28.000Z</time>
      </trkpt>
      <trkpt lat="48.9964" lon="1.12786">
        <ele>194</ele>
        <time>2013-04-21T10:27:30.000Z</time>
      </trkpt>
      <trkpt lat="48.99646" lon="1.12787">
        <ele>195</ele>
        <time>2013-04-21T10:27:32.000Z</time>
      </trkpt>
      <trkpt lat="48.99646" lon="1.12787">
        <ele>195</ele>
        <time>2013-04-21T10:27:34.000Z</time>
      </trkpt>
      <trkpt lat="48.99656" lon="1.12787">
        <ele>195</ele>
        <time>2013-04-21T10:27:36.000Z</time>
      </trkpt>
      <trkpt lat="48.99656" lon="1.12787">
        <ele>195</ele>
        <time>2013-04-21T10:27:38.000Z</time>
      </trkpt>
      <trkpt lat="48.9966" lon="1.12787">
        <ele>196</ele>
        <time>2013-04-21T10:27:40.000Z</time>
      </trkpt>
      <trkpt lat="48.99665" lon="1.12787">
        <ele>196</ele>
        <time>2013-04-21T10:27:42.000Z</time>
      </trkpt>
      <trkpt lat="48.99669" lon="1.12787">
        <ele>195</ele>
        <time>2013-04-21T10:27:44.000Z</time>
      </trkpt>
      <trkpt lat="48.99672" lon="1.12787">
        <ele>195</ele>
        <time>2013-04-21T10:27:46.000Z</time>
      </trkpt>
      <trkpt lat="48.99677" lon="1.12787">
        <ele>195</ele>
        <time>2013-04-21T10:27:48.000Z</time>
      </trkpt>
      <trkpt lat="48.99688" lon="1.12787">
        <ele>195</ele>
        <time>2013-04-21T10:27:50.000Z</time>
      </trkpt>
      <trkpt lat="48.99696" lon="1.12788">
        <ele>195</ele>
        <time>2013-04-21T10:27:52.000Z</time>
      </trkpt>
      <trkpt lat="48.99703" lon="1.12788">
        <ele>195</ele>
        <time>2013-04-21T10:27:54.000Z</time>
      </trkpt>
      <trkpt lat="48.99703" lon="1.12788">
        <ele>195</ele>
        <time>2013-04-21T10:27:56.000Z</time>
      </trkpt>
      <trkpt lat="48.99703" lon="1.12788">
        <ele>195</ele>
        <time>2013-04-21T10:27:58.000Z</time>
      </trkpt>
      <trkpt lat="48.99715" lon="1.12788">
        <ele>194</ele>
        <time>2013-04-21T10:28:00.000Z</time>
      </trkpt>
      <trkpt lat="48.99715" lon="1.12788">
        <ele>194</ele>
        <time>2013-04-21T10:28:02.000Z</time>
      </trkpt>
      <trkpt lat="48.99722" lon="1.1279">
        <ele>194</ele>
        <time>2013-04-21T10:28:04.000Z</time>
      </trkpt>
      <trkpt lat="48.99727" lon="1.12792">
        <ele>194</ele>
        <time>2013-04-21T10:28:06.000Z</time>
      </trkpt>
      <trkpt lat="48.99727" lon="1.12792">
        <ele>194</ele>
        <time>2013-04-21T10:28:08.000Z</time>
      </trkpt>
      <trkpt lat="48.99737" lon="1.12795">
        <ele>194</ele>
        <time>2013-04-21T10:28:10.000Z</time>
      </trkpt>
      <trkpt lat="48.99746" lon="1.12796">
        <ele>194</ele>
        <time>2013-04-21T10:28:14.000Z</time>
      </trkpt>
      <trkpt lat="48.99746" lon="1.12796">
        <ele>194</ele>
        <time>2013-04-21T10:28:16.000Z</time>
      </trkpt>
      <trkpt lat="48.99754" lon="1.12795">
        <ele>194</ele>
        <time>2013-04-21T10:28:18.000Z</time>
      </trkpt>
      <trkpt lat="48.99754" lon="1.12795">
        <ele>194</ele>
        <time>2013-04-21T10:28:20.000Z</time>
      </trkpt>
      <trkpt lat="48.99763" lon="1.12796">
        <ele>194</ele>
        <time>2013-04-21T10:28:22.000Z</time>
      </trkpt>
      <trkpt lat="48.99772" lon="1.12796">
        <ele>194</ele>
        <time>2013-04-21T10:28:26.000Z</time>
      </trkpt>
      <trkpt lat="48.9978" lon="1.128">
        <ele>194</ele>
        <time>2013-04-21T10:28:28.000Z</time>
      </trkpt>
      <trkpt lat="48.99786" lon="1.12802">
        <ele>195</ele>
        <time>2013-04-21T10:28:30.000Z</time>
      </trkpt>
      <trkpt lat="48.99793" lon="1.12806">
        <ele>195</ele>
        <time>2013-04-21T10:28:32.000Z</time>
      </trkpt>
      <trkpt lat="48.99793" lon="1.12806">
        <ele>195</ele>
        <time>2013-04-21T10:28:34.000Z</time>
      </trkpt>
      <trkpt lat="48.99804" lon="1.12809">
        <ele>196</ele>
        <time>2013-04-21T10:28:36.000Z</time>
      </trkpt>
      <trkpt lat="48.99804" lon="1.12809">
        <ele>196</ele>
        <time>2013-04-21T10:28:38.000Z</time>
      </trkpt>
      <trkpt lat="48.99813" lon="1.12811">
        <ele>196</ele>
        <time>2013-04-21T10:28:40.000Z</time>
      </trkpt>
      <trkpt lat="48.99824" lon="1.12811">
        <ele>197</ele>
        <time>2013-04-21T10:28:44.000Z</time>
      </trkpt>
      <trkpt lat="48.9983" lon="1.12812">
        <ele>197</ele>
        <time>2013-04-21T10:28:46.000Z</time>
      </trkpt>
      <trkpt lat="48.9983" lon="1.12812">
        <ele>197</ele>
        <time>2013-04-21T10:28:48.000Z</time>
      </trkpt>
      <trkpt lat="48.99838" lon="1.12811">
        <ele>197</ele>
        <time>2013-04-21T10:28:50.000Z</time>
      </trkpt>
      <trkpt lat="48.99838" lon="1.12811">
        <ele>197</ele>
        <time>2013-04-21T10:28:52.000Z</time>
      </trkpt>
      <trkpt lat="48.99845" lon="1.12812">
        <ele>197</ele>
        <time>2013-04-21T10:28:54.000Z</time>
      </trkpt>
      <trkpt lat="48.99845" lon="1.12812">
        <ele>197</ele>
        <time>2013-04-21T10:28:56.000Z</time>
      </trkpt>
      <trkpt lat="48.99855" lon="1.12811">
        <ele>197</ele>
        <time>2013-04-21T10:28:58.000Z</time>
      </trkpt>
      <trkpt lat="48.99863" lon="1.12811">
        <ele>197</ele>
        <time>2013-04-21T10:29:02.000Z</time>
      </trkpt>
      <trkpt lat="48.99863" lon="1.12811">
        <ele>197</ele>
        <time>2013-04-21T10:29:04.000Z</time>
      </trkpt>
      <trkpt lat="48.99863" lon="1.12811">
        <ele>197</ele>
        <time>2013-04-21T10:29:06.000Z</time>
      </trkpt>
      <trkpt lat="48.99873" lon="1.1281">
        <ele>197</ele>
        <time>2013-04-21T10:29:08.000Z</time>
      </trkpt>
      <trkpt lat="48.99873" lon="1.1281">
        <ele>197</ele>
        <time>2013-04-21T10:29:10.000Z</time>
      </trkpt>
      <trkpt lat="48.99873" lon="1.1281">
        <ele>197</ele>
        <time>2013-04-21T10:29:12.000Z</time>
      </trkpt>
      <trkpt lat="48.99883" lon="1.12809">
        <ele>197</ele>
        <time>2013-04-21T10:29:14.000Z</time>
      </trkpt>
      <trkpt lat="48.99883" lon="1.12809">
        <ele>197</ele>
        <time>2013-04-21T10:29:16.000Z</time>
      </trkpt>
      <trkpt lat="48.99893" lon="1.12809">
        <ele>196</ele>
        <time>2013-04-21T10:29:18.000Z</time>
      </trkpt>
      <trkpt lat="48.99905" lon="1.12814">
        <ele>195</ele>
        <time>2013-04-21T10:29:24.000Z</time>
      </trkpt>
      <trkpt lat="48.99905" lon="1.12814">
        <ele>195</ele>
        <time>2013-04-21T10:29:26.000Z</time>
      </trkpt>
      <trkpt lat="48.99915" lon="1.12817">
        <ele>195</ele>
        <time>2013-04-21T10:29:28.000Z</time>
      </trkpt>
      <trkpt lat="48.99915" lon="1.12817">
        <ele>195</ele>
        <time>2013-04-21T10:29:30.000Z</time>
      </trkpt>
      <trkpt lat="48.99915" lon="1.12817">
        <ele>195</ele>
        <time>2013-04-21T10:29:32.000Z</time>
      </trkpt>
      <trkpt lat="48.99926" lon="1.12819">
        <ele>195</ele>
        <time>2013-04-21T10:29:34.000Z</time>
      </trkpt>
      <trkpt lat="48.99934" lon="1.12821">
        <ele>196</ele>
        <time>2013-04-21T10:29:36.000Z</time>
      </trkpt>
      <trkpt lat="48.99946" lon="1.12821">
        <ele>196</ele>
        <time>2013-04-21T10:29:38.000Z</time>
      </trkpt>
      <trkpt lat="48.99955" lon="1.12821">
        <ele>196</ele>
        <time>2013-04-21T10:29:40.000Z</time>
      </trkpt>
      <trkpt lat="48.99961" lon="1.12822">
        <ele>196</ele>
        <time>2013-04-21T10:29:42.000Z</time>
      </trkpt>
      <trkpt lat="48.99961" lon="1.12822">
        <ele>196</ele>
        <time>2013-04-21T10:29:44.000Z</time>
      </trkpt>
      <trkpt lat="48.99971" lon="1.12823">
        <ele>196</ele>
        <time>2013-04-21T10:29:46.000Z</time>
      </trkpt>
      <trkpt lat="48.99978" lon="1.12823">
        <ele>196</ele>
        <time>2013-04-21T10:29:48.000Z</time>
      </trkpt>
      <trkpt lat="48.99989" lon="1.12824">
        <ele>196</ele>
        <time>2013-04-21T10:29:52.000Z</time>
      </trkpt>
      <trkpt lat="48.99994" lon="1.12826">
        <ele>196</ele>
        <time>2013-04-21T10:29:54.000Z</time>
      </trkpt>
      <trkpt lat="49.00001" lon="1.12828">
        <ele>196</ele>
        <time>2013-04-21T10:29:56.000Z</time>
      </trkpt>
      <trkpt lat="49.00008" lon="1.12829">
        <ele>196</ele>
        <time>2013-04-21T10:29:58.000Z</time>
      </trkpt>
      <trkpt lat="49.00016" lon="1.12829">
        <ele>196</ele>
        <time>2013-04-21T10:30:00.000Z</time>
      </trkpt>
      <trkpt lat="49.00026" lon="1.12829">
        <ele>196</ele>
        <time>2013-04-21T10:30:04.000Z</time>
      </trkpt>
      <trkpt lat="49.00034" lon="1.12829">
        <ele>196</ele>
        <time>2013-04-21T10:30:06.000Z</time>
      </trkpt>
      <trkpt lat="49.00034" lon="1.12829">
        <ele>196</ele>
        <time>2013-04-21T10:30:08.000Z</time>
      </trkpt>
      <trkpt lat="49.00043" lon="1.1283">
        <ele>195</ele>
        <time>2013-04-21T10:30:10.000Z</time>
      </trkpt>
      <trkpt lat="49.00043" lon="1.1283">
        <ele>195</ele>
        <time>2013-04-21T10:30:12.000Z</time>
      </trkpt>
      <trkpt lat="49.00052" lon="1.12828">
        <ele>195</ele>
        <time>2013-04-21T10:30:14.000Z</time>
      </trkpt>
      <trkpt lat="49.00052" lon="1.12828">
        <ele>195</ele>
        <time>2013-04-21T10:30:16.000Z</time>
      </trkpt>
      <trkpt lat="49.00056" lon="1.12829">
        <ele>194</ele>
        <time>2013-04-21T10:30:18.000Z</time>
      </trkpt>
      <trkpt lat="49.0006" lon="1.1283">
        <ele>194</ele>
        <time>2013-04-21T10:30:20.000Z</time>
      </trkpt>
      <trkpt lat="49.00064" lon="1.12832">
        <ele>194</ele>
        <time>2013-04-21T10:30:22.000Z</time>
      </trkpt>
      <trkpt lat="49.00068" lon="1.12833">
        <ele>194</ele>
        <time>2013-04-21T10:30:24.000Z</time>
      </trkpt>
      <trkpt lat="49.00072" lon="1.12833">
        <ele>193</ele>
        <time>2013-04-21T10:30:26.000Z</time>
      </trkpt>
      <trkpt lat="49.00079" lon="1.12838">
        <ele>193</ele>
        <time>2013-04-21T10:30:28.000Z</time>
      </trkpt>
      <trkpt lat="49.00079" lon="1.12838">
        <ele>193</ele>
        <time>2013-04-21T10:30:30.000Z</time>
      </trkpt>
      <trkpt lat="49.00079" lon="1.12838">
        <ele>193</ele>
        <time>2013-04-21T10:30:32.000Z</time>
      </trkpt>
      <trkpt lat="49.00085" lon="1.12837">
        <ele>192</ele>
        <time>2013-04-21T10:30:34.000Z</time>
      </trkpt>
      <trkpt lat="49.00085" lon="1.12837">
        <ele>192</ele>
        <time>2013-04-21T10:30:36.000Z</time>
      </trkpt>
      <trkpt lat="49.00085" lon="1.12837">
        <ele>192</ele>
        <time>2013-04-21T10:30:38.000Z</time>
      </trkpt>
      <trkpt lat="49.00096" lon="1.12836">
        <ele>191</ele>
        <time>2013-04-21T10:30:40.000Z</time>
      </trkpt>
      <trkpt lat="49.00108" lon="1.12835">
        <ele>191</ele>
        <time>2013-04-21T10:30:44.000Z</time>
      </trkpt>
      <trkpt lat="49.00108" lon="1.12835">
        <ele>191</ele>
        <time>2013-04-21T10:30:46.000Z</time>
      </trkpt>
      <trkpt lat="49.00117" lon="1.12838">
        <ele>191</ele>
        <time>2013-04-21T10:30:48.000Z</time>
      </trkpt>
      <trkpt lat="49.00126" lon="1.12843">
        <ele>190</ele>
        <time>2013-04-21T10:30:52.000Z</time>
      </trkpt>
      <trkpt lat="49.00126" lon="1.12843">
        <ele>190</ele>
        <time>2013-04-21T10:30:54.000Z</time>
      </trkpt>
      <trkpt lat="49.00134" lon="1.12844">
        <ele>189</ele>
        <time>2013-04-21T10:30:56.000Z</time>
      </trkpt>
      <trkpt lat="49.0014" lon="1.12845">
        <ele>189</ele>
        <time>2013-04-21T10:30:58.000Z</time>
      </trkpt>
      <trkpt lat="49.00154" lon="1.12847">
        <ele>188</ele>
        <time>2013-04-21T10:31:02.000Z</time>
      </trkpt>
      <trkpt lat="49.00162" lon="1.12848">
        <ele>188</ele>
        <time>2013-04-21T10:31:04.000Z</time>
      </trkpt>
      <trkpt lat="49.00182" lon="1.12846">
        <ele>188</ele>
        <time>2013-04-21T10:31:07.000Z</time>
      </trkpt>
      <trkpt lat="49.00193" lon="1.12844">
        <ele>187</ele>
        <time>2013-04-21T10:31:10.000Z</time>
      </trkpt>
      <trkpt lat="49.00198" lon="1.12842">
        <ele>187</ele>
        <time>2013-04-21T10:31:12.000Z</time>
      </trkpt>
      <trkpt lat="49.00198" lon="1.12842">
        <ele>187</ele>
        <time>2013-04-21T10:31:14.000Z</time>
      </trkpt>
      <trkpt lat="49.00208" lon="1.12845">
        <ele>186</ele>
        <time>2013-04-21T10:31:16.000Z</time>
      </trkpt>
      <trkpt lat="49.00214" lon="1.12845">
        <ele>186</ele>
        <time>2013-04-21T10:31:18.000Z</time>
      </trkpt>
      <trkpt lat="49.0022" lon="1.12846">
        <ele>186</ele>
        <time>2013-04-21T10:31:20.000Z</time>
      </trkpt>
      <trkpt lat="49.00227" lon="1.12848">
        <ele>186</ele>
        <time>2013-04-21T10:31:22.000Z</time>
      </trkpt>
      <trkpt lat="49.00237" lon="1.12853">
        <ele>186</ele>
        <time>2013-04-21T10:31:26.000Z</time>
      </trkpt>
      <trkpt lat="49.00245" lon="1.12855">
        <ele>186</ele>
        <time>2013-04-21T10:31:30.000Z</time>
      </trkpt>
      <trkpt lat="49.00245" lon="1.12855">
        <ele>186</ele>
        <time>2013-04-21T10:31:32.000Z</time>
      </trkpt>
      <trkpt lat="49.00252" lon="1.12861">
        <ele>185</ele>
        <time>2013-04-21T10:31:34.000Z</time>
      </trkpt>
      <trkpt lat="49.00252" lon="1.12861">
        <ele>185</ele>
        <time>2013-04-21T10:31:36.000Z</time>
      </trkpt>
      <trkpt lat="49.00252" lon="1.12861">
        <ele>185</ele>
        <time>2013-04-21T10:31:38.000Z</time>
      </trkpt>
      <trkpt lat="49.00262" lon="1.12868">
        <ele>184</ele>
        <time>2013-04-21T10:31:40.000Z</time>
      </trkpt>
      <trkpt lat="49.00271" lon="1.12874">
        <ele>184</ele>
        <time>2013-04-21T10:31:44.000Z</time>
      </trkpt>
      <trkpt lat="49.00271" lon="1.12874">
        <ele>184</ele>
        <time>2013-04-21T10:31:46.000Z</time>
      </trkpt>
      <trkpt lat="49.00278" lon="1.12883">
        <ele>184</ele>
        <time>2013-04-21T10:31:48.000Z</time>
      </trkpt>
      <trkpt lat="49.00278" lon="1.12883">
        <ele>184</ele>
        <time>2013-04-21T10:31:50.000Z</time>
      </trkpt>
      <trkpt lat="49.00287" lon="1.12889">
        <ele>185</ele>
        <time>2013-04-21T10:31:52.000Z</time>
      </trkpt>
      <trkpt lat="49.00294" lon="1.12896">
        <ele>185</ele>
        <time>2013-04-21T10:31:54.000Z</time>
      </trkpt>
      <trkpt lat="49.003" lon="1.12897">
        <ele>185</ele>
        <time>2013-04-21T10:31:56.000Z</time>
      </trkpt>
      <trkpt lat="49.00306" lon="1.12898">
        <ele>185</ele>
        <time>2013-04-21T10:31:58.000Z</time>
      </trkpt>
      <trkpt lat="49.00311" lon="1.129">
        <ele>185</ele>
        <time>2013-04-21T10:32:00.000Z</time>
      </trkpt>
      <trkpt lat="49.00321" lon="1.12901">
        <ele>185</ele>
        <time>2013-04-21T10:32:04.000Z</time>
      </trkpt>
      <trkpt lat="49.00331" lon="1.12904">
        <ele>186</ele>
        <time>2013-04-21T10:32:08.000Z</time>
      </trkpt>
      <trkpt lat="49.00331" lon="1.12904">
        <ele>186</ele>
        <time>2013-04-21T10:32:10.000Z</time>
      </trkpt>
      <trkpt lat="49.00339" lon="1.12909">
        <ele>186</ele>
        <time>2013-04-21T10:32:12.000Z</time>
      </trkpt>
      <trkpt lat="49.00339" lon="1.12909">
        <ele>186</ele>
        <time>2013-04-21T10:32:14.000Z</time>
      </trkpt>
      <trkpt lat="49.00345" lon="1.12917">
        <ele>186</ele>
        <time>2013-04-21T10:32:16.000Z</time>
      </trkpt>
      <trkpt lat="49.00345" lon="1.12917">
        <ele>186</ele>
        <time>2013-04-21T10:32:18.000Z</time>
      </trkpt>
      <trkpt lat="49.00351" lon="1.12922">
        <ele>186</ele>
        <time>2013-04-21T10:32:20.000Z</time>
      </trkpt>
      <trkpt lat="49.00351" lon="1.12922">
        <ele>186</ele>
        <time>2013-04-21T10:32:22.000Z</time>
      </trkpt>
      <trkpt lat="49.00358" lon="1.12935">
        <ele>187</ele>
        <time>2013-04-21T10:32:24.000Z</time>
      </trkpt>
      <trkpt lat="49.00366" lon="1.12945">
        <ele>187</ele>
        <time>2013-04-21T10:32:28.000Z</time>
      </trkpt>
      <trkpt lat="49.00366" lon="1.12945">
        <ele>187</ele>
        <time>2013-04-21T10:32:30.000Z</time>
      </trkpt>
      <trkpt lat="49.00373" lon="1.12949">
        <ele>188</ele>
        <time>2013-04-21T10:32:32.000Z</time>
      </trkpt>
      <trkpt lat="49.00379" lon="1.12953">
        <ele>189</ele>
        <time>2013-04-21T10:32:34.000Z</time>
      </trkpt>
      <trkpt lat="49.00389" lon="1.1296">
        <ele>189</ele>
        <time>2013-04-21T10:32:36.000Z</time>
      </trkpt>
      <trkpt lat="49.00398" lon="1.12963">
        <ele>189</ele>
        <time>2013-04-21T10:32:38.000Z</time>
      </trkpt>
      <trkpt lat="49.00405" lon="1.12965">
        <ele>190</ele>
        <time>2013-04-21T10:32:40.000Z</time>
      </trkpt>
      <trkpt lat="49.00405" lon="1.12965">
        <ele>190</ele>
        <time>2013-04-21T10:32:42.000Z</time>
      </trkpt>
      <trkpt lat="49.00415" lon="1.12969">
        <ele>190</ele>
        <time>2013-04-21T10:32:44.000Z</time>
      </trkpt>
      <trkpt lat="49.00415" lon="1.12969">
        <ele>190</ele>
        <time>2013-04-21T10:32:46.000Z</time>
      </trkpt>
      <trkpt lat="49.00424" lon="1.1297">
        <ele>190</ele>
        <time>2013-04-21T10:32:48.000Z</time>
      </trkpt>
      <trkpt lat="49.00432" lon="1.12967">
        <ele>191</ele>
        <time>2013-04-21T10:32:52.000Z</time>
      </trkpt>
      <trkpt lat="49.00436" lon="1.12972">
        <ele>190</ele>
        <time>2013-04-21T10:32:56.000Z</time>
      </trkpt>
      <trkpt lat="49.00439" lon="1.12977">
        <ele>190</ele>
        <time>2013-04-21T10:32:58.000Z</time>
      </trkpt>
      <trkpt lat="49.00444" lon="1.12981">
        <ele>190</ele>
        <time>2013-04-21T10:33:00.000Z</time>
      </trkpt>
      <trkpt lat="49.00447" lon="1.12985">
        <ele>190</ele>
        <time>2013-04-21T10:33:02.000Z</time>
      </trkpt>
      <trkpt lat="49.00451" lon="1.1299">
        <ele>190</ele>
        <time>2013-04-21T10:33:04.000Z</time>
      </trkpt>
      <trkpt lat="49.0046" lon="1.13003">
        <ele>189</ele>
        <time>2013-04-21T10:33:08.000Z</time>
      </trkpt>
      <trkpt lat="49.00467" lon="1.13011">
        <ele>190</ele>
        <time>2013-04-21T10:33:12.000Z</time>
      </trkpt>
      <trkpt lat="49.00467" lon="1.13011">
        <ele>190</ele>
        <time>2013-04-21T10:33:14.000Z</time>
      </trkpt>
      <trkpt lat="49.00476" lon="1.13017">
        <ele>190</ele>
        <time>2013-04-21T10:33:16.000Z</time>
      </trkpt>
      <trkpt lat="49.00487" lon="1.13021">
        <ele>191</ele>
        <time>2013-04-21T10:33:20.000Z</time>
      </trkpt>
      <trkpt lat="49.00496" lon="1.13024">
        <ele>191</ele>
        <time>2013-04-21T10:33:22.000Z</time>
      </trkpt>
      <trkpt lat="49.00501" lon="1.13026">
        <ele>191</ele>
        <time>2013-04-21T10:33:24.000Z</time>
      </trkpt>
      <trkpt lat="49.00501" lon="1.13026">
        <ele>191</ele>
        <time>2013-04-21T10:33:26.000Z</time>
      </trkpt>
      <trkpt lat="49.00513" lon="1.13029">
        <ele>191</ele>
        <time>2013-04-21T10:33:30.000Z</time>
      </trkpt>
      <trkpt lat="49.00518" lon="1.13027">
        <ele>191</ele>
        <time>2013-04-21T10:33:32.000Z</time>
      </trkpt>
      <trkpt lat="49.00525" lon="1.1303">
        <ele>191</ele>
        <time>2013-04-21T10:33:34.000Z</time>
      </trkpt>
      <trkpt lat="49.00531" lon="1.13031">
        <ele>191</ele>
        <time>2013-04-21T10:33:36.000Z</time>
      </trkpt>
      <trkpt lat="49.00537" lon="1.1303">
        <ele>191</ele>
        <time>2013-04-21T10:33:40.000Z</time>
      </trkpt>
      <trkpt lat="49.00537" lon="1.1303">
        <ele>191</ele>
        <time>2013-04-21T10:33:46.000Z</time>
      </trkpt>
      <trkpt lat="49.00547" lon="1.13039">
        <ele>192</ele>
        <time>2013-04-21T10:33:48.000Z</time>
      </trkpt>
      <trkpt lat="49.00551" lon="1.13046">
        <ele>192</ele>
        <time>2013-04-21T10:33:50.000Z</time>
      </trkpt>
      <trkpt lat="49.00555" lon="1.13053">
        <ele>192</ele>
        <time>2013-04-21T10:33:52.000Z</time>
      </trkpt>
      <trkpt lat="49.0056" lon="1.1306">
        <ele>192</ele>
        <time>2013-04-21T10:33:54.000Z</time>
      </trkpt>
      <trkpt lat="49.00565" lon="1.13063">
        <ele>192</ele>
        <time>2013-04-21T10:33:56.000Z</time>
      </trkpt>
      <trkpt lat="49.00572" lon="1.13065">
        <ele>192</ele>
        <time>2013-04-21T10:33:58.000Z</time>
      </trkpt>
      <trkpt lat="49.00578" lon="1.13068">
        <ele>192</ele>
        <time>2013-04-21T10:34:00.000Z</time>
      </trkpt>
      <trkpt lat="49.00584" lon="1.13071">
        <ele>192</ele>
        <time>2013-04-21T10:34:02.000Z</time>
      </trkpt>
      <trkpt lat="49.00584" lon="1.13071">
        <ele>192</ele>
        <time>2013-04-21T10:34:04.000Z</time>
      </trkpt>
      <trkpt lat="49.00596" lon="1.13078">
        <ele>191</ele>
        <time>2013-04-21T10:34:06.000Z</time>
      </trkpt>
      <trkpt lat="49.00603" lon="1.13083">
        <ele>191</ele>
        <time>2013-04-21T10:34:08.000Z</time>
      </trkpt>
      <trkpt lat="49.00613" lon="1.13088">
        <ele>190</ele>
        <time>2013-04-21T10:34:12.000Z</time>
      </trkpt>
      <trkpt lat="49.00624" lon="1.13093">
        <ele>189</ele>
        <time>2013-04-21T10:34:16.000Z</time>
      </trkpt>
      <trkpt lat="49.00631" lon="1.13099">
        <ele>188</ele>
        <time>2013-04-21T10:34:18.000Z</time>
      </trkpt>
      <trkpt lat="49.00638" lon="1.13102">
        <ele>188</ele>
        <time>2013-04-21T10:34:20.000Z</time>
      </trkpt>
      <trkpt lat="49.00638" lon="1.13102">
        <ele>188</ele>
        <time>2013-04-21T10:34:22.000Z</time>
      </trkpt>
      <trkpt lat="49.00647" lon="1.13109">
        <ele>188</ele>
        <time>2013-04-21T10:34:24.000Z</time>
      </trkpt>
      <trkpt lat="49.00653" lon="1.13112">
        <ele>188</ele>
        <time>2013-04-21T10:34:26.000Z</time>
      </trkpt>
      <trkpt lat="49.00658" lon="1.13117">
        <ele>187</ele>
        <time>2013-04-21T10:34:28.000Z</time>
      </trkpt>
      <trkpt lat="49.00663" lon="1.13123">
        <ele>187</ele>
        <time>2013-04-21T10:34:30.000Z</time>
      </trkpt>
      <trkpt lat="49.00672" lon="1.13131">
        <ele>187</ele>
        <time>2013-04-21T10:34:34.000Z</time>
      </trkpt>
      <trkpt lat="49.00682" lon="1.13134">
        <ele>187</ele>
        <time>2013-04-21T10:34:38.000Z</time>
      </trkpt>
      <trkpt lat="49.0069" lon="1.13139">
        <ele>186</ele>
        <time>2013-04-21T10:34:42.000Z</time>
      </trkpt>
      <trkpt lat="49.0069" lon="1.13139">
        <ele>186</ele>
        <time>2013-04-21T10:34:44.000Z</time>
      </trkpt>
      <trkpt lat="49.00697" lon="1.13145">
        <ele>186</ele>
        <time>2013-04-21T10:34:46.000Z</time>
      </trkpt>
      <trkpt lat="49.00704" lon="1.1315">
        <ele>185</ele>
        <time>2013-04-21T10:34:48.000Z</time>
      </trkpt>
      <trkpt lat="49.0071" lon="1.13154">
        <ele>185</ele>
        <time>2013-04-21T10:34:50.000Z</time>
      </trkpt>
      <trkpt lat="49.00716" lon="1.13155">
        <ele>185</ele>
        <time>2013-04-21T10:34:52.000Z</time>
      </trkpt>
      <trkpt lat="49.00721" lon="1.13158">
        <ele>184</ele>
        <time>2013-04-21T10:34:54.000Z</time>
      </trkpt>
      <trkpt lat="49.00726" lon="1.13163">
        <ele>184</ele>
        <time>2013-04-21T10:34:56.000Z</time>
      </trkpt>
      <trkpt lat="49.00731" lon="1.13168">
        <ele>183</ele>
        <time>2013-04-21T10:34:58.000Z</time>
      </trkpt>
      <trkpt lat="49.00731" lon="1.13168">
        <ele>183</ele>
        <time>2013-04-21T10:35:00.000Z</time>
      </trkpt>
      <trkpt lat="49.00742" lon="1.13176">
        <ele>183</ele>
        <time>2013-04-21T10:35:02.000Z</time>
      </trkpt>
      <trkpt lat="49.00748" lon="1.13178">
        <ele>183</ele>
        <time>2013-04-21T10:35:04.000Z</time>
      </trkpt>
      <trkpt lat="49.00753" lon="1.13181">
        <ele>182</ele>
        <time>2013-04-21T10:35:06.000Z</time>
      </trkpt>
      <trkpt lat="49.00753" lon="1.13181">
        <ele>182</ele>
        <time>2013-04-21T10:35:08.000Z</time>
      </trkpt>
      <trkpt lat="49.00764" lon="1.13184">
        <ele>182</ele>
        <time>2013-04-21T10:35:10.000Z</time>
      </trkpt>
      <trkpt lat="49.00774" lon="1.13187">
        <ele>182</ele>
        <time>2013-04-21T10:35:14.000Z</time>
      </trkpt>
      <trkpt lat="49.00774" lon="1.13187">
        <ele>182</ele>
        <time>2013-04-21T10:35:16.000Z</time>
      </trkpt>
      <trkpt lat="49.00782" lon="1.13191">
        <ele>182</ele>
        <time>2013-04-21T10:35:18.000Z</time>
      </trkpt>
      <trkpt lat="49.00782" lon="1.13191">
        <ele>182</ele>
        <time>2013-04-21T10:35:20.000Z</time>
      </trkpt>
      <trkpt lat="49.00792" lon="1.13195">
        <ele>183</ele>
        <time>2013-04-21T10:35:22.000Z</time>
      </trkpt>
      <trkpt lat="49.00792" lon="1.13195">
        <ele>183</ele>
        <time>2013-04-21T10:35:24.000Z</time>
      </trkpt>
      <trkpt lat="49.00801" lon="1.13198">
        <ele>183</ele>
        <time>2013-04-21T10:35:26.000Z</time>
      </trkpt>
      <trkpt lat="49.00801" lon="1.13198">
        <ele>183</ele>
        <time>2013-04-21T10:35:28.000Z</time>
      </trkpt>
      <trkpt lat="49.00811" lon="1.13203">
        <ele>182</ele>
        <time>2013-04-21T10:35:30.000Z</time>
      </trkpt>
      <trkpt lat="49.00822" lon="1.1321">
        <ele>182</ele>
        <time>2013-04-21T10:35:34.000Z</time>
      </trkpt>
      <trkpt lat="49.00828" lon="1.13213">
        <ele>181</ele>
        <time>2013-04-21T10:35:36.000Z</time>
      </trkpt>
      <trkpt lat="49.00834" lon="1.13216">
        <ele>181</ele>
        <time>2013-04-21T10:35:38.000Z</time>
      </trkpt>
      <trkpt lat="49.0084" lon="1.13218">
        <ele>181</ele>
        <time>2013-04-21T10:35:40.000Z</time>
      </trkpt>
      <trkpt lat="49.0084" lon="1.13218">
        <ele>181</ele>
        <time>2013-04-21T10:35:42.000Z</time>
      </trkpt>
      <trkpt lat="49.0085" lon="1.13224">
        <ele>181</ele>
        <time>2013-04-21T10:35:44.000Z</time>
      </trkpt>
      <trkpt lat="49.0086" lon="1.13229">
        <ele>181</ele>
        <time>2013-04-21T10:35:48.000Z</time>
      </trkpt>
      <trkpt lat="49.0086" lon="1.13229">
        <ele>181</ele>
        <time>2013-04-21T10:35:50.000Z</time>
      </trkpt>
      <trkpt lat="49.00869" lon="1.13234">
        <ele>180</ele>
        <time>2013-04-21T10:35:52.000Z</time>
      </trkpt>
      <trkpt lat="49.00869" lon="1.13234">
        <ele>180</ele>
        <time>2013-04-21T10:35:54.000Z</time>
      </trkpt>
      <trkpt lat="49.00873" lon="1.13238">
        <ele>180</ele>
        <time>2013-04-21T10:35:56.000Z</time>
      </trkpt>
      <trkpt lat="49.00878" lon="1.13242">
        <ele>180</ele>
        <time>2013-04-21T10:35:58.000Z</time>
      </trkpt>
      <trkpt lat="49.00882" lon="1.13246">
        <ele>180</ele>
        <time>2013-04-21T10:36:00.000Z</time>
      </trkpt>
      <trkpt lat="49.00887" lon="1.1325">
        <ele>180</ele>
        <time>2013-04-21T10:36:02.000Z</time>
      </trkpt>
      <trkpt lat="49.00891" lon="1.13252">
        <ele>179</ele>
        <time>2013-04-21T10:36:04.000Z</time>
      </trkpt>
      <trkpt lat="49.00899" lon="1.13257">
        <ele>179</ele>
        <time>2013-04-21T10:36:06.000Z</time>
      </trkpt>
      <trkpt lat="49.00899" lon="1.13257">
        <ele>179</ele>
        <time>2013-04-21T10:36:08.000Z</time>
      </trkpt>
      <trkpt lat="49.00906" lon="1.13263">
        <ele>179</ele>
        <time>2013-04-21T10:36:10.000Z</time>
      </trkpt>
      <trkpt lat="49.00906" lon="1.13263">
        <ele>179</ele>
        <time>2013-04-21T10:36:12.000Z</time>
      </trkpt>
      <trkpt lat="49.00914" lon="1.13268">
        <ele>179</ele>
        <time>2013-04-21T10:36:14.000Z</time>
      </trkpt>
      <trkpt lat="49.00914" lon="1.13268">
        <ele>179</ele>
        <time>2013-04-21T10:36:16.000Z</time>
      </trkpt>
      <trkpt lat="49.0092" lon="1.1327">
        <ele>179</ele>
        <time>2013-04-21T10:36:18.000Z</time>
      </trkpt>
      <trkpt lat="49.00931" lon="1.13273">
        <ele>179</ele>
        <time>2013-04-21T10:36:24.000Z</time>
      </trkpt>
      <trkpt lat="49.00936" lon="1.13277">
        <ele>178</ele>
        <time>2013-04-21T10:36:26.000Z</time>
      </trkpt>
      <trkpt lat="49.00941" lon="1.13281">
        <ele>178</ele>
        <time>2013-04-21T10:36:28.000Z</time>
      </trkpt>
      <trkpt lat="49.00953" lon="1.13284">
        <ele>177</ele>
        <time>2013-04-21T10:36:32.000Z</time>
      </trkpt>
      <trkpt lat="49.00964" lon="1.13288">
        <ele>176</ele>
        <time>2013-04-21T10:36:36.000Z</time>
      </trkpt>
      <trkpt lat="49.00964" lon="1.13288">
        <ele>176</ele>
        <time>2013-04-21T10:36:38.000Z</time>
      </trkpt>
      <trkpt lat="49.00971" lon="1.13296">
        <ele>175</ele>
        <time>2013-04-21T10:36:40.000Z</time>
      </trkpt>
      <trkpt lat="49.00977" lon="1.133">
        <ele>174</ele>
        <time>2013-04-21T10:36:42.000Z</time>
      </trkpt>
      <trkpt lat="49.00983" lon="1.13305">
        <ele>174</ele>
        <time>2013-04-21T10:36:44.000Z</time>
      </trkpt>
      <trkpt lat="49.0099" lon="1.13311">
        <ele>174</ele>
        <time>2013-04-21T10:36:46.000Z</time>
      </trkpt>
      <trkpt lat="49.00996" lon="1.13316">
        <ele>174</ele>
        <time>2013-04-21T10:36:48.000Z</time>
      </trkpt>
      <trkpt lat="49.00996" lon="1.13316">
        <ele>174</ele>
        <time>2013-04-21T10:36:50.000Z</time>
      </trkpt>
      <trkpt lat="49.01004" lon="1.13323">
        <ele>174</ele>
        <time>2013-04-21T10:36:52.000Z</time>
      </trkpt>
      <trkpt lat="49.01004" lon="1.13323">
        <ele>174</ele>
        <time>2013-04-21T10:36:54.000Z</time>
      </trkpt>
      <trkpt lat="49.01016" lon="1.13327">
        <ele>174</ele>
        <time>2013-04-21T10:36:56.000Z</time>
      </trkpt>
      <trkpt lat="49.01022" lon="1.13329">
        <ele>174</ele>
        <time>2013-04-21T10:36:58.000Z</time>
      </trkpt>
      <trkpt lat="49.01022" lon="1.13329">
        <ele>174</ele>
        <time>2013-04-21T10:37:00.000Z</time>
      </trkpt>
      <trkpt lat="49.01022" lon="1.13329">
        <ele>174</ele>
        <time>2013-04-21T10:37:02.000Z</time>
      </trkpt>
      <trkpt lat="49.01033" lon="1.13333">
        <ele>174</ele>
        <time>2013-04-21T10:37:04.000Z</time>
      </trkpt>
      <trkpt lat="49.01044" lon="1.13339">
        <ele>173</ele>
        <time>2013-04-21T10:37:08.000Z</time>
      </trkpt>
      <trkpt lat="49.01053" lon="1.13345">
        <ele>173</ele>
        <time>2013-04-21T10:37:12.000Z</time>
      </trkpt>
      <trkpt lat="49.01053" lon="1.13345">
        <ele>173</ele>
        <time>2013-04-21T10:37:14.000Z</time>
      </trkpt>
      <trkpt lat="49.01062" lon="1.1335">
        <ele>173</ele>
        <time>2013-04-21T10:37:16.000Z</time>
      </trkpt>
      <trkpt lat="49.01068" lon="1.13354">
        <ele>173</ele>
        <time>2013-04-21T10:37:18.000Z</time>
      </trkpt>
      <trkpt lat="49.01076" lon="1.1336">
        <ele>173</ele>
        <time>2013-04-21T10:37:22.000Z</time>
      </trkpt>
      <trkpt lat="49.01085" lon="1.13366">
        <ele>173</ele>
        <time>2013-04-21T10:37:26.000Z</time>
      </trkpt>
      <trkpt lat="49.01095" lon="1.13371">
        <ele>173</ele>
        <time>2013-04-21T10:37:30.000Z</time>
      </trkpt>
      <trkpt lat="49.01101" lon="1.13375">
        <ele>173</ele>
        <time>2013-04-21T10:37:32.000Z</time>
      </trkpt>
      <trkpt lat="49.01107" lon="1.13379">
        <ele>173</ele>
        <time>2013-04-21T10:37:34.000Z</time>
      </trkpt>
      <trkpt lat="49.01113" lon="1.13384">
        <ele>173</ele>
        <time>2013-04-21T10:37:36.000Z</time>
      </trkpt>
      <trkpt lat="49.01118" lon="1.13389">
        <ele>173</ele>
        <time>2013-04-21T10:37:38.000Z</time>
      </trkpt>
      <trkpt lat="49.01118" lon="1.13389">
        <ele>173</ele>
        <time>2013-04-21T10:37:40.000Z</time>
      </trkpt>
      <trkpt lat="49.01128" lon="1.13398">
        <ele>173</ele>
        <time>2013-04-21T10:37:42.000Z</time>
      </trkpt>
      <trkpt lat="49.01133" lon="1.13402">
        <ele>173</ele>
        <time>2013-04-21T10:37:44.000Z</time>
      </trkpt>
      <trkpt lat="49.01133" lon="1.13402">
        <ele>173</ele>
        <time>2013-04-21T10:37:46.000Z</time>
      </trkpt>
      <trkpt lat="49.01143" lon="1.13407">
        <ele>172</ele>
        <time>2013-04-21T10:37:48.000Z</time>
      </trkpt>
      <trkpt lat="49.01154" lon="1.13411">
        <ele>172</ele>
        <time>2013-04-21T10:37:52.000Z</time>
      </trkpt>
      <trkpt lat="49.01165" lon="1.13415">
        <ele>172</ele>
        <time>2013-04-21T10:37:56.000Z</time>
      </trkpt>
      <trkpt lat="49.01171" lon="1.13418">
        <ele>172</ele>
        <time>2013-04-21T10:37:58.000Z</time>
      </trkpt>
      <trkpt lat="49.01181" lon="1.13424">
        <ele>171</ele>
        <time>2013-04-21T10:38:02.000Z</time>
      </trkpt>
      <trkpt lat="49.01181" lon="1.13424">
        <ele>171</ele>
        <time>2013-04-21T10:38:04.000Z</time>
      </trkpt>
      <trkpt lat="49.01191" lon="1.13427">
        <ele>171</ele>
        <time>2013-04-21T10:38:06.000Z</time>
      </trkpt>
      <trkpt lat="49.01197" lon="1.13428">
        <ele>171</ele>
        <time>2013-04-21T10:38:08.000Z</time>
      </trkpt>
      <trkpt lat="49.01204" lon="1.1343">
        <ele>170</ele>
        <time>2013-04-21T10:38:10.000Z</time>
      </trkpt>
      <trkpt lat="49.0121" lon="1.13432">
        <ele>170</ele>
        <time>2013-04-21T10:38:12.000Z</time>
      </trkpt>
      <trkpt lat="49.01215" lon="1.13435">
        <ele>170</ele>
        <time>2013-04-21T10:38:14.000Z</time>
      </trkpt>
      <trkpt lat="49.01215" lon="1.13435">
        <ele>170</ele>
        <time>2013-04-21T10:38:16.000Z</time>
      </trkpt>
      <trkpt lat="49.01224" lon="1.13439">
        <ele>170</ele>
        <time>2013-04-21T10:38:18.000Z</time>
      </trkpt>
      <trkpt lat="49.01224" lon="1.13439">
        <ele>170</ele>
        <time>2013-04-21T10:38:20.000Z</time>
      </trkpt>
      <trkpt lat="49.01234" lon="1.13442">
        <ele>170</ele>
        <time>2013-04-21T10:38:22.000Z</time>
      </trkpt>
      <trkpt lat="49.0124" lon="1.13445">
        <ele>169</ele>
        <time>2013-04-21T10:38:24.000Z</time>
      </trkpt>
      <trkpt lat="49.01245" lon="1.13448">
        <ele>169</ele>
        <time>2013-04-21T10:38:26.000Z</time>
      </trkpt>
      <trkpt lat="49.01256" lon="1.13452">
        <ele>168</ele>
        <time>2013-04-21T10:38:30.000Z</time>
      </trkpt>
      <trkpt lat="49.01266" lon="1.1346">
        <ele>168</ele>
        <time>2013-04-21T10:38:34.000Z</time>
      </trkpt>
      <trkpt lat="49.01276" lon="1.13467">
        <ele>167</ele>
        <time>2013-04-21T10:38:38.000Z</time>
      </trkpt>
      <trkpt lat="49.01276" lon="1.13467">
        <ele>167</ele>
        <time>2013-04-21T10:38:40.000Z</time>
      </trkpt>
      <trkpt lat="49.01281" lon="1.13469">
        <ele>167</ele>
        <time>2013-04-21T10:38:42.000Z</time>
      </trkpt>
      <trkpt lat="49.01285" lon="1.13473">
        <ele>167</ele>
        <time>2013-04-21T10:38:44.000Z</time>
      </trkpt>
      <trkpt lat="49.0129" lon="1.13479">
        <ele>167</ele>
        <time>2013-04-21T10:38:46.000Z</time>
      </trkpt>
      <trkpt lat="49.01294" lon="1.13485">
        <ele>167</ele>
        <time>2013-04-21T10:38:48.000Z</time>
      </trkpt>
      <trkpt lat="49.01299" lon="1.13493">
        <ele>167</ele>
        <time>2013-04-21T10:38:50.000Z</time>
      </trkpt>
      <trkpt lat="49.01309" lon="1.13503">
        <ele>167</ele>
        <time>2013-04-21T10:38:52.000Z</time>
      </trkpt>
      <trkpt lat="49.01315" lon="1.13506">
        <ele>167</ele>
        <time>2013-04-21T10:38:54.000Z</time>
      </trkpt>
      <trkpt lat="49.01321" lon="1.13509">
        <ele>167</ele>
        <time>2013-04-21T10:38:56.000Z</time>
      </trkpt>
      <trkpt lat="49.01321" lon="1.13509">
        <ele>167</ele>
        <time>2013-04-21T10:38:58.000Z</time>
      </trkpt>
      <trkpt lat="49.01331" lon="1.13515">
        <ele>167</ele>
        <time>2013-04-21T10:39:00.000Z</time>
      </trkpt>
      <trkpt lat="49.01338" lon="1.13521">
        <ele>167</ele>
        <time>2013-04-21T10:39:02.000Z</time>
      </trkpt>
      <trkpt lat="49.01344" lon="1.13525">
        <ele>167</ele>
        <time>2013-04-21T10:39:04.000Z</time>
      </trkpt>
      <trkpt lat="49.01344" lon="1.13525">
        <ele>167</ele>
        <time>2013-04-21T10:39:06.000Z</time>
      </trkpt>
      <trkpt lat="49.01354" lon="1.13528">
        <ele>167</ele>
        <time>2013-04-21T10:39:08.000Z</time>
      </trkpt>
      <trkpt lat="49.01354" lon="1.13528">
        <ele>167</ele>
        <time>2013-04-21T10:39:10.000Z</time>
      </trkpt>
      <trkpt lat="49.01363" lon="1.1353">
        <ele>167</ele>
        <time>2013-04-21T10:39:12.000Z</time>
      </trkpt>
      <trkpt lat="49.01363" lon="1.1353">
        <ele>167</ele>
        <time>2013-04-21T10:39:14.000Z</time>
      </trkpt>
      <trkpt lat="49.01371" lon="1.13532">
        <ele>166</ele>
        <time>2013-04-21T10:39:16.000Z</time>
      </trkpt>
      <trkpt lat="49.01379" lon="1.13538">
        <ele>166</ele>
        <time>2013-04-21T10:39:20.000Z</time>
      </trkpt>
      <trkpt lat="49.01379" lon="1.13538">
        <ele>166</ele>
        <time>2013-04-21T10:39:22.000Z</time>
      </trkpt>
      <trkpt lat="49.01389" lon="1.13545">
        <ele>167</ele>
        <time>2013-04-21T10:39:24.000Z</time>
      </trkpt>
      <trkpt lat="49.01397" lon="1.13553">
        <ele>167</ele>
        <time>2013-04-21T10:39:28.000Z</time>
      </trkpt>
      <trkpt lat="49.01397" lon="1.13553">
        <ele>167</ele>
        <time>2013-04-21T10:39:30.000Z</time>
      </trkpt>
      <trkpt lat="49.01403" lon="1.13561">
        <ele>168</ele>
        <time>2013-04-21T10:39:32.000Z</time>
      </trkpt>
      <trkpt lat="49.01403" lon="1.13561">
        <ele>168</ele>
        <time>2013-04-21T10:39:34.000Z</time>
      </trkpt>
      <trkpt lat="49.01407" lon="1.13573">
        <ele>168</ele>
        <time>2013-04-21T10:39:36.000Z</time>
      </trkpt>
      <trkpt lat="49.01409" lon="1.13582">
        <ele>168</ele>
        <time>2013-04-21T10:39:38.000Z</time>
      </trkpt>
      <trkpt lat="49.01412" lon="1.13592">
        <ele>168</ele>
        <time>2013-04-21T10:39:40.000Z</time>
      </trkpt>
      <trkpt lat="49.01412" lon="1.13592">
        <ele>168</ele>
        <time>2013-04-21T10:39:42.000Z</time>
      </trkpt>
      <trkpt lat="49.0142" lon="1.13601">
        <ele>168</ele>
        <time>2013-04-21T10:39:44.000Z</time>
      </trkpt>
      <trkpt lat="49.01426" lon="1.13607">
        <ele>168</ele>
        <time>2013-04-21T10:39:46.000Z</time>
      </trkpt>
      <trkpt lat="49.01431" lon="1.13612">
        <ele>168</ele>
        <time>2013-04-21T10:39:48.000Z</time>
      </trkpt>
      <trkpt lat="49.01436" lon="1.13617">
        <ele>168</ele>
        <time>2013-04-21T10:39:50.000Z</time>
      </trkpt>
      <trkpt lat="49.01447" lon="1.13623">
        <ele>168</ele>
        <time>2013-04-21T10:39:54.000Z</time>
      </trkpt>
      <trkpt lat="49.01455" lon="1.13621">
        <ele>169</ele>
        <time>2013-04-21T10:39:58.000Z</time>
      </trkpt>
      <trkpt lat="49.01464" lon="1.13618">
        <ele>169</ele>
        <time>2013-04-21T10:40:02.000Z</time>
      </trkpt>
      <trkpt lat="49.01464" lon="1.13618">
        <ele>169</ele>
        <time>2013-04-21T10:40:04.000Z</time>
      </trkpt>
      <trkpt lat="49.01473" lon="1.13618">
        <ele>168</ele>
        <time>2013-04-21T10:40:06.000Z</time>
      </trkpt>
      <trkpt lat="49.01485" lon="1.13622">
        <ele>169</ele>
        <time>2013-04-21T10:40:10.000Z</time>
      </trkpt>
      <trkpt lat="49.01492" lon="1.13624">
        <ele>169</ele>
        <time>2013-04-21T10:40:12.000Z</time>
      </trkpt>
      <trkpt lat="49.01497" lon="1.13626">
        <ele>169</ele>
        <time>2013-04-21T10:40:14.000Z</time>
      </trkpt>
      <trkpt lat="49.01503" lon="1.1363">
        <ele>169</ele>
        <time>2013-04-21T10:40:16.000Z</time>
      </trkpt>
      <trkpt lat="49.01508" lon="1.13634">
        <ele>169</ele>
        <time>2013-04-21T10:40:18.000Z</time>
      </trkpt>
      <trkpt lat="49.01513" lon="1.13639">
        <ele>168</ele>
        <time>2013-04-21T10:40:20.000Z</time>
      </trkpt>
      <trkpt lat="49.01518" lon="1.13646">
        <ele>168</ele>
        <time>2013-04-21T10:40:22.000Z</time>
      </trkpt>
      <trkpt lat="49.01527" lon="1.13654">
        <ele>168</ele>
        <time>2013-04-21T10:40:26.000Z</time>
      </trkpt>
      <trkpt lat="49.01535" lon="1.13651">
        <ele>167</ele>
        <time>2013-04-21T10:40:30.000Z</time>
      </trkpt>
      <trkpt lat="49.01542" lon="1.1365">
        <ele>166</ele>
        <time>2013-04-21T10:40:34.000Z</time>
      </trkpt>
      <trkpt lat="49.01548" lon="1.13655">
        <ele>166</ele>
        <time>2013-04-21T10:40:36.000Z</time>
      </trkpt>
      <trkpt lat="49.01553" lon="1.13661">
        <ele>165</ele>
        <time>2013-04-21T10:40:38.000Z</time>
      </trkpt>
      <trkpt lat="49.01559" lon="1.13666">
        <ele>165</ele>
        <time>2013-04-21T10:40:40.000Z</time>
      </trkpt>
      <trkpt lat="49.01563" lon="1.13673">
        <ele>164</ele>
        <time>2013-04-21T10:40:42.000Z</time>
      </trkpt>
      <trkpt lat="49.01567" lon="1.1368">
        <ele>163</ele>
        <time>2013-04-21T10:40:44.000Z</time>
      </trkpt>
      <trkpt lat="49.01575" lon="1.13687">
        <ele>161</ele>
        <time>2013-04-21T10:40:48.000Z</time>
      </trkpt>
      <trkpt lat="49.01575" lon="1.13687">
        <ele>161</ele>
        <time>2013-04-21T10:40:50.000Z</time>
      </trkpt>
      <trkpt lat="49.01584" lon="1.13688">
        <ele>160</ele>
        <time>2013-04-21T10:40:52.000Z</time>
      </trkpt>
      <trkpt lat="49.01584" lon="1.13688">
        <ele>160</ele>
        <time>2013-04-21T10:40:54.000Z</time>
      </trkpt>
      <trkpt lat="49.01593" lon="1.13686">
        <ele>158</ele>
        <time>2013-04-21T10:40:56.000Z</time>
      </trkpt>
      <trkpt lat="49.01601" lon="1.13685">
        <ele>157</ele>
        <time>2013-04-21T10:41:00.000Z</time>
      </trkpt>
      <trkpt lat="49.0161" lon="1.13689">
        <ele>155</ele>
        <time>2013-04-21T10:41:04.000Z</time>
      </trkpt>
      <trkpt lat="49.01619" lon="1.13689">
        <ele>154</ele>
        <time>2013-04-21T10:41:08.000Z</time>
      </trkpt>
      <trkpt lat="49.01629" lon="1.13691">
        <ele>152</ele>
        <time>2013-04-21T10:41:12.000Z</time>
      </trkpt>
      <trkpt lat="49.01629" lon="1.13691">
        <ele>152</ele>
        <time>2013-04-21T10:41:14.000Z</time>
      </trkpt>
      <trkpt lat="49.01638" lon="1.13693">
        <ele>151</ele>
        <time>2013-04-21T10:41:16.000Z</time>
      </trkpt>
      <trkpt lat="49.01648" lon="1.13693">
        <ele>150</ele>
        <time>2013-04-21T10:41:20.000Z</time>
      </trkpt>
      <trkpt lat="49.01651" lon="1.13684">
        <ele>149</ele>
        <time>2013-04-21T10:41:24.000Z</time>
      </trkpt>
      <trkpt lat="49.01652" lon="1.13669">
        <ele>148</ele>
        <time>2013-04-21T10:41:28.000Z</time>
      </trkpt>
      <trkpt lat="49.01651" lon="1.13662">
        <ele>146</ele>
        <time>2013-04-21T10:41:32.000Z</time>
      </trkpt>
      <trkpt lat="49.0165" lon="1.13655">
        <ele>145</ele>
        <time>2013-04-21T10:41:34.000Z</time>
      </trkpt>
      <trkpt lat="49.01649" lon="1.13649">
        <ele>144</ele>
        <time>2013-04-21T10:41:36.000Z</time>
      </trkpt>
      <trkpt lat="49.01649" lon="1.13642">
        <ele>144</ele>
        <time>2013-04-21T10:41:38.000Z</time>
      </trkpt>
      <trkpt lat="49.01648" lon="1.13634">
        <ele>143</ele>
        <time>2013-04-21T10:41:40.000Z</time>
      </trkpt>
      <trkpt lat="49.01647" lon="1.13618">
        <ele>143</ele>
        <time>2013-04-21T10:41:42.000Z</time>
      </trkpt>
      <trkpt lat="49.01645" lon="1.13603">
        <ele>142</ele>
        <time>2013-04-21T10:41:46.000Z</time>
      </trkpt>
      <trkpt lat="49.01642" lon="1.13588">
        <ele>141</ele>
        <time>2013-04-21T10:41:50.000Z</time>
      </trkpt>
      <trkpt lat="49.01645" lon="1.13575">
        <ele>140</ele>
        <time>2013-04-21T10:41:54.000Z</time>
      </trkpt>
      <trkpt lat="49.01645" lon="1.13575">
        <ele>140</ele>
        <time>2013-04-21T10:41:56.000Z</time>
      </trkpt>
      <trkpt lat="49.01646" lon="1.1356">
        <ele>139</ele>
        <time>2013-04-21T10:41:58.000Z</time>
      </trkpt>
      <trkpt lat="49.01646" lon="1.13547">
        <ele>139</ele>
        <time>2013-04-21T10:42:02.000Z</time>
      </trkpt>
      <trkpt lat="49.01646" lon="1.13547">
        <ele>139</ele>
        <time>2013-04-21T10:42:04.000Z</time>
      </trkpt>
      <trkpt lat="49.01646" lon="1.13547">
        <ele>139</ele>
        <time>2013-04-21T10:42:06.000Z</time>
      </trkpt>
      <trkpt lat="49.01646" lon="1.13538">
        <ele>137</ele>
        <time>2013-04-21T10:42:08.000Z</time>
      </trkpt>
      <trkpt lat="49.01646" lon="1.13538">
        <ele>137</ele>
        <time>2013-04-21T10:42:10.000Z</time>
      </trkpt>
      <trkpt lat="49.01646" lon="1.13538">
        <ele>137</ele>
        <time>2013-04-21T10:42:12.000Z</time>
      </trkpt>
      <trkpt lat="49.01646" lon="1.13527">
        <ele>136</ele>
        <time>2013-04-21T10:42:14.000Z</time>
      </trkpt>
      <trkpt lat="49.01646" lon="1.1351">
        <ele>136</ele>
        <time>2013-04-21T10:42:18.000Z</time>
      </trkpt>
      <trkpt lat="49.01647" lon="1.13496">
        <ele>135</ele>
        <time>2013-04-21T10:42:22.000Z</time>
      </trkpt>
      <trkpt lat="49.01647" lon="1.13482">
        <ele>135</ele>
        <time>2013-04-21T10:42:26.000Z</time>
      </trkpt>
      <trkpt lat="49.01648" lon="1.13468">
        <ele>135</ele>
        <time>2013-04-21T10:42:30.000Z</time>
      </trkpt>
      <trkpt lat="49.01651" lon="1.13455">
        <ele>135</ele>
        <time>2013-04-21T10:42:34.000Z</time>
      </trkpt>
      <trkpt lat="49.01651" lon="1.13442">
        <ele>135</ele>
        <time>2013-04-21T10:42:38.000Z</time>
      </trkpt>
      <trkpt lat="49.01651" lon="1.13442">
        <ele>135</ele>
        <time>2013-04-21T10:42:40.000Z</time>
      </trkpt>
      <trkpt lat="49.01653" lon="1.13428">
        <ele>135</ele>
        <time>2013-04-21T10:42:42.000Z</time>
      </trkpt>
      <trkpt lat="49.01657" lon="1.13415">
        <ele>134</ele>
        <time>2013-04-21T10:42:46.000Z</time>
      </trkpt>
      <trkpt lat="49.01657" lon="1.13415">
        <ele>134</ele>
        <time>2013-04-21T10:42:48.000Z</time>
      </trkpt>
      <trkpt lat="49.01661" lon="1.13403">
        <ele>134</ele>
        <time>2013-04-21T10:42:50.000Z</time>
      </trkpt>
      <trkpt lat="49.01661" lon="1.13388">
        <ele>134</ele>
        <time>2013-04-21T10:42:54.000Z</time>
      </trkpt>
      <trkpt lat="49.01665" lon="1.13374">
        <ele>133</ele>
        <time>2013-04-21T10:42:58.000Z</time>
      </trkpt>
      <trkpt lat="49.01668" lon="1.13359">
        <ele>133</ele>
        <time>2013-04-21T10:43:02.000Z</time>
      </trkpt>
      <trkpt lat="49.01671" lon="1.13344">
        <ele>132</ele>
        <time>2013-04-21T10:43:06.000Z</time>
      </trkpt>
      <trkpt lat="49.01671" lon="1.13344">
        <ele>132</ele>
        <time>2013-04-21T10:43:08.000Z</time>
      </trkpt>
      <trkpt lat="49.01672" lon="1.1333">
        <ele>132</ele>
        <time>2013-04-21T10:43:10.000Z</time>
      </trkpt>
      <trkpt lat="49.01672" lon="1.1333">
        <ele>132</ele>
        <time>2013-04-21T10:43:12.000Z</time>
      </trkpt>
      <trkpt lat="49.01676" lon="1.13314">
        <ele>131</ele>
        <time>2013-04-21T10:43:14.000Z</time>
      </trkpt>
      <trkpt lat="49.0168" lon="1.13299">
        <ele>131</ele>
        <time>2013-04-21T10:43:18.000Z</time>
      </trkpt>
      <trkpt lat="49.01683" lon="1.13286">
        <ele>131</ele>
        <time>2013-04-21T10:43:22.000Z</time>
      </trkpt>
      <trkpt lat="49.01688" lon="1.13272">
        <ele>131</ele>
        <time>2013-04-21T10:43:26.000Z</time>
      </trkpt>
      <trkpt lat="49.01694" lon="1.13258">
        <ele>131</ele>
        <time>2013-04-21T10:43:30.000Z</time>
      </trkpt>
      <trkpt lat="49.01694" lon="1.13258">
        <ele>131</ele>
        <time>2013-04-21T10:43:32.000Z</time>
      </trkpt>
      <trkpt lat="49.01698" lon="1.13246">
        <ele>131</ele>
        <time>2013-04-21T10:43:34.000Z</time>
      </trkpt>
      <trkpt lat="49.01699" lon="1.13238">
        <ele>131</ele>
        <time>2013-04-21T10:43:38.000Z</time>
      </trkpt>
      <trkpt lat="49.01701" lon="1.13231">
        <ele>130</ele>
        <time>2013-04-21T10:43:40.000Z</time>
      </trkpt>
      <trkpt lat="49.01703" lon="1.13225">
        <ele>130</ele>
        <time>2013-04-21T10:43:42.000Z</time>
      </trkpt>
      <trkpt lat="49.01705" lon="1.13218">
        <ele>130</ele>
        <time>2013-04-21T10:43:44.000Z</time>
      </trkpt>
      <trkpt lat="49.01707" lon="1.13211">
        <ele>130</ele>
        <time>2013-04-21T10:43:46.000Z</time>
      </trkpt>
      <trkpt lat="49.0171" lon="1.13196">
        <ele>130</ele>
        <time>2013-04-21T10:43:48.000Z</time>
      </trkpt>
      <trkpt lat="49.01713" lon="1.13188">
        <ele>130</ele>
        <time>2013-04-21T10:43:50.000Z</time>
      </trkpt>
      <trkpt lat="49.01717" lon="1.13181">
        <ele>130</ele>
        <time>2013-04-21T10:43:52.000Z</time>
      </trkpt>
      <trkpt lat="49.0172" lon="1.13173">
        <ele>130</ele>
        <time>2013-04-21T10:43:54.000Z</time>
      </trkpt>
      <trkpt lat="49.01723" lon="1.13165">
        <ele>130</ele>
        <time>2013-04-21T10:43:56.000Z</time>
      </trkpt>
      <trkpt lat="49.0173" lon="1.13152">
        <ele>130</ele>
        <time>2013-04-21T10:44:00.000Z</time>
      </trkpt>
      <trkpt lat="49.0173" lon="1.13152">
        <ele>130</ele>
        <time>2013-04-21T10:44:02.000Z</time>
      </trkpt>
      <trkpt lat="49.01737" lon="1.1314">
        <ele>130</ele>
        <time>2013-04-21T10:44:04.000Z</time>
      </trkpt>
      <trkpt lat="49.01741" lon="1.13133">
        <ele>130</ele>
        <time>2013-04-21T10:44:06.000Z</time>
      </trkpt>
      <trkpt lat="49.01746" lon="1.13127">
        <ele>130</ele>
        <time>2013-04-21T10:44:08.000Z</time>
      </trkpt>
      <trkpt lat="49.0175" lon="1.1312">
        <ele>130</ele>
        <time>2013-04-21T10:44:10.000Z</time>
      </trkpt>
      <trkpt lat="49.01756" lon="1.13107">
        <ele>131</ele>
        <time>2013-04-21T10:44:14.000Z</time>
      </trkpt>
      <trkpt lat="49.01764" lon="1.13096">
        <ele>131</ele>
        <time>2013-04-21T10:44:18.000Z</time>
      </trkpt>
      <trkpt lat="49.01772" lon="1.13083">
        <ele>130</ele>
        <time>2013-04-21T10:44:22.000Z</time>
      </trkpt>
      <trkpt lat="49.01772" lon="1.13083">
        <ele>130</ele>
        <time>2013-04-21T10:44:24.000Z</time>
      </trkpt>
      <trkpt lat="49.0178" lon="1.13071">
        <ele>130</ele>
        <time>2013-04-21T10:44:26.000Z</time>
      </trkpt>
      <trkpt lat="49.01784" lon="1.13064">
        <ele>130</ele>
        <time>2013-04-21T10:44:28.000Z</time>
      </trkpt>
      <trkpt lat="49.01789" lon="1.13058">
        <ele>130</ele>
        <time>2013-04-21T10:44:30.000Z</time>
      </trkpt>
      <trkpt lat="49.01793" lon="1.13053">
        <ele>130</ele>
        <time>2013-04-21T10:44:32.000Z</time>
      </trkpt>
      <trkpt lat="49.01798" lon="1.13047">
        <ele>130</ele>
        <time>2013-04-21T10:44:34.000Z</time>
      </trkpt>
      <trkpt lat="49.01806" lon="1.13036">
        <ele>130</ele>
        <time>2013-04-21T10:44:38.000Z</time>
      </trkpt>
      <trkpt lat="49.01806" lon="1.13036">
        <ele>130</ele>
        <time>2013-04-21T10:44:40.000Z</time>
      </trkpt>
      <trkpt lat="49.01814" lon="1.13024">
        <ele>130</ele>
        <time>2013-04-21T10:44:42.000Z</time>
      </trkpt>
      <trkpt lat="49.01823" lon="1.13014">
        <ele>129</ele>
        <time>2013-04-21T10:44:46.000Z</time>
      </trkpt>
      <trkpt lat="49.01833" lon="1.13005">
        <ele>129</ele>
        <time>2013-04-21T10:44:50.000Z</time>
      </trkpt>
      <trkpt lat="49.01837" lon="1.12999">
        <ele>129</ele>
        <time>2013-04-21T10:44:52.000Z</time>
      </trkpt>
      <trkpt lat="49.01837" lon="1.12999">
        <ele>129</ele>
        <time>2013-04-21T10:44:54.000Z</time>
      </trkpt>
      <trkpt lat="49.01846" lon="1.12989">
        <ele>129</ele>
        <time>2013-04-21T10:44:56.000Z</time>
      </trkpt>
      <trkpt lat="49.01851" lon="1.12984">
        <ele>129</ele>
        <time>2013-04-21T10:44:58.000Z</time>
      </trkpt>
      <trkpt lat="49.01855" lon="1.12979">
        <ele>129</ele>
        <time>2013-04-21T10:45:00.000Z</time>
      </trkpt>
      <trkpt lat="49.01855" lon="1.12979">
        <ele>129</ele>
        <time>2013-04-21T10:45:02.000Z</time>
      </trkpt>
      <trkpt lat="49.01864" lon="1.12971">
        <ele>129</ele>
        <time>2013-04-21T10:45:04.000Z</time>
      </trkpt>
      <trkpt lat="49.01873" lon="1.12961">
        <ele>129</ele>
        <time>2013-04-21T10:45:08.000Z</time>
      </trkpt>
      <trkpt lat="49.01882" lon="1.12952">
        <ele>129</ele>
        <time>2013-04-21T10:45:12.000Z</time>
      </trkpt>
      <trkpt lat="49.01891" lon="1.12945">
        <ele>129</ele>
        <time>2013-04-21T10:45:16.000Z</time>
      </trkpt>
      <trkpt lat="49.01901" lon="1.12938">
        <ele>129</ele>
        <time>2013-04-21T10:45:20.000Z</time>
      </trkpt>
      <trkpt lat="49.01901" lon="1.12938">
        <ele>129</ele>
        <time>2013-04-21T10:45:22.000Z</time>
      </trkpt>
      <trkpt lat="49.01911" lon="1.12932">
        <ele>129</ele>
        <time>2013-04-21T10:45:24.000Z</time>
      </trkpt>
      <trkpt lat="49.01921" lon="1.12926">
        <ele>129</ele>
        <time>2013-04-21T10:45:28.000Z</time>
      </trkpt>
      <trkpt lat="49.0193" lon="1.12922">
        <ele>129</ele>
        <time>2013-04-21T10:45:32.000Z</time>
      </trkpt>
      <trkpt lat="49.0193" lon="1.12922">
        <ele>129</ele>
        <time>2013-04-21T10:45:34.000Z</time>
      </trkpt>
      <trkpt lat="49.0194" lon="1.12915">
        <ele>129</ele>
        <time>2013-04-21T10:45:36.000Z</time>
      </trkpt>
      <trkpt lat="49.0194" lon="1.12915">
        <ele>129</ele>
        <time>2013-04-21T10:45:38.000Z</time>
      </trkpt>
      <trkpt lat="49.01949" lon="1.12907">
        <ele>129</ele>
        <time>2013-04-21T10:45:40.000Z</time>
      </trkpt>
      <trkpt lat="49.01949" lon="1.12907">
        <ele>129</ele>
        <time>2013-04-21T10:45:42.000Z</time>
      </trkpt>
      <trkpt lat="49.01958" lon="1.129">
        <ele>129</ele>
        <time>2013-04-21T10:45:44.000Z</time>
      </trkpt>
      <trkpt lat="49.01958" lon="1.129">
        <ele>129</ele>
        <time>2013-04-21T10:45:46.000Z</time>
      </trkpt>
      <trkpt lat="49.01966" lon="1.12893">
        <ele>128</ele>
        <time>2013-04-21T10:45:48.000Z</time>
      </trkpt>
      <trkpt lat="49.01966" lon="1.12893">
        <ele>128</ele>
        <time>2013-04-21T10:45:50.000Z</time>
      </trkpt>
      <trkpt lat="49.01971" lon="1.12888">
        <ele>128</ele>
        <time>2013-04-21T10:45:52.000Z</time>
      </trkpt>
      <trkpt lat="49.01971" lon="1.12888">
        <ele>128</ele>
        <time>2013-04-21T10:45:54.000Z</time>
      </trkpt>
      <trkpt lat="49.01971" lon="1.12888">
        <ele>128</ele>
        <time>2013-04-21T10:45:56.000Z</time>
      </trkpt>
      <trkpt lat="49.01971" lon="1.12888">
        <ele>128</ele>
        <time>2013-04-21T10:45:58.000Z</time>
      </trkpt>
      <trkpt lat="49.01976" lon="1.1288">
        <ele>129</ele>
        <time>2013-04-21T10:46:00.000Z</time>
      </trkpt>
      <trkpt lat="49.01976" lon="1.1288">
        <ele>129</ele>
        <time>2013-04-21T10:46:02.000Z</time>
      </trkpt>
      <trkpt lat="49.01976" lon="1.1288">
        <ele>129</ele>
        <time>2013-04-21T10:46:04.000Z</time>
      </trkpt>
      <trkpt lat="49.01976" lon="1.1288">
        <ele>129</ele>
        <time>2013-04-21T10:46:06.000Z</time>
      </trkpt>
      <trkpt lat="49.01976" lon="1.1288">
        <ele>129</ele>
        <time>2013-04-21T10:46:08.000Z</time>
      </trkpt>
      <trkpt lat="49.01976" lon="1.1288">
        <ele>129</ele>
        <time>2013-04-21T10:46:10.000Z</time>
      </trkpt>
    </trkseg>
  </trk>
</gpx>